<?xml version="1.0" encoding="UTF-8"?>
<gpx version="1.1" creator="RoadTrp.org" xmlns="http://www.topografix.com/GPX/1/1">
<trk><name>Intermediate Trail — Johnston Woods — August 16, 2026</name><trkseg>
<trkpt lat="35.137219" lon="-84.951785"><ele>267.0</ele><time>2026-08-16T18:52:01Z</time></trkpt>
<trkpt lat="35.1372" lon="-84.951825"><ele>267.0</ele><time>2026-08-16T18:52:04Z</time></trkpt>
<trkpt lat="35.137181" lon="-84.951867"><ele>267.0</ele><time>2026-08-16T18:52:07Z</time></trkpt>
<trkpt lat="35.137157" lon="-84.951906"><ele>267.6</ele><time>2026-08-16T18:52:10Z</time></trkpt>
<trkpt lat="35.137147" lon="-84.951938"><ele>267.9</ele><time>2026-08-16T18:52:12Z</time></trkpt>
<trkpt lat="35.137138" lon="-84.951984"><ele>268.2</ele><time>2026-08-16T18:52:15Z</time></trkpt>
<trkpt lat="35.13714" lon="-84.952019"><ele>268.5</ele><time>2026-08-16T18:52:17Z</time></trkpt>
<trkpt lat="35.137138" lon="-84.952053"><ele>268.8</ele><time>2026-08-16T18:52:19Z</time></trkpt>
<trkpt lat="35.137119" lon="-84.95208"><ele>268.8</ele><time>2026-08-16T18:52:21Z</time></trkpt>
<trkpt lat="35.137092" lon="-84.952118"><ele>269.1</ele><time>2026-08-16T18:52:24Z</time></trkpt>
<trkpt lat="35.137072" lon="-84.952141"><ele>269.4</ele><time>2026-08-16T18:52:26Z</time></trkpt>
<trkpt lat="35.137054" lon="-84.952168"><ele>269.7</ele><time>2026-08-16T18:52:28Z</time></trkpt>
<trkpt lat="35.137033" lon="-84.952208"><ele>270.4</ele><time>2026-08-16T18:52:31Z</time></trkpt>
<trkpt lat="35.137025" lon="-84.952257"><ele>271.3</ele><time>2026-08-16T18:52:34Z</time></trkpt>
<trkpt lat="35.13701" lon="-84.952286"><ele>271.6</ele><time>2026-08-16T18:52:36Z</time></trkpt>
<trkpt lat="35.136986" lon="-84.952326"><ele>272.5</ele><time>2026-08-16T18:52:39Z</time></trkpt>
<trkpt lat="35.136966" lon="-84.952366"><ele>273.1</ele><time>2026-08-16T18:52:42Z</time></trkpt>
<trkpt lat="35.136935" lon="-84.952393"><ele>273.7</ele><time>2026-08-16T18:52:45Z</time></trkpt>
<trkpt lat="35.136906" lon="-84.952416"><ele>274.3</ele><time>2026-08-16T18:52:48Z</time></trkpt>
<trkpt lat="35.136869" lon="-84.952431"><ele>274.6</ele><time>2026-08-16T18:52:51Z</time></trkpt>
<trkpt lat="35.136831" lon="-84.952444"><ele>274.9</ele><time>2026-08-16T18:52:54Z</time></trkpt>
<trkpt lat="35.136803" lon="-84.952451"><ele>275.2</ele><time>2026-08-16T18:52:56Z</time></trkpt>
<trkpt lat="35.13677" lon="-84.952464"><ele>275.2</ele><time>2026-08-16T18:52:59Z</time></trkpt>
<trkpt lat="35.136739" lon="-84.952484"><ele>275.2</ele><time>2026-08-16T18:53:02Z</time></trkpt>
<trkpt lat="35.136704" lon="-84.952496"><ele>275.2</ele><time>2026-08-16T18:53:05Z</time></trkpt>
<trkpt lat="35.136663" lon="-84.952503"><ele>274.9</ele><time>2026-08-16T18:53:08Z</time></trkpt>
<trkpt lat="35.136633" lon="-84.952526"><ele>274.9</ele><time>2026-08-16T18:53:11Z</time></trkpt>
<trkpt lat="35.136602" lon="-84.952552"><ele>274.9</ele><time>2026-08-16T18:53:14Z</time></trkpt>
<trkpt lat="35.136585" lon="-84.95258"><ele>274.9</ele><time>2026-08-16T18:53:16Z</time></trkpt>
<trkpt lat="35.136569" lon="-84.952609"><ele>275.2</ele><time>2026-08-16T18:53:18Z</time></trkpt>
<trkpt lat="35.13654" lon="-84.95264"><ele>274.9</ele><time>2026-08-16T18:53:21Z</time></trkpt>
<trkpt lat="35.136507" lon="-84.95266"><ele>274.9</ele><time>2026-08-16T18:53:24Z</time></trkpt>
<trkpt lat="35.13647" lon="-84.952673"><ele>274.9</ele><time>2026-08-16T18:53:27Z</time></trkpt>
<trkpt lat="35.13644" lon="-84.952674"><ele>274.6</ele><time>2026-08-16T18:53:29Z</time></trkpt>
<trkpt lat="35.136412" lon="-84.952675"><ele>274.6</ele><time>2026-08-16T18:53:31Z</time></trkpt>
<trkpt lat="35.136376" lon="-84.95269"><ele>274.3</ele><time>2026-08-16T18:53:34Z</time></trkpt>
<trkpt lat="35.136339" lon="-84.952708"><ele>274.0</ele><time>2026-08-16T18:53:37Z</time></trkpt>
<trkpt lat="35.136301" lon="-84.952726"><ele>273.7</ele><time>2026-08-16T18:53:40Z</time></trkpt>
<trkpt lat="35.136278" lon="-84.952744"><ele>273.7</ele><time>2026-08-16T18:53:42Z</time></trkpt>
<trkpt lat="35.136239" lon="-84.952756"><ele>273.7</ele><time>2026-08-16T18:53:45Z</time></trkpt>
<trkpt lat="35.136215" lon="-84.952775"><ele>273.7</ele><time>2026-08-16T18:53:47Z</time></trkpt>
<trkpt lat="35.136195" lon="-84.952799"><ele>273.7</ele><time>2026-08-16T18:53:49Z</time></trkpt>
<trkpt lat="35.13616" lon="-84.952822"><ele>273.7</ele><time>2026-08-16T18:53:52Z</time></trkpt>
<trkpt lat="35.136133" lon="-84.952836"><ele>273.7</ele><time>2026-08-16T18:53:54Z</time></trkpt>
<trkpt lat="35.136108" lon="-84.952851"><ele>273.7</ele><time>2026-08-16T18:53:56Z</time></trkpt>
<trkpt lat="35.136071" lon="-84.952871"><ele>273.7</ele><time>2026-08-16T18:53:59Z</time></trkpt>
<trkpt lat="35.13604" lon="-84.952902"><ele>273.4</ele><time>2026-08-16T18:54:02Z</time></trkpt>
<trkpt lat="35.136019" lon="-84.952941"><ele>273.4</ele><time>2026-08-16T18:54:05Z</time></trkpt>
<trkpt lat="35.136009" lon="-84.952986"><ele>273.1</ele><time>2026-08-16T18:54:08Z</time></trkpt>
<trkpt lat="35.136018" lon="-84.953035"><ele>272.8</ele><time>2026-08-16T18:54:11Z</time></trkpt>
<trkpt lat="35.136036" lon="-84.953066"><ele>272.8</ele><time>2026-08-16T18:54:13Z</time></trkpt>
<trkpt lat="35.136052" lon="-84.953094"><ele>272.8</ele><time>2026-08-16T18:54:15Z</time></trkpt>
<trkpt lat="35.136072" lon="-84.953117"><ele>272.8</ele><time>2026-08-16T18:54:17Z</time></trkpt>
<trkpt lat="35.136093" lon="-84.953139"><ele>272.8</ele><time>2026-08-16T18:54:19Z</time></trkpt>
<trkpt lat="35.136129" lon="-84.953166"><ele>272.8</ele><time>2026-08-16T18:54:22Z</time></trkpt>
<trkpt lat="35.136158" lon="-84.953181"><ele>272.8</ele><time>2026-08-16T18:54:24Z</time></trkpt>
<trkpt lat="35.136184" lon="-84.953199"><ele>272.5</ele><time>2026-08-16T18:54:26Z</time></trkpt>
<trkpt lat="35.136191" lon="-84.953235"><ele>272.5</ele><time>2026-08-16T18:54:28Z</time></trkpt>
<trkpt lat="35.136184" lon="-84.953273"><ele>272.5</ele><time>2026-08-16T18:54:30Z</time></trkpt>
<trkpt lat="35.13617" lon="-84.953305"><ele>272.5</ele><time>2026-08-16T18:54:32Z</time></trkpt>
<trkpt lat="35.136136" lon="-84.953328"><ele>272.8</ele><time>2026-08-16T18:54:35Z</time></trkpt>
<trkpt lat="35.13611" lon="-84.953337"><ele>272.8</ele><time>2026-08-16T18:54:37Z</time></trkpt>
<trkpt lat="35.136081" lon="-84.95334"><ele>273.1</ele><time>2026-08-16T18:54:39Z</time></trkpt>
<trkpt lat="35.136051" lon="-84.95334"><ele>273.1</ele><time>2026-08-16T18:54:41Z</time></trkpt>
<trkpt lat="35.136023" lon="-84.953342"><ele>273.4</ele><time>2026-08-16T18:54:43Z</time></trkpt>
<trkpt lat="35.135995" lon="-84.953354"><ele>273.1</ele><time>2026-08-16T18:54:45Z</time></trkpt>
<trkpt lat="35.135966" lon="-84.953365"><ele>273.1</ele><time>2026-08-16T18:54:47Z</time></trkpt>
<trkpt lat="35.135944" lon="-84.953388"><ele>273.4</ele><time>2026-08-16T18:54:49Z</time></trkpt>
<trkpt lat="35.135927" lon="-84.953432"><ele>273.7</ele><time>2026-08-16T18:54:52Z</time></trkpt>
<trkpt lat="35.135926" lon="-84.953478"><ele>273.7</ele><time>2026-08-16T18:54:55Z</time></trkpt>
<trkpt lat="35.135931" lon="-84.953513"><ele>274.0</ele><time>2026-08-16T18:54:57Z</time></trkpt>
<trkpt lat="35.135946" lon="-84.953546"><ele>273.7</ele><time>2026-08-16T18:54:59Z</time></trkpt>
<trkpt lat="35.135971" lon="-84.953569"><ele>273.7</ele><time>2026-08-16T18:55:01Z</time></trkpt>
<trkpt lat="35.136005" lon="-84.953596"><ele>273.7</ele><time>2026-08-16T18:55:04Z</time></trkpt>
<trkpt lat="35.136036" lon="-84.953625"><ele>274.0</ele><time>2026-08-16T18:55:07Z</time></trkpt>
<trkpt lat="35.13607" lon="-84.953655"><ele>274.0</ele><time>2026-08-16T18:55:10Z</time></trkpt>
<trkpt lat="35.136096" lon="-84.953691"><ele>274.3</ele><time>2026-08-16T18:55:13Z</time></trkpt>
<trkpt lat="35.136123" lon="-84.953725"><ele>274.3</ele><time>2026-08-16T18:55:16Z</time></trkpt>
<trkpt lat="35.136125" lon="-84.953775"><ele>274.6</ele><time>2026-08-16T18:55:19Z</time></trkpt>
<trkpt lat="35.136105" lon="-84.953798"><ele>274.3</ele><time>2026-08-16T18:55:21Z</time></trkpt>
<trkpt lat="35.136072" lon="-84.953822"><ele>274.3</ele><time>2026-08-16T18:55:24Z</time></trkpt>
<trkpt lat="35.136055" lon="-84.953861"><ele>274.0</ele><time>2026-08-16T18:55:27Z</time></trkpt>
<trkpt lat="35.136037" lon="-84.953896"><ele>274.3</ele><time>2026-08-16T18:55:30Z</time></trkpt>
<trkpt lat="35.136013" lon="-84.953916"><ele>274.3</ele><time>2026-08-16T18:55:32Z</time></trkpt>
<trkpt lat="35.135983" lon="-84.953916"><ele>274.3</ele><time>2026-08-16T18:55:34Z</time></trkpt>
<trkpt lat="35.135955" lon="-84.953906"><ele>274.3</ele><time>2026-08-16T18:55:36Z</time></trkpt>
<trkpt lat="35.135929" lon="-84.953891"><ele>274.3</ele><time>2026-08-16T18:55:38Z</time></trkpt>
<trkpt lat="35.135897" lon="-84.953873"><ele>274.3</ele><time>2026-08-16T18:55:41Z</time></trkpt>
<trkpt lat="35.135863" lon="-84.953852"><ele>274.3</ele><time>2026-08-16T18:55:44Z</time></trkpt>
<trkpt lat="35.135824" lon="-84.953841"><ele>274.0</ele><time>2026-08-16T18:55:47Z</time></trkpt>
<trkpt lat="35.135784" lon="-84.953836"><ele>273.7</ele><time>2026-08-16T18:55:50Z</time></trkpt>
<trkpt lat="35.135743" lon="-84.953844"><ele>273.7</ele><time>2026-08-16T18:55:53Z</time></trkpt>
<trkpt lat="35.135704" lon="-84.953833"><ele>273.7</ele><time>2026-08-16T18:55:56Z</time></trkpt>
<trkpt lat="35.135666" lon="-84.953833"><ele>273.7</ele><time>2026-08-16T18:55:59Z</time></trkpt>
<trkpt lat="35.135629" lon="-84.953822"><ele>273.4</ele><time>2026-08-16T18:56:02Z</time></trkpt>
<trkpt lat="35.135593" lon="-84.95381"><ele>273.4</ele><time>2026-08-16T18:56:05Z</time></trkpt>
<trkpt lat="35.135566" lon="-84.953819"><ele>273.1</ele><time>2026-08-16T18:56:07Z</time></trkpt>
<trkpt lat="35.135526" lon="-84.953828"><ele>273.1</ele><time>2026-08-16T18:56:10Z</time></trkpt>
<trkpt lat="35.135491" lon="-84.953829"><ele>272.8</ele><time>2026-08-16T18:56:13Z</time></trkpt>
<trkpt lat="35.135454" lon="-84.953821"><ele>273.1</ele><time>2026-08-16T18:56:16Z</time></trkpt>
<trkpt lat="35.135415" lon="-84.953832"><ele>273.1</ele><time>2026-08-16T18:56:19Z</time></trkpt>
<trkpt lat="35.135393" lon="-84.953855"><ele>272.8</ele><time>2026-08-16T18:56:21Z</time></trkpt>
<trkpt lat="35.135374" lon="-84.95388"><ele>272.8</ele><time>2026-08-16T18:56:23Z</time></trkpt>
<trkpt lat="35.135351" lon="-84.95392"><ele>272.8</ele><time>2026-08-16T18:56:26Z</time></trkpt>
<trkpt lat="35.13534" lon="-84.953952"><ele>272.8</ele><time>2026-08-16T18:56:28Z</time></trkpt>
<trkpt lat="35.135342" lon="-84.954002"><ele>272.5</ele><time>2026-08-16T18:56:31Z</time></trkpt>
<trkpt lat="35.135364" lon="-84.954042"><ele>272.5</ele><time>2026-08-16T18:56:34Z</time></trkpt>
<trkpt lat="35.135391" lon="-84.954053"><ele>272.5</ele><time>2026-08-16T18:56:36Z</time></trkpt>
<trkpt lat="35.135422" lon="-84.954058"><ele>272.5</ele><time>2026-08-16T18:56:38Z</time></trkpt>
<trkpt lat="35.135452" lon="-84.954062"><ele>272.5</ele><time>2026-08-16T18:56:40Z</time></trkpt>
<trkpt lat="35.13549" lon="-84.954072"><ele>272.8</ele><time>2026-08-16T18:56:43Z</time></trkpt>
<trkpt lat="35.135531" lon="-84.954083"><ele>272.8</ele><time>2026-08-16T18:56:46Z</time></trkpt>
<trkpt lat="35.135566" lon="-84.954106"><ele>273.1</ele><time>2026-08-16T18:56:49Z</time></trkpt>
<trkpt lat="35.135604" lon="-84.954122"><ele>273.4</ele><time>2026-08-16T18:56:52Z</time></trkpt>
<trkpt lat="35.135628" lon="-84.95414"><ele>273.7</ele><time>2026-08-16T18:56:54Z</time></trkpt>
<trkpt lat="35.135654" lon="-84.954151"><ele>274.0</ele><time>2026-08-16T18:56:56Z</time></trkpt>
<trkpt lat="35.135685" lon="-84.954176"><ele>274.3</ele><time>2026-08-16T18:56:59Z</time></trkpt>
<trkpt lat="35.135719" lon="-84.954193"><ele>274.6</ele><time>2026-08-16T18:57:02Z</time></trkpt>
<trkpt lat="35.135747" lon="-84.954193"><ele>274.9</ele><time>2026-08-16T18:57:04Z</time></trkpt>
<trkpt lat="35.135776" lon="-84.954196"><ele>275.2</ele><time>2026-08-16T18:57:06Z</time></trkpt>
<trkpt lat="35.135816" lon="-84.954193"><ele>275.5</ele><time>2026-08-16T18:57:09Z</time></trkpt>
<trkpt lat="35.135854" lon="-84.954202"><ele>275.8</ele><time>2026-08-16T18:57:12Z</time></trkpt>
<trkpt lat="35.135892" lon="-84.954215"><ele>276.1</ele><time>2026-08-16T18:57:15Z</time></trkpt>
<trkpt lat="35.135925" lon="-84.954232"><ele>275.8</ele><time>2026-08-16T18:57:18Z</time></trkpt>
<trkpt lat="35.135962" lon="-84.954255"><ele>275.5</ele><time>2026-08-16T18:57:21Z</time></trkpt>
<trkpt lat="35.135999" lon="-84.954277"><ele>275.2</ele><time>2026-08-16T18:57:24Z</time></trkpt>
<trkpt lat="35.136027" lon="-84.954284"><ele>275.2</ele><time>2026-08-16T18:57:26Z</time></trkpt>
<trkpt lat="35.136056" lon="-84.95427"><ele>275.2</ele><time>2026-08-16T18:57:28Z</time></trkpt>
<trkpt lat="35.136097" lon="-84.954267"><ele>275.2</ele><time>2026-08-16T18:57:31Z</time></trkpt>
<trkpt lat="35.136122" lon="-84.954279"><ele>275.2</ele><time>2026-08-16T18:57:33Z</time></trkpt>
<trkpt lat="35.136138" lon="-84.954308"><ele>275.2</ele><time>2026-08-16T18:57:35Z</time></trkpt>
<trkpt lat="35.13615" lon="-84.954349"><ele>275.2</ele><time>2026-08-16T18:57:38Z</time></trkpt>
<trkpt lat="35.136154" lon="-84.9544"><ele>275.2</ele><time>2026-08-16T18:57:41Z</time></trkpt>
<trkpt lat="35.136141" lon="-84.954434"><ele>274.9</ele><time>2026-08-16T18:57:43Z</time></trkpt>
<trkpt lat="35.136112" lon="-84.95447"><ele>274.6</ele><time>2026-08-16T18:57:46Z</time></trkpt>
<trkpt lat="35.136081" lon="-84.954475"><ele>274.3</ele><time>2026-08-16T18:57:48Z</time></trkpt>
<trkpt lat="35.136054" lon="-84.954449"><ele>274.0</ele><time>2026-08-16T18:57:50Z</time></trkpt>
<trkpt lat="35.136033" lon="-84.954415"><ele>274.0</ele><time>2026-08-16T18:57:52Z</time></trkpt>
<trkpt lat="35.136011" lon="-84.95439"><ele>274.0</ele><time>2026-08-16T18:57:54Z</time></trkpt>
<trkpt lat="35.13598" lon="-84.954382"><ele>274.0</ele><time>2026-08-16T18:57:56Z</time></trkpt>
<trkpt lat="35.135949" lon="-84.954383"><ele>274.0</ele><time>2026-08-16T18:57:58Z</time></trkpt>
<trkpt lat="35.135914" lon="-84.954409"><ele>274.0</ele><time>2026-08-16T18:58:01Z</time></trkpt>
<trkpt lat="35.135889" lon="-84.954424"><ele>274.0</ele><time>2026-08-16T18:58:03Z</time></trkpt>
<trkpt lat="35.13585" lon="-84.954432"><ele>273.7</ele><time>2026-08-16T18:58:06Z</time></trkpt>
<trkpt lat="35.135811" lon="-84.954438"><ele>273.7</ele><time>2026-08-16T18:58:09Z</time></trkpt>
<trkpt lat="35.135781" lon="-84.954429"><ele>273.7</ele><time>2026-08-16T18:58:11Z</time></trkpt>
<trkpt lat="35.135752" lon="-84.954423"><ele>273.7</ele><time>2026-08-16T18:58:13Z</time></trkpt>
<trkpt lat="35.135718" lon="-84.954404"><ele>273.4</ele><time>2026-08-16T18:58:16Z</time></trkpt>
<trkpt lat="35.135683" lon="-84.954387"><ele>273.4</ele><time>2026-08-16T18:58:19Z</time></trkpt>
<trkpt lat="35.135651" lon="-84.954368"><ele>273.7</ele><time>2026-08-16T18:58:22Z</time></trkpt>
<trkpt lat="35.135619" lon="-84.954345"><ele>273.4</ele><time>2026-08-16T18:58:25Z</time></trkpt>
<trkpt lat="35.135585" lon="-84.954319"><ele>273.1</ele><time>2026-08-16T18:58:28Z</time></trkpt>
<trkpt lat="35.135562" lon="-84.954301"><ele>273.1</ele><time>2026-08-16T18:58:30Z</time></trkpt>
<trkpt lat="35.135535" lon="-84.954289"><ele>272.8</ele><time>2026-08-16T18:58:32Z</time></trkpt>
<trkpt lat="35.135509" lon="-84.954276"><ele>272.5</ele><time>2026-08-16T18:58:34Z</time></trkpt>
<trkpt lat="35.135482" lon="-84.954267"><ele>272.2</ele><time>2026-08-16T18:58:36Z</time></trkpt>
<trkpt lat="35.135444" lon="-84.95426"><ele>271.9</ele><time>2026-08-16T18:58:39Z</time></trkpt>
<trkpt lat="35.135419" lon="-84.954297"><ele>271.6</ele><time>2026-08-16T18:58:42Z</time></trkpt>
<trkpt lat="35.13543" lon="-84.954336"><ele>271.3</ele><time>2026-08-16T18:58:44Z</time></trkpt>
<trkpt lat="35.135446" lon="-84.954369"><ele>271.0</ele><time>2026-08-16T18:58:46Z</time></trkpt>
<trkpt lat="35.13547" lon="-84.954394"><ele>271.0</ele><time>2026-08-16T18:58:48Z</time></trkpt>
<trkpt lat="35.135494" lon="-84.954412"><ele>271.0</ele><time>2026-08-16T18:58:50Z</time></trkpt>
<trkpt lat="35.135521" lon="-84.95443"><ele>271.0</ele><time>2026-08-16T18:58:52Z</time></trkpt>
<trkpt lat="35.135545" lon="-84.954449"><ele>271.0</ele><time>2026-08-16T18:58:54Z</time></trkpt>
<trkpt lat="35.135572" lon="-84.95447"><ele>271.3</ele><time>2026-08-16T18:58:56Z</time></trkpt>
<trkpt lat="35.135598" lon="-84.954487"><ele>271.3</ele><time>2026-08-16T18:58:58Z</time></trkpt>
<trkpt lat="35.135623" lon="-84.954501"><ele>271.0</ele><time>2026-08-16T18:59:00Z</time></trkpt>
<trkpt lat="35.135651" lon="-84.954514"><ele>271.0</ele><time>2026-08-16T18:59:02Z</time></trkpt>
<trkpt lat="35.135681" lon="-84.954528"><ele>271.0</ele><time>2026-08-16T18:59:04Z</time></trkpt>
<trkpt lat="35.135711" lon="-84.954544"><ele>270.7</ele><time>2026-08-16T18:59:06Z</time></trkpt>
<trkpt lat="35.135737" lon="-84.954562"><ele>270.7</ele><time>2026-08-16T18:59:08Z</time></trkpt>
<trkpt lat="35.13576" lon="-84.954583"><ele>270.4</ele><time>2026-08-16T18:59:10Z</time></trkpt>
<trkpt lat="35.135782" lon="-84.954605"><ele>270.4</ele><time>2026-08-16T18:59:12Z</time></trkpt>
<trkpt lat="35.135815" lon="-84.954637"><ele>270.1</ele><time>2026-08-16T18:59:15Z</time></trkpt>
<trkpt lat="35.135837" lon="-84.954677"><ele>269.7</ele><time>2026-08-16T18:59:18Z</time></trkpt>
<trkpt lat="35.135829" lon="-84.954712"><ele>269.1</ele><time>2026-08-16T18:59:20Z</time></trkpt>
<trkpt lat="35.135805" lon="-84.954731"><ele>268.8</ele><time>2026-08-16T18:59:22Z</time></trkpt>
<trkpt lat="35.13577" lon="-84.954725"><ele>268.2</ele><time>2026-08-16T18:59:24Z</time></trkpt>
<trkpt lat="35.135739" lon="-84.954685"><ele>268.2</ele><time>2026-08-16T18:59:26Z</time></trkpt>
<trkpt lat="35.135714" lon="-84.954657"><ele>267.9</ele><time>2026-08-16T18:59:28Z</time></trkpt>
<trkpt lat="35.135681" lon="-84.954648"><ele>267.9</ele><time>2026-08-16T18:59:30Z</time></trkpt>
<trkpt lat="35.135653" lon="-84.954679"><ele>268.2</ele><time>2026-08-16T18:59:33Z</time></trkpt>
<trkpt lat="35.135654" lon="-84.954716"><ele>268.2</ele><time>2026-08-16T18:59:35Z</time></trkpt>
<trkpt lat="35.135646" lon="-84.954762"><ele>268.5</ele><time>2026-08-16T18:59:38Z</time></trkpt>
<trkpt lat="35.135641" lon="-84.954812"><ele>268.5</ele><time>2026-08-16T18:59:41Z</time></trkpt>
<trkpt lat="35.135631" lon="-84.954843"><ele>268.5</ele><time>2026-08-16T18:59:43Z</time></trkpt>
<trkpt lat="35.135607" lon="-84.954862"><ele>268.5</ele><time>2026-08-16T18:59:45Z</time></trkpt>
<trkpt lat="35.135579" lon="-84.954862"><ele>268.2</ele><time>2026-08-16T18:59:47Z</time></trkpt>
<trkpt lat="35.135543" lon="-84.954879"><ele>268.2</ele><time>2026-08-16T18:59:50Z</time></trkpt>
<trkpt lat="35.135519" lon="-84.954914"><ele>268.2</ele><time>2026-08-16T18:59:53Z</time></trkpt>
<trkpt lat="35.135498" lon="-84.954934"><ele>268.2</ele><time>2026-08-16T18:59:55Z</time></trkpt>
<trkpt lat="35.135458" lon="-84.954939"><ele>268.5</ele><time>2026-08-16T18:59:58Z</time></trkpt>
<trkpt lat="35.13543" lon="-84.954936"><ele>268.5</ele><time>2026-08-16T19:00:00Z</time></trkpt>
<trkpt lat="35.135395" lon="-84.954929"><ele>268.5</ele><time>2026-08-16T19:00:03Z</time></trkpt>
<trkpt lat="35.135357" lon="-84.954925"><ele>268.8</ele><time>2026-08-16T19:00:06Z</time></trkpt>
<trkpt lat="35.135319" lon="-84.95492"><ele>268.8</ele><time>2026-08-16T19:00:09Z</time></trkpt>
<trkpt lat="35.135291" lon="-84.954927"><ele>269.1</ele><time>2026-08-16T19:00:11Z</time></trkpt>
<trkpt lat="35.135275" lon="-84.954957"><ele>269.1</ele><time>2026-08-16T19:00:13Z</time></trkpt>
<trkpt lat="35.135261" lon="-84.954987"><ele>269.4</ele><time>2026-08-16T19:00:15Z</time></trkpt>
<trkpt lat="35.13523" lon="-84.955016"><ele>269.4</ele><time>2026-08-16T19:00:18Z</time></trkpt>
<trkpt lat="35.135198" lon="-84.955008"><ele>269.4</ele><time>2026-08-16T19:00:21Z</time></trkpt>
<trkpt lat="35.135177" lon="-84.954967"><ele>269.4</ele><time>2026-08-16T19:00:24Z</time></trkpt>
<trkpt lat="35.135156" lon="-84.954929"><ele>269.1</ele><time>2026-08-16T19:00:27Z</time></trkpt>
<trkpt lat="35.135141" lon="-84.9549"><ele>268.8</ele><time>2026-08-16T19:00:29Z</time></trkpt>
<trkpt lat="35.135115" lon="-84.954876"><ele>268.5</ele><time>2026-08-16T19:00:32Z</time></trkpt>
<trkpt lat="35.13508" lon="-84.954853"><ele>268.5</ele><time>2026-08-16T19:00:35Z</time></trkpt>
<trkpt lat="35.135043" lon="-84.954838"><ele>268.5</ele><time>2026-08-16T19:00:38Z</time></trkpt>
<trkpt lat="35.135003" lon="-84.954828"><ele>268.5</ele><time>2026-08-16T19:00:41Z</time></trkpt>
<trkpt lat="35.134976" lon="-84.954815"><ele>268.5</ele><time>2026-08-16T19:00:43Z</time></trkpt>
<trkpt lat="35.134938" lon="-84.954801"><ele>268.5</ele><time>2026-08-16T19:00:46Z</time></trkpt>
<trkpt lat="35.13491" lon="-84.9548"><ele>268.2</ele><time>2026-08-16T19:00:48Z</time></trkpt>
<trkpt lat="35.134869" lon="-84.954796"><ele>267.9</ele><time>2026-08-16T19:00:51Z</time></trkpt>
<trkpt lat="35.13484" lon="-84.954805"><ele>267.9</ele><time>2026-08-16T19:00:53Z</time></trkpt>
<trkpt lat="35.134813" lon="-84.954821"><ele>267.9</ele><time>2026-08-16T19:00:55Z</time></trkpt>
<trkpt lat="35.134786" lon="-84.954828"><ele>267.9</ele><time>2026-08-16T19:00:57Z</time></trkpt>
<trkpt lat="35.134748" lon="-84.954847"><ele>267.9</ele><time>2026-08-16T19:01:00Z</time></trkpt>
<trkpt lat="35.134723" lon="-84.95486"><ele>267.9</ele><time>2026-08-16T19:01:02Z</time></trkpt>
<trkpt lat="35.134696" lon="-84.95487"><ele>267.9</ele><time>2026-08-16T19:01:04Z</time></trkpt>
<trkpt lat="35.134657" lon="-84.954876"><ele>267.9</ele><time>2026-08-16T19:01:07Z</time></trkpt>
<trkpt lat="35.134614" lon="-84.954881"><ele>268.2</ele><time>2026-08-16T19:01:10Z</time></trkpt>
<trkpt lat="35.134585" lon="-84.954872"><ele>268.2</ele><time>2026-08-16T19:01:12Z</time></trkpt>
<trkpt lat="35.134548" lon="-84.954869"><ele>268.2</ele><time>2026-08-16T19:01:15Z</time></trkpt>
<trkpt lat="35.134512" lon="-84.954873"><ele>268.5</ele><time>2026-08-16T19:01:18Z</time></trkpt>
<trkpt lat="35.134479" lon="-84.954878"><ele>268.5</ele><time>2026-08-16T19:01:21Z</time></trkpt>
<trkpt lat="35.134442" lon="-84.954897"><ele>268.8</ele><time>2026-08-16T19:01:24Z</time></trkpt>
<trkpt lat="35.134403" lon="-84.9549"><ele>269.1</ele><time>2026-08-16T19:01:27Z</time></trkpt>
<trkpt lat="35.134375" lon="-84.954899"><ele>269.4</ele><time>2026-08-16T19:01:29Z</time></trkpt>
<trkpt lat="35.134336" lon="-84.954892"><ele>269.7</ele><time>2026-08-16T19:01:32Z</time></trkpt>
<trkpt lat="35.13431" lon="-84.954907"><ele>269.4</ele><time>2026-08-16T19:01:34Z</time></trkpt>
<trkpt lat="35.134301" lon="-84.954939"><ele>269.7</ele><time>2026-08-16T19:01:36Z</time></trkpt>
<trkpt lat="35.134327" lon="-84.954973"><ele>270.1</ele><time>2026-08-16T19:01:38Z</time></trkpt>
<trkpt lat="35.134358" lon="-84.95499"><ele>270.4</ele><time>2026-08-16T19:01:40Z</time></trkpt>
<trkpt lat="35.134381" lon="-84.955012"><ele>270.7</ele><time>2026-08-16T19:01:42Z</time></trkpt>
<trkpt lat="35.134416" lon="-84.955039"><ele>271.0</ele><time>2026-08-16T19:01:45Z</time></trkpt>
<trkpt lat="35.134439" lon="-84.955065"><ele>271.3</ele><time>2026-08-16T19:01:47Z</time></trkpt>
<trkpt lat="35.134463" lon="-84.955084"><ele>271.6</ele><time>2026-08-16T19:01:49Z</time></trkpt>
<trkpt lat="35.134484" lon="-84.95511"><ele>271.6</ele><time>2026-08-16T19:01:51Z</time></trkpt>
<trkpt lat="35.134505" lon="-84.955133"><ele>271.6</ele><time>2026-08-16T19:01:53Z</time></trkpt>
<trkpt lat="35.13453" lon="-84.95515"><ele>271.6</ele><time>2026-08-16T19:01:55Z</time></trkpt>
<trkpt lat="35.134569" lon="-84.955144"><ele>271.9</ele><time>2026-08-16T19:01:58Z</time></trkpt>
<trkpt lat="35.134596" lon="-84.955132"><ele>271.9</ele><time>2026-08-16T19:02:00Z</time></trkpt>
<trkpt lat="35.134619" lon="-84.955111"><ele>272.2</ele><time>2026-08-16T19:02:02Z</time></trkpt>
<trkpt lat="35.134641" lon="-84.955091"><ele>272.2</ele><time>2026-08-16T19:02:04Z</time></trkpt>
<trkpt lat="35.134667" lon="-84.95508"><ele>272.2</ele><time>2026-08-16T19:02:06Z</time></trkpt>
<trkpt lat="35.134694" lon="-84.955072"><ele>272.5</ele><time>2026-08-16T19:02:08Z</time></trkpt>
<trkpt lat="35.134721" lon="-84.955069"><ele>272.8</ele><time>2026-08-16T19:02:10Z</time></trkpt>
<trkpt lat="35.134759" lon="-84.955068"><ele>273.1</ele><time>2026-08-16T19:02:13Z</time></trkpt>
<trkpt lat="35.1348" lon="-84.955071"><ele>273.1</ele><time>2026-08-16T19:02:16Z</time></trkpt>
<trkpt lat="35.134836" lon="-84.95508"><ele>273.4</ele><time>2026-08-16T19:02:19Z</time></trkpt>
<trkpt lat="35.134872" lon="-84.955091"><ele>273.7</ele><time>2026-08-16T19:02:22Z</time></trkpt>
<trkpt lat="35.134905" lon="-84.955111"><ele>274.0</ele><time>2026-08-16T19:02:25Z</time></trkpt>
<trkpt lat="35.134934" lon="-84.955138"><ele>274.3</ele><time>2026-08-16T19:02:28Z</time></trkpt>
<trkpt lat="35.134936" lon="-84.955183"><ele>274.6</ele><time>2026-08-16T19:02:31Z</time></trkpt>
<trkpt lat="35.134907" lon="-84.955191"><ele>274.9</ele><time>2026-08-16T19:02:33Z</time></trkpt>
<trkpt lat="35.134879" lon="-84.955177"><ele>274.9</ele><time>2026-08-16T19:02:35Z</time></trkpt>
<trkpt lat="35.134845" lon="-84.95516"><ele>275.2</ele><time>2026-08-16T19:02:38Z</time></trkpt>
<trkpt lat="35.134808" lon="-84.95515"><ele>275.2</ele><time>2026-08-16T19:02:41Z</time></trkpt>
<trkpt lat="35.134768" lon="-84.955151"><ele>275.2</ele><time>2026-08-16T19:02:44Z</time></trkpt>
<trkpt lat="35.134741" lon="-84.955159"><ele>275.2</ele><time>2026-08-16T19:02:46Z</time></trkpt>
<trkpt lat="35.13471" lon="-84.955187"><ele>274.9</ele><time>2026-08-16T19:02:49Z</time></trkpt>
<trkpt lat="35.134696" lon="-84.955216"><ele>274.9</ele><time>2026-08-16T19:02:51Z</time></trkpt>
<trkpt lat="35.134683" lon="-84.955247"><ele>274.9</ele><time>2026-08-16T19:02:53Z</time></trkpt>
<trkpt lat="35.134672" lon="-84.955279"><ele>274.9</ele><time>2026-08-16T19:02:55Z</time></trkpt>
<trkpt lat="35.134649" lon="-84.955317"><ele>274.9</ele><time>2026-08-16T19:02:58Z</time></trkpt>
<trkpt lat="35.13461" lon="-84.955326"><ele>274.9</ele><time>2026-08-16T19:03:01Z</time></trkpt>
<trkpt lat="35.134575" lon="-84.955314"><ele>274.9</ele><time>2026-08-16T19:03:04Z</time></trkpt>
<trkpt lat="35.13454" lon="-84.955306"><ele>274.9</ele><time>2026-08-16T19:03:07Z</time></trkpt>
<trkpt lat="35.134505" lon="-84.955305"><ele>274.9</ele><time>2026-08-16T19:03:10Z</time></trkpt>
<trkpt lat="35.134479" lon="-84.955295"><ele>274.9</ele><time>2026-08-16T19:03:12Z</time></trkpt>
<trkpt lat="35.13444" lon="-84.955284"><ele>274.9</ele><time>2026-08-16T19:03:15Z</time></trkpt>
<trkpt lat="35.134413" lon="-84.955292"><ele>274.9</ele><time>2026-08-16T19:03:17Z</time></trkpt>
<trkpt lat="35.134379" lon="-84.955314"><ele>274.9</ele><time>2026-08-16T19:03:20Z</time></trkpt>
<trkpt lat="35.134357" lon="-84.955355"><ele>274.9</ele><time>2026-08-16T19:03:23Z</time></trkpt>
<trkpt lat="35.134353" lon="-84.95539"><ele>274.9</ele><time>2026-08-16T19:03:25Z</time></trkpt>
<trkpt lat="35.134364" lon="-84.955427"><ele>274.9</ele><time>2026-08-16T19:03:27Z</time></trkpt>
<trkpt lat="35.134379" lon="-84.955459"><ele>274.9</ele><time>2026-08-16T19:03:29Z</time></trkpt>
<trkpt lat="35.13439" lon="-84.955492"><ele>275.2</ele><time>2026-08-16T19:03:31Z</time></trkpt>
<trkpt lat="35.134398" lon="-84.955527"><ele>275.5</ele><time>2026-08-16T19:03:33Z</time></trkpt>
<trkpt lat="35.134405" lon="-84.955561"><ele>275.5</ele><time>2026-08-16T19:03:35Z</time></trkpt>
<trkpt lat="35.134413" lon="-84.955595"><ele>275.5</ele><time>2026-08-16T19:03:37Z</time></trkpt>
<trkpt lat="35.134421" lon="-84.955628"><ele>275.5</ele><time>2026-08-16T19:03:39Z</time></trkpt>
<trkpt lat="35.134437" lon="-84.955661"><ele>275.5</ele><time>2026-08-16T19:03:41Z</time></trkpt>
<trkpt lat="35.134456" lon="-84.955686"><ele>275.2</ele><time>2026-08-16T19:03:43Z</time></trkpt>
<trkpt lat="35.134475" lon="-84.955715"><ele>275.2</ele><time>2026-08-16T19:03:45Z</time></trkpt>
<trkpt lat="35.134494" lon="-84.95574"><ele>275.2</ele><time>2026-08-16T19:03:47Z</time></trkpt>
<trkpt lat="35.13451" lon="-84.955769"><ele>274.9</ele><time>2026-08-16T19:03:49Z</time></trkpt>
<trkpt lat="35.134523" lon="-84.955801"><ele>274.9</ele><time>2026-08-16T19:03:51Z</time></trkpt>
<trkpt lat="35.134537" lon="-84.955845"><ele>274.9</ele><time>2026-08-16T19:03:54Z</time></trkpt>
<trkpt lat="35.13453" lon="-84.955887"><ele>274.9</ele><time>2026-08-16T19:03:57Z</time></trkpt>
<trkpt lat="35.13451" lon="-84.955913"><ele>275.2</ele><time>2026-08-16T19:03:59Z</time></trkpt>
<trkpt lat="35.134488" lon="-84.955938"><ele>275.5</ele><time>2026-08-16T19:04:01Z</time></trkpt>
<trkpt lat="35.134465" lon="-84.955957"><ele>275.8</ele><time>2026-08-16T19:04:03Z</time></trkpt>
<trkpt lat="35.134437" lon="-84.95597"><ele>276.1</ele><time>2026-08-16T19:04:05Z</time></trkpt>
<trkpt lat="35.134406" lon="-84.955977"><ele>276.5</ele><time>2026-08-16T19:04:07Z</time></trkpt>
<trkpt lat="35.134378" lon="-84.955987"><ele>276.5</ele><time>2026-08-16T19:04:09Z</time></trkpt>
<trkpt lat="35.134348" lon="-84.95598"><ele>276.8</ele><time>2026-08-16T19:04:11Z</time></trkpt>
<trkpt lat="35.134316" lon="-84.955954"><ele>276.8</ele><time>2026-08-16T19:04:14Z</time></trkpt>
<trkpt lat="35.134292" lon="-84.955935"><ele>276.8</ele><time>2026-08-16T19:04:16Z</time></trkpt>
<trkpt lat="35.134255" lon="-84.955922"><ele>276.8</ele><time>2026-08-16T19:04:19Z</time></trkpt>
<trkpt lat="35.134217" lon="-84.955916"><ele>277.1</ele><time>2026-08-16T19:04:22Z</time></trkpt>
<trkpt lat="35.134178" lon="-84.955917"><ele>277.1</ele><time>2026-08-16T19:04:25Z</time></trkpt>
<trkpt lat="35.134151" lon="-84.955925"><ele>277.1</ele><time>2026-08-16T19:04:27Z</time></trkpt>
<trkpt lat="35.134118" lon="-84.955952"><ele>277.4</ele><time>2026-08-16T19:04:30Z</time></trkpt>
<trkpt lat="35.134095" lon="-84.955992"><ele>277.4</ele><time>2026-08-16T19:04:33Z</time></trkpt>
<trkpt lat="35.134089" lon="-84.956038"><ele>277.7</ele><time>2026-08-16T19:04:36Z</time></trkpt>
<trkpt lat="35.13408" lon="-84.956086"><ele>278.0</ele><time>2026-08-16T19:04:39Z</time></trkpt>
<trkpt lat="35.134083" lon="-84.956122"><ele>278.0</ele><time>2026-08-16T19:04:41Z</time></trkpt>
<trkpt lat="35.134091" lon="-84.956156"><ele>278.3</ele><time>2026-08-16T19:04:43Z</time></trkpt>
<trkpt lat="35.134111" lon="-84.956184"><ele>278.3</ele><time>2026-08-16T19:04:45Z</time></trkpt>
<trkpt lat="35.134129" lon="-84.956211"><ele>278.6</ele><time>2026-08-16T19:04:47Z</time></trkpt>
<trkpt lat="35.134146" lon="-84.956238"><ele>278.6</ele><time>2026-08-16T19:04:49Z</time></trkpt>
<trkpt lat="35.13416" lon="-84.956268"><ele>278.6</ele><time>2026-08-16T19:04:51Z</time></trkpt>
<trkpt lat="35.134167" lon="-84.956302"><ele>278.6</ele><time>2026-08-16T19:04:53Z</time></trkpt>
<trkpt lat="35.134165" lon="-84.95634"><ele>278.9</ele><time>2026-08-16T19:04:55Z</time></trkpt>
<trkpt lat="35.134148" lon="-84.956369"><ele>278.9</ele><time>2026-08-16T19:04:57Z</time></trkpt>
<trkpt lat="35.134124" lon="-84.956391"><ele>279.2</ele><time>2026-08-16T19:04:59Z</time></trkpt>
<trkpt lat="35.1341" lon="-84.956407"><ele>279.2</ele><time>2026-08-16T19:05:01Z</time></trkpt>
<trkpt lat="35.134062" lon="-84.956424"><ele>279.5</ele><time>2026-08-16T19:05:04Z</time></trkpt>
<trkpt lat="35.134038" lon="-84.956443"><ele>279.5</ele><time>2026-08-16T19:05:06Z</time></trkpt>
<trkpt lat="35.134015" lon="-84.956464"><ele>279.5</ele><time>2026-08-16T19:05:08Z</time></trkpt>
<trkpt lat="35.134" lon="-84.956506"><ele>279.8</ele><time>2026-08-16T19:05:11Z</time></trkpt>
<trkpt lat="35.134011" lon="-84.956538"><ele>279.8</ele><time>2026-08-16T19:05:13Z</time></trkpt>
<trkpt lat="35.134025" lon="-84.95657"><ele>279.8</ele><time>2026-08-16T19:05:15Z</time></trkpt>
<trkpt lat="35.13404" lon="-84.956604"><ele>279.8</ele><time>2026-08-16T19:05:17Z</time></trkpt>
<trkpt lat="35.134056" lon="-84.956634"><ele>279.8</ele><time>2026-08-16T19:05:19Z</time></trkpt>
<trkpt lat="35.134063" lon="-84.956668"><ele>279.5</ele><time>2026-08-16T19:05:21Z</time></trkpt>
<trkpt lat="35.134072" lon="-84.956701"><ele>279.5</ele><time>2026-08-16T19:05:23Z</time></trkpt>
<trkpt lat="35.134085" lon="-84.956731"><ele>279.5</ele><time>2026-08-16T19:05:25Z</time></trkpt>
<trkpt lat="35.1341" lon="-84.95676"><ele>279.8</ele><time>2026-08-16T19:05:27Z</time></trkpt>
<trkpt lat="35.134119" lon="-84.956785"><ele>279.8</ele><time>2026-08-16T19:05:29Z</time></trkpt>
<trkpt lat="35.134137" lon="-84.956817"><ele>279.8</ele><time>2026-08-16T19:05:31Z</time></trkpt>
<trkpt lat="35.13415" lon="-84.956848"><ele>279.8</ele><time>2026-08-16T19:05:33Z</time></trkpt>
<trkpt lat="35.134163" lon="-84.956879"><ele>279.8</ele><time>2026-08-16T19:05:35Z</time></trkpt>
<trkpt lat="35.13417" lon="-84.956915"><ele>279.8</ele><time>2026-08-16T19:05:37Z</time></trkpt>
<trkpt lat="35.134168" lon="-84.956948"><ele>279.8</ele><time>2026-08-16T19:05:39Z</time></trkpt>
<trkpt lat="35.134161" lon="-84.956988"><ele>279.8</ele><time>2026-08-16T19:05:42Z</time></trkpt>
<trkpt lat="35.134143" lon="-84.957013"><ele>280.1</ele><time>2026-08-16T19:05:44Z</time></trkpt>
<trkpt lat="35.134111" lon="-84.957024"><ele>280.1</ele><time>2026-08-16T19:05:46Z</time></trkpt>
<trkpt lat="35.134075" lon="-84.957027"><ele>280.4</ele><time>2026-08-16T19:05:48Z</time></trkpt>
<trkpt lat="35.134043" lon="-84.95702"><ele>280.7</ele><time>2026-08-16T19:05:50Z</time></trkpt>
<trkpt lat="35.134004" lon="-84.957002"><ele>281.0</ele><time>2026-08-16T19:05:53Z</time></trkpt>
<trkpt lat="35.133976" lon="-84.956997"><ele>281.0</ele><time>2026-08-16T19:05:55Z</time></trkpt>
<trkpt lat="35.133938" lon="-84.957013"><ele>281.0</ele><time>2026-08-16T19:05:58Z</time></trkpt>
<trkpt lat="35.133898" lon="-84.957033"><ele>281.3</ele><time>2026-08-16T19:06:01Z</time></trkpt>
<trkpt lat="35.133871" lon="-84.957045"><ele>281.3</ele><time>2026-08-16T19:06:03Z</time></trkpt>
<trkpt lat="35.133842" lon="-84.957051"><ele>281.6</ele><time>2026-08-16T19:06:05Z</time></trkpt>
<trkpt lat="35.133814" lon="-84.957053"><ele>281.6</ele><time>2026-08-16T19:06:07Z</time></trkpt>
<trkpt lat="35.133789" lon="-84.957073"><ele>281.6</ele><time>2026-08-16T19:06:09Z</time></trkpt>
<trkpt lat="35.13378" lon="-84.957107"><ele>281.6</ele><time>2026-08-16T19:06:11Z</time></trkpt>
<trkpt lat="35.133776" lon="-84.957142"><ele>281.6</ele><time>2026-08-16T19:06:13Z</time></trkpt>
<trkpt lat="35.133782" lon="-84.95719"><ele>281.9</ele><time>2026-08-16T19:06:16Z</time></trkpt>
<trkpt lat="35.133793" lon="-84.957234"><ele>281.9</ele><time>2026-08-16T19:06:19Z</time></trkpt>
<trkpt lat="35.133816" lon="-84.957254"><ele>281.9</ele><time>2026-08-16T19:06:21Z</time></trkpt>
<trkpt lat="35.133844" lon="-84.957262"><ele>281.9</ele><time>2026-08-16T19:06:23Z</time></trkpt>
<trkpt lat="35.133884" lon="-84.95727"><ele>282.2</ele><time>2026-08-16T19:06:26Z</time></trkpt>
<trkpt lat="35.133922" lon="-84.957283"><ele>282.5</ele><time>2026-08-16T19:06:29Z</time></trkpt>
<trkpt lat="35.133962" lon="-84.957293"><ele>282.9</ele><time>2026-08-16T19:06:32Z</time></trkpt>
<trkpt lat="35.133997" lon="-84.957309"><ele>282.9</ele><time>2026-08-16T19:06:35Z</time></trkpt>
<trkpt lat="35.134028" lon="-84.957327"><ele>283.2</ele><time>2026-08-16T19:06:38Z</time></trkpt>
<trkpt lat="35.13405" lon="-84.957348"><ele>283.2</ele><time>2026-08-16T19:06:40Z</time></trkpt>
<trkpt lat="35.134072" lon="-84.957375"><ele>283.5</ele><time>2026-08-16T19:06:42Z</time></trkpt>
<trkpt lat="35.134095" lon="-84.9574"><ele>283.5</ele><time>2026-08-16T19:06:44Z</time></trkpt>
<trkpt lat="35.134117" lon="-84.957422"><ele>283.8</ele><time>2026-08-16T19:06:46Z</time></trkpt>
<trkpt lat="35.134135" lon="-84.957462"><ele>283.8</ele><time>2026-08-16T19:06:49Z</time></trkpt>
<trkpt lat="35.134148" lon="-84.957493"><ele>284.1</ele><time>2026-08-16T19:06:51Z</time></trkpt>
<trkpt lat="35.134142" lon="-84.95753"><ele>284.4</ele><time>2026-08-16T19:06:53Z</time></trkpt>
<trkpt lat="35.134138" lon="-84.957579"><ele>284.7</ele><time>2026-08-16T19:06:56Z</time></trkpt>
<trkpt lat="35.134136" lon="-84.957622"><ele>285.0</ele><time>2026-08-16T19:06:59Z</time></trkpt>
<trkpt lat="35.134124" lon="-84.957667"><ele>285.3</ele><time>2026-08-16T19:07:02Z</time></trkpt>
<trkpt lat="35.134104" lon="-84.957706"><ele>285.0</ele><time>2026-08-16T19:07:05Z</time></trkpt>
<trkpt lat="35.134073" lon="-84.957737"><ele>285.0</ele><time>2026-08-16T19:07:08Z</time></trkpt>
<trkpt lat="35.134043" lon="-84.95777"><ele>284.7</ele><time>2026-08-16T19:07:11Z</time></trkpt>
<trkpt lat="35.134015" lon="-84.957787"><ele>285.0</ele><time>2026-08-16T19:07:13Z</time></trkpt>
<trkpt lat="35.133989" lon="-84.957802"><ele>285.3</ele><time>2026-08-16T19:07:15Z</time></trkpt>
<trkpt lat="35.13396" lon="-84.957801"><ele>285.6</ele><time>2026-08-16T19:07:17Z</time></trkpt>
<trkpt lat="35.13393" lon="-84.957794"><ele>285.9</ele><time>2026-08-16T19:07:19Z</time></trkpt>
<trkpt lat="35.133891" lon="-84.957793"><ele>286.2</ele><time>2026-08-16T19:07:22Z</time></trkpt>
<trkpt lat="35.133855" lon="-84.957795"><ele>286.2</ele><time>2026-08-16T19:07:25Z</time></trkpt>
<trkpt lat="35.133816" lon="-84.957804"><ele>286.2</ele><time>2026-08-16T19:07:28Z</time></trkpt>
<trkpt lat="35.133781" lon="-84.957824"><ele>286.2</ele><time>2026-08-16T19:07:31Z</time></trkpt>
<trkpt lat="35.133762" lon="-84.95785"><ele>286.2</ele><time>2026-08-16T19:07:33Z</time></trkpt>
<trkpt lat="35.133748" lon="-84.957879"><ele>286.5</ele><time>2026-08-16T19:07:35Z</time></trkpt>
<trkpt lat="35.133732" lon="-84.957923"><ele>286.5</ele><time>2026-08-16T19:07:38Z</time></trkpt>
<trkpt lat="35.133711" lon="-84.957946"><ele>286.8</ele><time>2026-08-16T19:07:40Z</time></trkpt>
<trkpt lat="35.133679" lon="-84.957972"><ele>286.5</ele><time>2026-08-16T19:07:43Z</time></trkpt>
<trkpt lat="35.133651" lon="-84.958003"><ele>286.5</ele><time>2026-08-16T19:07:46Z</time></trkpt>
<trkpt lat="35.133633" lon="-84.958046"><ele>286.5</ele><time>2026-08-16T19:07:49Z</time></trkpt>
<trkpt lat="35.133625" lon="-84.958092"><ele>286.5</ele><time>2026-08-16T19:07:52Z</time></trkpt>
<trkpt lat="35.133618" lon="-84.958139"><ele>286.8</ele><time>2026-08-16T19:07:55Z</time></trkpt>
<trkpt lat="35.133625" lon="-84.958187"><ele>286.5</ele><time>2026-08-16T19:07:58Z</time></trkpt>
<trkpt lat="35.13363" lon="-84.958236"><ele>286.5</ele><time>2026-08-16T19:08:01Z</time></trkpt>
<trkpt lat="35.133647" lon="-84.95828"><ele>286.5</ele><time>2026-08-16T19:08:04Z</time></trkpt>
<trkpt lat="35.133663" lon="-84.958308"><ele>286.5</ele><time>2026-08-16T19:08:06Z</time></trkpt>
<trkpt lat="35.133678" lon="-84.958339"><ele>286.2</ele><time>2026-08-16T19:08:08Z</time></trkpt>
<trkpt lat="35.133692" lon="-84.95837"><ele>286.2</ele><time>2026-08-16T19:08:10Z</time></trkpt>
<trkpt lat="35.133703" lon="-84.958402"><ele>285.9</ele><time>2026-08-16T19:08:12Z</time></trkpt>
<trkpt lat="35.13371" lon="-84.958437"><ele>285.9</ele><time>2026-08-16T19:08:14Z</time></trkpt>
<trkpt lat="35.133699" lon="-84.958476"><ele>285.9</ele><time>2026-08-16T19:08:16Z</time></trkpt>
<trkpt lat="35.133676" lon="-84.958507"><ele>285.6</ele><time>2026-08-16T19:08:19Z</time></trkpt>
<trkpt lat="35.133633" lon="-84.958509"><ele>285.6</ele><time>2026-08-16T19:08:22Z</time></trkpt>
<trkpt lat="35.133604" lon="-84.958505"><ele>285.6</ele><time>2026-08-16T19:08:24Z</time></trkpt>
<trkpt lat="35.133566" lon="-84.958494"><ele>285.6</ele><time>2026-08-16T19:08:27Z</time></trkpt>
<trkpt lat="35.133539" lon="-84.958489"><ele>285.6</ele><time>2026-08-16T19:08:29Z</time></trkpt>
<trkpt lat="35.133513" lon="-84.958476"><ele>285.6</ele><time>2026-08-16T19:08:31Z</time></trkpt>
<trkpt lat="35.133491" lon="-84.958456"><ele>285.6</ele><time>2026-08-16T19:08:33Z</time></trkpt>
<trkpt lat="35.133455" lon="-84.958435"><ele>285.6</ele><time>2026-08-16T19:08:36Z</time></trkpt>
<trkpt lat="35.133416" lon="-84.958423"><ele>285.6</ele><time>2026-08-16T19:08:39Z</time></trkpt>
<trkpt lat="35.133379" lon="-84.958412"><ele>285.6</ele><time>2026-08-16T19:08:42Z</time></trkpt>
<trkpt lat="35.133345" lon="-84.9584"><ele>285.9</ele><time>2026-08-16T19:08:45Z</time></trkpt>
<trkpt lat="35.13331" lon="-84.958382"><ele>285.9</ele><time>2026-08-16T19:08:48Z</time></trkpt>
<trkpt lat="35.133272" lon="-84.958379"><ele>285.9</ele><time>2026-08-16T19:08:51Z</time></trkpt>
<trkpt lat="35.133236" lon="-84.95838"><ele>286.2</ele><time>2026-08-16T19:08:54Z</time></trkpt>
<trkpt lat="35.133196" lon="-84.958383"><ele>286.5</ele><time>2026-08-16T19:08:57Z</time></trkpt>
<trkpt lat="35.133168" lon="-84.958398"><ele>286.5</ele><time>2026-08-16T19:08:59Z</time></trkpt>
<trkpt lat="35.133142" lon="-84.958413"><ele>286.8</ele><time>2026-08-16T19:09:01Z</time></trkpt>
<trkpt lat="35.133119" lon="-84.958434"><ele>286.8</ele><time>2026-08-16T19:09:03Z</time></trkpt>
<trkpt lat="35.133108" lon="-84.958466"><ele>286.8</ele><time>2026-08-16T19:09:05Z</time></trkpt>
<trkpt lat="35.133115" lon="-84.958504"><ele>286.5</ele><time>2026-08-16T19:09:07Z</time></trkpt>
<trkpt lat="35.133128" lon="-84.958535"><ele>286.5</ele><time>2026-08-16T19:09:09Z</time></trkpt>
<trkpt lat="35.13314" lon="-84.958568"><ele>286.5</ele><time>2026-08-16T19:09:11Z</time></trkpt>
<trkpt lat="35.133154" lon="-84.9586"><ele>286.5</ele><time>2026-08-16T19:09:13Z</time></trkpt>
<trkpt lat="35.133159" lon="-84.958634"><ele>286.8</ele><time>2026-08-16T19:09:15Z</time></trkpt>
<trkpt lat="35.133143" lon="-84.958679"><ele>286.8</ele><time>2026-08-16T19:09:18Z</time></trkpt>
<trkpt lat="35.13312" lon="-84.958717"><ele>286.5</ele><time>2026-08-16T19:09:21Z</time></trkpt>
<trkpt lat="35.13311" lon="-84.958763"><ele>286.8</ele><time>2026-08-16T19:09:24Z</time></trkpt>
<trkpt lat="35.133106" lon="-84.958797"><ele>286.8</ele><time>2026-08-16T19:09:26Z</time></trkpt>
<trkpt lat="35.133101" lon="-84.95883"><ele>286.8</ele><time>2026-08-16T19:09:28Z</time></trkpt>
<trkpt lat="35.133082" lon="-84.958856"><ele>287.1</ele><time>2026-08-16T19:09:30Z</time></trkpt>
<trkpt lat="35.133067" lon="-84.958895"><ele>287.1</ele><time>2026-08-16T19:09:33Z</time></trkpt>
<trkpt lat="35.13305" lon="-84.958932"><ele>287.1</ele><time>2026-08-16T19:09:36Z</time></trkpt>
<trkpt lat="35.133022" lon="-84.958958"><ele>287.4</ele><time>2026-08-16T19:09:39Z</time></trkpt>
<trkpt lat="35.132999" lon="-84.958996"><ele>287.4</ele><time>2026-08-16T19:09:42Z</time></trkpt>
<trkpt lat="35.13298" lon="-84.959032"><ele>287.4</ele><time>2026-08-16T19:09:45Z</time></trkpt>
<trkpt lat="35.132968" lon="-84.959063"><ele>287.4</ele><time>2026-08-16T19:09:47Z</time></trkpt>
<trkpt lat="35.132952" lon="-84.959093"><ele>287.4</ele><time>2026-08-16T19:09:49Z</time></trkpt>
<trkpt lat="35.132942" lon="-84.959124"><ele>287.7</ele><time>2026-08-16T19:09:51Z</time></trkpt>
<trkpt lat="35.132923" lon="-84.95915"><ele>287.7</ele><time>2026-08-16T19:09:53Z</time></trkpt>
<trkpt lat="35.132903" lon="-84.959173"><ele>287.7</ele><time>2026-08-16T19:09:55Z</time></trkpt>
<trkpt lat="35.132883" lon="-84.959212"><ele>287.7</ele><time>2026-08-16T19:09:58Z</time></trkpt>
<trkpt lat="35.132863" lon="-84.959249"><ele>287.7</ele><time>2026-08-16T19:10:01Z</time></trkpt>
<trkpt lat="35.132835" lon="-84.95928"><ele>287.1</ele><time>2026-08-16T19:10:04Z</time></trkpt>
<trkpt lat="35.132812" lon="-84.959319"><ele>286.8</ele><time>2026-08-16T19:10:07Z</time></trkpt>
<trkpt lat="35.132803" lon="-84.959351"><ele>286.8</ele><time>2026-08-16T19:10:09Z</time></trkpt>
<trkpt lat="35.132804" lon="-84.959388"><ele>286.8</ele><time>2026-08-16T19:10:11Z</time></trkpt>
<trkpt lat="35.13281" lon="-84.959424"><ele>287.1</ele><time>2026-08-16T19:10:13Z</time></trkpt>
<trkpt lat="35.132819" lon="-84.959459"><ele>287.1</ele><time>2026-08-16T19:10:15Z</time></trkpt>
<trkpt lat="35.132822" lon="-84.959493"><ele>287.1</ele><time>2026-08-16T19:10:17Z</time></trkpt>
<trkpt lat="35.132829" lon="-84.959529"><ele>287.1</ele><time>2026-08-16T19:10:19Z</time></trkpt>
<trkpt lat="35.132822" lon="-84.959564"><ele>286.8</ele><time>2026-08-16T19:10:21Z</time></trkpt>
<trkpt lat="35.13281" lon="-84.959595"><ele>286.5</ele><time>2026-08-16T19:10:23Z</time></trkpt>
<trkpt lat="35.132782" lon="-84.959623"><ele>286.5</ele><time>2026-08-16T19:10:26Z</time></trkpt>
<trkpt lat="35.132742" lon="-84.959626"><ele>286.5</ele><time>2026-08-16T19:10:29Z</time></trkpt>
<trkpt lat="35.132713" lon="-84.959628"><ele>286.2</ele><time>2026-08-16T19:10:31Z</time></trkpt>
<trkpt lat="35.132687" lon="-84.95961"><ele>286.2</ele><time>2026-08-16T19:10:33Z</time></trkpt>
<trkpt lat="35.132662" lon="-84.959588"><ele>286.8</ele><time>2026-08-16T19:10:35Z</time></trkpt>
<trkpt lat="35.132637" lon="-84.959571"><ele>286.8</ele><time>2026-08-16T19:10:37Z</time></trkpt>
<trkpt lat="35.13261" lon="-84.959561"><ele>286.8</ele><time>2026-08-16T19:10:39Z</time></trkpt>
<trkpt lat="35.132581" lon="-84.959533"><ele>286.8</ele><time>2026-08-16T19:10:42Z</time></trkpt>
<trkpt lat="35.132554" lon="-84.959509"><ele>286.8</ele><time>2026-08-16T19:10:45Z</time></trkpt>
<trkpt lat="35.132521" lon="-84.959489"><ele>287.1</ele><time>2026-08-16T19:10:48Z</time></trkpt>
<trkpt lat="35.132492" lon="-84.959463"><ele>287.1</ele><time>2026-08-16T19:10:51Z</time></trkpt>
<trkpt lat="35.132483" lon="-84.959457"><ele>287.1</ele><time>2026-08-16T19:10:52Z</time></trkpt>
<trkpt lat="35.132484" lon="-84.959457"><ele>287.1</ele><time>2026-08-16T19:10:53Z</time></trkpt>
<trkpt lat="35.132485" lon="-84.959458"><ele>287.4</ele><time>2026-08-16T19:10:54Z</time></trkpt>
<trkpt lat="35.132477" lon="-84.959458"><ele>287.4</ele><time>2026-08-16T19:10:55Z</time></trkpt>
<trkpt lat="35.132467" lon="-84.959418"><ele>287.4</ele><time>2026-08-16T19:10:57Z</time></trkpt>
<trkpt lat="35.132454" lon="-84.959464"><ele>287.4</ele><time>2026-08-16T19:10:58Z</time></trkpt>
<trkpt lat="35.132418" lon="-84.959457"><ele>287.7</ele><time>2026-08-16T19:11:01Z</time></trkpt>
<trkpt lat="35.13239" lon="-84.959443"><ele>287.7</ele><time>2026-08-16T19:11:03Z</time></trkpt>
<trkpt lat="35.132352" lon="-84.959444"><ele>287.4</ele><time>2026-08-16T19:11:06Z</time></trkpt>
<trkpt lat="35.132324" lon="-84.95945"><ele>287.4</ele><time>2026-08-16T19:11:08Z</time></trkpt>
<trkpt lat="35.132296" lon="-84.959451"><ele>287.4</ele><time>2026-08-16T19:11:10Z</time></trkpt>
<trkpt lat="35.132255" lon="-84.959453"><ele>287.4</ele><time>2026-08-16T19:11:13Z</time></trkpt>
<trkpt lat="35.132226" lon="-84.959456"><ele>287.1</ele><time>2026-08-16T19:11:15Z</time></trkpt>
<trkpt lat="35.132187" lon="-84.959458"><ele>286.8</ele><time>2026-08-16T19:11:18Z</time></trkpt>
<trkpt lat="35.132153" lon="-84.959475"><ele>286.5</ele><time>2026-08-16T19:11:21Z</time></trkpt>
<trkpt lat="35.132115" lon="-84.95949"><ele>286.2</ele><time>2026-08-16T19:11:24Z</time></trkpt>
<trkpt lat="35.132087" lon="-84.959493"><ele>286.2</ele><time>2026-08-16T19:11:26Z</time></trkpt>
<trkpt lat="35.132061" lon="-84.959505"><ele>285.9</ele><time>2026-08-16T19:11:28Z</time></trkpt>
<trkpt lat="35.132033" lon="-84.959517"><ele>285.9</ele><time>2026-08-16T19:11:30Z</time></trkpt>
<trkpt lat="35.132004" lon="-84.959531"><ele>285.6</ele><time>2026-08-16T19:11:32Z</time></trkpt>
<trkpt lat="35.131986" lon="-84.95956"><ele>285.6</ele><time>2026-08-16T19:11:34Z</time></trkpt>
<trkpt lat="35.131971" lon="-84.959589"><ele>285.6</ele><time>2026-08-16T19:11:36Z</time></trkpt>
<trkpt lat="35.131945" lon="-84.959614"><ele>285.6</ele><time>2026-08-16T19:11:39Z</time></trkpt>
<trkpt lat="35.131909" lon="-84.959622"><ele>285.6</ele><time>2026-08-16T19:11:42Z</time></trkpt>
<trkpt lat="35.131872" lon="-84.959641"><ele>285.0</ele><time>2026-08-16T19:11:45Z</time></trkpt>
<trkpt lat="35.131846" lon="-84.959656"><ele>284.4</ele><time>2026-08-16T19:11:47Z</time></trkpt>
<trkpt lat="35.131822" lon="-84.959676"><ele>284.4</ele><time>2026-08-16T19:11:49Z</time></trkpt>
<trkpt lat="35.131797" lon="-84.959694"><ele>284.4</ele><time>2026-08-16T19:11:51Z</time></trkpt>
<trkpt lat="35.13176" lon="-84.959716"><ele>284.4</ele><time>2026-08-16T19:11:54Z</time></trkpt>
<trkpt lat="35.131731" lon="-84.959725"><ele>284.4</ele><time>2026-08-16T19:11:56Z</time></trkpt>
<trkpt lat="35.131692" lon="-84.95974"><ele>284.4</ele><time>2026-08-16T19:11:59Z</time></trkpt>
<trkpt lat="35.131659" lon="-84.959761"><ele>284.1</ele><time>2026-08-16T19:12:02Z</time></trkpt>
<trkpt lat="35.13163" lon="-84.959765"><ele>283.8</ele><time>2026-08-16T19:12:04Z</time></trkpt>
<trkpt lat="35.131593" lon="-84.959772"><ele>283.5</ele><time>2026-08-16T19:12:07Z</time></trkpt>
<trkpt lat="35.131559" lon="-84.959789"><ele>283.5</ele><time>2026-08-16T19:12:10Z</time></trkpt>
<trkpt lat="35.131522" lon="-84.9598"><ele>282.9</ele><time>2026-08-16T19:12:13Z</time></trkpt>
<trkpt lat="35.131483" lon="-84.95981"><ele>282.5</ele><time>2026-08-16T19:12:16Z</time></trkpt>
<trkpt lat="35.131443" lon="-84.959819"><ele>282.2</ele><time>2026-08-16T19:12:19Z</time></trkpt>
<trkpt lat="35.131404" lon="-84.959822"><ele>281.9</ele><time>2026-08-16T19:12:22Z</time></trkpt>
<trkpt lat="35.131376" lon="-84.959826"><ele>281.6</ele><time>2026-08-16T19:12:24Z</time></trkpt>
<trkpt lat="35.131348" lon="-84.959834"><ele>281.6</ele><time>2026-08-16T19:12:26Z</time></trkpt>
<trkpt lat="35.131309" lon="-84.959839"><ele>281.3</ele><time>2026-08-16T19:12:29Z</time></trkpt>
<trkpt lat="35.131282" lon="-84.959848"><ele>281.0</ele><time>2026-08-16T19:12:31Z</time></trkpt>
<trkpt lat="35.131254" lon="-84.959854"><ele>280.7</ele><time>2026-08-16T19:12:33Z</time></trkpt>
<trkpt lat="35.131227" lon="-84.959867"><ele>280.7</ele><time>2026-08-16T19:12:35Z</time></trkpt>
<trkpt lat="35.131206" lon="-84.95989"><ele>280.4</ele><time>2026-08-16T19:12:37Z</time></trkpt>
<trkpt lat="35.131173" lon="-84.95992"><ele>280.1</ele><time>2026-08-16T19:12:40Z</time></trkpt>
<trkpt lat="35.131148" lon="-84.959936"><ele>279.8</ele><time>2026-08-16T19:12:42Z</time></trkpt>
<trkpt lat="35.131125" lon="-84.959956"><ele>279.5</ele><time>2026-08-16T19:12:44Z</time></trkpt>
<trkpt lat="35.131099" lon="-84.95997"><ele>279.5</ele><time>2026-08-16T19:12:46Z</time></trkpt>
<trkpt lat="35.131075" lon="-84.959988"><ele>279.2</ele><time>2026-08-16T19:12:48Z</time></trkpt>
<trkpt lat="35.131049" lon="-84.960027"><ele>278.9</ele><time>2026-08-16T19:12:51Z</time></trkpt>
<trkpt lat="35.131026" lon="-84.960066"><ele>278.6</ele><time>2026-08-16T19:12:54Z</time></trkpt>
<trkpt lat="35.130995" lon="-84.960097"><ele>278.3</ele><time>2026-08-16T19:12:57Z</time></trkpt>
<trkpt lat="35.13098" lon="-84.960127"><ele>278.3</ele><time>2026-08-16T19:12:59Z</time></trkpt>
<trkpt lat="35.130964" lon="-84.960168"><ele>278.0</ele><time>2026-08-16T19:13:02Z</time></trkpt>
<trkpt lat="35.130947" lon="-84.960211"><ele>278.0</ele><time>2026-08-16T19:13:05Z</time></trkpt>
<trkpt lat="35.130935" lon="-84.960247"><ele>277.7</ele><time>2026-08-16T19:13:07Z</time></trkpt>
<trkpt lat="35.130928" lon="-84.960283"><ele>277.4</ele><time>2026-08-16T19:13:09Z</time></trkpt>
<trkpt lat="35.130928" lon="-84.960319"><ele>277.1</ele><time>2026-08-16T19:13:11Z</time></trkpt>
<trkpt lat="35.130932" lon="-84.960353"><ele>276.8</ele><time>2026-08-16T19:13:13Z</time></trkpt>
<trkpt lat="35.130941" lon="-84.960389"><ele>276.5</ele><time>2026-08-16T19:13:15Z</time></trkpt>
<trkpt lat="35.130939" lon="-84.960427"><ele>276.5</ele><time>2026-08-16T19:13:17Z</time></trkpt>
<trkpt lat="35.13091" lon="-84.960432"><ele>276.1</ele><time>2026-08-16T19:13:19Z</time></trkpt>
<trkpt lat="35.130886" lon="-84.96041"><ele>276.1</ele><time>2026-08-16T19:13:21Z</time></trkpt>
<trkpt lat="35.130868" lon="-84.960383"><ele>275.5</ele><time>2026-08-16T19:13:23Z</time></trkpt>
<trkpt lat="35.130858" lon="-84.960348"><ele>275.2</ele><time>2026-08-16T19:13:25Z</time></trkpt>
<trkpt lat="35.130858" lon="-84.96031"><ele>274.9</ele><time>2026-08-16T19:13:27Z</time></trkpt>
<trkpt lat="35.130851" lon="-84.960261"><ele>274.6</ele><time>2026-08-16T19:13:30Z</time></trkpt>
<trkpt lat="35.130838" lon="-84.96023"><ele>274.3</ele><time>2026-08-16T19:13:32Z</time></trkpt>
<trkpt lat="35.130812" lon="-84.960194"><ele>273.7</ele><time>2026-08-16T19:13:35Z</time></trkpt>
<trkpt lat="35.130784" lon="-84.960162"><ele>273.4</ele><time>2026-08-16T19:13:38Z</time></trkpt>
<trkpt lat="35.130761" lon="-84.960143"><ele>273.1</ele><time>2026-08-16T19:13:40Z</time></trkpt>
<trkpt lat="35.130734" lon="-84.960108"><ele>272.8</ele><time>2026-08-16T19:13:43Z</time></trkpt>
<trkpt lat="35.130709" lon="-84.960071"><ele>272.8</ele><time>2026-08-16T19:13:46Z</time></trkpt>
<trkpt lat="35.130712" lon="-84.960031"><ele>272.8</ele><time>2026-08-16T19:13:49Z</time></trkpt>
<trkpt lat="35.130733" lon="-84.960004"><ele>272.8</ele><time>2026-08-16T19:13:51Z</time></trkpt>
<trkpt lat="35.130765" lon="-84.959983"><ele>273.1</ele><time>2026-08-16T19:13:54Z</time></trkpt>
<trkpt lat="35.130792" lon="-84.959981"><ele>273.1</ele><time>2026-08-16T19:13:56Z</time></trkpt>
<trkpt lat="35.130834" lon="-84.959984"><ele>273.4</ele><time>2026-08-16T19:13:59Z</time></trkpt>
<trkpt lat="35.130871" lon="-84.959985"><ele>273.7</ele><time>2026-08-16T19:14:02Z</time></trkpt>
<trkpt lat="35.13091" lon="-84.959976"><ele>274.3</ele><time>2026-08-16T19:14:05Z</time></trkpt>
<trkpt lat="35.130938" lon="-84.959976"><ele>274.6</ele><time>2026-08-16T19:14:07Z</time></trkpt>
<trkpt lat="35.130975" lon="-84.959963"><ele>274.9</ele><time>2026-08-16T19:14:10Z</time></trkpt>
<trkpt lat="35.130998" lon="-84.959942"><ele>274.9</ele><time>2026-08-16T19:14:12Z</time></trkpt>
<trkpt lat="35.131016" lon="-84.959914"><ele>274.9</ele><time>2026-08-16T19:14:14Z</time></trkpt>
<trkpt lat="35.131029" lon="-84.95987"><ele>275.2</ele><time>2026-08-16T19:14:17Z</time></trkpt>
<trkpt lat="35.131048" lon="-84.95983"><ele>274.9</ele><time>2026-08-16T19:14:20Z</time></trkpt>
<trkpt lat="35.131076" lon="-84.9598"><ele>274.9</ele><time>2026-08-16T19:14:23Z</time></trkpt>
<trkpt lat="35.131111" lon="-84.959778"><ele>275.2</ele><time>2026-08-16T19:14:26Z</time></trkpt>
<trkpt lat="35.131151" lon="-84.959772"><ele>275.5</ele><time>2026-08-16T19:14:29Z</time></trkpt>
<trkpt lat="35.131185" lon="-84.959764"><ele>276.1</ele><time>2026-08-16T19:14:32Z</time></trkpt>
<trkpt lat="35.131218" lon="-84.95974"><ele>276.5</ele><time>2026-08-16T19:14:35Z</time></trkpt>
<trkpt lat="35.131248" lon="-84.959716"><ele>276.8</ele><time>2026-08-16T19:14:38Z</time></trkpt>
<trkpt lat="35.13128" lon="-84.959693"><ele>276.8</ele><time>2026-08-16T19:14:41Z</time></trkpt>
<trkpt lat="35.131312" lon="-84.959674"><ele>276.8</ele><time>2026-08-16T19:14:44Z</time></trkpt>
<trkpt lat="35.131353" lon="-84.959676"><ele>277.1</ele><time>2026-08-16T19:14:47Z</time></trkpt>
<trkpt lat="35.131391" lon="-84.959667"><ele>277.1</ele><time>2026-08-16T19:14:50Z</time></trkpt>
<trkpt lat="35.131426" lon="-84.959651"><ele>277.1</ele><time>2026-08-16T19:14:53Z</time></trkpt>
<trkpt lat="35.13146" lon="-84.959641"><ele>277.1</ele><time>2026-08-16T19:14:56Z</time></trkpt>
<trkpt lat="35.131493" lon="-84.959627"><ele>277.4</ele><time>2026-08-16T19:14:59Z</time></trkpt>
<trkpt lat="35.13152" lon="-84.959618"><ele>277.7</ele><time>2026-08-16T19:15:01Z</time></trkpt>
<trkpt lat="35.131552" lon="-84.9596"><ele>278.3</ele><time>2026-08-16T19:15:04Z</time></trkpt>
<trkpt lat="35.131581" lon="-84.959584"><ele>278.6</ele><time>2026-08-16T19:15:07Z</time></trkpt>
<trkpt lat="35.131612" lon="-84.95957"><ele>278.9</ele><time>2026-08-16T19:15:10Z</time></trkpt>
<trkpt lat="35.131648" lon="-84.959566"><ele>279.5</ele><time>2026-08-16T19:15:13Z</time></trkpt>
<trkpt lat="35.13168" lon="-84.95955"><ele>279.5</ele><time>2026-08-16T19:15:16Z</time></trkpt>
<trkpt lat="35.131694" lon="-84.95952"><ele>279.5</ele><time>2026-08-16T19:15:18Z</time></trkpt>
<trkpt lat="35.131706" lon="-84.95949"><ele>279.2</ele><time>2026-08-16T19:15:20Z</time></trkpt>
<trkpt lat="35.131724" lon="-84.959463"><ele>279.2</ele><time>2026-08-16T19:15:22Z</time></trkpt>
<trkpt lat="35.131736" lon="-84.959432"><ele>278.9</ele><time>2026-08-16T19:15:24Z</time></trkpt>
<trkpt lat="35.131746" lon="-84.959385"><ele>278.6</ele><time>2026-08-16T19:15:27Z</time></trkpt>
<trkpt lat="35.13177" lon="-84.959346"><ele>278.6</ele><time>2026-08-16T19:15:30Z</time></trkpt>
<trkpt lat="35.131781" lon="-84.959315"><ele>278.6</ele><time>2026-08-16T19:15:32Z</time></trkpt>
<trkpt lat="35.131802" lon="-84.959292"><ele>278.3</ele><time>2026-08-16T19:15:34Z</time></trkpt>
<trkpt lat="35.131817" lon="-84.959263"><ele>278.3</ele><time>2026-08-16T19:15:36Z</time></trkpt>
<trkpt lat="35.131842" lon="-84.959227"><ele>278.3</ele><time>2026-08-16T19:15:39Z</time></trkpt>
<trkpt lat="35.131865" lon="-84.959192"><ele>278.3</ele><time>2026-08-16T19:15:42Z</time></trkpt>
<trkpt lat="35.131893" lon="-84.95916"><ele>278.3</ele><time>2026-08-16T19:15:45Z</time></trkpt>
<trkpt lat="35.131922" lon="-84.959131"><ele>278.3</ele><time>2026-08-16T19:15:48Z</time></trkpt>
<trkpt lat="35.131953" lon="-84.959105"><ele>277.7</ele><time>2026-08-16T19:15:51Z</time></trkpt>
<trkpt lat="35.131978" lon="-84.959088"><ele>277.1</ele><time>2026-08-16T19:15:53Z</time></trkpt>
<trkpt lat="35.132004" lon="-84.959074"><ele>276.1</ele><time>2026-08-16T19:15:55Z</time></trkpt>
<trkpt lat="35.13203" lon="-84.959062"><ele>276.5</ele><time>2026-08-16T19:15:57Z</time></trkpt>
<trkpt lat="35.132066" lon="-84.959044"><ele>276.5</ele><time>2026-08-16T19:16:00Z</time></trkpt>
<trkpt lat="35.132103" lon="-84.959029"><ele>276.5</ele><time>2026-08-16T19:16:03Z</time></trkpt>
<trkpt lat="35.132131" lon="-84.959023"><ele>276.8</ele><time>2026-08-16T19:16:05Z</time></trkpt>
<trkpt lat="35.132158" lon="-84.959017"><ele>276.8</ele><time>2026-08-16T19:16:07Z</time></trkpt>
<trkpt lat="35.132198" lon="-84.959028"><ele>276.8</ele><time>2026-08-16T19:16:10Z</time></trkpt>
<trkpt lat="35.132239" lon="-84.959037"><ele>276.8</ele><time>2026-08-16T19:16:13Z</time></trkpt>
<trkpt lat="35.132279" lon="-84.959046"><ele>276.8</ele><time>2026-08-16T19:16:16Z</time></trkpt>
<trkpt lat="35.132306" lon="-84.959052"><ele>276.8</ele><time>2026-08-16T19:16:18Z</time></trkpt>
<trkpt lat="35.132334" lon="-84.959058"><ele>276.5</ele><time>2026-08-16T19:16:20Z</time></trkpt>
<trkpt lat="35.13237" lon="-84.959054"><ele>276.1</ele><time>2026-08-16T19:16:23Z</time></trkpt>
<trkpt lat="35.132395" lon="-84.959033"><ele>276.1</ele><time>2026-08-16T19:16:25Z</time></trkpt>
<trkpt lat="35.132406" lon="-84.958994"><ele>275.8</ele><time>2026-08-16T19:16:27Z</time></trkpt>
<trkpt lat="35.132409" lon="-84.958955"><ele>275.5</ele><time>2026-08-16T19:16:29Z</time></trkpt>
<trkpt lat="35.132398" lon="-84.95892"><ele>275.5</ele><time>2026-08-16T19:16:31Z</time></trkpt>
<trkpt lat="35.132378" lon="-84.958894"><ele>275.5</ele><time>2026-08-16T19:16:33Z</time></trkpt>
<trkpt lat="35.132344" lon="-84.958864"><ele>275.5</ele><time>2026-08-16T19:16:36Z</time></trkpt>
<trkpt lat="35.132308" lon="-84.958844"><ele>275.5</ele><time>2026-08-16T19:16:39Z</time></trkpt>
<trkpt lat="35.132282" lon="-84.958822"><ele>275.5</ele><time>2026-08-16T19:16:41Z</time></trkpt>
<trkpt lat="35.132254" lon="-84.958805"><ele>275.5</ele><time>2026-08-16T19:16:43Z</time></trkpt>
<trkpt lat="35.132226" lon="-84.958796"><ele>275.2</ele><time>2026-08-16T19:16:45Z</time></trkpt>
<trkpt lat="35.132188" lon="-84.958779"><ele>275.2</ele><time>2026-08-16T19:16:48Z</time></trkpt>
<trkpt lat="35.132163" lon="-84.958762"><ele>274.9</ele><time>2026-08-16T19:16:50Z</time></trkpt>
<trkpt lat="35.132132" lon="-84.958735"><ele>275.2</ele><time>2026-08-16T19:16:53Z</time></trkpt>
<trkpt lat="35.132107" lon="-84.958717"><ele>275.5</ele><time>2026-08-16T19:16:55Z</time></trkpt>
<trkpt lat="35.132077" lon="-84.958704"><ele>275.2</ele><time>2026-08-16T19:16:57Z</time></trkpt>
<trkpt lat="35.13204" lon="-84.958699"><ele>274.9</ele><time>2026-08-16T19:17:00Z</time></trkpt>
<trkpt lat="35.132015" lon="-84.958684"><ele>274.9</ele><time>2026-08-16T19:17:02Z</time></trkpt>
<trkpt lat="35.131981" lon="-84.958658"><ele>274.9</ele><time>2026-08-16T19:17:05Z</time></trkpt>
<trkpt lat="35.13196" lon="-84.958635"><ele>274.9</ele><time>2026-08-16T19:17:07Z</time></trkpt>
<trkpt lat="35.131932" lon="-84.958599"><ele>274.6</ele><time>2026-08-16T19:17:10Z</time></trkpt>
<trkpt lat="35.131914" lon="-84.95857"><ele>274.6</ele><time>2026-08-16T19:17:12Z</time></trkpt>
<trkpt lat="35.131897" lon="-84.958537"><ele>274.6</ele><time>2026-08-16T19:17:14Z</time></trkpt>
<trkpt lat="35.131884" lon="-84.958505"><ele>274.6</ele><time>2026-08-16T19:17:16Z</time></trkpt>
<trkpt lat="35.131883" lon="-84.958467"><ele>274.6</ele><time>2026-08-16T19:17:18Z</time></trkpt>
<trkpt lat="35.131887" lon="-84.958433"><ele>274.6</ele><time>2026-08-16T19:17:20Z</time></trkpt>
<trkpt lat="35.131889" lon="-84.958384"><ele>274.3</ele><time>2026-08-16T19:17:23Z</time></trkpt>
<trkpt lat="35.131889" lon="-84.958336"><ele>274.3</ele><time>2026-08-16T19:17:26Z</time></trkpt>
<trkpt lat="35.131898" lon="-84.958303"><ele>274.3</ele><time>2026-08-16T19:17:28Z</time></trkpt>
<trkpt lat="35.131917" lon="-84.958261"><ele>274.3</ele><time>2026-08-16T19:17:31Z</time></trkpt>
<trkpt lat="35.131941" lon="-84.958239"><ele>274.3</ele><time>2026-08-16T19:17:33Z</time></trkpt>
<trkpt lat="35.131972" lon="-84.958228"><ele>274.3</ele><time>2026-08-16T19:17:35Z</time></trkpt>
<trkpt lat="35.131997" lon="-84.958204"><ele>274.0</ele><time>2026-08-16T19:17:37Z</time></trkpt>
<trkpt lat="35.132017" lon="-84.958163"><ele>274.0</ele><time>2026-08-16T19:17:40Z</time></trkpt>
<trkpt lat="35.132039" lon="-84.958127"><ele>273.7</ele><time>2026-08-16T19:17:43Z</time></trkpt>
<trkpt lat="35.132068" lon="-84.958098"><ele>273.4</ele><time>2026-08-16T19:17:46Z</time></trkpt>
<trkpt lat="35.132093" lon="-84.958079"><ele>273.1</ele><time>2026-08-16T19:17:48Z</time></trkpt>
<trkpt lat="35.13213" lon="-84.958057"><ele>273.1</ele><time>2026-08-16T19:17:51Z</time></trkpt>
<trkpt lat="35.132168" lon="-84.958044"><ele>273.1</ele><time>2026-08-16T19:17:54Z</time></trkpt>
<trkpt lat="35.132206" lon="-84.95804"><ele>273.1</ele><time>2026-08-16T19:17:57Z</time></trkpt>
<trkpt lat="35.132242" lon="-84.958041"><ele>273.4</ele><time>2026-08-16T19:18:00Z</time></trkpt>
<trkpt lat="35.13227" lon="-84.958049"><ele>273.4</ele><time>2026-08-16T19:18:02Z</time></trkpt>
<trkpt lat="35.132298" lon="-84.958049"><ele>273.4</ele><time>2026-08-16T19:18:04Z</time></trkpt>
<trkpt lat="35.13232" lon="-84.958026"><ele>273.4</ele><time>2026-08-16T19:18:06Z</time></trkpt>
<trkpt lat="35.132323" lon="-84.957985"><ele>273.1</ele><time>2026-08-16T19:18:08Z</time></trkpt>
<trkpt lat="35.132332" lon="-84.957939"><ele>273.1</ele><time>2026-08-16T19:18:11Z</time></trkpt>
<trkpt lat="35.132347" lon="-84.957895"><ele>273.1</ele><time>2026-08-16T19:18:14Z</time></trkpt>
<trkpt lat="35.13237" lon="-84.957859"><ele>273.1</ele><time>2026-08-16T19:18:17Z</time></trkpt>
<trkpt lat="35.132385" lon="-84.957817"><ele>273.1</ele><time>2026-08-16T19:18:20Z</time></trkpt>
<trkpt lat="35.132379" lon="-84.95778"><ele>273.1</ele><time>2026-08-16T19:18:22Z</time></trkpt>
<trkpt lat="35.132361" lon="-84.957746"><ele>272.8</ele><time>2026-08-16T19:18:24Z</time></trkpt>
<trkpt lat="35.13234" lon="-84.957716"><ele>272.5</ele><time>2026-08-16T19:18:26Z</time></trkpt>
<trkpt lat="35.132315" lon="-84.957691"><ele>272.5</ele><time>2026-08-16T19:18:28Z</time></trkpt>
<trkpt lat="35.13229" lon="-84.957671"><ele>272.2</ele><time>2026-08-16T19:18:30Z</time></trkpt>
<trkpt lat="35.132271" lon="-84.95764"><ele>272.2</ele><time>2026-08-16T19:18:32Z</time></trkpt>
<trkpt lat="35.132247" lon="-84.957614"><ele>272.2</ele><time>2026-08-16T19:18:34Z</time></trkpt>
<trkpt lat="35.132228" lon="-84.957587"><ele>272.2</ele><time>2026-08-16T19:18:36Z</time></trkpt>
<trkpt lat="35.132201" lon="-84.957575"><ele>271.9</ele><time>2026-08-16T19:18:38Z</time></trkpt>
<trkpt lat="35.132161" lon="-84.957573"><ele>272.2</ele><time>2026-08-16T19:18:41Z</time></trkpt>
<trkpt lat="35.132123" lon="-84.957582"><ele>272.2</ele><time>2026-08-16T19:18:44Z</time></trkpt>
<trkpt lat="35.132086" lon="-84.957593"><ele>272.2</ele><time>2026-08-16T19:18:47Z</time></trkpt>
<trkpt lat="35.132049" lon="-84.957609"><ele>271.9</ele><time>2026-08-16T19:18:50Z</time></trkpt>
<trkpt lat="35.132013" lon="-84.957631"><ele>271.9</ele><time>2026-08-16T19:18:53Z</time></trkpt>
<trkpt lat="35.131983" lon="-84.957636"><ele>271.6</ele><time>2026-08-16T19:18:55Z</time></trkpt>
<trkpt lat="35.131946" lon="-84.957651"><ele>271.6</ele><time>2026-08-16T19:18:58Z</time></trkpt>
<trkpt lat="35.131919" lon="-84.957681"><ele>271.3</ele><time>2026-08-16T19:19:01Z</time></trkpt>
<trkpt lat="35.131885" lon="-84.957703"><ele>271.0</ele><time>2026-08-16T19:19:04Z</time></trkpt>
<trkpt lat="35.131858" lon="-84.957712"><ele>271.0</ele><time>2026-08-16T19:19:06Z</time></trkpt>
<trkpt lat="35.131817" lon="-84.957709"><ele>270.7</ele><time>2026-08-16T19:19:09Z</time></trkpt>
<trkpt lat="35.131776" lon="-84.957708"><ele>270.7</ele><time>2026-08-16T19:19:12Z</time></trkpt>
<trkpt lat="35.131739" lon="-84.957696"><ele>270.4</ele><time>2026-08-16T19:19:15Z</time></trkpt>
<trkpt lat="35.131704" lon="-84.95768"><ele>270.1</ele><time>2026-08-16T19:19:18Z</time></trkpt>
<trkpt lat="35.131675" lon="-84.957646"><ele>270.4</ele><time>2026-08-16T19:19:21Z</time></trkpt>
<trkpt lat="35.131662" lon="-84.957616"><ele>270.4</ele><time>2026-08-16T19:19:23Z</time></trkpt>
<trkpt lat="35.131651" lon="-84.957585"><ele>270.4</ele><time>2026-08-16T19:19:25Z</time></trkpt>
<trkpt lat="35.131666" lon="-84.957541"><ele>270.7</ele><time>2026-08-16T19:19:28Z</time></trkpt>
<trkpt lat="35.131697" lon="-84.957511"><ele>271.0</ele><time>2026-08-16T19:19:31Z</time></trkpt>
<trkpt lat="35.131728" lon="-84.957484"><ele>270.7</ele><time>2026-08-16T19:19:34Z</time></trkpt>
<trkpt lat="35.131759" lon="-84.957458"><ele>271.0</ele><time>2026-08-16T19:19:37Z</time></trkpt>
<trkpt lat="35.13179" lon="-84.957429"><ele>271.0</ele><time>2026-08-16T19:19:40Z</time></trkpt>
<trkpt lat="35.131827" lon="-84.957411"><ele>271.0</ele><time>2026-08-16T19:19:43Z</time></trkpt>
<trkpt lat="35.131856" lon="-84.957405"><ele>271.0</ele><time>2026-08-16T19:19:45Z</time></trkpt>
<trkpt lat="35.131884" lon="-84.957408"><ele>271.0</ele><time>2026-08-16T19:19:47Z</time></trkpt>
<trkpt lat="35.131912" lon="-84.957413"><ele>271.3</ele><time>2026-08-16T19:19:49Z</time></trkpt>
<trkpt lat="35.131941" lon="-84.957423"><ele>271.6</ele><time>2026-08-16T19:19:51Z</time></trkpt>
<trkpt lat="35.131971" lon="-84.957426"><ele>271.9</ele><time>2026-08-16T19:19:53Z</time></trkpt>
<trkpt lat="35.131999" lon="-84.957421"><ele>271.9</ele><time>2026-08-16T19:19:55Z</time></trkpt>
<trkpt lat="35.132039" lon="-84.957413"><ele>271.6</ele><time>2026-08-16T19:19:58Z</time></trkpt>
<trkpt lat="35.132066" lon="-84.957424"><ele>271.6</ele><time>2026-08-16T19:20:00Z</time></trkpt>
<trkpt lat="35.132104" lon="-84.957422"><ele>271.6</ele><time>2026-08-16T19:20:03Z</time></trkpt>
<trkpt lat="35.13213" lon="-84.957409"><ele>271.9</ele><time>2026-08-16T19:20:05Z</time></trkpt>
<trkpt lat="35.132152" lon="-84.957387"><ele>271.9</ele><time>2026-08-16T19:20:07Z</time></trkpt>
<trkpt lat="35.132158" lon="-84.95734"><ele>272.2</ele><time>2026-08-16T19:20:10Z</time></trkpt>
<trkpt lat="35.132157" lon="-84.957303"><ele>272.2</ele><time>2026-08-16T19:20:12Z</time></trkpt>
<trkpt lat="35.132163" lon="-84.95727"><ele>272.2</ele><time>2026-08-16T19:20:14Z</time></trkpt>
<trkpt lat="35.132188" lon="-84.957234"><ele>272.5</ele><time>2026-08-16T19:20:17Z</time></trkpt>
<trkpt lat="35.132219" lon="-84.957203"><ele>272.8</ele><time>2026-08-16T19:20:20Z</time></trkpt>
<trkpt lat="35.132249" lon="-84.95717"><ele>272.8</ele><time>2026-08-16T19:20:23Z</time></trkpt>
<trkpt lat="35.132277" lon="-84.957137"><ele>272.8</ele><time>2026-08-16T19:20:26Z</time></trkpt>
<trkpt lat="35.132297" lon="-84.957114"><ele>272.8</ele><time>2026-08-16T19:20:28Z</time></trkpt>
<trkpt lat="35.132322" lon="-84.957077"><ele>272.8</ele><time>2026-08-16T19:20:31Z</time></trkpt>
<trkpt lat="35.132341" lon="-84.957053"><ele>272.8</ele><time>2026-08-16T19:20:33Z</time></trkpt>
<trkpt lat="35.132364" lon="-84.957014"><ele>273.1</ele><time>2026-08-16T19:20:36Z</time></trkpt>
<trkpt lat="35.132388" lon="-84.956979"><ele>272.8</ele><time>2026-08-16T19:20:39Z</time></trkpt>
<trkpt lat="35.132417" lon="-84.956949"><ele>272.8</ele><time>2026-08-16T19:20:42Z</time></trkpt>
<trkpt lat="35.132437" lon="-84.956924"><ele>272.8</ele><time>2026-08-16T19:20:44Z</time></trkpt>
<trkpt lat="35.132451" lon="-84.956894"><ele>272.8</ele><time>2026-08-16T19:20:46Z</time></trkpt>
<trkpt lat="35.132468" lon="-84.956852"><ele>272.8</ele><time>2026-08-16T19:20:49Z</time></trkpt>
<trkpt lat="35.132455" lon="-84.956817"><ele>272.8</ele><time>2026-08-16T19:20:51Z</time></trkpt>
<trkpt lat="35.132438" lon="-84.956782"><ele>272.5</ele><time>2026-08-16T19:20:53Z</time></trkpt>
<trkpt lat="35.132413" lon="-84.956756"><ele>272.8</ele><time>2026-08-16T19:20:55Z</time></trkpt>
<trkpt lat="35.132385" lon="-84.95674"><ele>272.8</ele><time>2026-08-16T19:20:57Z</time></trkpt>
<trkpt lat="35.132354" lon="-84.956732"><ele>272.8</ele><time>2026-08-16T19:20:59Z</time></trkpt>
<trkpt lat="35.132321" lon="-84.956739"><ele>272.8</ele><time>2026-08-16T19:21:01Z</time></trkpt>
<trkpt lat="35.132293" lon="-84.956751"><ele>273.1</ele><time>2026-08-16T19:21:03Z</time></trkpt>
<trkpt lat="35.132266" lon="-84.956766"><ele>273.1</ele><time>2026-08-16T19:21:05Z</time></trkpt>
<trkpt lat="35.132228" lon="-84.956783"><ele>273.1</ele><time>2026-08-16T19:21:08Z</time></trkpt>
<trkpt lat="35.132198" lon="-84.956815"><ele>273.1</ele><time>2026-08-16T19:21:11Z</time></trkpt>
<trkpt lat="35.132174" lon="-84.956832"><ele>273.1</ele><time>2026-08-16T19:21:13Z</time></trkpt>
<trkpt lat="35.132144" lon="-84.956862"><ele>273.1</ele><time>2026-08-16T19:21:16Z</time></trkpt>
<trkpt lat="35.132116" lon="-84.956896"><ele>273.1</ele><time>2026-08-16T19:21:19Z</time></trkpt>
<trkpt lat="35.132079" lon="-84.956917"><ele>272.8</ele><time>2026-08-16T19:21:22Z</time></trkpt>
<trkpt lat="35.132048" lon="-84.956942"><ele>272.5</ele><time>2026-08-16T19:21:25Z</time></trkpt>
<trkpt lat="35.132025" lon="-84.95698"><ele>272.2</ele><time>2026-08-16T19:21:28Z</time></trkpt>
<trkpt lat="35.132003" lon="-84.957018"><ele>271.9</ele><time>2026-08-16T19:21:31Z</time></trkpt>
<trkpt lat="35.131977" lon="-84.957036"><ele>271.9</ele><time>2026-08-16T19:21:33Z</time></trkpt>
<trkpt lat="35.131952" lon="-84.957051"><ele>271.6</ele><time>2026-08-16T19:21:35Z</time></trkpt>
<trkpt lat="35.131923" lon="-84.95706"><ele>271.6</ele><time>2026-08-16T19:21:37Z</time></trkpt>
<trkpt lat="35.131897" lon="-84.957069"><ele>271.3</ele><time>2026-08-16T19:21:39Z</time></trkpt>
<trkpt lat="35.13187" lon="-84.957084"><ele>271.3</ele><time>2026-08-16T19:21:41Z</time></trkpt>
<trkpt lat="35.131846" lon="-84.957101"><ele>271.0</ele><time>2026-08-16T19:21:43Z</time></trkpt>
<trkpt lat="35.131822" lon="-84.957119"><ele>271.3</ele><time>2026-08-16T19:21:45Z</time></trkpt>
<trkpt lat="35.131786" lon="-84.957145"><ele>271.0</ele><time>2026-08-16T19:21:48Z</time></trkpt>
<trkpt lat="35.131765" lon="-84.957169"><ele>271.0</ele><time>2026-08-16T19:21:50Z</time></trkpt>
<trkpt lat="35.131742" lon="-84.95719"><ele>271.0</ele><time>2026-08-16T19:21:52Z</time></trkpt>
<trkpt lat="35.131714" lon="-84.957202"><ele>271.0</ele><time>2026-08-16T19:21:54Z</time></trkpt>
<trkpt lat="35.131687" lon="-84.957215"><ele>270.7</ele><time>2026-08-16T19:21:56Z</time></trkpt>
<trkpt lat="35.131651" lon="-84.957236"><ele>270.7</ele><time>2026-08-16T19:21:59Z</time></trkpt>
<trkpt lat="35.131625" lon="-84.957251"><ele>270.4</ele><time>2026-08-16T19:22:01Z</time></trkpt>
<trkpt lat="35.1316" lon="-84.957266"><ele>270.4</ele><time>2026-08-16T19:22:03Z</time></trkpt>
<trkpt lat="35.131561" lon="-84.957282"><ele>270.7</ele><time>2026-08-16T19:22:06Z</time></trkpt>
<trkpt lat="35.131531" lon="-84.95729"><ele>270.7</ele><time>2026-08-16T19:22:08Z</time></trkpt>
<trkpt lat="35.131492" lon="-84.957292"><ele>270.7</ele><time>2026-08-16T19:22:11Z</time></trkpt>
<trkpt lat="35.131455" lon="-84.957303"><ele>270.7</ele><time>2026-08-16T19:22:14Z</time></trkpt>
<trkpt lat="35.131414" lon="-84.957316"><ele>270.4</ele><time>2026-08-16T19:22:17Z</time></trkpt>
<trkpt lat="35.131379" lon="-84.957345"><ele>270.1</ele><time>2026-08-16T19:22:20Z</time></trkpt>
<trkpt lat="35.131352" lon="-84.957359"><ele>270.1</ele><time>2026-08-16T19:22:22Z</time></trkpt>
<trkpt lat="35.131314" lon="-84.957378"><ele>270.4</ele><time>2026-08-16T19:22:25Z</time></trkpt>
<trkpt lat="35.131277" lon="-84.957388"><ele>270.4</ele><time>2026-08-16T19:22:28Z</time></trkpt>
<trkpt lat="35.13124" lon="-84.957395"><ele>270.4</ele><time>2026-08-16T19:22:31Z</time></trkpt>
<trkpt lat="35.131202" lon="-84.957399"><ele>270.1</ele><time>2026-08-16T19:22:34Z</time></trkpt>
<trkpt lat="35.131165" lon="-84.957384"><ele>270.1</ele><time>2026-08-16T19:22:37Z</time></trkpt>
<trkpt lat="35.13114" lon="-84.957367"><ele>270.1</ele><time>2026-08-16T19:22:39Z</time></trkpt>
<trkpt lat="35.131118" lon="-84.957347"><ele>269.7</ele><time>2026-08-16T19:22:41Z</time></trkpt>
<trkpt lat="35.131076" lon="-84.957357"><ele>269.7</ele><time>2026-08-16T19:22:44Z</time></trkpt>
<trkpt lat="35.131049" lon="-84.95738"><ele>269.7</ele><time>2026-08-16T19:22:46Z</time></trkpt>
<trkpt lat="35.131026" lon="-84.957409"><ele>269.7</ele><time>2026-08-16T19:22:48Z</time></trkpt>
<trkpt lat="35.13102" lon="-84.957443"><ele>269.7</ele><time>2026-08-16T19:22:50Z</time></trkpt>
<trkpt lat="35.131013" lon="-84.957491"><ele>269.4</ele><time>2026-08-16T19:22:53Z</time></trkpt>
<trkpt lat="35.130996" lon="-84.95752"><ele>269.4</ele><time>2026-08-16T19:22:55Z</time></trkpt>
<trkpt lat="35.130977" lon="-84.957545"><ele>269.4</ele><time>2026-08-16T19:22:57Z</time></trkpt>
<trkpt lat="35.130958" lon="-84.95757"><ele>269.4</ele><time>2026-08-16T19:22:59Z</time></trkpt>
<trkpt lat="35.130941" lon="-84.957598"><ele>269.4</ele><time>2026-08-16T19:23:01Z</time></trkpt>
<trkpt lat="35.130918" lon="-84.957619"><ele>269.4</ele><time>2026-08-16T19:23:03Z</time></trkpt>
<trkpt lat="35.130885" lon="-84.957645"><ele>269.4</ele><time>2026-08-16T19:23:06Z</time></trkpt>
<trkpt lat="35.130846" lon="-84.957638"><ele>269.7</ele><time>2026-08-16T19:23:09Z</time></trkpt>
<trkpt lat="35.13082" lon="-84.957613"><ele>270.1</ele><time>2026-08-16T19:23:12Z</time></trkpt>
<trkpt lat="35.130786" lon="-84.95761"><ele>270.1</ele><time>2026-08-16T19:23:15Z</time></trkpt>
<trkpt lat="35.130757" lon="-84.957641"><ele>269.7</ele><time>2026-08-16T19:23:18Z</time></trkpt>
<trkpt lat="35.130756" lon="-84.957678"><ele>269.7</ele><time>2026-08-16T19:23:20Z</time></trkpt>
<trkpt lat="35.130759" lon="-84.957712"><ele>269.4</ele><time>2026-08-16T19:23:22Z</time></trkpt>
<trkpt lat="35.130768" lon="-84.957745"><ele>269.4</ele><time>2026-08-16T19:23:24Z</time></trkpt>
<trkpt lat="35.13077" lon="-84.957782"><ele>269.1</ele><time>2026-08-16T19:23:26Z</time></trkpt>
<trkpt lat="35.130761" lon="-84.957816"><ele>269.1</ele><time>2026-08-16T19:23:28Z</time></trkpt>
<trkpt lat="35.130738" lon="-84.957844"><ele>268.8</ele><time>2026-08-16T19:23:30Z</time></trkpt>
<trkpt lat="35.130711" lon="-84.957859"><ele>268.8</ele><time>2026-08-16T19:23:32Z</time></trkpt>
<trkpt lat="35.130686" lon="-84.957877"><ele>268.8</ele><time>2026-08-16T19:23:34Z</time></trkpt>
<trkpt lat="35.130661" lon="-84.957893"><ele>268.8</ele><time>2026-08-16T19:23:36Z</time></trkpt>
<trkpt lat="35.130633" lon="-84.957905"><ele>268.8</ele><time>2026-08-16T19:23:38Z</time></trkpt>
<trkpt lat="35.130605" lon="-84.957917"><ele>268.5</ele><time>2026-08-16T19:23:40Z</time></trkpt>
<trkpt lat="35.130566" lon="-84.957926"><ele>268.5</ele><time>2026-08-16T19:23:43Z</time></trkpt>
<trkpt lat="35.130528" lon="-84.957932"><ele>268.5</ele><time>2026-08-16T19:23:46Z</time></trkpt>
<trkpt lat="35.130489" lon="-84.957943"><ele>268.8</ele><time>2026-08-16T19:23:49Z</time></trkpt>
<trkpt lat="35.130462" lon="-84.957958"><ele>268.8</ele><time>2026-08-16T19:23:51Z</time></trkpt>
<trkpt lat="35.130437" lon="-84.95798"><ele>268.8</ele><time>2026-08-16T19:23:53Z</time></trkpt>
<trkpt lat="35.130413" lon="-84.957998"><ele>269.1</ele><time>2026-08-16T19:23:55Z</time></trkpt>
<trkpt lat="35.130391" lon="-84.958019"><ele>269.1</ele><time>2026-08-16T19:23:57Z</time></trkpt>
<trkpt lat="35.130372" lon="-84.958046"><ele>269.1</ele><time>2026-08-16T19:23:59Z</time></trkpt>
<trkpt lat="35.130353" lon="-84.958073"><ele>269.4</ele><time>2026-08-16T19:24:01Z</time></trkpt>
<trkpt lat="35.130335" lon="-84.958101"><ele>269.4</ele><time>2026-08-16T19:24:03Z</time></trkpt>
<trkpt lat="35.130319" lon="-84.958129"><ele>269.4</ele><time>2026-08-16T19:24:05Z</time></trkpt>
<trkpt lat="35.130294" lon="-84.958145"><ele>269.4</ele><time>2026-08-16T19:24:07Z</time></trkpt>
<trkpt lat="35.130262" lon="-84.958174"><ele>269.4</ele><time>2026-08-16T19:24:10Z</time></trkpt>
<trkpt lat="35.130236" lon="-84.958187"><ele>269.4</ele><time>2026-08-16T19:24:12Z</time></trkpt>
<trkpt lat="35.130206" lon="-84.958214"><ele>269.1</ele><time>2026-08-16T19:24:15Z</time></trkpt>
<trkpt lat="35.130166" lon="-84.958216"><ele>269.4</ele><time>2026-08-16T19:24:18Z</time></trkpt>
<trkpt lat="35.130128" lon="-84.9582"><ele>269.4</ele><time>2026-08-16T19:24:21Z</time></trkpt>
<trkpt lat="35.130095" lon="-84.958175"><ele>269.4</ele><time>2026-08-16T19:24:24Z</time></trkpt>
<trkpt lat="35.13008" lon="-84.958142"><ele>269.4</ele><time>2026-08-16T19:24:26Z</time></trkpt>
<trkpt lat="35.130061" lon="-84.958106"><ele>269.4</ele><time>2026-08-16T19:24:29Z</time></trkpt>
<trkpt lat="35.130036" lon="-84.958073"><ele>269.4</ele><time>2026-08-16T19:24:32Z</time></trkpt>
<trkpt lat="35.129998" lon="-84.958078"><ele>269.4</ele><time>2026-08-16T19:24:35Z</time></trkpt>
<trkpt lat="35.129979" lon="-84.958108"><ele>269.7</ele><time>2026-08-16T19:24:37Z</time></trkpt>
<trkpt lat="35.129974" lon="-84.958147"><ele>270.1</ele><time>2026-08-16T19:24:39Z</time></trkpt>
<trkpt lat="35.129953" lon="-84.958188"><ele>270.1</ele><time>2026-08-16T19:24:42Z</time></trkpt>
<trkpt lat="35.129937" lon="-84.958219"><ele>270.1</ele><time>2026-08-16T19:24:44Z</time></trkpt>
<trkpt lat="35.129915" lon="-84.958241"><ele>270.4</ele><time>2026-08-16T19:24:46Z</time></trkpt>
<trkpt lat="35.129878" lon="-84.95826"><ele>270.4</ele><time>2026-08-16T19:24:49Z</time></trkpt>
<trkpt lat="35.129843" lon="-84.95825"><ele>270.7</ele><time>2026-08-16T19:24:52Z</time></trkpt>
<trkpt lat="35.12982" lon="-84.958232"><ele>271.0</ele><time>2026-08-16T19:24:54Z</time></trkpt>
<trkpt lat="35.1298" lon="-84.958208"><ele>271.0</ele><time>2026-08-16T19:24:56Z</time></trkpt>
<trkpt lat="35.129782" lon="-84.958181"><ele>271.3</ele><time>2026-08-16T19:24:58Z</time></trkpt>
<trkpt lat="35.129767" lon="-84.958146"><ele>271.6</ele><time>2026-08-16T19:25:00Z</time></trkpt>
<trkpt lat="35.129749" lon="-84.958115"><ele>271.6</ele><time>2026-08-16T19:25:02Z</time></trkpt>
<trkpt lat="35.129727" lon="-84.958093"><ele>271.6</ele><time>2026-08-16T19:25:04Z</time></trkpt>
<trkpt lat="35.129715" lon="-84.958046"><ele>271.9</ele><time>2026-08-16T19:25:07Z</time></trkpt>
<trkpt lat="35.129713" lon="-84.958011"><ele>271.9</ele><time>2026-08-16T19:25:09Z</time></trkpt>
<trkpt lat="35.129702" lon="-84.957964"><ele>271.9</ele><time>2026-08-16T19:25:12Z</time></trkpt>
<trkpt lat="35.129706" lon="-84.957928"><ele>271.9</ele><time>2026-08-16T19:25:14Z</time></trkpt>
<trkpt lat="35.129701" lon="-84.95788"><ele>271.9</ele><time>2026-08-16T19:25:17Z</time></trkpt>
<trkpt lat="35.129692" lon="-84.957832"><ele>271.6</ele><time>2026-08-16T19:25:20Z</time></trkpt>
<trkpt lat="35.129686" lon="-84.957783"><ele>271.6</ele><time>2026-08-16T19:25:23Z</time></trkpt>
<trkpt lat="35.129671" lon="-84.957738"><ele>271.6</ele><time>2026-08-16T19:25:26Z</time></trkpt>
<trkpt lat="35.129656" lon="-84.957696"><ele>271.6</ele><time>2026-08-16T19:25:29Z</time></trkpt>
<trkpt lat="35.12965" lon="-84.957646"><ele>271.6</ele><time>2026-08-16T19:25:32Z</time></trkpt>
<trkpt lat="35.129664" lon="-84.957616"><ele>271.3</ele><time>2026-08-16T19:25:34Z</time></trkpt>
<trkpt lat="35.129696" lon="-84.957598"><ele>271.3</ele><time>2026-08-16T19:25:37Z</time></trkpt>
<trkpt lat="35.129725" lon="-84.9576"><ele>271.0</ele><time>2026-08-16T19:25:39Z</time></trkpt>
<trkpt lat="35.129753" lon="-84.957606"><ele>271.0</ele><time>2026-08-16T19:25:41Z</time></trkpt>
<trkpt lat="35.129783" lon="-84.957615"><ele>270.7</ele><time>2026-08-16T19:25:43Z</time></trkpt>
<trkpt lat="35.129812" lon="-84.957615"><ele>270.4</ele><time>2026-08-16T19:25:45Z</time></trkpt>
<trkpt lat="35.129849" lon="-84.957604"><ele>270.4</ele><time>2026-08-16T19:25:48Z</time></trkpt>
<trkpt lat="35.129867" lon="-84.957579"><ele>270.1</ele><time>2026-08-16T19:25:50Z</time></trkpt>
<trkpt lat="35.129892" lon="-84.957559"><ele>270.1</ele><time>2026-08-16T19:25:52Z</time></trkpt>
<trkpt lat="35.129919" lon="-84.957545"><ele>270.1</ele><time>2026-08-16T19:25:54Z</time></trkpt>
<trkpt lat="35.129944" lon="-84.957529"><ele>270.4</ele><time>2026-08-16T19:25:56Z</time></trkpt>
<trkpt lat="35.129965" lon="-84.957506"><ele>270.7</ele><time>2026-08-16T19:25:58Z</time></trkpt>
<trkpt lat="35.130001" lon="-84.957479"><ele>270.7</ele><time>2026-08-16T19:26:01Z</time></trkpt>
<trkpt lat="35.13002" lon="-84.957451"><ele>270.7</ele><time>2026-08-16T19:26:03Z</time></trkpt>
<trkpt lat="35.130039" lon="-84.957419"><ele>270.7</ele><time>2026-08-16T19:26:05Z</time></trkpt>
<trkpt lat="35.130063" lon="-84.957393"><ele>270.7</ele><time>2026-08-16T19:26:07Z</time></trkpt>
<trkpt lat="35.130097" lon="-84.957369"><ele>270.7</ele><time>2026-08-16T19:26:10Z</time></trkpt>
<trkpt lat="35.130119" lon="-84.957347"><ele>270.4</ele><time>2026-08-16T19:26:12Z</time></trkpt>
<trkpt lat="35.130133" lon="-84.957318"><ele>270.7</ele><time>2026-08-16T19:26:14Z</time></trkpt>
<trkpt lat="35.13016" lon="-84.957282"><ele>271.0</ele><time>2026-08-16T19:26:17Z</time></trkpt>
<trkpt lat="35.130188" lon="-84.957274"><ele>271.3</ele><time>2026-08-16T19:26:19Z</time></trkpt>
<trkpt lat="35.130216" lon="-84.957265"><ele>271.6</ele><time>2026-08-16T19:26:21Z</time></trkpt>
<trkpt lat="35.130252" lon="-84.95725"><ele>271.9</ele><time>2026-08-16T19:26:24Z</time></trkpt>
<trkpt lat="35.130271" lon="-84.957224"><ele>271.9</ele><time>2026-08-16T19:26:26Z</time></trkpt>
<trkpt lat="35.130299" lon="-84.957195"><ele>271.9</ele><time>2026-08-16T19:26:29Z</time></trkpt>
<trkpt lat="35.13033" lon="-84.957171"><ele>271.6</ele><time>2026-08-16T19:26:32Z</time></trkpt>
<trkpt lat="35.130363" lon="-84.957143"><ele>271.9</ele><time>2026-08-16T19:26:35Z</time></trkpt>
<trkpt lat="35.130401" lon="-84.957127"><ele>271.6</ele><time>2026-08-16T19:26:38Z</time></trkpt>
<trkpt lat="35.130427" lon="-84.957114"><ele>271.9</ele><time>2026-08-16T19:26:40Z</time></trkpt>
<trkpt lat="35.130456" lon="-84.957109"><ele>271.9</ele><time>2026-08-16T19:26:42Z</time></trkpt>
<trkpt lat="35.130486" lon="-84.957107"><ele>272.2</ele><time>2026-08-16T19:26:44Z</time></trkpt>
<trkpt lat="35.130517" lon="-84.957108"><ele>272.2</ele><time>2026-08-16T19:26:46Z</time></trkpt>
<trkpt lat="35.130546" lon="-84.957104"><ele>272.2</ele><time>2026-08-16T19:26:48Z</time></trkpt>
<trkpt lat="35.130585" lon="-84.957092"><ele>272.5</ele><time>2026-08-16T19:26:51Z</time></trkpt>
<trkpt lat="35.130612" lon="-84.957084"><ele>272.5</ele><time>2026-08-16T19:26:53Z</time></trkpt>
<trkpt lat="35.130645" lon="-84.957062"><ele>272.8</ele><time>2026-08-16T19:26:56Z</time></trkpt>
<trkpt lat="35.130668" lon="-84.95702"><ele>272.8</ele><time>2026-08-16T19:26:59Z</time></trkpt>
<trkpt lat="35.130698" lon="-84.956986"><ele>272.8</ele><time>2026-08-16T19:27:02Z</time></trkpt>
<trkpt lat="35.130726" lon="-84.956949"><ele>272.8</ele><time>2026-08-16T19:27:05Z</time></trkpt>
<trkpt lat="35.130755" lon="-84.956919"><ele>273.1</ele><time>2026-08-16T19:27:08Z</time></trkpt>
<trkpt lat="35.130788" lon="-84.95689"><ele>273.1</ele><time>2026-08-16T19:27:11Z</time></trkpt>
<trkpt lat="35.130807" lon="-84.956866"><ele>273.1</ele><time>2026-08-16T19:27:13Z</time></trkpt>
<trkpt lat="35.130825" lon="-84.956838"><ele>273.1</ele><time>2026-08-16T19:27:15Z</time></trkpt>
<trkpt lat="35.13084" lon="-84.956808"><ele>273.4</ele><time>2026-08-16T19:27:17Z</time></trkpt>
<trkpt lat="35.130857" lon="-84.956763"><ele>273.1</ele><time>2026-08-16T19:27:20Z</time></trkpt>
<trkpt lat="35.130885" lon="-84.95673"><ele>273.1</ele><time>2026-08-16T19:27:23Z</time></trkpt>
<trkpt lat="35.130906" lon="-84.956705"><ele>273.1</ele><time>2026-08-16T19:27:25Z</time></trkpt>
<trkpt lat="35.130946" lon="-84.956695"><ele>273.1</ele><time>2026-08-16T19:27:28Z</time></trkpt>
<trkpt lat="35.130972" lon="-84.956676"><ele>273.4</ele><time>2026-08-16T19:27:30Z</time></trkpt>
<trkpt lat="35.130986" lon="-84.956647"><ele>273.4</ele><time>2026-08-16T19:27:32Z</time></trkpt>
<trkpt lat="35.130999" lon="-84.956613"><ele>273.1</ele><time>2026-08-16T19:27:34Z</time></trkpt>
<trkpt lat="35.131012" lon="-84.956583"><ele>273.1</ele><time>2026-08-16T19:27:36Z</time></trkpt>
<trkpt lat="35.131032" lon="-84.956542"><ele>272.8</ele><time>2026-08-16T19:27:39Z</time></trkpt>
<trkpt lat="35.131051" lon="-84.956498"><ele>272.8</ele><time>2026-08-16T19:27:42Z</time></trkpt>
<trkpt lat="35.131077" lon="-84.95646"><ele>272.5</ele><time>2026-08-16T19:27:45Z</time></trkpt>
<trkpt lat="35.131106" lon="-84.956425"><ele>272.5</ele><time>2026-08-16T19:27:48Z</time></trkpt>
<trkpt lat="35.131131" lon="-84.956389"><ele>272.8</ele><time>2026-08-16T19:27:51Z</time></trkpt>
<trkpt lat="35.131162" lon="-84.956362"><ele>272.5</ele><time>2026-08-16T19:27:54Z</time></trkpt>
<trkpt lat="35.131187" lon="-84.956322"><ele>272.2</ele><time>2026-08-16T19:27:57Z</time></trkpt>
<trkpt lat="35.131194" lon="-84.956286"><ele>272.2</ele><time>2026-08-16T19:27:59Z</time></trkpt>
<trkpt lat="35.131198" lon="-84.956252"><ele>272.2</ele><time>2026-08-16T19:28:01Z</time></trkpt>
<trkpt lat="35.131198" lon="-84.956218"><ele>272.2</ele><time>2026-08-16T19:28:03Z</time></trkpt>
<trkpt lat="35.131196" lon="-84.956171"><ele>271.9</ele><time>2026-08-16T19:28:06Z</time></trkpt>
<trkpt lat="35.131199" lon="-84.956125"><ele>271.9</ele><time>2026-08-16T19:28:09Z</time></trkpt>
<trkpt lat="35.131201" lon="-84.956091"><ele>271.9</ele><time>2026-08-16T19:28:11Z</time></trkpt>
<trkpt lat="35.131192" lon="-84.956059"><ele>271.9</ele><time>2026-08-16T19:28:13Z</time></trkpt>
<trkpt lat="35.131173" lon="-84.956032"><ele>271.9</ele><time>2026-08-16T19:28:15Z</time></trkpt>
<trkpt lat="35.131143" lon="-84.956018"><ele>271.9</ele><time>2026-08-16T19:28:17Z</time></trkpt>
<trkpt lat="35.131113" lon="-84.956013"><ele>271.9</ele><time>2026-08-16T19:28:19Z</time></trkpt>
<trkpt lat="35.131085" lon="-84.956001"><ele>271.9</ele><time>2026-08-16T19:28:21Z</time></trkpt>
<trkpt lat="35.131044" lon="-84.955995"><ele>271.9</ele><time>2026-08-16T19:28:24Z</time></trkpt>
<trkpt lat="35.131019" lon="-84.956012"><ele>272.2</ele><time>2026-08-16T19:28:26Z</time></trkpt>
<trkpt lat="35.130993" lon="-84.956031"><ele>272.5</ele><time>2026-08-16T19:28:28Z</time></trkpt>
<trkpt lat="35.130962" lon="-84.956063"><ele>272.8</ele><time>2026-08-16T19:28:31Z</time></trkpt>
<trkpt lat="35.130942" lon="-84.956094"><ele>272.8</ele><time>2026-08-16T19:28:33Z</time></trkpt>
<trkpt lat="35.130919" lon="-84.956119"><ele>273.1</ele><time>2026-08-16T19:28:35Z</time></trkpt>
<trkpt lat="35.130897" lon="-84.95614"><ele>273.1</ele><time>2026-08-16T19:28:37Z</time></trkpt>
<trkpt lat="35.130871" lon="-84.956153"><ele>273.1</ele><time>2026-08-16T19:28:39Z</time></trkpt>
<trkpt lat="35.130839" lon="-84.956182"><ele>273.1</ele><time>2026-08-16T19:28:42Z</time></trkpt>
<trkpt lat="35.13082" lon="-84.95622"><ele>272.8</ele><time>2026-08-16T19:28:45Z</time></trkpt>
<trkpt lat="35.130812" lon="-84.956252"><ele>272.8</ele><time>2026-08-16T19:28:47Z</time></trkpt>
<trkpt lat="35.130801" lon="-84.956283"><ele>272.5</ele><time>2026-08-16T19:28:49Z</time></trkpt>
<trkpt lat="35.130785" lon="-84.956311"><ele>272.2</ele><time>2026-08-16T19:28:51Z</time></trkpt>
<trkpt lat="35.130765" lon="-84.956338"><ele>272.2</ele><time>2026-08-16T19:28:53Z</time></trkpt>
<trkpt lat="35.130742" lon="-84.956365"><ele>271.9</ele><time>2026-08-16T19:28:55Z</time></trkpt>
<trkpt lat="35.130707" lon="-84.956372"><ele>271.9</ele><time>2026-08-16T19:28:57Z</time></trkpt>
<trkpt lat="35.130677" lon="-84.956358"><ele>271.9</ele><time>2026-08-16T19:28:59Z</time></trkpt>
<trkpt lat="35.130654" lon="-84.956336"><ele>272.2</ele><time>2026-08-16T19:29:01Z</time></trkpt>
<trkpt lat="35.130634" lon="-84.956313"><ele>272.2</ele><time>2026-08-16T19:29:03Z</time></trkpt>
<trkpt lat="35.130604" lon="-84.95628"><ele>271.9</ele><time>2026-08-16T19:29:06Z</time></trkpt>
<trkpt lat="35.130568" lon="-84.956269"><ele>271.6</ele><time>2026-08-16T19:29:09Z</time></trkpt>
<trkpt lat="35.130543" lon="-84.956288"><ele>271.6</ele><time>2026-08-16T19:29:11Z</time></trkpt>
<trkpt lat="35.13053" lon="-84.956322"><ele>271.6</ele><time>2026-08-16T19:29:13Z</time></trkpt>
<trkpt lat="35.130526" lon="-84.956361"><ele>271.6</ele><time>2026-08-16T19:29:15Z</time></trkpt>
<trkpt lat="35.130517" lon="-84.956406"><ele>271.6</ele><time>2026-08-16T19:29:18Z</time></trkpt>
<trkpt lat="35.130496" lon="-84.956449"><ele>271.6</ele><time>2026-08-16T19:29:21Z</time></trkpt>
<trkpt lat="35.130476" lon="-84.956489"><ele>271.6</ele><time>2026-08-16T19:29:24Z</time></trkpt>
<trkpt lat="35.130466" lon="-84.956533"><ele>271.6</ele><time>2026-08-16T19:29:27Z</time></trkpt>
<trkpt lat="35.13045" lon="-84.956577"><ele>271.6</ele><time>2026-08-16T19:29:30Z</time></trkpt>
<trkpt lat="35.130424" lon="-84.956594"><ele>271.3</ele><time>2026-08-16T19:29:32Z</time></trkpt>
<trkpt lat="35.1304" lon="-84.956612"><ele>271.3</ele><time>2026-08-16T19:29:34Z</time></trkpt>
<trkpt lat="35.130375" lon="-84.956632"><ele>271.3</ele><time>2026-08-16T19:29:36Z</time></trkpt>
<trkpt lat="35.13035" lon="-84.956652"><ele>271.3</ele><time>2026-08-16T19:29:38Z</time></trkpt>
<trkpt lat="35.130317" lon="-84.956671"><ele>271.3</ele><time>2026-08-16T19:29:41Z</time></trkpt>
<trkpt lat="35.130294" lon="-84.95669"><ele>271.3</ele><time>2026-08-16T19:29:43Z</time></trkpt>
<trkpt lat="35.130268" lon="-84.956708"><ele>271.0</ele><time>2026-08-16T19:29:45Z</time></trkpt>
<trkpt lat="35.130234" lon="-84.956739"><ele>270.7</ele><time>2026-08-16T19:29:48Z</time></trkpt>
<trkpt lat="35.130208" lon="-84.956752"><ele>271.0</ele><time>2026-08-16T19:29:50Z</time></trkpt>
<trkpt lat="35.130179" lon="-84.956758"><ele>271.0</ele><time>2026-08-16T19:29:52Z</time></trkpt>
<trkpt lat="35.13014" lon="-84.956761"><ele>271.0</ele><time>2026-08-16T19:29:55Z</time></trkpt>
<trkpt lat="35.130102" lon="-84.956754"><ele>271.0</ele><time>2026-08-16T19:29:58Z</time></trkpt>
<trkpt lat="35.130071" lon="-84.956722"><ele>271.0</ele><time>2026-08-16T19:30:01Z</time></trkpt>
<trkpt lat="35.130051" lon="-84.956692"><ele>271.0</ele><time>2026-08-16T19:30:03Z</time></trkpt>
<trkpt lat="35.130032" lon="-84.956665"><ele>271.3</ele><time>2026-08-16T19:30:05Z</time></trkpt>
<trkpt lat="35.13002" lon="-84.956627"><ele>271.3</ele><time>2026-08-16T19:30:07Z</time></trkpt>
<trkpt lat="35.130012" lon="-84.956586"><ele>271.3</ele><time>2026-08-16T19:30:09Z</time></trkpt>
<trkpt lat="35.130007" lon="-84.956548"><ele>271.6</ele><time>2026-08-16T19:30:11Z</time></trkpt>
<trkpt lat="35.129994" lon="-84.956516"><ele>271.3</ele><time>2026-08-16T19:30:13Z</time></trkpt>
<trkpt lat="35.129956" lon="-84.956528"><ele>271.0</ele><time>2026-08-16T19:30:15Z</time></trkpt>
<trkpt lat="35.12992" lon="-84.956565"><ele>270.7</ele><time>2026-08-16T19:30:17Z</time></trkpt>
<trkpt lat="35.129908" lon="-84.95661"><ele>271.0</ele><time>2026-08-16T19:30:19Z</time></trkpt>
<trkpt lat="35.129907" lon="-84.956647"><ele>271.0</ele><time>2026-08-16T19:30:21Z</time></trkpt>
<trkpt lat="35.129907" lon="-84.956688"><ele>271.3</ele><time>2026-08-16T19:30:23Z</time></trkpt>
<trkpt lat="35.129898" lon="-84.956724"><ele>271.3</ele><time>2026-08-16T19:30:25Z</time></trkpt>
<trkpt lat="35.129881" lon="-84.956753"><ele>271.3</ele><time>2026-08-16T19:30:27Z</time></trkpt>
<trkpt lat="35.129872" lon="-84.956798"><ele>271.3</ele><time>2026-08-16T19:30:30Z</time></trkpt>
<trkpt lat="35.129847" lon="-84.956818"><ele>271.3</ele><time>2026-08-16T19:30:32Z</time></trkpt>
<trkpt lat="35.129815" lon="-84.956825"><ele>271.6</ele><time>2026-08-16T19:30:34Z</time></trkpt>
<trkpt lat="35.129783" lon="-84.956833"><ele>271.3</ele><time>2026-08-16T19:30:36Z</time></trkpt>
<trkpt lat="35.129752" lon="-84.956827"><ele>271.0</ele><time>2026-08-16T19:30:38Z</time></trkpt>
<trkpt lat="35.129721" lon="-84.956827"><ele>271.0</ele><time>2026-08-16T19:30:40Z</time></trkpt>
<trkpt lat="35.129692" lon="-84.956843"><ele>271.0</ele><time>2026-08-16T19:30:42Z</time></trkpt>
<trkpt lat="35.129672" lon="-84.956871"><ele>271.3</ele><time>2026-08-16T19:30:44Z</time></trkpt>
<trkpt lat="35.129659" lon="-84.956902"><ele>271.3</ele><time>2026-08-16T19:30:46Z</time></trkpt>
<trkpt lat="35.129639" lon="-84.956946"><ele>271.3</ele><time>2026-08-16T19:30:49Z</time></trkpt>
<trkpt lat="35.129605" lon="-84.95697"><ele>271.6</ele><time>2026-08-16T19:30:52Z</time></trkpt>
<trkpt lat="35.129577" lon="-84.956977"><ele>271.6</ele><time>2026-08-16T19:30:54Z</time></trkpt>
<trkpt lat="35.129537" lon="-84.95698"><ele>271.6</ele><time>2026-08-16T19:30:57Z</time></trkpt>
<trkpt lat="35.129515" lon="-84.956958"><ele>271.6</ele><time>2026-08-16T19:30:59Z</time></trkpt>
<trkpt lat="35.129505" lon="-84.956924"><ele>271.6</ele><time>2026-08-16T19:31:01Z</time></trkpt>
<trkpt lat="35.129497" lon="-84.956889"><ele>271.6</ele><time>2026-08-16T19:31:03Z</time></trkpt>
<trkpt lat="35.129491" lon="-84.956857"><ele>271.9</ele><time>2026-08-16T19:31:05Z</time></trkpt>
<trkpt lat="35.129481" lon="-84.95681"><ele>271.6</ele><time>2026-08-16T19:31:08Z</time></trkpt>
<trkpt lat="35.129459" lon="-84.956771"><ele>271.3</ele><time>2026-08-16T19:31:11Z</time></trkpt>
<trkpt lat="35.129448" lon="-84.956739"><ele>271.3</ele><time>2026-08-16T19:31:13Z</time></trkpt>
<trkpt lat="35.129434" lon="-84.956695"><ele>271.0</ele><time>2026-08-16T19:31:16Z</time></trkpt>
<trkpt lat="35.12941" lon="-84.956674"><ele>271.0</ele><time>2026-08-16T19:31:18Z</time></trkpt>
<trkpt lat="35.129384" lon="-84.956663"><ele>271.0</ele><time>2026-08-16T19:31:20Z</time></trkpt>
<trkpt lat="35.129354" lon="-84.956677"><ele>271.0</ele><time>2026-08-16T19:31:22Z</time></trkpt>
<trkpt lat="35.129329" lon="-84.956704"><ele>270.7</ele><time>2026-08-16T19:31:24Z</time></trkpt>
<trkpt lat="35.129305" lon="-84.956725"><ele>271.0</ele><time>2026-08-16T19:31:26Z</time></trkpt>
<trkpt lat="35.129279" lon="-84.956743"><ele>271.3</ele><time>2026-08-16T19:31:28Z</time></trkpt>
<trkpt lat="35.129246" lon="-84.956768"><ele>271.3</ele><time>2026-08-16T19:31:31Z</time></trkpt>
<trkpt lat="35.129211" lon="-84.956789"><ele>271.3</ele><time>2026-08-16T19:31:34Z</time></trkpt>
<trkpt lat="35.129186" lon="-84.956805"><ele>271.6</ele><time>2026-08-16T19:31:36Z</time></trkpt>
<trkpt lat="35.129159" lon="-84.956816"><ele>271.6</ele><time>2026-08-16T19:31:38Z</time></trkpt>
<trkpt lat="35.129131" lon="-84.956817"><ele>271.9</ele><time>2026-08-16T19:31:40Z</time></trkpt>
<trkpt lat="35.129102" lon="-84.956807"><ele>272.2</ele><time>2026-08-16T19:31:42Z</time></trkpt>
<trkpt lat="35.129066" lon="-84.956789"><ele>272.5</ele><time>2026-08-16T19:31:45Z</time></trkpt>
<trkpt lat="35.129044" lon="-84.956754"><ele>272.8</ele><time>2026-08-16T19:31:48Z</time></trkpt>
<trkpt lat="35.129042" lon="-84.956719"><ele>273.1</ele><time>2026-08-16T19:31:50Z</time></trkpt>
<trkpt lat="35.129068" lon="-84.956688"><ele>273.7</ele><time>2026-08-16T19:31:53Z</time></trkpt>
<trkpt lat="35.129105" lon="-84.95667"><ele>274.0</ele><time>2026-08-16T19:31:56Z</time></trkpt>
<trkpt lat="35.129131" lon="-84.956657"><ele>274.0</ele><time>2026-08-16T19:31:58Z</time></trkpt>
<trkpt lat="35.129159" lon="-84.956624"><ele>274.3</ele><time>2026-08-16T19:32:01Z</time></trkpt>
<trkpt lat="35.129181" lon="-84.956582"><ele>274.3</ele><time>2026-08-16T19:32:04Z</time></trkpt>
<trkpt lat="35.129197" lon="-84.956536"><ele>274.6</ele><time>2026-08-16T19:32:07Z</time></trkpt>
<trkpt lat="35.129206" lon="-84.956503"><ele>274.6</ele><time>2026-08-16T19:32:09Z</time></trkpt>
<trkpt lat="35.129219" lon="-84.95646"><ele>274.6</ele><time>2026-08-16T19:32:12Z</time></trkpt>
<trkpt lat="35.129238" lon="-84.956417"><ele>274.6</ele><time>2026-08-16T19:32:15Z</time></trkpt>
<trkpt lat="35.129266" lon="-84.956386"><ele>274.3</ele><time>2026-08-16T19:32:18Z</time></trkpt>
<trkpt lat="35.129302" lon="-84.956367"><ele>274.3</ele><time>2026-08-16T19:32:21Z</time></trkpt>
<trkpt lat="35.129328" lon="-84.956349"><ele>274.3</ele><time>2026-08-16T19:32:23Z</time></trkpt>
<trkpt lat="35.129367" lon="-84.956334"><ele>274.3</ele><time>2026-08-16T19:32:26Z</time></trkpt>
<trkpt lat="35.129403" lon="-84.956345"><ele>273.7</ele><time>2026-08-16T19:32:29Z</time></trkpt>
<trkpt lat="35.129428" lon="-84.956377"><ele>273.7</ele><time>2026-08-16T19:32:32Z</time></trkpt>
<trkpt lat="35.129442" lon="-84.956407"><ele>273.7</ele><time>2026-08-16T19:32:34Z</time></trkpt>
<trkpt lat="35.129469" lon="-84.956438"><ele>273.4</ele><time>2026-08-16T19:32:37Z</time></trkpt>
<trkpt lat="35.129498" lon="-84.956468"><ele>273.7</ele><time>2026-08-16T19:32:40Z</time></trkpt>
<trkpt lat="35.129522" lon="-84.956488"><ele>273.7</ele><time>2026-08-16T19:32:42Z</time></trkpt>
<trkpt lat="35.129546" lon="-84.956508"><ele>274.0</ele><time>2026-08-16T19:32:44Z</time></trkpt>
<trkpt lat="35.12958" lon="-84.956535"><ele>274.0</ele><time>2026-08-16T19:32:47Z</time></trkpt>
<trkpt lat="35.129607" lon="-84.956549"><ele>274.3</ele><time>2026-08-16T19:32:49Z</time></trkpt>
<trkpt lat="35.12964" lon="-84.956573"><ele>274.3</ele><time>2026-08-16T19:32:52Z</time></trkpt>
<trkpt lat="35.129668" lon="-84.956577"><ele>274.3</ele><time>2026-08-16T19:32:54Z</time></trkpt>
<trkpt lat="35.129696" lon="-84.956573"><ele>274.3</ele><time>2026-08-16T19:32:56Z</time></trkpt>
<trkpt lat="35.129726" lon="-84.956577"><ele>274.3</ele><time>2026-08-16T19:32:58Z</time></trkpt>
<trkpt lat="35.129756" lon="-84.95657"><ele>274.3</ele><time>2026-08-16T19:33:00Z</time></trkpt>
<trkpt lat="35.129782" lon="-84.956553"><ele>274.3</ele><time>2026-08-16T19:33:02Z</time></trkpt>
<trkpt lat="35.129809" lon="-84.956535"><ele>274.6</ele><time>2026-08-16T19:33:04Z</time></trkpt>
<trkpt lat="35.129834" lon="-84.956517"><ele>274.6</ele><time>2026-08-16T19:33:06Z</time></trkpt>
<trkpt lat="35.129859" lon="-84.956498"><ele>274.3</ele><time>2026-08-16T19:33:08Z</time></trkpt>
<trkpt lat="35.129892" lon="-84.956471"><ele>274.3</ele><time>2026-08-16T19:33:11Z</time></trkpt>
<trkpt lat="35.129908" lon="-84.956442"><ele>274.3</ele><time>2026-08-16T19:33:13Z</time></trkpt>
<trkpt lat="35.129914" lon="-84.956403"><ele>274.3</ele><time>2026-08-16T19:33:15Z</time></trkpt>
<trkpt lat="35.129921" lon="-84.956367"><ele>274.3</ele><time>2026-08-16T19:33:17Z</time></trkpt>
<trkpt lat="35.129931" lon="-84.956319"><ele>274.6</ele><time>2026-08-16T19:33:20Z</time></trkpt>
<trkpt lat="35.129935" lon="-84.956282"><ele>274.6</ele><time>2026-08-16T19:33:22Z</time></trkpt>
<trkpt lat="35.129942" lon="-84.956249"><ele>274.9</ele><time>2026-08-16T19:33:24Z</time></trkpt>
<trkpt lat="35.129948" lon="-84.956216"><ele>274.9</ele><time>2026-08-16T19:33:26Z</time></trkpt>
<trkpt lat="35.129961" lon="-84.956171"><ele>274.9</ele><time>2026-08-16T19:33:29Z</time></trkpt>
<trkpt lat="35.12997" lon="-84.956124"><ele>274.9</ele><time>2026-08-16T19:33:32Z</time></trkpt>
<trkpt lat="35.129975" lon="-84.956081"><ele>274.9</ele><time>2026-08-16T19:33:35Z</time></trkpt>
<trkpt lat="35.129975" lon="-84.956047"><ele>274.6</ele><time>2026-08-16T19:33:37Z</time></trkpt>
<trkpt lat="35.129995" lon="-84.956017"><ele>274.6</ele><time>2026-08-16T19:33:39Z</time></trkpt>
<trkpt lat="35.130025" lon="-84.956007"><ele>274.6</ele><time>2026-08-16T19:33:41Z</time></trkpt>
<trkpt lat="35.130055" lon="-84.956018"><ele>274.3</ele><time>2026-08-16T19:33:43Z</time></trkpt>
<trkpt lat="35.130082" lon="-84.956036"><ele>274.3</ele><time>2026-08-16T19:33:45Z</time></trkpt>
<trkpt lat="35.130105" lon="-84.956057"><ele>274.6</ele><time>2026-08-16T19:33:47Z</time></trkpt>
<trkpt lat="35.130127" lon="-84.956078"><ele>274.6</ele><time>2026-08-16T19:33:49Z</time></trkpt>
<trkpt lat="35.130147" lon="-84.956108"><ele>274.6</ele><time>2026-08-16T19:33:51Z</time></trkpt>
<trkpt lat="35.130163" lon="-84.956143"><ele>274.9</ele><time>2026-08-16T19:33:53Z</time></trkpt>
<trkpt lat="35.130163" lon="-84.95618"><ele>274.9</ele><time>2026-08-16T19:33:55Z</time></trkpt>
<trkpt lat="35.130162" lon="-84.95622"><ele>275.2</ele><time>2026-08-16T19:33:57Z</time></trkpt>
<trkpt lat="35.130157" lon="-84.956258"><ele>275.2</ele><time>2026-08-16T19:33:59Z</time></trkpt>
<trkpt lat="35.130157" lon="-84.956292"><ele>275.2</ele><time>2026-08-16T19:34:01Z</time></trkpt>
<trkpt lat="35.130161" lon="-84.956328"><ele>275.2</ele><time>2026-08-16T19:34:03Z</time></trkpt>
<trkpt lat="35.130164" lon="-84.956364"><ele>275.2</ele><time>2026-08-16T19:34:05Z</time></trkpt>
<trkpt lat="35.130168" lon="-84.956397"><ele>275.5</ele><time>2026-08-16T19:34:07Z</time></trkpt>
<trkpt lat="35.130194" lon="-84.956435"><ele>275.5</ele><time>2026-08-16T19:34:10Z</time></trkpt>
<trkpt lat="35.130225" lon="-84.956433"><ele>275.5</ele><time>2026-08-16T19:34:12Z</time></trkpt>
<trkpt lat="35.130253" lon="-84.956432"><ele>275.5</ele><time>2026-08-16T19:34:14Z</time></trkpt>
<trkpt lat="35.130282" lon="-84.956427"><ele>275.8</ele><time>2026-08-16T19:34:16Z</time></trkpt>
<trkpt lat="35.13031" lon="-84.956414"><ele>275.8</ele><time>2026-08-16T19:34:18Z</time></trkpt>
<trkpt lat="35.130334" lon="-84.956392"><ele>275.8</ele><time>2026-08-16T19:34:20Z</time></trkpt>
<trkpt lat="35.130357" lon="-84.956371"><ele>275.8</ele><time>2026-08-16T19:34:22Z</time></trkpt>
<trkpt lat="35.130375" lon="-84.956346"><ele>275.8</ele><time>2026-08-16T19:34:24Z</time></trkpt>
<trkpt lat="35.130393" lon="-84.956302"><ele>276.1</ele><time>2026-08-16T19:34:27Z</time></trkpt>
<trkpt lat="35.130401" lon="-84.956253"><ele>276.5</ele><time>2026-08-16T19:34:30Z</time></trkpt>
<trkpt lat="35.130401" lon="-84.956215"><ele>276.1</ele><time>2026-08-16T19:34:32Z</time></trkpt>
<trkpt lat="35.130403" lon="-84.95618"><ele>275.8</ele><time>2026-08-16T19:34:34Z</time></trkpt>
<trkpt lat="35.130408" lon="-84.956145"><ele>275.8</ele><time>2026-08-16T19:34:36Z</time></trkpt>
<trkpt lat="35.130419" lon="-84.956099"><ele>275.8</ele><time>2026-08-16T19:34:39Z</time></trkpt>
<trkpt lat="35.13043" lon="-84.956056"><ele>275.8</ele><time>2026-08-16T19:34:42Z</time></trkpt>
<trkpt lat="35.130441" lon="-84.956026"><ele>275.5</ele><time>2026-08-16T19:34:44Z</time></trkpt>
<trkpt lat="35.130445" lon="-84.955992"><ele>275.5</ele><time>2026-08-16T19:34:46Z</time></trkpt>
<trkpt lat="35.130439" lon="-84.955957"><ele>275.2</ele><time>2026-08-16T19:34:48Z</time></trkpt>
<trkpt lat="35.130433" lon="-84.955923"><ele>275.2</ele><time>2026-08-16T19:34:50Z</time></trkpt>
<trkpt lat="35.13042" lon="-84.955891"><ele>275.2</ele><time>2026-08-16T19:34:52Z</time></trkpt>
<trkpt lat="35.130409" lon="-84.955859"><ele>275.2</ele><time>2026-08-16T19:34:54Z</time></trkpt>
<trkpt lat="35.130416" lon="-84.955826"><ele>275.5</ele><time>2026-08-16T19:34:56Z</time></trkpt>
<trkpt lat="35.13043" lon="-84.955797"><ele>275.5</ele><time>2026-08-16T19:34:58Z</time></trkpt>
<trkpt lat="35.130447" lon="-84.955752"><ele>275.2</ele><time>2026-08-16T19:35:01Z</time></trkpt>
<trkpt lat="35.130451" lon="-84.955716"><ele>275.2</ele><time>2026-08-16T19:35:03Z</time></trkpt>
<trkpt lat="35.130447" lon="-84.955679"><ele>275.2</ele><time>2026-08-16T19:35:05Z</time></trkpt>
<trkpt lat="35.13045" lon="-84.95563"><ele>275.2</ele><time>2026-08-16T19:35:08Z</time></trkpt>
<trkpt lat="35.130462" lon="-84.955597"><ele>275.2</ele><time>2026-08-16T19:35:10Z</time></trkpt>
<trkpt lat="35.130476" lon="-84.955562"><ele>275.5</ele><time>2026-08-16T19:35:12Z</time></trkpt>
<trkpt lat="35.130496" lon="-84.955531"><ele>275.2</ele><time>2026-08-16T19:35:14Z</time></trkpt>
<trkpt lat="35.130522" lon="-84.95551"><ele>275.2</ele><time>2026-08-16T19:35:16Z</time></trkpt>
<trkpt lat="35.130556" lon="-84.955486"><ele>275.5</ele><time>2026-08-16T19:35:19Z</time></trkpt>
<trkpt lat="35.130585" lon="-84.955475"><ele>275.5</ele><time>2026-08-16T19:35:21Z</time></trkpt>
<trkpt lat="35.130615" lon="-84.955469"><ele>275.8</ele><time>2026-08-16T19:35:23Z</time></trkpt>
<trkpt lat="35.130645" lon="-84.955471"><ele>275.8</ele><time>2026-08-16T19:35:25Z</time></trkpt>
<trkpt lat="35.130676" lon="-84.95547"><ele>275.8</ele><time>2026-08-16T19:35:27Z</time></trkpt>
<trkpt lat="35.130705" lon="-84.955462"><ele>275.8</ele><time>2026-08-16T19:35:29Z</time></trkpt>
<trkpt lat="35.130732" lon="-84.955447"><ele>275.8</ele><time>2026-08-16T19:35:31Z</time></trkpt>
<trkpt lat="35.130759" lon="-84.955441"><ele>275.8</ele><time>2026-08-16T19:35:33Z</time></trkpt>
<trkpt lat="35.130795" lon="-84.955423"><ele>276.1</ele><time>2026-08-16T19:35:36Z</time></trkpt>
<trkpt lat="35.130831" lon="-84.955404"><ele>275.8</ele><time>2026-08-16T19:35:39Z</time></trkpt>
<trkpt lat="35.130859" lon="-84.955401"><ele>275.8</ele><time>2026-08-16T19:35:41Z</time></trkpt>
<trkpt lat="35.130898" lon="-84.955399"><ele>275.8</ele><time>2026-08-16T19:35:44Z</time></trkpt>
<trkpt lat="35.130936" lon="-84.955385"><ele>275.5</ele><time>2026-08-16T19:35:47Z</time></trkpt>
<trkpt lat="35.130974" lon="-84.955378"><ele>275.8</ele><time>2026-08-16T19:35:50Z</time></trkpt>
<trkpt lat="35.131011" lon="-84.955368"><ele>275.8</ele><time>2026-08-16T19:35:53Z</time></trkpt>
<trkpt lat="35.131039" lon="-84.955361"><ele>275.8</ele><time>2026-08-16T19:35:55Z</time></trkpt>
<trkpt lat="35.131063" lon="-84.955339"><ele>275.8</ele><time>2026-08-16T19:35:57Z</time></trkpt>
<trkpt lat="35.13108" lon="-84.955312"><ele>275.8</ele><time>2026-08-16T19:35:59Z</time></trkpt>
<trkpt lat="35.131107" lon="-84.955276"><ele>275.8</ele><time>2026-08-16T19:36:02Z</time></trkpt>
<trkpt lat="35.131133" lon="-84.95524"><ele>275.8</ele><time>2026-08-16T19:36:05Z</time></trkpt>
<trkpt lat="35.131163" lon="-84.955208"><ele>276.1</ele><time>2026-08-16T19:36:08Z</time></trkpt>
<trkpt lat="35.131186" lon="-84.955189"><ele>276.1</ele><time>2026-08-16T19:36:10Z</time></trkpt>
<trkpt lat="35.131206" lon="-84.955164"><ele>276.1</ele><time>2026-08-16T19:36:12Z</time></trkpt>
<trkpt lat="35.131227" lon="-84.955126"><ele>275.8</ele><time>2026-08-16T19:36:15Z</time></trkpt>
<trkpt lat="35.131254" lon="-84.955094"><ele>275.8</ele><time>2026-08-16T19:36:18Z</time></trkpt>
<trkpt lat="35.131284" lon="-84.955064"><ele>275.5</ele><time>2026-08-16T19:36:21Z</time></trkpt>
<trkpt lat="35.131309" lon="-84.955049"><ele>275.2</ele><time>2026-08-16T19:36:23Z</time></trkpt>
<trkpt lat="35.131336" lon="-84.955039"><ele>275.2</ele><time>2026-08-16T19:36:25Z</time></trkpt>
<trkpt lat="35.131364" lon="-84.955034"><ele>274.9</ele><time>2026-08-16T19:36:27Z</time></trkpt>
<trkpt lat="35.131391" lon="-84.955026"><ele>274.9</ele><time>2026-08-16T19:36:29Z</time></trkpt>
<trkpt lat="35.131418" lon="-84.955015"><ele>274.9</ele><time>2026-08-16T19:36:31Z</time></trkpt>
<trkpt lat="35.131446" lon="-84.955002"><ele>274.9</ele><time>2026-08-16T19:36:33Z</time></trkpt>
<trkpt lat="35.131486" lon="-84.955001"><ele>274.9</ele><time>2026-08-16T19:36:36Z</time></trkpt>
<trkpt lat="35.131523" lon="-84.954997"><ele>274.9</ele><time>2026-08-16T19:36:39Z</time></trkpt>
<trkpt lat="35.131547" lon="-84.954982"><ele>274.9</ele><time>2026-08-16T19:36:41Z</time></trkpt>
<trkpt lat="35.131584" lon="-84.95496"><ele>274.9</ele><time>2026-08-16T19:36:44Z</time></trkpt>
<trkpt lat="35.131609" lon="-84.954939"><ele>275.2</ele><time>2026-08-16T19:36:46Z</time></trkpt>
<trkpt lat="35.131633" lon="-84.954918"><ele>275.2</ele><time>2026-08-16T19:36:48Z</time></trkpt>
<trkpt lat="35.13166" lon="-84.954884"><ele>275.2</ele><time>2026-08-16T19:36:51Z</time></trkpt>
<trkpt lat="35.131694" lon="-84.954858"><ele>275.5</ele><time>2026-08-16T19:36:54Z</time></trkpt>
<trkpt lat="35.13173" lon="-84.954835"><ele>275.2</ele><time>2026-08-16T19:36:57Z</time></trkpt>
<trkpt lat="35.131768" lon="-84.954826"><ele>275.2</ele><time>2026-08-16T19:37:00Z</time></trkpt>
<trkpt lat="35.13181" lon="-84.954828"><ele>274.9</ele><time>2026-08-16T19:37:03Z</time></trkpt>
<trkpt lat="35.131839" lon="-84.95485"><ele>274.6</ele><time>2026-08-16T19:37:05Z</time></trkpt>
<trkpt lat="35.131873" lon="-84.954874"><ele>274.6</ele><time>2026-08-16T19:37:08Z</time></trkpt>
<trkpt lat="35.131893" lon="-84.954899"><ele>274.3</ele><time>2026-08-16T19:37:10Z</time></trkpt>
<trkpt lat="35.131907" lon="-84.95493"><ele>274.3</ele><time>2026-08-16T19:37:12Z</time></trkpt>
<trkpt lat="35.131921" lon="-84.954962"><ele>274.3</ele><time>2026-08-16T19:37:14Z</time></trkpt>
<trkpt lat="35.131927" lon="-84.954996"><ele>274.0</ele><time>2026-08-16T19:37:16Z</time></trkpt>
<trkpt lat="35.131934" lon="-84.955034"><ele>274.0</ele><time>2026-08-16T19:37:18Z</time></trkpt>
<trkpt lat="35.131948" lon="-84.955069"><ele>274.0</ele><time>2026-08-16T19:37:20Z</time></trkpt>
<trkpt lat="35.131958" lon="-84.955102"><ele>274.0</ele><time>2026-08-16T19:37:22Z</time></trkpt>
<trkpt lat="35.131971" lon="-84.955139"><ele>273.7</ele><time>2026-08-16T19:37:25Z</time></trkpt>
<trkpt lat="35.131986" lon="-84.955173"><ele>274.0</ele><time>2026-08-16T19:37:28Z</time></trkpt>
<trkpt lat="35.132011" lon="-84.955189"><ele>273.7</ele><time>2026-08-16T19:37:30Z</time></trkpt>
<trkpt lat="35.132042" lon="-84.955169"><ele>273.7</ele><time>2026-08-16T19:37:32Z</time></trkpt>
<trkpt lat="35.132065" lon="-84.95514"><ele>273.7</ele><time>2026-08-16T19:37:34Z</time></trkpt>
<trkpt lat="35.132078" lon="-84.955109"><ele>273.4</ele><time>2026-08-16T19:37:36Z</time></trkpt>
<trkpt lat="35.132086" lon="-84.955074"><ele>273.1</ele><time>2026-08-16T19:37:38Z</time></trkpt>
<trkpt lat="35.132088" lon="-84.955033"><ele>273.1</ele><time>2026-08-16T19:37:40Z</time></trkpt>
<trkpt lat="35.132087" lon="-84.954991"><ele>272.8</ele><time>2026-08-16T19:37:42Z</time></trkpt>
<trkpt lat="35.132094" lon="-84.954956"><ele>272.8</ele><time>2026-08-16T19:37:44Z</time></trkpt>
<trkpt lat="35.132114" lon="-84.954927"><ele>272.8</ele><time>2026-08-16T19:37:46Z</time></trkpt>
<trkpt lat="35.132128" lon="-84.954897"><ele>272.8</ele><time>2026-08-16T19:37:48Z</time></trkpt>
<trkpt lat="35.132144" lon="-84.954869"><ele>272.5</ele><time>2026-08-16T19:37:50Z</time></trkpt>
<trkpt lat="35.132173" lon="-84.954852"><ele>272.5</ele><time>2026-08-16T19:37:52Z</time></trkpt>
<trkpt lat="35.132201" lon="-84.95484"><ele>272.5</ele><time>2026-08-16T19:37:54Z</time></trkpt>
<trkpt lat="35.132228" lon="-84.954847"><ele>272.5</ele><time>2026-08-16T19:37:56Z</time></trkpt>
<trkpt lat="35.132254" lon="-84.954858"><ele>272.5</ele><time>2026-08-16T19:37:58Z</time></trkpt>
<trkpt lat="35.132282" lon="-84.954866"><ele>272.5</ele><time>2026-08-16T19:38:00Z</time></trkpt>
<trkpt lat="35.132309" lon="-84.954882"><ele>272.8</ele><time>2026-08-16T19:38:02Z</time></trkpt>
<trkpt lat="35.132333" lon="-84.954899"><ele>272.8</ele><time>2026-08-16T19:38:04Z</time></trkpt>
<trkpt lat="35.132371" lon="-84.954914"><ele>272.5</ele><time>2026-08-16T19:38:07Z</time></trkpt>
<trkpt lat="35.132398" lon="-84.954905"><ele>272.5</ele><time>2026-08-16T19:38:09Z</time></trkpt>
<trkpt lat="35.132413" lon="-84.954869"><ele>272.5</ele><time>2026-08-16T19:38:11Z</time></trkpt>
<trkpt lat="35.13241" lon="-84.954821"><ele>272.5</ele><time>2026-08-16T19:38:13Z</time></trkpt>
<trkpt lat="35.132393" lon="-84.954784"><ele>272.5</ele><time>2026-08-16T19:38:15Z</time></trkpt>
<trkpt lat="35.13238" lon="-84.95475"><ele>272.2</ele><time>2026-08-16T19:38:17Z</time></trkpt>
<trkpt lat="35.132369" lon="-84.954713"><ele>272.2</ele><time>2026-08-16T19:38:19Z</time></trkpt>
<trkpt lat="35.13236" lon="-84.954679"><ele>272.2</ele><time>2026-08-16T19:38:21Z</time></trkpt>
<trkpt lat="35.132359" lon="-84.954629"><ele>272.2</ele><time>2026-08-16T19:38:24Z</time></trkpt>
<trkpt lat="35.132368" lon="-84.954597"><ele>272.2</ele><time>2026-08-16T19:38:26Z</time></trkpt>
<trkpt lat="35.132395" lon="-84.954569"><ele>272.2</ele><time>2026-08-16T19:38:29Z</time></trkpt>
<trkpt lat="35.132436" lon="-84.954554"><ele>272.2</ele><time>2026-08-16T19:38:32Z</time></trkpt>
<trkpt lat="35.132466" lon="-84.95455"><ele>272.5</ele><time>2026-08-16T19:38:34Z</time></trkpt>
<trkpt lat="35.132493" lon="-84.954545"><ele>272.5</ele><time>2026-08-16T19:38:36Z</time></trkpt>
<trkpt lat="35.132521" lon="-84.954542"><ele>272.5</ele><time>2026-08-16T19:38:38Z</time></trkpt>
<trkpt lat="35.132561" lon="-84.954542"><ele>272.5</ele><time>2026-08-16T19:38:41Z</time></trkpt>
<trkpt lat="35.132603" lon="-84.954555"><ele>272.5</ele><time>2026-08-16T19:38:44Z</time></trkpt>
<trkpt lat="35.132641" lon="-84.954571"><ele>272.8</ele><time>2026-08-16T19:38:47Z</time></trkpt>
<trkpt lat="35.13268" lon="-84.954583"><ele>273.1</ele><time>2026-08-16T19:38:50Z</time></trkpt>
<trkpt lat="35.132707" lon="-84.95459"><ele>273.1</ele><time>2026-08-16T19:38:52Z</time></trkpt>
<trkpt lat="35.132736" lon="-84.9546"><ele>272.8</ele><time>2026-08-16T19:38:54Z</time></trkpt>
<trkpt lat="35.132765" lon="-84.954597"><ele>272.8</ele><time>2026-08-16T19:38:56Z</time></trkpt>
<trkpt lat="35.132794" lon="-84.954601"><ele>272.5</ele><time>2026-08-16T19:38:58Z</time></trkpt>
<trkpt lat="35.132822" lon="-84.9546"><ele>272.5</ele><time>2026-08-16T19:39:00Z</time></trkpt>
<trkpt lat="35.13286" lon="-84.954607"><ele>272.2</ele><time>2026-08-16T19:39:03Z</time></trkpt>
<trkpt lat="35.132887" lon="-84.95462"><ele>272.5</ele><time>2026-08-16T19:39:05Z</time></trkpt>
<trkpt lat="35.132914" lon="-84.954632"><ele>272.5</ele><time>2026-08-16T19:39:07Z</time></trkpt>
<trkpt lat="35.132941" lon="-84.954647"><ele>272.5</ele><time>2026-08-16T19:39:09Z</time></trkpt>
<trkpt lat="35.132969" lon="-84.954655"><ele>272.8</ele><time>2026-08-16T19:39:11Z</time></trkpt>
<trkpt lat="35.132996" lon="-84.954664"><ele>272.8</ele><time>2026-08-16T19:39:13Z</time></trkpt>
<trkpt lat="35.133021" lon="-84.954678"><ele>272.8</ele><time>2026-08-16T19:39:15Z</time></trkpt>
<trkpt lat="35.133057" lon="-84.954695"><ele>272.8</ele><time>2026-08-16T19:39:18Z</time></trkpt>
<trkpt lat="35.133083" lon="-84.954729"><ele>272.8</ele><time>2026-08-16T19:39:21Z</time></trkpt>
<trkpt lat="35.1331" lon="-84.954772"><ele>273.1</ele><time>2026-08-16T19:39:24Z</time></trkpt>
<trkpt lat="35.133104" lon="-84.954821"><ele>273.1</ele><time>2026-08-16T19:39:27Z</time></trkpt>
<trkpt lat="35.1331" lon="-84.95486"><ele>272.8</ele><time>2026-08-16T19:39:30Z</time></trkpt>
<trkpt lat="35.133092" lon="-84.954895"><ele>272.5</ele><time>2026-08-16T19:39:33Z</time></trkpt>
<trkpt lat="35.133078" lon="-84.954937"><ele>272.5</ele><time>2026-08-16T19:39:36Z</time></trkpt>
<trkpt lat="35.133072" lon="-84.954981"><ele>272.2</ele><time>2026-08-16T19:39:39Z</time></trkpt>
<trkpt lat="35.13306" lon="-84.955029"><ele>272.2</ele><time>2026-08-16T19:39:42Z</time></trkpt>
<trkpt lat="35.133055" lon="-84.955078"><ele>272.2</ele><time>2026-08-16T19:39:45Z</time></trkpt>
<trkpt lat="35.133048" lon="-84.955123"><ele>271.9</ele><time>2026-08-16T19:39:48Z</time></trkpt>
<trkpt lat="35.133051" lon="-84.95517"><ele>271.6</ele><time>2026-08-16T19:39:51Z</time></trkpt>
<trkpt lat="35.133065" lon="-84.955204"><ele>271.3</ele><time>2026-08-16T19:39:53Z</time></trkpt>
<trkpt lat="35.133092" lon="-84.955226"><ele>271.3</ele><time>2026-08-16T19:39:55Z</time></trkpt>
<trkpt lat="35.133124" lon="-84.95523"><ele>271.3</ele><time>2026-08-16T19:39:57Z</time></trkpt>
<trkpt lat="35.133154" lon="-84.955226"><ele>271.3</ele><time>2026-08-16T19:39:59Z</time></trkpt>
<trkpt lat="35.133181" lon="-84.955212"><ele>271.0</ele><time>2026-08-16T19:40:01Z</time></trkpt>
<trkpt lat="35.133203" lon="-84.955188"><ele>271.0</ele><time>2026-08-16T19:40:03Z</time></trkpt>
<trkpt lat="35.133212" lon="-84.95514"><ele>270.7</ele><time>2026-08-16T19:40:06Z</time></trkpt>
<trkpt lat="35.133211" lon="-84.955101"><ele>270.4</ele><time>2026-08-16T19:40:08Z</time></trkpt>
<trkpt lat="35.133216" lon="-84.955066"><ele>270.4</ele><time>2026-08-16T19:40:10Z</time></trkpt>
<trkpt lat="35.133221" lon="-84.955031"><ele>270.1</ele><time>2026-08-16T19:40:12Z</time></trkpt>
<trkpt lat="35.13323" lon="-84.954997"><ele>270.1</ele><time>2026-08-16T19:40:14Z</time></trkpt>
<trkpt lat="35.13324" lon="-84.954964"><ele>270.1</ele><time>2026-08-16T19:40:16Z</time></trkpt>
<trkpt lat="35.133255" lon="-84.954931"><ele>270.1</ele><time>2026-08-16T19:40:18Z</time></trkpt>
<trkpt lat="35.133272" lon="-84.9549"><ele>270.1</ele><time>2026-08-16T19:40:20Z</time></trkpt>
<trkpt lat="35.133291" lon="-84.954871"><ele>270.1</ele><time>2026-08-16T19:40:22Z</time></trkpt>
<trkpt lat="35.133303" lon="-84.95484"><ele>269.7</ele><time>2026-08-16T19:40:24Z</time></trkpt>
<trkpt lat="35.133314" lon="-84.954794"><ele>269.7</ele><time>2026-08-16T19:40:27Z</time></trkpt>
<trkpt lat="35.133334" lon="-84.954753"><ele>269.7</ele><time>2026-08-16T19:40:30Z</time></trkpt>
<trkpt lat="35.133364" lon="-84.954741"><ele>269.7</ele><time>2026-08-16T19:40:32Z</time></trkpt>
<trkpt lat="35.133387" lon="-84.954723"><ele>269.7</ele><time>2026-08-16T19:40:34Z</time></trkpt>
<trkpt lat="35.13341" lon="-84.954682"><ele>269.7</ele><time>2026-08-16T19:40:37Z</time></trkpt>
<trkpt lat="35.13343" lon="-84.954658"><ele>269.7</ele><time>2026-08-16T19:40:39Z</time></trkpt>
<trkpt lat="35.133458" lon="-84.954644"><ele>269.7</ele><time>2026-08-16T19:40:41Z</time></trkpt>
<trkpt lat="35.133487" lon="-84.954644"><ele>269.7</ele><time>2026-08-16T19:40:43Z</time></trkpt>
<trkpt lat="35.133525" lon="-84.954641"><ele>269.7</ele><time>2026-08-16T19:40:46Z</time></trkpt>
<trkpt lat="35.133566" lon="-84.954651"><ele>269.4</ele><time>2026-08-16T19:40:49Z</time></trkpt>
<trkpt lat="35.133594" lon="-84.954662"><ele>269.1</ele><time>2026-08-16T19:40:51Z</time></trkpt>
<trkpt lat="35.133634" lon="-84.954673"><ele>269.1</ele><time>2026-08-16T19:40:54Z</time></trkpt>
<trkpt lat="35.133674" lon="-84.95467"><ele>268.8</ele><time>2026-08-16T19:40:57Z</time></trkpt>
<trkpt lat="35.133712" lon="-84.954667"><ele>268.5</ele><time>2026-08-16T19:41:00Z</time></trkpt>
<trkpt lat="35.133753" lon="-84.954665"><ele>268.5</ele><time>2026-08-16T19:41:03Z</time></trkpt>
<trkpt lat="35.133794" lon="-84.954662"><ele>268.2</ele><time>2026-08-16T19:41:06Z</time></trkpt>
<trkpt lat="35.133822" lon="-84.95465"><ele>267.9</ele><time>2026-08-16T19:41:08Z</time></trkpt>
<trkpt lat="35.133846" lon="-84.954629"><ele>267.9</ele><time>2026-08-16T19:41:10Z</time></trkpt>
<trkpt lat="35.133867" lon="-84.9546"><ele>267.6</ele><time>2026-08-16T19:41:12Z</time></trkpt>
<trkpt lat="35.133886" lon="-84.95457"><ele>267.6</ele><time>2026-08-16T19:41:14Z</time></trkpt>
<trkpt lat="35.133901" lon="-84.954536"><ele>267.3</ele><time>2026-08-16T19:41:16Z</time></trkpt>
<trkpt lat="35.133913" lon="-84.954504"><ele>267.0</ele><time>2026-08-16T19:41:18Z</time></trkpt>
<trkpt lat="35.133936" lon="-84.954464"><ele>266.7</ele><time>2026-08-16T19:41:21Z</time></trkpt>
<trkpt lat="35.133957" lon="-84.954441"><ele>266.7</ele><time>2026-08-16T19:41:23Z</time></trkpt>
<trkpt lat="35.133972" lon="-84.954407"><ele>266.7</ele><time>2026-08-16T19:41:25Z</time></trkpt>
<trkpt lat="35.133991" lon="-84.95438"><ele>266.7</ele><time>2026-08-16T19:41:27Z</time></trkpt>
<trkpt lat="35.134009" lon="-84.954341"><ele>266.4</ele><time>2026-08-16T19:41:30Z</time></trkpt>
<trkpt lat="35.134029" lon="-84.9543"><ele>266.4</ele><time>2026-08-16T19:41:33Z</time></trkpt>
<trkpt lat="35.13406" lon="-84.954267"><ele>266.7</ele><time>2026-08-16T19:41:36Z</time></trkpt>
<trkpt lat="35.134089" lon="-84.954236"><ele>267.0</ele><time>2026-08-16T19:41:39Z</time></trkpt>
<trkpt lat="35.134117" lon="-84.954202"><ele>267.0</ele><time>2026-08-16T19:41:42Z</time></trkpt>
<trkpt lat="35.134136" lon="-84.954177"><ele>267.0</ele><time>2026-08-16T19:41:44Z</time></trkpt>
<trkpt lat="35.134163" lon="-84.954143"><ele>267.0</ele><time>2026-08-16T19:41:47Z</time></trkpt>
<trkpt lat="35.134194" lon="-84.954111"><ele>267.3</ele><time>2026-08-16T19:41:50Z</time></trkpt>
<trkpt lat="35.134229" lon="-84.954097"><ele>267.6</ele><time>2026-08-16T19:41:53Z</time></trkpt>
<trkpt lat="35.134269" lon="-84.954091"><ele>267.6</ele><time>2026-08-16T19:41:56Z</time></trkpt>
<trkpt lat="35.1343" lon="-84.954095"><ele>267.9</ele><time>2026-08-16T19:41:59Z</time></trkpt>
<trkpt lat="35.134334" lon="-84.954114"><ele>268.2</ele><time>2026-08-16T19:42:02Z</time></trkpt>
<trkpt lat="35.134368" lon="-84.95414"><ele>268.5</ele><time>2026-08-16T19:42:05Z</time></trkpt>
<trkpt lat="35.134396" lon="-84.954167"><ele>268.5</ele><time>2026-08-16T19:42:08Z</time></trkpt>
<trkpt lat="35.134422" lon="-84.954181"><ele>268.8</ele><time>2026-08-16T19:42:10Z</time></trkpt>
<trkpt lat="35.134456" lon="-84.954206"><ele>269.1</ele><time>2026-08-16T19:42:13Z</time></trkpt>
<trkpt lat="35.134494" lon="-84.954212"><ele>269.7</ele><time>2026-08-16T19:42:16Z</time></trkpt>
<trkpt lat="35.134533" lon="-84.954222"><ele>269.7</ele><time>2026-08-16T19:42:19Z</time></trkpt>
<trkpt lat="35.13457" lon="-84.954229"><ele>270.1</ele><time>2026-08-16T19:42:22Z</time></trkpt>
<trkpt lat="35.134608" lon="-84.954234"><ele>270.1</ele><time>2026-08-16T19:42:25Z</time></trkpt>
<trkpt lat="35.134644" lon="-84.95424"><ele>270.1</ele><time>2026-08-16T19:42:28Z</time></trkpt>
<trkpt lat="35.134684" lon="-84.95423"><ele>270.1</ele><time>2026-08-16T19:42:31Z</time></trkpt>
<trkpt lat="35.134719" lon="-84.954207"><ele>270.1</ele><time>2026-08-16T19:42:34Z</time></trkpt>
<trkpt lat="35.134746" lon="-84.954192"><ele>270.1</ele><time>2026-08-16T19:42:36Z</time></trkpt>
<trkpt lat="35.134768" lon="-84.954166"><ele>270.4</ele><time>2026-08-16T19:42:38Z</time></trkpt>
<trkpt lat="35.134799" lon="-84.954135"><ele>270.7</ele><time>2026-08-16T19:42:41Z</time></trkpt>
<trkpt lat="35.134821" lon="-84.954114"><ele>270.7</ele><time>2026-08-16T19:42:43Z</time></trkpt>
<trkpt lat="35.134852" lon="-84.954086"><ele>270.7</ele><time>2026-08-16T19:42:46Z</time></trkpt>
<trkpt lat="35.134878" lon="-84.954071"><ele>270.7</ele><time>2026-08-16T19:42:48Z</time></trkpt>
<trkpt lat="35.134904" lon="-84.954053"><ele>271.0</ele><time>2026-08-16T19:42:50Z</time></trkpt>
<trkpt lat="35.134924" lon="-84.954031"><ele>271.0</ele><time>2026-08-16T19:42:52Z</time></trkpt>
<trkpt lat="35.134957" lon="-84.954004"><ele>271.0</ele><time>2026-08-16T19:42:55Z</time></trkpt>
<trkpt lat="35.13499" lon="-84.954033"><ele>271.3</ele><time>2026-08-16T19:42:58Z</time></trkpt>
<trkpt lat="35.134999" lon="-84.954065"><ele>271.3</ele><time>2026-08-16T19:43:00Z</time></trkpt>
<trkpt lat="35.134999" lon="-84.954103"><ele>271.6</ele><time>2026-08-16T19:43:02Z</time></trkpt>
<trkpt lat="35.135004" lon="-84.954137"><ele>271.9</ele><time>2026-08-16T19:43:04Z</time></trkpt>
<trkpt lat="35.135019" lon="-84.954181"><ele>272.2</ele><time>2026-08-16T19:43:07Z</time></trkpt>
<trkpt lat="35.135046" lon="-84.954212"><ele>272.5</ele><time>2026-08-16T19:43:10Z</time></trkpt>
<trkpt lat="35.13508" lon="-84.954237"><ele>272.5</ele><time>2026-08-16T19:43:13Z</time></trkpt>
<trkpt lat="35.135108" lon="-84.95424"><ele>272.8</ele><time>2026-08-16T19:43:15Z</time></trkpt>
<trkpt lat="35.135136" lon="-84.954236"><ele>273.1</ele><time>2026-08-16T19:43:17Z</time></trkpt>
<trkpt lat="35.135161" lon="-84.954223"><ele>273.1</ele><time>2026-08-16T19:43:19Z</time></trkpt>
<trkpt lat="35.135185" lon="-84.954204"><ele>273.4</ele><time>2026-08-16T19:43:21Z</time></trkpt>
<trkpt lat="35.135222" lon="-84.954186"><ele>273.4</ele><time>2026-08-16T19:43:24Z</time></trkpt>
<trkpt lat="35.135247" lon="-84.954167"><ele>273.7</ele><time>2026-08-16T19:43:26Z</time></trkpt>
<trkpt lat="35.135266" lon="-84.954138"><ele>273.7</ele><time>2026-08-16T19:43:28Z</time></trkpt>
<trkpt lat="35.13528" lon="-84.954102"><ele>273.7</ele><time>2026-08-16T19:43:30Z</time></trkpt>
<trkpt lat="35.13529" lon="-84.954068"><ele>273.7</ele><time>2026-08-16T19:43:32Z</time></trkpt>
<trkpt lat="35.135293" lon="-84.954032"><ele>274.0</ele><time>2026-08-16T19:43:34Z</time></trkpt>
<trkpt lat="35.135318" lon="-84.953995"><ele>274.0</ele><time>2026-08-16T19:43:37Z</time></trkpt>
<trkpt lat="35.135312" lon="-84.953958"><ele>274.0</ele><time>2026-08-16T19:43:40Z</time></trkpt>
<trkpt lat="35.135316" lon="-84.953921"><ele>273.7</ele><time>2026-08-16T19:43:45Z</time></trkpt>
<trkpt lat="35.135317" lon="-84.953879"><ele>273.4</ele><time>2026-08-16T19:43:49Z</time></trkpt>
<trkpt lat="35.135195" lon="-84.954117"><ele>273.1</ele><time>2026-08-16T19:43:53Z</time></trkpt>
<trkpt lat="35.135149" lon="-84.954117"><ele>272.5</ele><time>2026-08-16T19:43:57Z</time></trkpt>
<trkpt lat="35.135116" lon="-84.954111"><ele>272.2</ele><time>2026-08-16T19:44:00Z</time></trkpt>
<trkpt lat="35.135084" lon="-84.954094"><ele>272.2</ele><time>2026-08-16T19:44:03Z</time></trkpt>
<trkpt lat="35.135053" lon="-84.954076"><ele>272.2</ele><time>2026-08-16T19:44:06Z</time></trkpt>
<trkpt lat="35.135016" lon="-84.954036"><ele>271.6</ele><time>2026-08-16T19:44:11Z</time></trkpt>
<trkpt lat="35.134988" lon="-84.954023"><ele>271.3</ele><time>2026-08-16T19:44:13Z</time></trkpt>
<trkpt lat="35.134916" lon="-84.953991"><ele>270.7</ele><time>2026-08-16T19:44:18Z</time></trkpt>
<trkpt lat="35.134873" lon="-84.95402"><ele>270.7</ele><time>2026-08-16T19:44:22Z</time></trkpt>
<trkpt lat="35.13484" lon="-84.954042"><ele>270.7</ele><time>2026-08-16T19:44:25Z</time></trkpt>
<trkpt lat="35.134805" lon="-84.954061"><ele>270.7</ele><time>2026-08-16T19:44:28Z</time></trkpt>
<trkpt lat="35.134758" lon="-84.954086"><ele>270.7</ele><time>2026-08-16T19:44:32Z</time></trkpt>
<trkpt lat="35.134724" lon="-84.954104"><ele>270.1</ele><time>2026-08-16T19:44:35Z</time></trkpt>
<trkpt lat="35.134674" lon="-84.954108"><ele>269.7</ele><time>2026-08-16T19:44:39Z</time></trkpt>
<trkpt lat="35.13462" lon="-84.954108"><ele>269.4</ele><time>2026-08-16T19:44:43Z</time></trkpt>
<trkpt lat="35.134559" lon="-84.954115"><ele>269.7</ele><time>2026-08-16T19:44:47Z</time></trkpt>
<trkpt lat="35.134503" lon="-84.95411"><ele>269.4</ele><time>2026-08-16T19:44:51Z</time></trkpt>
<trkpt lat="35.134449" lon="-84.954099"><ele>269.1</ele><time>2026-08-16T19:44:55Z</time></trkpt>
<trkpt lat="35.134422" lon="-84.954079"><ele>268.8</ele><time>2026-08-16T19:44:58Z</time></trkpt>
<trkpt lat="35.134386" lon="-84.954053"><ele>268.5</ele><time>2026-08-16T19:45:01Z</time></trkpt>
<trkpt lat="35.134351" lon="-84.954027"><ele>267.9</ele><time>2026-08-16T19:45:04Z</time></trkpt>
<trkpt lat="35.134298" lon="-84.954035"><ele>267.9</ele><time>2026-08-16T19:45:07Z</time></trkpt>
<trkpt lat="35.134246" lon="-84.954042"><ele>267.6</ele><time>2026-08-16T19:45:10Z</time></trkpt>
<trkpt lat="35.134198" lon="-84.95406"><ele>267.3</ele><time>2026-08-16T19:45:13Z</time></trkpt>
<trkpt lat="35.134159" lon="-84.954097"><ele>267.3</ele><time>2026-08-16T19:45:16Z</time></trkpt>
<trkpt lat="35.133758" lon="-84.954574"><ele>268.5</ele><time>2026-08-16T19:45:59Z</time></trkpt>
<trkpt lat="35.133653" lon="-84.95461"><ele>268.5</ele><time>2026-08-16T19:46:01Z</time></trkpt>
<trkpt lat="35.133621" lon="-84.954623"><ele>268.8</ele><time>2026-08-16T19:46:03Z</time></trkpt>
<trkpt lat="35.13359" lon="-84.954623"><ele>268.8</ele><time>2026-08-16T19:46:05Z</time></trkpt>
<trkpt lat="35.133551" lon="-84.95462"><ele>268.8</ele><time>2026-08-16T19:46:08Z</time></trkpt>
<trkpt lat="35.133517" lon="-84.95461"><ele>269.1</ele><time>2026-08-16T19:46:11Z</time></trkpt>
<trkpt lat="35.13349" lon="-84.954602"><ele>269.4</ele><time>2026-08-16T19:46:13Z</time></trkpt>
<trkpt lat="35.133452" lon="-84.9546"><ele>269.4</ele><time>2026-08-16T19:46:16Z</time></trkpt>
<trkpt lat="35.133412" lon="-84.954612"><ele>269.7</ele><time>2026-08-16T19:46:19Z</time></trkpt>
<trkpt lat="35.133379" lon="-84.95464"><ele>269.7</ele><time>2026-08-16T19:46:22Z</time></trkpt>
<trkpt lat="35.133355" lon="-84.954678"><ele>270.1</ele><time>2026-08-16T19:46:25Z</time></trkpt>
<trkpt lat="35.133347" lon="-84.954713"><ele>269.7</ele><time>2026-08-16T19:46:27Z</time></trkpt>
<trkpt lat="35.133326" lon="-84.954737"><ele>269.7</ele><time>2026-08-16T19:46:29Z</time></trkpt>
<trkpt lat="35.133302" lon="-84.954759"><ele>269.7</ele><time>2026-08-16T19:46:31Z</time></trkpt>
<trkpt lat="35.133282" lon="-84.954786"><ele>269.7</ele><time>2026-08-16T19:46:33Z</time></trkpt>
<trkpt lat="35.133271" lon="-84.954817"><ele>269.7</ele><time>2026-08-16T19:46:35Z</time></trkpt>
<trkpt lat="35.133264" lon="-84.954851"><ele>269.7</ele><time>2026-08-16T19:46:37Z</time></trkpt>
<trkpt lat="35.13326" lon="-84.954888"><ele>270.1</ele><time>2026-08-16T19:46:39Z</time></trkpt>
<trkpt lat="35.133235" lon="-84.954924"><ele>270.1</ele><time>2026-08-16T19:46:42Z</time></trkpt>
<trkpt lat="35.133218" lon="-84.954968"><ele>270.1</ele><time>2026-08-16T19:46:45Z</time></trkpt>
<trkpt lat="35.133204" lon="-84.955003"><ele>270.1</ele><time>2026-08-16T19:46:47Z</time></trkpt>
<trkpt lat="35.133197" lon="-84.955036"><ele>270.1</ele><time>2026-08-16T19:46:49Z</time></trkpt>
<trkpt lat="35.133194" lon="-84.955085"><ele>270.4</ele><time>2026-08-16T19:46:52Z</time></trkpt>
<trkpt lat="35.133184" lon="-84.955119"><ele>270.4</ele><time>2026-08-16T19:46:54Z</time></trkpt>
<trkpt lat="35.13318" lon="-84.955154"><ele>270.7</ele><time>2026-08-16T19:46:56Z</time></trkpt>
<trkpt lat="35.13317" lon="-84.955189"><ele>270.7</ele><time>2026-08-16T19:46:58Z</time></trkpt>
<trkpt lat="35.133153" lon="-84.955221"><ele>271.0</ele><time>2026-08-16T19:47:00Z</time></trkpt>
<trkpt lat="35.133119" lon="-84.955236"><ele>271.0</ele><time>2026-08-16T19:47:02Z</time></trkpt>
<trkpt lat="35.133089" lon="-84.955237"><ele>271.0</ele><time>2026-08-16T19:47:04Z</time></trkpt>
<trkpt lat="35.13306" lon="-84.955214"><ele>271.0</ele><time>2026-08-16T19:47:06Z</time></trkpt>
<trkpt lat="35.133043" lon="-84.955183"><ele>271.0</ele><time>2026-08-16T19:47:08Z</time></trkpt>
<trkpt lat="35.133038" lon="-84.95515"><ele>271.0</ele><time>2026-08-16T19:47:10Z</time></trkpt>
<trkpt lat="35.133044" lon="-84.9551"><ele>271.3</ele><time>2026-08-16T19:47:13Z</time></trkpt>
<trkpt lat="35.133054" lon="-84.955063"><ele>271.3</ele><time>2026-08-16T19:47:15Z</time></trkpt>
<trkpt lat="35.133055" lon="-84.955028"><ele>271.6</ele><time>2026-08-16T19:47:17Z</time></trkpt>
<trkpt lat="35.13306" lon="-84.954992"><ele>271.6</ele><time>2026-08-16T19:47:19Z</time></trkpt>
<trkpt lat="35.133068" lon="-84.954944"><ele>271.9</ele><time>2026-08-16T19:47:22Z</time></trkpt>
<trkpt lat="35.133076" lon="-84.954909"><ele>271.9</ele><time>2026-08-16T19:47:24Z</time></trkpt>
<trkpt lat="35.133084" lon="-84.954875"><ele>272.2</ele><time>2026-08-16T19:47:26Z</time></trkpt>
<trkpt lat="35.133087" lon="-84.954841"><ele>272.2</ele><time>2026-08-16T19:47:28Z</time></trkpt>
<trkpt lat="35.13309" lon="-84.954792"><ele>272.5</ele><time>2026-08-16T19:47:31Z</time></trkpt>
<trkpt lat="35.133087" lon="-84.954757"><ele>272.5</ele><time>2026-08-16T19:47:33Z</time></trkpt>
<trkpt lat="35.133086" lon="-84.954722"><ele>272.5</ele><time>2026-08-16T19:47:35Z</time></trkpt>
<trkpt lat="35.13308" lon="-84.954674"><ele>272.2</ele><time>2026-08-16T19:47:38Z</time></trkpt>
<trkpt lat="35.13305" lon="-84.954641"><ele>272.5</ele><time>2026-08-16T19:47:41Z</time></trkpt>
<trkpt lat="35.133023" lon="-84.954626"><ele>272.5</ele><time>2026-08-16T19:47:43Z</time></trkpt>
<trkpt lat="35.132987" lon="-84.9546"><ele>272.2</ele><time>2026-08-16T19:47:46Z</time></trkpt>
<trkpt lat="35.132958" lon="-84.954589"><ele>272.2</ele><time>2026-08-16T19:47:48Z</time></trkpt>
<trkpt lat="35.132931" lon="-84.954578"><ele>271.9</ele><time>2026-08-16T19:47:50Z</time></trkpt>
<trkpt lat="35.132903" lon="-84.954568"><ele>271.9</ele><time>2026-08-16T19:47:52Z</time></trkpt>
<trkpt lat="35.132866" lon="-84.954555"><ele>271.9</ele><time>2026-08-16T19:47:55Z</time></trkpt>
<trkpt lat="35.132839" lon="-84.954542"><ele>271.9</ele><time>2026-08-16T19:47:57Z</time></trkpt>
<trkpt lat="35.132811" lon="-84.954532"><ele>271.9</ele><time>2026-08-16T19:47:59Z</time></trkpt>
<trkpt lat="35.132781" lon="-84.954535"><ele>272.2</ele><time>2026-08-16T19:48:01Z</time></trkpt>
<trkpt lat="35.132748" lon="-84.954534"><ele>272.2</ele><time>2026-08-16T19:48:03Z</time></trkpt>
<trkpt lat="35.132718" lon="-84.954531"><ele>272.2</ele><time>2026-08-16T19:48:05Z</time></trkpt>
<trkpt lat="35.132678" lon="-84.954529"><ele>272.2</ele><time>2026-08-16T19:48:08Z</time></trkpt>
<trkpt lat="35.132642" lon="-84.95452"><ele>272.2</ele><time>2026-08-16T19:48:11Z</time></trkpt>
<trkpt lat="35.132603" lon="-84.954512"><ele>272.2</ele><time>2026-08-16T19:48:14Z</time></trkpt>
<trkpt lat="35.132567" lon="-84.954497"><ele>272.2</ele><time>2026-08-16T19:48:17Z</time></trkpt>
<trkpt lat="35.13253" lon="-84.954488"><ele>272.2</ele><time>2026-08-16T19:48:20Z</time></trkpt>
<trkpt lat="35.132487" lon="-84.954488"><ele>272.2</ele><time>2026-08-16T19:48:23Z</time></trkpt>
<trkpt lat="35.132457" lon="-84.954494"><ele>271.9</ele><time>2026-08-16T19:48:25Z</time></trkpt>
<trkpt lat="35.13243" lon="-84.954498"><ele>271.9</ele><time>2026-08-16T19:48:27Z</time></trkpt>
<trkpt lat="35.132401" lon="-84.954508"><ele>271.9</ele><time>2026-08-16T19:48:29Z</time></trkpt>
<trkpt lat="35.132367" lon="-84.954533"><ele>271.9</ele><time>2026-08-16T19:48:32Z</time></trkpt>
<trkpt lat="35.132347" lon="-84.954563"><ele>271.9</ele><time>2026-08-16T19:48:34Z</time></trkpt>
<trkpt lat="35.132338" lon="-84.954604"><ele>271.9</ele><time>2026-08-16T19:48:36Z</time></trkpt>
<trkpt lat="35.132339" lon="-84.954645"><ele>271.9</ele><time>2026-08-16T19:48:38Z</time></trkpt>
<trkpt lat="35.132343" lon="-84.954683"><ele>271.9</ele><time>2026-08-16T19:48:40Z</time></trkpt>
<trkpt lat="35.132349" lon="-84.954718"><ele>271.9</ele><time>2026-08-16T19:48:42Z</time></trkpt>
<trkpt lat="35.132356" lon="-84.954754"><ele>271.9</ele><time>2026-08-16T19:48:44Z</time></trkpt>
<trkpt lat="35.132368" lon="-84.95479"><ele>271.6</ele><time>2026-08-16T19:48:46Z</time></trkpt>
<trkpt lat="35.132379" lon="-84.954825"><ele>271.6</ele><time>2026-08-16T19:48:48Z</time></trkpt>
<trkpt lat="35.132368" lon="-84.954874"><ele>271.9</ele><time>2026-08-16T19:48:51Z</time></trkpt>
<trkpt lat="35.132339" lon="-84.954885"><ele>271.9</ele><time>2026-08-16T19:48:53Z</time></trkpt>
<trkpt lat="35.1323" lon="-84.954868"><ele>271.9</ele><time>2026-08-16T19:48:56Z</time></trkpt>
<trkpt lat="35.132278" lon="-84.954848"><ele>271.9</ele><time>2026-08-16T19:48:58Z</time></trkpt>
<trkpt lat="35.132242" lon="-84.954827"><ele>271.9</ele><time>2026-08-16T19:49:01Z</time></trkpt>
<trkpt lat="35.132204" lon="-84.954812"><ele>271.9</ele><time>2026-08-16T19:49:04Z</time></trkpt>
<trkpt lat="35.132176" lon="-84.954808"><ele>271.6</ele><time>2026-08-16T19:49:06Z</time></trkpt>
<trkpt lat="35.132137" lon="-84.954819"><ele>271.6</ele><time>2026-08-16T19:49:09Z</time></trkpt>
<trkpt lat="35.132114" lon="-84.954838"><ele>271.6</ele><time>2026-08-16T19:49:11Z</time></trkpt>
<trkpt lat="35.132096" lon="-84.954866"><ele>271.6</ele><time>2026-08-16T19:49:13Z</time></trkpt>
<trkpt lat="35.132082" lon="-84.9549"><ele>271.9</ele><time>2026-08-16T19:49:15Z</time></trkpt>
<trkpt lat="35.132077" lon="-84.954937"><ele>272.2</ele><time>2026-08-16T19:49:17Z</time></trkpt>
<trkpt lat="35.13207" lon="-84.954974"><ele>272.2</ele><time>2026-08-16T19:49:19Z</time></trkpt>
<trkpt lat="35.13206" lon="-84.955022"><ele>272.5</ele><time>2026-08-16T19:49:22Z</time></trkpt>
<trkpt lat="35.132049" lon="-84.955071"><ele>272.5</ele><time>2026-08-16T19:49:25Z</time></trkpt>
<trkpt lat="35.132043" lon="-84.955104"><ele>272.5</ele><time>2026-08-16T19:49:27Z</time></trkpt>
<trkpt lat="35.132026" lon="-84.955133"><ele>272.8</ele><time>2026-08-16T19:49:29Z</time></trkpt>
<trkpt lat="35.131997" lon="-84.955141"><ele>272.8</ele><time>2026-08-16T19:49:31Z</time></trkpt>
<trkpt lat="35.13197" lon="-84.955132"><ele>273.1</ele><time>2026-08-16T19:49:33Z</time></trkpt>
<trkpt lat="35.131953" lon="-84.955102"><ele>273.1</ele><time>2026-08-16T19:49:35Z</time></trkpt>
<trkpt lat="35.131941" lon="-84.955069"><ele>273.4</ele><time>2026-08-16T19:49:37Z</time></trkpt>
<trkpt lat="35.131929" lon="-84.95502"><ele>273.4</ele><time>2026-08-16T19:49:40Z</time></trkpt>
<trkpt lat="35.131915" lon="-84.954977"><ele>273.4</ele><time>2026-08-16T19:49:43Z</time></trkpt>
<trkpt lat="35.131901" lon="-84.954932"><ele>273.7</ele><time>2026-08-16T19:49:46Z</time></trkpt>
<trkpt lat="35.131887" lon="-84.954887"><ele>273.7</ele><time>2026-08-16T19:49:49Z</time></trkpt>
<trkpt lat="35.131866" lon="-84.954847"><ele>274.0</ele><time>2026-08-16T19:49:52Z</time></trkpt>
<trkpt lat="35.131837" lon="-84.954811"><ele>274.3</ele><time>2026-08-16T19:49:55Z</time></trkpt>
<trkpt lat="35.131801" lon="-84.954792"><ele>274.3</ele><time>2026-08-16T19:49:58Z</time></trkpt>
<trkpt lat="35.131759" lon="-84.95479"><ele>274.3</ele><time>2026-08-16T19:50:01Z</time></trkpt>
<trkpt lat="35.13173" lon="-84.954796"><ele>274.3</ele><time>2026-08-16T19:50:03Z</time></trkpt>
<trkpt lat="35.131701" lon="-84.954804"><ele>274.3</ele><time>2026-08-16T19:50:05Z</time></trkpt>
<trkpt lat="35.131664" lon="-84.954821"><ele>274.6</ele><time>2026-08-16T19:50:08Z</time></trkpt>
<trkpt lat="35.131632" lon="-84.95485"><ele>274.6</ele><time>2026-08-16T19:50:11Z</time></trkpt>
<trkpt lat="35.131609" lon="-84.954872"><ele>274.9</ele><time>2026-08-16T19:50:13Z</time></trkpt>
<trkpt lat="35.131587" lon="-84.954893"><ele>274.9</ele><time>2026-08-16T19:50:15Z</time></trkpt>
<trkpt lat="35.131565" lon="-84.954919"><ele>274.9</ele><time>2026-08-16T19:50:17Z</time></trkpt>
<trkpt lat="35.131537" lon="-84.954933"><ele>274.6</ele><time>2026-08-16T19:50:19Z</time></trkpt>
<trkpt lat="35.1315" lon="-84.954957"><ele>274.6</ele><time>2026-08-16T19:50:22Z</time></trkpt>
<trkpt lat="35.131462" lon="-84.954967"><ele>274.3</ele><time>2026-08-16T19:50:25Z</time></trkpt>
<trkpt lat="35.131435" lon="-84.954963"><ele>274.3</ele><time>2026-08-16T19:50:27Z</time></trkpt>
<trkpt lat="35.131401" lon="-84.954957"><ele>274.3</ele><time>2026-08-16T19:50:30Z</time></trkpt>
<trkpt lat="35.131363" lon="-84.954969"><ele>274.3</ele><time>2026-08-16T19:50:33Z</time></trkpt>
<trkpt lat="35.131327" lon="-84.954988"><ele>274.3</ele><time>2026-08-16T19:50:36Z</time></trkpt>
<trkpt lat="35.13129" lon="-84.955007"><ele>274.3</ele><time>2026-08-16T19:50:39Z</time></trkpt>
<trkpt lat="35.13126" lon="-84.955015"><ele>274.6</ele><time>2026-08-16T19:50:41Z</time></trkpt>
<trkpt lat="35.131235" lon="-84.955039"><ele>274.6</ele><time>2026-08-16T19:50:43Z</time></trkpt>
<trkpt lat="35.131218" lon="-84.955072"><ele>274.9</ele><time>2026-08-16T19:50:45Z</time></trkpt>
<trkpt lat="35.1312" lon="-84.955098"><ele>275.2</ele><time>2026-08-16T19:50:47Z</time></trkpt>
<trkpt lat="35.13118" lon="-84.955124"><ele>275.2</ele><time>2026-08-16T19:50:49Z</time></trkpt>
<trkpt lat="35.131159" lon="-84.955147"><ele>275.5</ele><time>2026-08-16T19:50:51Z</time></trkpt>
<trkpt lat="35.131133" lon="-84.955164"><ele>275.5</ele><time>2026-08-16T19:50:52Z</time></trkpt>
<trkpt lat="35.131117" lon="-84.955209"><ele>275.5</ele><time>2026-08-16T19:50:55Z</time></trkpt>
<trkpt lat="35.131085" lon="-84.955225"><ele>275.5</ele><time>2026-08-16T19:50:57Z</time></trkpt>
<trkpt lat="35.131071" lon="-84.955268"><ele>275.5</ele><time>2026-08-16T19:51:00Z</time></trkpt>
<trkpt lat="35.131055" lon="-84.955302"><ele>275.5</ele><time>2026-08-16T19:51:03Z</time></trkpt>
<trkpt lat="35.131029" lon="-84.955327"><ele>275.2</ele><time>2026-08-16T19:51:06Z</time></trkpt>
<trkpt lat="35.130991" lon="-84.955332"><ele>274.9</ele><time>2026-08-16T19:51:09Z</time></trkpt>
<trkpt lat="35.13096" lon="-84.955328"><ele>274.9</ele><time>2026-08-16T19:51:11Z</time></trkpt>
<trkpt lat="35.130928" lon="-84.955326"><ele>274.9</ele><time>2026-08-16T19:51:13Z</time></trkpt>
<trkpt lat="35.130894" lon="-84.955332"><ele>274.9</ele><time>2026-08-16T19:51:16Z</time></trkpt>
<trkpt lat="35.130856" lon="-84.955344"><ele>274.9</ele><time>2026-08-16T19:51:19Z</time></trkpt>
<trkpt lat="35.130813" lon="-84.955348"><ele>275.2</ele><time>2026-08-16T19:51:22Z</time></trkpt>
<trkpt lat="35.130784" lon="-84.955355"><ele>275.5</ele><time>2026-08-16T19:51:24Z</time></trkpt>
<trkpt lat="35.13075" lon="-84.955366"><ele>275.5</ele><time>2026-08-16T19:51:27Z</time></trkpt>
<trkpt lat="35.13072" lon="-84.95539"><ele>275.8</ele><time>2026-08-16T19:51:30Z</time></trkpt>
<trkpt lat="35.130685" lon="-84.955408"><ele>275.5</ele><time>2026-08-16T19:51:33Z</time></trkpt>
<trkpt lat="35.130661" lon="-84.955426"><ele>275.5</ele><time>2026-08-16T19:51:35Z</time></trkpt>
<trkpt lat="35.130633" lon="-84.955438"><ele>275.5</ele><time>2026-08-16T19:51:37Z</time></trkpt>
<trkpt lat="35.130606" lon="-84.955442"><ele>275.5</ele><time>2026-08-16T19:51:39Z</time></trkpt>
<trkpt lat="35.13057" lon="-84.955454"><ele>275.2</ele><time>2026-08-16T19:51:42Z</time></trkpt>
<trkpt lat="35.130543" lon="-84.955467"><ele>275.2</ele><time>2026-08-16T19:51:44Z</time></trkpt>
<trkpt lat="35.130517" lon="-84.955485"><ele>275.2</ele><time>2026-08-16T19:51:46Z</time></trkpt>
<trkpt lat="35.130498" lon="-84.955508"><ele>275.2</ele><time>2026-08-16T19:51:48Z</time></trkpt>
<trkpt lat="35.130477" lon="-84.955535"><ele>274.9</ele><time>2026-08-16T19:51:50Z</time></trkpt>
<trkpt lat="35.130463" lon="-84.955564"><ele>274.9</ele><time>2026-08-16T19:51:52Z</time></trkpt>
<trkpt lat="35.130451" lon="-84.955596"><ele>274.9</ele><time>2026-08-16T19:51:54Z</time></trkpt>
<trkpt lat="35.130446" lon="-84.95563"><ele>274.9</ele><time>2026-08-16T19:51:56Z</time></trkpt>
<trkpt lat="35.130447" lon="-84.955667"><ele>274.9</ele><time>2026-08-16T19:51:58Z</time></trkpt>
<trkpt lat="35.130447" lon="-84.955707"><ele>274.9</ele><time>2026-08-16T19:52:00Z</time></trkpt>
<trkpt lat="35.130445" lon="-84.955748"><ele>274.6</ele><time>2026-08-16T19:52:02Z</time></trkpt>
<trkpt lat="35.130436" lon="-84.955785"><ele>274.6</ele><time>2026-08-16T19:52:04Z</time></trkpt>
<trkpt lat="35.13042" lon="-84.955813"><ele>274.6</ele><time>2026-08-16T19:52:06Z</time></trkpt>
<trkpt lat="35.130412" lon="-84.955847"><ele>274.6</ele><time>2026-08-16T19:52:08Z</time></trkpt>
<trkpt lat="35.130416" lon="-84.955887"><ele>274.9</ele><time>2026-08-16T19:52:10Z</time></trkpt>
<trkpt lat="35.130419" lon="-84.955922"><ele>274.9</ele><time>2026-08-16T19:52:12Z</time></trkpt>
<trkpt lat="35.130419" lon="-84.955958"><ele>274.9</ele><time>2026-08-16T19:52:14Z</time></trkpt>
<trkpt lat="35.130418" lon="-84.955994"><ele>274.9</ele><time>2026-08-16T19:52:16Z</time></trkpt>
<trkpt lat="35.130417" lon="-84.956029"><ele>274.9</ele><time>2026-08-16T19:52:18Z</time></trkpt>
<trkpt lat="35.130415" lon="-84.956063"><ele>275.2</ele><time>2026-08-16T19:52:20Z</time></trkpt>
<trkpt lat="35.1304" lon="-84.956107"><ele>275.2</ele><time>2026-08-16T19:52:23Z</time></trkpt>
<trkpt lat="35.130379" lon="-84.956152"><ele>275.5</ele><time>2026-08-16T19:52:26Z</time></trkpt>
<trkpt lat="35.130374" lon="-84.956187"><ele>275.5</ele><time>2026-08-16T19:52:28Z</time></trkpt>
<trkpt lat="35.130366" lon="-84.956233"><ele>275.5</ele><time>2026-08-16T19:52:31Z</time></trkpt>
<trkpt lat="35.130358" lon="-84.956265"><ele>275.8</ele><time>2026-08-16T19:52:33Z</time></trkpt>
<trkpt lat="35.130347" lon="-84.956297"><ele>275.8</ele><time>2026-08-16T19:52:35Z</time></trkpt>
<trkpt lat="35.130338" lon="-84.95633"><ele>275.8</ele><time>2026-08-16T19:52:37Z</time></trkpt>
<trkpt lat="35.130314" lon="-84.956369"><ele>275.5</ele><time>2026-08-16T19:52:40Z</time></trkpt>
<trkpt lat="35.130278" lon="-84.956388"><ele>275.5</ele><time>2026-08-16T19:52:43Z</time></trkpt>
<trkpt lat="35.130246" lon="-84.956409"><ele>275.2</ele><time>2026-08-16T19:52:46Z</time></trkpt>
<trkpt lat="35.13021" lon="-84.956409"><ele>275.2</ele><time>2026-08-16T19:52:49Z</time></trkpt>
<trkpt lat="35.130171" lon="-84.956393"><ele>274.9</ele><time>2026-08-16T19:52:52Z</time></trkpt>
<trkpt lat="35.130147" lon="-84.956376"><ele>274.9</ele><time>2026-08-16T19:52:54Z</time></trkpt>
<trkpt lat="35.130132" lon="-84.956345"><ele>274.9</ele><time>2026-08-16T19:52:56Z</time></trkpt>
<trkpt lat="35.13013" lon="-84.956303"><ele>274.6</ele><time>2026-08-16T19:52:58Z</time></trkpt>
<trkpt lat="35.130126" lon="-84.956263"><ele>274.6</ele><time>2026-08-16T19:53:00Z</time></trkpt>
<trkpt lat="35.130132" lon="-84.956229"><ele>274.6</ele><time>2026-08-16T19:53:02Z</time></trkpt>
<trkpt lat="35.130134" lon="-84.956175"><ele>274.6</ele><time>2026-08-16T19:53:05Z</time></trkpt>
<trkpt lat="35.130138" lon="-84.956139"><ele>274.6</ele><time>2026-08-16T19:53:07Z</time></trkpt>
<trkpt lat="35.130136" lon="-84.956106"><ele>274.3</ele><time>2026-08-16T19:53:09Z</time></trkpt>
<trkpt lat="35.130125" lon="-84.956059"><ele>274.0</ele><time>2026-08-16T19:53:12Z</time></trkpt>
<trkpt lat="35.130106" lon="-84.956034"><ele>274.0</ele><time>2026-08-16T19:53:14Z</time></trkpt>
<trkpt lat="35.130084" lon="-84.956012"><ele>274.0</ele><time>2026-08-16T19:53:16Z</time></trkpt>
<trkpt lat="35.13006" lon="-84.955992"><ele>273.7</ele><time>2026-08-16T19:53:18Z</time></trkpt>
<trkpt lat="35.130032" lon="-84.955979"><ele>273.7</ele><time>2026-08-16T19:53:20Z</time></trkpt>
<trkpt lat="35.130003" lon="-84.955976"><ele>273.7</ele><time>2026-08-16T19:53:22Z</time></trkpt>
<trkpt lat="35.129975" lon="-84.955998"><ele>273.7</ele><time>2026-08-16T19:53:24Z</time></trkpt>
<trkpt lat="35.12996" lon="-84.956038"><ele>274.0</ele><time>2026-08-16T19:53:26Z</time></trkpt>
<trkpt lat="35.129959" lon="-84.95608"><ele>274.3</ele><time>2026-08-16T19:53:28Z</time></trkpt>
<trkpt lat="35.129961" lon="-84.956115"><ele>274.3</ele><time>2026-08-16T19:53:30Z</time></trkpt>
<trkpt lat="35.129956" lon="-84.956151"><ele>274.3</ele><time>2026-08-16T19:53:32Z</time></trkpt>
<trkpt lat="35.129942" lon="-84.956182"><ele>274.3</ele><time>2026-08-16T19:53:34Z</time></trkpt>
<trkpt lat="35.129934" lon="-84.956216"><ele>274.3</ele><time>2026-08-16T19:53:36Z</time></trkpt>
<trkpt lat="35.129919" lon="-84.956259"><ele>274.3</ele><time>2026-08-16T19:53:39Z</time></trkpt>
<trkpt lat="35.129914" lon="-84.956293"><ele>274.6</ele><time>2026-08-16T19:53:41Z</time></trkpt>
<trkpt lat="35.129902" lon="-84.956324"><ele>274.3</ele><time>2026-08-16T19:53:43Z</time></trkpt>
<trkpt lat="35.129885" lon="-84.956353"><ele>274.0</ele><time>2026-08-16T19:53:45Z</time></trkpt>
<trkpt lat="35.12987" lon="-84.956382"><ele>274.0</ele><time>2026-08-16T19:53:47Z</time></trkpt>
<trkpt lat="35.129859" lon="-84.956415"><ele>273.7</ele><time>2026-08-16T19:53:49Z</time></trkpt>
<trkpt lat="35.129841" lon="-84.956459"><ele>273.7</ele><time>2026-08-16T19:53:52Z</time></trkpt>
<trkpt lat="35.129816" lon="-84.956478"><ele>273.7</ele><time>2026-08-16T19:53:54Z</time></trkpt>
<trkpt lat="35.129784" lon="-84.956503"><ele>273.4</ele><time>2026-08-16T19:53:57Z</time></trkpt>
<trkpt lat="35.129742" lon="-84.956507"><ele>273.7</ele><time>2026-08-16T19:54:00Z</time></trkpt>
<trkpt lat="35.129703" lon="-84.956512"><ele>273.7</ele><time>2026-08-16T19:54:03Z</time></trkpt>
<trkpt lat="35.129665" lon="-84.956518"><ele>273.4</ele><time>2026-08-16T19:54:06Z</time></trkpt>
<trkpt lat="35.129627" lon="-84.956515"><ele>273.4</ele><time>2026-08-16T19:54:09Z</time></trkpt>
<trkpt lat="35.129586" lon="-84.956514"><ele>273.4</ele><time>2026-08-16T19:54:12Z</time></trkpt>
<trkpt lat="35.129559" lon="-84.9565"><ele>273.7</ele><time>2026-08-16T19:54:14Z</time></trkpt>
<trkpt lat="35.129533" lon="-84.956478"><ele>273.7</ele><time>2026-08-16T19:54:16Z</time></trkpt>
<trkpt lat="35.129509" lon="-84.956456"><ele>273.4</ele><time>2026-08-16T19:54:18Z</time></trkpt>
<trkpt lat="35.129485" lon="-84.956429"><ele>273.4</ele><time>2026-08-16T19:54:20Z</time></trkpt>
<trkpt lat="35.129463" lon="-84.956403"><ele>273.4</ele><time>2026-08-16T19:54:22Z</time></trkpt>
<trkpt lat="35.129444" lon="-84.956377"><ele>273.1</ele><time>2026-08-16T19:54:24Z</time></trkpt>
<trkpt lat="35.129412" lon="-84.956347"><ele>273.1</ele><time>2026-08-16T19:54:27Z</time></trkpt>
<trkpt lat="35.129392" lon="-84.956323"><ele>273.1</ele><time>2026-08-16T19:54:29Z</time></trkpt>
<trkpt lat="35.129374" lon="-84.956295"><ele>273.1</ele><time>2026-08-16T19:54:31Z</time></trkpt>
<trkpt lat="35.129351" lon="-84.956273"><ele>273.1</ele><time>2026-08-16T19:54:33Z</time></trkpt>
<trkpt lat="35.12932" lon="-84.956263"><ele>273.1</ele><time>2026-08-16T19:54:35Z</time></trkpt>
<trkpt lat="35.12929" lon="-84.956281"><ele>273.1</ele><time>2026-08-16T19:54:37Z</time></trkpt>
<trkpt lat="35.129265" lon="-84.956303"><ele>273.4</ele><time>2026-08-16T19:54:39Z</time></trkpt>
<trkpt lat="35.12924" lon="-84.956326"><ele>273.4</ele><time>2026-08-16T19:54:41Z</time></trkpt>
<trkpt lat="35.129214" lon="-84.956348"><ele>273.7</ele><time>2026-08-16T19:54:43Z</time></trkpt>
<trkpt lat="35.129191" lon="-84.95637"><ele>273.7</ele><time>2026-08-16T19:54:45Z</time></trkpt>
<trkpt lat="35.129174" lon="-84.956401"><ele>274.0</ele><time>2026-08-16T19:54:47Z</time></trkpt>
<trkpt lat="35.129164" lon="-84.956439"><ele>274.0</ele><time>2026-08-16T19:54:49Z</time></trkpt>
<trkpt lat="35.129156" lon="-84.956477"><ele>273.7</ele><time>2026-08-16T19:54:51Z</time></trkpt>
<trkpt lat="35.129149" lon="-84.956513"><ele>273.7</ele><time>2026-08-16T19:54:53Z</time></trkpt>
<trkpt lat="35.129141" lon="-84.956546"><ele>273.7</ele><time>2026-08-16T19:54:55Z</time></trkpt>
<trkpt lat="35.129129" lon="-84.956576"><ele>273.7</ele><time>2026-08-16T19:54:57Z</time></trkpt>
<trkpt lat="35.129112" lon="-84.956606"><ele>273.4</ele><time>2026-08-16T19:54:59Z</time></trkpt>
<trkpt lat="35.129099" lon="-84.956637"><ele>273.4</ele><time>2026-08-16T19:55:01Z</time></trkpt>
<trkpt lat="35.129082" lon="-84.956666"><ele>273.1</ele><time>2026-08-16T19:55:03Z</time></trkpt>
<trkpt lat="35.129057" lon="-84.956684"><ele>272.8</ele><time>2026-08-16T19:55:05Z</time></trkpt>
<trkpt lat="35.129035" lon="-84.956704"><ele>272.8</ele><time>2026-08-16T19:55:07Z</time></trkpt>
<trkpt lat="35.129024" lon="-84.956737"><ele>272.5</ele><time>2026-08-16T19:55:09Z</time></trkpt>
<trkpt lat="35.129025" lon="-84.956777"><ele>272.2</ele><time>2026-08-16T19:55:11Z</time></trkpt>
<trkpt lat="35.12904" lon="-84.956812"><ele>272.2</ele><time>2026-08-16T19:55:13Z</time></trkpt>
<trkpt lat="35.129071" lon="-84.956832"><ele>271.9</ele><time>2026-08-16T19:55:15Z</time></trkpt>
<trkpt lat="35.129106" lon="-84.956837"><ele>271.6</ele><time>2026-08-16T19:55:17Z</time></trkpt>
<trkpt lat="35.12914" lon="-84.956839"><ele>271.3</ele><time>2026-08-16T19:55:19Z</time></trkpt>
<trkpt lat="35.129173" lon="-84.956835"><ele>271.0</ele><time>2026-08-16T19:55:21Z</time></trkpt>
<trkpt lat="35.129206" lon="-84.956824"><ele>270.7</ele><time>2026-08-16T19:55:23Z</time></trkpt>
<trkpt lat="35.129235" lon="-84.956812"><ele>270.4</ele><time>2026-08-16T19:55:25Z</time></trkpt>
<trkpt lat="35.129259" lon="-84.956792"><ele>270.1</ele><time>2026-08-16T19:55:27Z</time></trkpt>
<trkpt lat="35.129287" lon="-84.956778"><ele>270.1</ele><time>2026-08-16T19:55:29Z</time></trkpt>
<trkpt lat="35.129312" lon="-84.956761"><ele>270.1</ele><time>2026-08-16T19:55:31Z</time></trkpt>
<trkpt lat="35.129335" lon="-84.956739"><ele>270.1</ele><time>2026-08-16T19:55:33Z</time></trkpt>
<trkpt lat="35.129359" lon="-84.956717"><ele>269.7</ele><time>2026-08-16T19:55:35Z</time></trkpt>
<trkpt lat="35.129385" lon="-84.956702"><ele>269.7</ele><time>2026-08-16T19:55:37Z</time></trkpt>
<trkpt lat="35.129413" lon="-84.956695"><ele>269.7</ele><time>2026-08-16T19:55:39Z</time></trkpt>
<trkpt lat="35.129442" lon="-84.956717"><ele>269.7</ele><time>2026-08-16T19:55:41Z</time></trkpt>
<trkpt lat="35.129463" lon="-84.956749"><ele>269.7</ele><time>2026-08-16T19:55:43Z</time></trkpt>
<trkpt lat="35.12948" lon="-84.956783"><ele>270.1</ele><time>2026-08-16T19:55:45Z</time></trkpt>
<trkpt lat="35.129502" lon="-84.956827"><ele>270.4</ele><time>2026-08-16T19:55:48Z</time></trkpt>
<trkpt lat="35.129519" lon="-84.956854"><ele>270.4</ele><time>2026-08-16T19:55:50Z</time></trkpt>
<trkpt lat="35.129535" lon="-84.956888"><ele>270.7</ele><time>2026-08-16T19:55:52Z</time></trkpt>
<trkpt lat="35.129544" lon="-84.956923"><ele>270.7</ele><time>2026-08-16T19:55:54Z</time></trkpt>
<trkpt lat="35.129537" lon="-84.956963"><ele>270.7</ele><time>2026-08-16T19:55:56Z</time></trkpt>
<trkpt lat="35.129547" lon="-84.957007"><ele>270.7</ele><time>2026-08-16T19:55:59Z</time></trkpt>
<trkpt lat="35.129578" lon="-84.957021"><ele>270.7</ele><time>2026-08-16T19:56:01Z</time></trkpt>
<trkpt lat="35.129608" lon="-84.957022"><ele>270.4</ele><time>2026-08-16T19:56:03Z</time></trkpt>
<trkpt lat="35.129641" lon="-84.95701"><ele>270.7</ele><time>2026-08-16T19:56:05Z</time></trkpt>
<trkpt lat="35.129667" lon="-84.95699"><ele>270.4</ele><time>2026-08-16T19:56:07Z</time></trkpt>
<trkpt lat="35.129689" lon="-84.956957"><ele>270.1</ele><time>2026-08-16T19:56:09Z</time></trkpt>
<trkpt lat="35.129704" lon="-84.956917"><ele>270.1</ele><time>2026-08-16T19:56:11Z</time></trkpt>
<trkpt lat="35.129713" lon="-84.956873"><ele>270.1</ele><time>2026-08-16T19:56:13Z</time></trkpt>
<trkpt lat="35.129726" lon="-84.95684"><ele>270.1</ele><time>2026-08-16T19:56:15Z</time></trkpt>
<trkpt lat="35.129756" lon="-84.956824"><ele>269.7</ele><time>2026-08-16T19:56:17Z</time></trkpt>
<trkpt lat="35.129789" lon="-84.956822"><ele>270.1</ele><time>2026-08-16T19:56:19Z</time></trkpt>
<trkpt lat="35.129822" lon="-84.956821"><ele>270.4</ele><time>2026-08-16T19:56:21Z</time></trkpt>
<trkpt lat="35.129847" lon="-84.956801"><ele>270.7</ele><time>2026-08-16T19:56:23Z</time></trkpt>
<trkpt lat="35.129871" lon="-84.956783"><ele>270.7</ele><time>2026-08-16T19:56:25Z</time></trkpt>
<trkpt lat="35.129893" lon="-84.95676"><ele>270.7</ele><time>2026-08-16T19:56:27Z</time></trkpt>
<trkpt lat="35.129906" lon="-84.956729"><ele>270.4</ele><time>2026-08-16T19:56:29Z</time></trkpt>
<trkpt lat="35.129926" lon="-84.956687"><ele>270.4</ele><time>2026-08-16T19:56:32Z</time></trkpt>
<trkpt lat="35.129938" lon="-84.956655"><ele>270.1</ele><time>2026-08-16T19:56:34Z</time></trkpt>
<trkpt lat="35.129946" lon="-84.956619"><ele>270.1</ele><time>2026-08-16T19:56:36Z</time></trkpt>
<trkpt lat="35.129948" lon="-84.956582"><ele>270.1</ele><time>2026-08-16T19:56:38Z</time></trkpt>
<trkpt lat="35.129957" lon="-84.956549"><ele>270.1</ele><time>2026-08-16T19:56:40Z</time></trkpt>
<trkpt lat="35.129987" lon="-84.956535"><ele>270.1</ele><time>2026-08-16T19:56:42Z</time></trkpt>
<trkpt lat="35.130016" lon="-84.95654"><ele>270.1</ele><time>2026-08-16T19:56:44Z</time></trkpt>
<trkpt lat="35.130041" lon="-84.956566"><ele>270.4</ele><time>2026-08-16T19:56:46Z</time></trkpt>
<trkpt lat="35.130049" lon="-84.956605"><ele>270.4</ele><time>2026-08-16T19:56:48Z</time></trkpt>
<trkpt lat="35.130056" lon="-84.956642"><ele>270.1</ele><time>2026-08-16T19:56:50Z</time></trkpt>
<trkpt lat="35.130076" lon="-84.95667"><ele>270.1</ele><time>2026-08-16T19:56:52Z</time></trkpt>
<trkpt lat="35.130095" lon="-84.956697"><ele>270.1</ele><time>2026-08-16T19:56:54Z</time></trkpt>
<trkpt lat="35.130118" lon="-84.956717"><ele>270.1</ele><time>2026-08-16T19:56:56Z</time></trkpt>
<trkpt lat="35.13015" lon="-84.956742"><ele>270.1</ele><time>2026-08-16T19:56:59Z</time></trkpt>
<trkpt lat="35.130179" lon="-84.956752"><ele>270.1</ele><time>2026-08-16T19:57:01Z</time></trkpt>
<trkpt lat="35.130209" lon="-84.95675"><ele>269.7</ele><time>2026-08-16T19:57:03Z</time></trkpt>
<trkpt lat="35.130252" lon="-84.956746"><ele>269.7</ele><time>2026-08-16T19:57:06Z</time></trkpt>
<trkpt lat="35.130287" lon="-84.956721"><ele>270.1</ele><time>2026-08-16T19:57:09Z</time></trkpt>
<trkpt lat="35.130304" lon="-84.956693"><ele>270.1</ele><time>2026-08-16T19:57:11Z</time></trkpt>
<trkpt lat="35.130322" lon="-84.956666"><ele>270.1</ele><time>2026-08-16T19:57:13Z</time></trkpt>
<trkpt lat="35.130345" lon="-84.956646"><ele>270.1</ele><time>2026-08-16T19:57:15Z</time></trkpt>
<trkpt lat="35.13038" lon="-84.956622"><ele>270.4</ele><time>2026-08-16T19:57:18Z</time></trkpt>
<trkpt lat="35.130411" lon="-84.956595"><ele>270.7</ele><time>2026-08-16T19:57:21Z</time></trkpt>
<trkpt lat="35.130437" lon="-84.956583"><ele>270.7</ele><time>2026-08-16T19:57:23Z</time></trkpt>
<trkpt lat="35.130463" lon="-84.95657"><ele>270.7</ele><time>2026-08-16T19:57:25Z</time></trkpt>
<trkpt lat="35.130478" lon="-84.956541"><ele>271.0</ele><time>2026-08-16T19:57:27Z</time></trkpt>
<trkpt lat="35.130491" lon="-84.95651"><ele>271.0</ele><time>2026-08-16T19:57:29Z</time></trkpt>
<trkpt lat="35.130506" lon="-84.95648"><ele>271.0</ele><time>2026-08-16T19:57:31Z</time></trkpt>
<trkpt lat="35.130518" lon="-84.956447"><ele>271.0</ele><time>2026-08-16T19:57:33Z</time></trkpt>
<trkpt lat="35.130526" lon="-84.956412"><ele>271.0</ele><time>2026-08-16T19:57:35Z</time></trkpt>
<trkpt lat="35.130539" lon="-84.956378"><ele>270.7</ele><time>2026-08-16T19:57:37Z</time></trkpt>
<trkpt lat="35.130546" lon="-84.956343"><ele>271.0</ele><time>2026-08-16T19:57:39Z</time></trkpt>
<trkpt lat="35.130554" lon="-84.956306"><ele>270.7</ele><time>2026-08-16T19:57:41Z</time></trkpt>
<trkpt lat="35.130567" lon="-84.956272"><ele>270.7</ele><time>2026-08-16T19:57:43Z</time></trkpt>
<trkpt lat="35.130607" lon="-84.956258"><ele>270.7</ele><time>2026-08-16T19:57:46Z</time></trkpt>
<trkpt lat="35.130636" lon="-84.956268"><ele>271.0</ele><time>2026-08-16T19:57:48Z</time></trkpt>
<trkpt lat="35.130669" lon="-84.956298"><ele>271.0</ele><time>2026-08-16T19:57:51Z</time></trkpt>
<trkpt lat="35.130695" lon="-84.956331"><ele>271.0</ele><time>2026-08-16T19:57:54Z</time></trkpt>
<trkpt lat="35.13073" lon="-84.956352"><ele>271.3</ele><time>2026-08-16T19:57:57Z</time></trkpt>
<trkpt lat="35.130764" lon="-84.956331"><ele>271.3</ele><time>2026-08-16T19:58:00Z</time></trkpt>
<trkpt lat="35.130782" lon="-84.956302"><ele>271.3</ele><time>2026-08-16T19:58:02Z</time></trkpt>
<trkpt lat="35.1308" lon="-84.956269"><ele>271.3</ele><time>2026-08-16T19:58:04Z</time></trkpt>
<trkpt lat="35.130815" lon="-84.956237"><ele>271.6</ele><time>2026-08-16T19:58:06Z</time></trkpt>
<trkpt lat="35.130829" lon="-84.956205"><ele>271.6</ele><time>2026-08-16T19:58:08Z</time></trkpt>
<trkpt lat="35.130847" lon="-84.956175"><ele>271.9</ele><time>2026-08-16T19:58:10Z</time></trkpt>
<trkpt lat="35.130864" lon="-84.956147"><ele>271.9</ele><time>2026-08-16T19:58:12Z</time></trkpt>
<trkpt lat="35.130896" lon="-84.956119"><ele>272.2</ele><time>2026-08-16T19:58:15Z</time></trkpt>
<trkpt lat="35.130922" lon="-84.956104"><ele>272.2</ele><time>2026-08-16T19:58:17Z</time></trkpt>
<trkpt lat="35.130957" lon="-84.956076"><ele>272.2</ele><time>2026-08-16T19:58:20Z</time></trkpt>
<trkpt lat="35.130989" lon="-84.956049"><ele>271.9</ele><time>2026-08-16T19:58:23Z</time></trkpt>
<trkpt lat="35.131013" lon="-84.956028"><ele>271.9</ele><time>2026-08-16T19:58:25Z</time></trkpt>
<trkpt lat="35.13104" lon="-84.95601"><ele>271.9</ele><time>2026-08-16T19:58:27Z</time></trkpt>
<trkpt lat="35.131067" lon="-84.956"><ele>271.3</ele><time>2026-08-16T19:58:29Z</time></trkpt>
<trkpt lat="35.131107" lon="-84.956"><ele>271.3</ele><time>2026-08-16T19:58:32Z</time></trkpt>
<trkpt lat="35.131136" lon="-84.95601"><ele>271.0</ele><time>2026-08-16T19:58:34Z</time></trkpt>
<trkpt lat="35.131162" lon="-84.95603"><ele>271.0</ele><time>2026-08-16T19:58:36Z</time></trkpt>
<trkpt lat="35.131183" lon="-84.95606"><ele>271.0</ele><time>2026-08-16T19:58:38Z</time></trkpt>
<trkpt lat="35.131193" lon="-84.956101"><ele>271.3</ele><time>2026-08-16T19:58:40Z</time></trkpt>
<trkpt lat="35.131194" lon="-84.956142"><ele>271.6</ele><time>2026-08-16T19:58:42Z</time></trkpt>
<trkpt lat="35.131188" lon="-84.95619"><ele>271.6</ele><time>2026-08-16T19:58:45Z</time></trkpt>
<trkpt lat="35.131179" lon="-84.956225"><ele>271.6</ele><time>2026-08-16T19:58:47Z</time></trkpt>
<trkpt lat="35.131167" lon="-84.956258"><ele>271.3</ele><time>2026-08-16T19:58:49Z</time></trkpt>
<trkpt lat="35.131159" lon="-84.956293"><ele>271.6</ele><time>2026-08-16T19:58:51Z</time></trkpt>
<trkpt lat="35.13114" lon="-84.956338"><ele>271.9</ele><time>2026-08-16T19:58:54Z</time></trkpt>
<trkpt lat="35.131112" lon="-84.956373"><ele>272.2</ele><time>2026-08-16T19:58:57Z</time></trkpt>
<trkpt lat="35.131078" lon="-84.956399"><ele>272.2</ele><time>2026-08-16T19:59:00Z</time></trkpt>
<trkpt lat="35.131045" lon="-84.956427"><ele>272.2</ele><time>2026-08-16T19:59:03Z</time></trkpt>
<trkpt lat="35.131018" lon="-84.956461"><ele>272.2</ele><time>2026-08-16T19:59:06Z</time></trkpt>
<trkpt lat="35.131002" lon="-84.95649"><ele>272.2</ele><time>2026-08-16T19:59:08Z</time></trkpt>
<trkpt lat="35.130979" lon="-84.95653"><ele>272.2</ele><time>2026-08-16T19:59:11Z</time></trkpt>
<trkpt lat="35.130958" lon="-84.956573"><ele>272.2</ele><time>2026-08-16T19:59:14Z</time></trkpt>
<trkpt lat="35.130939" lon="-84.956603"><ele>272.5</ele><time>2026-08-16T19:59:16Z</time></trkpt>
<trkpt lat="35.130925" lon="-84.956638"><ele>272.8</ele><time>2026-08-16T19:59:18Z</time></trkpt>
<trkpt lat="35.130911" lon="-84.956671"><ele>273.1</ele><time>2026-08-16T19:59:20Z</time></trkpt>
<trkpt lat="35.130891" lon="-84.956696"><ele>273.1</ele><time>2026-08-16T19:59:22Z</time></trkpt>
<trkpt lat="35.130864" lon="-84.956703"><ele>272.8</ele><time>2026-08-16T19:59:24Z</time></trkpt>
<trkpt lat="35.130832" lon="-84.95673"><ele>272.8</ele><time>2026-08-16T19:59:27Z</time></trkpt>
<trkpt lat="35.130816" lon="-84.956759"><ele>272.8</ele><time>2026-08-16T19:59:29Z</time></trkpt>
<trkpt lat="35.130802" lon="-84.956794"><ele>272.8</ele><time>2026-08-16T19:59:31Z</time></trkpt>
<trkpt lat="35.130787" lon="-84.956826"><ele>273.1</ele><time>2026-08-16T19:59:33Z</time></trkpt>
<trkpt lat="35.130771" lon="-84.956856"><ele>273.1</ele><time>2026-08-16T19:59:35Z</time></trkpt>
<trkpt lat="35.130737" lon="-84.956878"><ele>273.1</ele><time>2026-08-16T19:59:38Z</time></trkpt>
<trkpt lat="35.130712" lon="-84.956896"><ele>273.1</ele><time>2026-08-16T19:59:40Z</time></trkpt>
<trkpt lat="35.130677" lon="-84.956923"><ele>273.1</ele><time>2026-08-16T19:59:43Z</time></trkpt>
<trkpt lat="35.130653" lon="-84.956944"><ele>272.8</ele><time>2026-08-16T19:59:45Z</time></trkpt>
<trkpt lat="35.130633" lon="-84.956968"><ele>272.8</ele><time>2026-08-16T19:59:47Z</time></trkpt>
<trkpt lat="35.130602" lon="-84.956996"><ele>272.8</ele><time>2026-08-16T19:59:50Z</time></trkpt>
<trkpt lat="35.130578" lon="-84.957016"><ele>272.8</ele><time>2026-08-16T19:59:52Z</time></trkpt>
<trkpt lat="35.130556" lon="-84.957038"><ele>272.8</ele><time>2026-08-16T19:59:54Z</time></trkpt>
<trkpt lat="35.130533" lon="-84.957056"><ele>272.8</ele><time>2026-08-16T19:59:56Z</time></trkpt>
<trkpt lat="35.130494" lon="-84.957064"><ele>272.5</ele><time>2026-08-16T19:59:59Z</time></trkpt>
<trkpt lat="35.130457" lon="-84.957077"><ele>272.5</ele><time>2026-08-16T20:00:02Z</time></trkpt>
<trkpt lat="35.130417" lon="-84.957081"><ele>272.2</ele><time>2026-08-16T20:00:05Z</time></trkpt>
<trkpt lat="35.13038" lon="-84.957097"><ele>271.9</ele><time>2026-08-16T20:00:08Z</time></trkpt>
<trkpt lat="35.130354" lon="-84.957114"><ele>271.9</ele><time>2026-08-16T20:00:10Z</time></trkpt>
<trkpt lat="35.130317" lon="-84.957133"><ele>271.9</ele><time>2026-08-16T20:00:13Z</time></trkpt>
<trkpt lat="35.130292" lon="-84.95715"><ele>271.9</ele><time>2026-08-16T20:00:15Z</time></trkpt>
<trkpt lat="35.130266" lon="-84.957167"><ele>271.9</ele><time>2026-08-16T20:00:17Z</time></trkpt>
<trkpt lat="35.130247" lon="-84.957192"><ele>271.9</ele><time>2026-08-16T20:00:19Z</time></trkpt>
<trkpt lat="35.130228" lon="-84.957218"><ele>271.9</ele><time>2026-08-16T20:00:21Z</time></trkpt>
<trkpt lat="35.130203" lon="-84.957237"><ele>271.9</ele><time>2026-08-16T20:00:23Z</time></trkpt>
<trkpt lat="35.130175" lon="-84.957249"><ele>272.2</ele><time>2026-08-16T20:00:25Z</time></trkpt>
<trkpt lat="35.130148" lon="-84.957261"><ele>271.9</ele><time>2026-08-16T20:00:27Z</time></trkpt>
<trkpt lat="35.13011" lon="-84.957269"><ele>271.6</ele><time>2026-08-16T20:00:30Z</time></trkpt>
<trkpt lat="35.130083" lon="-84.957284"><ele>271.3</ele><time>2026-08-16T20:00:32Z</time></trkpt>
<trkpt lat="35.130064" lon="-84.957314"><ele>271.0</ele><time>2026-08-16T20:00:34Z</time></trkpt>
<trkpt lat="35.130049" lon="-84.957346"><ele>271.0</ele><time>2026-08-16T20:00:36Z</time></trkpt>
<trkpt lat="35.130036" lon="-84.957381"><ele>271.0</ele><time>2026-08-16T20:00:38Z</time></trkpt>
<trkpt lat="35.130015" lon="-84.957408"><ele>271.0</ele><time>2026-08-16T20:00:40Z</time></trkpt>
<trkpt lat="35.129982" lon="-84.957414"><ele>271.0</ele><time>2026-08-16T20:00:42Z</time></trkpt>
<trkpt lat="35.129955" lon="-84.957433"><ele>271.0</ele><time>2026-08-16T20:00:44Z</time></trkpt>
<trkpt lat="35.129931" lon="-84.957461"><ele>270.7</ele><time>2026-08-16T20:00:46Z</time></trkpt>
<trkpt lat="35.129906" lon="-84.957483"><ele>270.7</ele><time>2026-08-16T20:00:48Z</time></trkpt>
<trkpt lat="35.129878" lon="-84.9575"><ele>270.7</ele><time>2026-08-16T20:00:50Z</time></trkpt>
<trkpt lat="35.129844" lon="-84.957526"><ele>270.4</ele><time>2026-08-16T20:00:53Z</time></trkpt>
<trkpt lat="35.129813" lon="-84.957559"><ele>270.1</ele><time>2026-08-16T20:00:56Z</time></trkpt>
<trkpt lat="35.129799" lon="-84.9576"><ele>270.1</ele><time>2026-08-16T20:00:58Z</time></trkpt>
<trkpt lat="35.129782" lon="-84.957632"><ele>270.4</ele><time>2026-08-16T20:01:00Z</time></trkpt>
<trkpt lat="35.129756" lon="-84.957648"><ele>270.4</ele><time>2026-08-16T20:01:02Z</time></trkpt>
<trkpt lat="35.129726" lon="-84.957641"><ele>270.7</ele><time>2026-08-16T20:01:04Z</time></trkpt>
<trkpt lat="35.129699" lon="-84.957637"><ele>271.0</ele><time>2026-08-16T20:01:06Z</time></trkpt>
<trkpt lat="35.12966" lon="-84.957643"><ele>271.3</ele><time>2026-08-16T20:01:09Z</time></trkpt>
<trkpt lat="35.129622" lon="-84.957663"><ele>271.6</ele><time>2026-08-16T20:01:12Z</time></trkpt>
<trkpt lat="35.12962" lon="-84.957703"><ele>271.6</ele><time>2026-08-16T20:01:14Z</time></trkpt>
<trkpt lat="35.129635" lon="-84.957738"><ele>271.6</ele><time>2026-08-16T20:01:16Z</time></trkpt>
<trkpt lat="35.129655" lon="-84.957774"><ele>271.9</ele><time>2026-08-16T20:01:18Z</time></trkpt>
<trkpt lat="35.129665" lon="-84.957811"><ele>271.9</ele><time>2026-08-16T20:01:20Z</time></trkpt>
<trkpt lat="35.129672" lon="-84.957845"><ele>271.9</ele><time>2026-08-16T20:01:22Z</time></trkpt>
<trkpt lat="35.129677" lon="-84.957884"><ele>272.2</ele><time>2026-08-16T20:01:24Z</time></trkpt>
<trkpt lat="35.129688" lon="-84.957915"><ele>272.2</ele><time>2026-08-16T20:01:26Z</time></trkpt>
<trkpt lat="35.129692" lon="-84.957949"><ele>272.2</ele><time>2026-08-16T20:01:28Z</time></trkpt>
<trkpt lat="35.129695" lon="-84.957985"><ele>272.2</ele><time>2026-08-16T20:01:30Z</time></trkpt>
<trkpt lat="35.129703" lon="-84.95802"><ele>272.2</ele><time>2026-08-16T20:01:32Z</time></trkpt>
<trkpt lat="35.129712" lon="-84.958053"><ele>272.2</ele><time>2026-08-16T20:01:34Z</time></trkpt>
<trkpt lat="35.129724" lon="-84.958087"><ele>272.2</ele><time>2026-08-16T20:01:36Z</time></trkpt>
<trkpt lat="35.129734" lon="-84.95812"><ele>272.2</ele><time>2026-08-16T20:01:38Z</time></trkpt>
<trkpt lat="35.129755" lon="-84.95815"><ele>272.2</ele><time>2026-08-16T20:01:40Z</time></trkpt>
<trkpt lat="35.129778" lon="-84.958173"><ele>271.9</ele><time>2026-08-16T20:01:42Z</time></trkpt>
<trkpt lat="35.129797" lon="-84.9582"><ele>271.9</ele><time>2026-08-16T20:01:44Z</time></trkpt>
<trkpt lat="35.129817" lon="-84.958226"><ele>271.6</ele><time>2026-08-16T20:01:46Z</time></trkpt>
<trkpt lat="35.129842" lon="-84.958246"><ele>271.3</ele><time>2026-08-16T20:01:48Z</time></trkpt>
<trkpt lat="35.12987" lon="-84.958258"><ele>271.3</ele><time>2026-08-16T20:01:50Z</time></trkpt>
<trkpt lat="35.129902" lon="-84.958263"><ele>271.0</ele><time>2026-08-16T20:01:52Z</time></trkpt>
<trkpt lat="35.129935" lon="-84.958254"><ele>270.7</ele><time>2026-08-16T20:01:54Z</time></trkpt>
<trkpt lat="35.129964" lon="-84.958241"><ele>270.4</ele><time>2026-08-16T20:01:56Z</time></trkpt>
<trkpt lat="35.12999" lon="-84.958214"><ele>270.1</ele><time>2026-08-16T20:01:58Z</time></trkpt>
<trkpt lat="35.130011" lon="-84.958187"><ele>270.1</ele><time>2026-08-16T20:02:00Z</time></trkpt>
<trkpt lat="35.130022" lon="-84.958148"><ele>270.4</ele><time>2026-08-16T20:02:02Z</time></trkpt>
<trkpt lat="35.130037" lon="-84.958113"><ele>270.1</ele><time>2026-08-16T20:02:04Z</time></trkpt>
<trkpt lat="35.130064" lon="-84.958098"><ele>270.1</ele><time>2026-08-16T20:02:06Z</time></trkpt>
<trkpt lat="35.130094" lon="-84.958108"><ele>269.7</ele><time>2026-08-16T20:02:08Z</time></trkpt>
<trkpt lat="35.130118" lon="-84.958135"><ele>269.7</ele><time>2026-08-16T20:02:10Z</time></trkpt>
<trkpt lat="35.130134" lon="-84.958167"><ele>269.4</ele><time>2026-08-16T20:02:12Z</time></trkpt>
<trkpt lat="35.130152" lon="-84.958194"><ele>269.4</ele><time>2026-08-16T20:02:14Z</time></trkpt>
<trkpt lat="35.130174" lon="-84.958217"><ele>269.4</ele><time>2026-08-16T20:02:16Z</time></trkpt>
<trkpt lat="35.1302" lon="-84.958233"><ele>269.4</ele><time>2026-08-16T20:02:18Z</time></trkpt>
<trkpt lat="35.130227" lon="-84.958235"><ele>269.4</ele><time>2026-08-16T20:02:20Z</time></trkpt>
<trkpt lat="35.130254" lon="-84.958246"><ele>269.1</ele><time>2026-08-16T20:02:22Z</time></trkpt>
<trkpt lat="35.130282" lon="-84.958236"><ele>269.1</ele><time>2026-08-16T20:02:24Z</time></trkpt>
<trkpt lat="35.130307" lon="-84.958211"><ele>269.1</ele><time>2026-08-16T20:02:26Z</time></trkpt>
<trkpt lat="35.130327" lon="-84.958182"><ele>269.1</ele><time>2026-08-16T20:02:28Z</time></trkpt>
<trkpt lat="35.130352" lon="-84.958163"><ele>269.4</ele><time>2026-08-16T20:02:30Z</time></trkpt>
<trkpt lat="35.130374" lon="-84.958137"><ele>269.4</ele><time>2026-08-16T20:02:32Z</time></trkpt>
<trkpt lat="35.130394" lon="-84.95811"><ele>269.4</ele><time>2026-08-16T20:02:34Z</time></trkpt>
<trkpt lat="35.130411" lon="-84.958082"><ele>269.7</ele><time>2026-08-16T20:02:36Z</time></trkpt>
<trkpt lat="35.130429" lon="-84.958056"><ele>269.7</ele><time>2026-08-16T20:02:38Z</time></trkpt>
<trkpt lat="35.130452" lon="-84.958036"><ele>269.7</ele><time>2026-08-16T20:02:40Z</time></trkpt>
<trkpt lat="35.130472" lon="-84.958013"><ele>269.7</ele><time>2026-08-16T20:02:42Z</time></trkpt>
<trkpt lat="35.1305" lon="-84.957981"><ele>269.7</ele><time>2026-08-16T20:02:45Z</time></trkpt>
<trkpt lat="35.130535" lon="-84.957965"><ele>269.4</ele><time>2026-08-16T20:02:48Z</time></trkpt>
<trkpt lat="35.130573" lon="-84.957955"><ele>269.1</ele><time>2026-08-16T20:02:51Z</time></trkpt>
<trkpt lat="35.130602" lon="-84.957953"><ele>268.8</ele><time>2026-08-16T20:02:53Z</time></trkpt>
<trkpt lat="35.130631" lon="-84.957944"><ele>268.8</ele><time>2026-08-16T20:02:55Z</time></trkpt>
<trkpt lat="35.130669" lon="-84.957926"><ele>268.8</ele><time>2026-08-16T20:02:58Z</time></trkpt>
<trkpt lat="35.130704" lon="-84.957901"><ele>269.1</ele><time>2026-08-16T20:03:01Z</time></trkpt>
<trkpt lat="35.130738" lon="-84.957878"><ele>268.8</ele><time>2026-08-16T20:03:04Z</time></trkpt>
<trkpt lat="35.130772" lon="-84.957852"><ele>269.1</ele><time>2026-08-16T20:03:07Z</time></trkpt>
<trkpt lat="35.130787" lon="-84.957821"><ele>269.4</ele><time>2026-08-16T20:03:09Z</time></trkpt>
<trkpt lat="35.130798" lon="-84.957788"><ele>269.7</ele><time>2026-08-16T20:03:11Z</time></trkpt>
<trkpt lat="35.130805" lon="-84.957751"><ele>269.7</ele><time>2026-08-16T20:03:13Z</time></trkpt>
<trkpt lat="35.130804" lon="-84.957715"><ele>269.7</ele><time>2026-08-16T20:03:15Z</time></trkpt>
<trkpt lat="35.130799" lon="-84.957679"><ele>269.7</ele><time>2026-08-16T20:03:17Z</time></trkpt>
<trkpt lat="35.130804" lon="-84.957644"><ele>270.1</ele><time>2026-08-16T20:03:19Z</time></trkpt>
<trkpt lat="35.130826" lon="-84.957604"><ele>270.1</ele><time>2026-08-16T20:03:22Z</time></trkpt>
<trkpt lat="35.130854" lon="-84.957602"><ele>270.1</ele><time>2026-08-16T20:03:24Z</time></trkpt>
<trkpt lat="35.130883" lon="-84.957613"><ele>270.4</ele><time>2026-08-16T20:03:26Z</time></trkpt>
<trkpt lat="35.130906" lon="-84.957635"><ele>270.1</ele><time>2026-08-16T20:03:28Z</time></trkpt>
<trkpt lat="35.130943" lon="-84.957649"><ele>270.1</ele><time>2026-08-16T20:03:31Z</time></trkpt>
<trkpt lat="35.130977" lon="-84.957628"><ele>270.1</ele><time>2026-08-16T20:03:34Z</time></trkpt>
<trkpt lat="35.131005" lon="-84.957592"><ele>270.1</ele><time>2026-08-16T20:03:37Z</time></trkpt>
<trkpt lat="35.131025" lon="-84.957566"><ele>270.1</ele><time>2026-08-16T20:03:39Z</time></trkpt>
<trkpt lat="35.131041" lon="-84.957537"><ele>269.7</ele><time>2026-08-16T20:03:41Z</time></trkpt>
<trkpt lat="35.131056" lon="-84.957506"><ele>269.7</ele><time>2026-08-16T20:03:43Z</time></trkpt>
<trkpt lat="35.131071" lon="-84.957477"><ele>270.1</ele><time>2026-08-16T20:03:45Z</time></trkpt>
<trkpt lat="35.131076" lon="-84.957443"><ele>270.1</ele><time>2026-08-16T20:03:47Z</time></trkpt>
<trkpt lat="35.131098" lon="-84.957402"><ele>270.1</ele><time>2026-08-16T20:03:50Z</time></trkpt>
<trkpt lat="35.13113" lon="-84.957372"><ele>270.4</ele><time>2026-08-16T20:03:53Z</time></trkpt>
<trkpt lat="35.131158" lon="-84.957369"><ele>270.4</ele><time>2026-08-16T20:03:55Z</time></trkpt>
<trkpt lat="35.131186" lon="-84.957378"><ele>270.4</ele><time>2026-08-16T20:03:57Z</time></trkpt>
<trkpt lat="35.131216" lon="-84.957406"><ele>270.7</ele><time>2026-08-16T20:04:00Z</time></trkpt>
<trkpt lat="35.131254" lon="-84.957413"><ele>270.4</ele><time>2026-08-16T20:04:03Z</time></trkpt>
<trkpt lat="35.131281" lon="-84.957411"><ele>270.4</ele><time>2026-08-16T20:04:05Z</time></trkpt>
<trkpt lat="35.13132" lon="-84.957401"><ele>270.7</ele><time>2026-08-16T20:04:08Z</time></trkpt>
<trkpt lat="35.131358" lon="-84.95739"><ele>270.7</ele><time>2026-08-16T20:04:11Z</time></trkpt>
<trkpt lat="35.131385" lon="-84.957383"><ele>270.7</ele><time>2026-08-16T20:04:13Z</time></trkpt>
<trkpt lat="35.131413" lon="-84.957373"><ele>270.7</ele><time>2026-08-16T20:04:15Z</time></trkpt>
<trkpt lat="35.13144" lon="-84.957358"><ele>270.7</ele><time>2026-08-16T20:04:17Z</time></trkpt>
<trkpt lat="35.131469" lon="-84.957344"><ele>270.7</ele><time>2026-08-16T20:04:19Z</time></trkpt>
<trkpt lat="35.131495" lon="-84.957331"><ele>270.7</ele><time>2026-08-16T20:04:21Z</time></trkpt>
<trkpt lat="35.131522" lon="-84.957316"><ele>270.7</ele><time>2026-08-16T20:04:23Z</time></trkpt>
<trkpt lat="35.13156" lon="-84.9573"><ele>270.7</ele><time>2026-08-16T20:04:26Z</time></trkpt>
<trkpt lat="35.131581" lon="-84.957286"><ele>271.0</ele><time>2026-08-16T20:04:28Z</time></trkpt>
<trkpt lat="35.131585" lon="-84.957285"><ele>271.0</ele><time>2026-08-16T20:04:29Z</time></trkpt>
<trkpt lat="35.131587" lon="-84.957285"><ele>271.0</ele><time>2026-08-16T20:04:35Z</time></trkpt>
<trkpt lat="35.13159" lon="-84.957289"><ele>271.0</ele><time>2026-08-16T20:04:36Z</time></trkpt>
<trkpt lat="35.13162" lon="-84.957286"><ele>271.0</ele><time>2026-08-16T20:04:39Z</time></trkpt>
<trkpt lat="35.131654" lon="-84.95727"><ele>271.0</ele><time>2026-08-16T20:04:42Z</time></trkpt>
<trkpt lat="35.131689" lon="-84.957252"><ele>271.0</ele><time>2026-08-16T20:04:45Z</time></trkpt>
<trkpt lat="35.131726" lon="-84.957231"><ele>271.0</ele><time>2026-08-16T20:04:48Z</time></trkpt>
<trkpt lat="35.13175" lon="-84.957214"><ele>271.3</ele><time>2026-08-16T20:04:50Z</time></trkpt>
<trkpt lat="35.131776" lon="-84.957198"><ele>271.3</ele><time>2026-08-16T20:04:52Z</time></trkpt>
<trkpt lat="35.131812" lon="-84.95718"><ele>271.3</ele><time>2026-08-16T20:04:55Z</time></trkpt>
<trkpt lat="35.131836" lon="-84.957161"><ele>271.3</ele><time>2026-08-16T20:04:57Z</time></trkpt>
<trkpt lat="35.131873" lon="-84.957141"><ele>271.6</ele><time>2026-08-16T20:05:00Z</time></trkpt>
<trkpt lat="35.131898" lon="-84.957127"><ele>271.6</ele><time>2026-08-16T20:05:02Z</time></trkpt>
<trkpt lat="35.131925" lon="-84.957112"><ele>271.6</ele><time>2026-08-16T20:05:04Z</time></trkpt>
<trkpt lat="35.13195" lon="-84.957093"><ele>271.9</ele><time>2026-08-16T20:05:06Z</time></trkpt>
<trkpt lat="35.131978" lon="-84.95708"><ele>271.9</ele><time>2026-08-16T20:05:08Z</time></trkpt>
<trkpt lat="35.132003" lon="-84.957064"><ele>271.9</ele><time>2026-08-16T20:05:10Z</time></trkpt>
<trkpt lat="35.132035" lon="-84.957035"><ele>272.2</ele><time>2026-08-16T20:05:13Z</time></trkpt>
<trkpt lat="35.132055" lon="-84.95701"><ele>272.5</ele><time>2026-08-16T20:05:15Z</time></trkpt>
<trkpt lat="35.132074" lon="-84.956983"><ele>272.8</ele><time>2026-08-16T20:05:17Z</time></trkpt>
<trkpt lat="35.132098" lon="-84.956963"><ele>272.8</ele><time>2026-08-16T20:05:19Z</time></trkpt>
<trkpt lat="35.132131" lon="-84.956932"><ele>273.1</ele><time>2026-08-16T20:05:22Z</time></trkpt>
<trkpt lat="35.132156" lon="-84.956911"><ele>273.4</ele><time>2026-08-16T20:05:24Z</time></trkpt>
<trkpt lat="35.132178" lon="-84.956889"><ele>273.4</ele><time>2026-08-16T20:05:26Z</time></trkpt>
<trkpt lat="35.132201" lon="-84.956866"><ele>273.4</ele><time>2026-08-16T20:05:28Z</time></trkpt>
<trkpt lat="35.132219" lon="-84.956836"><ele>273.4</ele><time>2026-08-16T20:05:30Z</time></trkpt>
<trkpt lat="35.132242" lon="-84.956811"><ele>273.7</ele><time>2026-08-16T20:05:32Z</time></trkpt>
<trkpt lat="35.132267" lon="-84.95679"><ele>273.1</ele><time>2026-08-16T20:05:34Z</time></trkpt>
<trkpt lat="35.132291" lon="-84.956772"><ele>273.4</ele><time>2026-08-16T20:05:36Z</time></trkpt>
<trkpt lat="35.132328" lon="-84.956755"><ele>273.1</ele><time>2026-08-16T20:05:39Z</time></trkpt>
<trkpt lat="35.132357" lon="-84.956754"><ele>273.1</ele><time>2026-08-16T20:05:41Z</time></trkpt>
<trkpt lat="35.132397" lon="-84.956768"><ele>273.1</ele><time>2026-08-16T20:05:44Z</time></trkpt>
<trkpt lat="35.132422" lon="-84.956793"><ele>273.1</ele><time>2026-08-16T20:05:46Z</time></trkpt>
<trkpt lat="35.132441" lon="-84.956825"><ele>273.1</ele><time>2026-08-16T20:05:48Z</time></trkpt>
<trkpt lat="35.132449" lon="-84.956866"><ele>273.1</ele><time>2026-08-16T20:05:50Z</time></trkpt>
<trkpt lat="35.132443" lon="-84.956904"><ele>273.1</ele><time>2026-08-16T20:05:52Z</time></trkpt>
<trkpt lat="35.132419" lon="-84.956931"><ele>273.1</ele><time>2026-08-16T20:05:54Z</time></trkpt>
<trkpt lat="35.132392" lon="-84.95695"><ele>273.1</ele><time>2026-08-16T20:05:56Z</time></trkpt>
<trkpt lat="35.132374" lon="-84.956978"><ele>273.1</ele><time>2026-08-16T20:05:58Z</time></trkpt>
<trkpt lat="35.132352" lon="-84.957004"><ele>273.4</ele><time>2026-08-16T20:06:00Z</time></trkpt>
<trkpt lat="35.132328" lon="-84.957026"><ele>273.4</ele><time>2026-08-16T20:06:02Z</time></trkpt>
<trkpt lat="35.132306" lon="-84.957048"><ele>273.4</ele><time>2026-08-16T20:06:04Z</time></trkpt>
<trkpt lat="35.132287" lon="-84.957074"><ele>273.4</ele><time>2026-08-16T20:06:06Z</time></trkpt>
<trkpt lat="35.132267" lon="-84.9571"><ele>273.4</ele><time>2026-08-16T20:06:08Z</time></trkpt>
<trkpt lat="35.132251" lon="-84.95713"><ele>273.4</ele><time>2026-08-16T20:06:10Z</time></trkpt>
<trkpt lat="35.132233" lon="-84.957158"><ele>273.4</ele><time>2026-08-16T20:06:12Z</time></trkpt>
<trkpt lat="35.132215" lon="-84.957186"><ele>273.4</ele><time>2026-08-16T20:06:14Z</time></trkpt>
<trkpt lat="35.132195" lon="-84.957212"><ele>273.4</ele><time>2026-08-16T20:06:16Z</time></trkpt>
<trkpt lat="35.132161" lon="-84.957235"><ele>273.1</ele><time>2026-08-16T20:06:19Z</time></trkpt>
<trkpt lat="35.132132" lon="-84.957269"><ele>272.8</ele><time>2026-08-16T20:06:22Z</time></trkpt>
<trkpt lat="35.132121" lon="-84.957305"><ele>272.5</ele><time>2026-08-16T20:06:24Z</time></trkpt>
<trkpt lat="35.132117" lon="-84.95734"><ele>272.5</ele><time>2026-08-16T20:06:26Z</time></trkpt>
<trkpt lat="35.132111" lon="-84.95739"><ele>272.5</ele><time>2026-08-16T20:06:29Z</time></trkpt>
<trkpt lat="35.132079" lon="-84.957411"><ele>272.2</ele><time>2026-08-16T20:06:32Z</time></trkpt>
<trkpt lat="35.132052" lon="-84.957412"><ele>271.9</ele><time>2026-08-16T20:06:34Z</time></trkpt>
<trkpt lat="35.132015" lon="-84.957394"><ele>272.2</ele><time>2026-08-16T20:06:37Z</time></trkpt>
<trkpt lat="35.131987" lon="-84.957391"><ele>272.2</ele><time>2026-08-16T20:06:39Z</time></trkpt>
<trkpt lat="35.13195" lon="-84.957404"><ele>272.2</ele><time>2026-08-16T20:06:42Z</time></trkpt>
<trkpt lat="35.131913" lon="-84.957402"><ele>271.9</ele><time>2026-08-16T20:06:45Z</time></trkpt>
<trkpt lat="35.131874" lon="-84.957403"><ele>271.6</ele><time>2026-08-16T20:06:48Z</time></trkpt>
<trkpt lat="35.131846" lon="-84.957407"><ele>271.3</ele><time>2026-08-16T20:06:50Z</time></trkpt>
<trkpt lat="35.131815" lon="-84.957419"><ele>271.3</ele><time>2026-08-16T20:06:52Z</time></trkpt>
<trkpt lat="35.131786" lon="-84.957433"><ele>271.3</ele><time>2026-08-16T20:06:54Z</time></trkpt>
<trkpt lat="35.131761" lon="-84.957456"><ele>271.3</ele><time>2026-08-16T20:06:56Z</time></trkpt>
<trkpt lat="35.13174" lon="-84.957484"><ele>271.3</ele><time>2026-08-16T20:06:58Z</time></trkpt>
<trkpt lat="35.13172" lon="-84.957511"><ele>271.0</ele><time>2026-08-16T20:07:00Z</time></trkpt>
<trkpt lat="35.131699" lon="-84.957534"><ele>271.0</ele><time>2026-08-16T20:07:02Z</time></trkpt>
<trkpt lat="35.131678" lon="-84.957557"><ele>271.0</ele><time>2026-08-16T20:07:04Z</time></trkpt>
<trkpt lat="35.131665" lon="-84.957592"><ele>271.0</ele><time>2026-08-16T20:07:06Z</time></trkpt>
<trkpt lat="35.131661" lon="-84.95763"><ele>270.7</ele><time>2026-08-16T20:07:08Z</time></trkpt>
<trkpt lat="35.131672" lon="-84.957667"><ele>270.7</ele><time>2026-08-16T20:07:10Z</time></trkpt>
<trkpt lat="35.131691" lon="-84.957691"><ele>270.7</ele><time>2026-08-16T20:07:12Z</time></trkpt>
<trkpt lat="35.131718" lon="-84.957713"><ele>270.7</ele><time>2026-08-16T20:07:14Z</time></trkpt>
<trkpt lat="35.131744" lon="-84.957731"><ele>270.7</ele><time>2026-08-16T20:07:16Z</time></trkpt>
<trkpt lat="35.131772" lon="-84.957746"><ele>270.7</ele><time>2026-08-16T20:07:18Z</time></trkpt>
<trkpt lat="35.1318" lon="-84.957753"><ele>270.7</ele><time>2026-08-16T20:07:20Z</time></trkpt>
<trkpt lat="35.13183" lon="-84.957749"><ele>270.7</ele><time>2026-08-16T20:07:22Z</time></trkpt>
<trkpt lat="35.131858" lon="-84.957748"><ele>270.7</ele><time>2026-08-16T20:07:24Z</time></trkpt>
<trkpt lat="35.131887" lon="-84.95774"><ele>271.0</ele><time>2026-08-16T20:07:26Z</time></trkpt>
<trkpt lat="35.131914" lon="-84.957731"><ele>271.0</ele><time>2026-08-16T20:07:28Z</time></trkpt>
<trkpt lat="35.131941" lon="-84.957717"><ele>271.3</ele><time>2026-08-16T20:07:30Z</time></trkpt>
<trkpt lat="35.131964" lon="-84.957699"><ele>271.6</ele><time>2026-08-16T20:07:32Z</time></trkpt>
<trkpt lat="35.131991" lon="-84.957679"><ele>271.9</ele><time>2026-08-16T20:07:34Z</time></trkpt>
<trkpt lat="35.132018" lon="-84.957665"><ele>271.9</ele><time>2026-08-16T20:07:36Z</time></trkpt>
<trkpt lat="35.132045" lon="-84.957655"><ele>271.9</ele><time>2026-08-16T20:07:38Z</time></trkpt>
<trkpt lat="35.132074" lon="-84.957643"><ele>272.2</ele><time>2026-08-16T20:07:40Z</time></trkpt>
<trkpt lat="35.132102" lon="-84.95763"><ele>272.2</ele><time>2026-08-16T20:07:42Z</time></trkpt>
<trkpt lat="35.132141" lon="-84.95762"><ele>272.5</ele><time>2026-08-16T20:07:45Z</time></trkpt>
<trkpt lat="35.132181" lon="-84.95762"><ele>272.5</ele><time>2026-08-16T20:07:48Z</time></trkpt>
<trkpt lat="35.132209" lon="-84.957626"><ele>272.5</ele><time>2026-08-16T20:07:50Z</time></trkpt>
<trkpt lat="35.132248" lon="-84.957645"><ele>272.5</ele><time>2026-08-16T20:07:53Z</time></trkpt>
<trkpt lat="35.132267" lon="-84.95767"><ele>272.5</ele><time>2026-08-16T20:07:55Z</time></trkpt>
<trkpt lat="35.132297" lon="-84.957698"><ele>272.8</ele><time>2026-08-16T20:07:58Z</time></trkpt>
<trkpt lat="35.132331" lon="-84.957727"><ele>272.8</ele><time>2026-08-16T20:08:01Z</time></trkpt>
<trkpt lat="35.132342" lon="-84.957759"><ele>272.8</ele><time>2026-08-16T20:08:03Z</time></trkpt>
<trkpt lat="35.132355" lon="-84.957805"><ele>272.8</ele><time>2026-08-16T20:08:06Z</time></trkpt>
<trkpt lat="35.132363" lon="-84.957851"><ele>273.1</ele><time>2026-08-16T20:08:09Z</time></trkpt>
<trkpt lat="35.132358" lon="-84.957886"><ele>273.4</ele><time>2026-08-16T20:08:11Z</time></trkpt>
<trkpt lat="35.13233" lon="-84.957912"><ele>273.4</ele><time>2026-08-16T20:08:14Z</time></trkpt>
<trkpt lat="35.132299" lon="-84.957935"><ele>273.7</ele><time>2026-08-16T20:08:17Z</time></trkpt>
<trkpt lat="35.132284" lon="-84.957963"><ele>273.7</ele><time>2026-08-16T20:08:19Z</time></trkpt>
<trkpt lat="35.132277" lon="-84.957998"><ele>273.7</ele><time>2026-08-16T20:08:21Z</time></trkpt>
<trkpt lat="35.132281" lon="-84.958034"><ele>273.7</ele><time>2026-08-16T20:08:23Z</time></trkpt>
<trkpt lat="35.132275" lon="-84.958067"><ele>273.7</ele><time>2026-08-16T20:08:25Z</time></trkpt>
<trkpt lat="35.132249" lon="-84.95809"><ele>274.0</ele><time>2026-08-16T20:08:27Z</time></trkpt>
<trkpt lat="35.13222" lon="-84.958084"><ele>273.7</ele><time>2026-08-16T20:08:29Z</time></trkpt>
<trkpt lat="35.132196" lon="-84.958066"><ele>273.7</ele><time>2026-08-16T20:08:31Z</time></trkpt>
<trkpt lat="35.132156" lon="-84.958061"><ele>273.7</ele><time>2026-08-16T20:08:34Z</time></trkpt>
<trkpt lat="35.132128" lon="-84.958061"><ele>273.7</ele><time>2026-08-16T20:08:36Z</time></trkpt>
<trkpt lat="35.132102" lon="-84.958071"><ele>273.7</ele><time>2026-08-16T20:08:38Z</time></trkpt>
<trkpt lat="35.132077" lon="-84.958092"><ele>273.4</ele><time>2026-08-16T20:08:40Z</time></trkpt>
<trkpt lat="35.132056" lon="-84.95812"><ele>273.4</ele><time>2026-08-16T20:08:42Z</time></trkpt>
<trkpt lat="35.132032" lon="-84.958137"><ele>273.4</ele><time>2026-08-16T20:08:44Z</time></trkpt>
<trkpt lat="35.132007" lon="-84.958154"><ele>273.7</ele><time>2026-08-16T20:08:46Z</time></trkpt>
<trkpt lat="35.131984" lon="-84.958178"><ele>274.0</ele><time>2026-08-16T20:08:48Z</time></trkpt>
<trkpt lat="35.131963" lon="-84.958221"><ele>274.3</ele><time>2026-08-16T20:08:51Z</time></trkpt>
<trkpt lat="35.131954" lon="-84.958254"><ele>274.3</ele><time>2026-08-16T20:08:53Z</time></trkpt>
<trkpt lat="35.131934" lon="-84.958283"><ele>274.6</ele><time>2026-08-16T20:08:55Z</time></trkpt>
<trkpt lat="35.131911" lon="-84.958304"><ele>274.9</ele><time>2026-08-16T20:08:57Z</time></trkpt>
<trkpt lat="35.131885" lon="-84.958322"><ele>274.6</ele><time>2026-08-16T20:08:59Z</time></trkpt>
<trkpt lat="35.13186" lon="-84.958345"><ele>274.6</ele><time>2026-08-16T20:09:01Z</time></trkpt>
<trkpt lat="35.131854" lon="-84.958382"><ele>274.6</ele><time>2026-08-16T20:09:03Z</time></trkpt>
<trkpt lat="35.131851" lon="-84.958418"><ele>274.6</ele><time>2026-08-16T20:09:05Z</time></trkpt>
<trkpt lat="35.131854" lon="-84.958461"><ele>274.9</ele><time>2026-08-16T20:09:07Z</time></trkpt>
<trkpt lat="35.131857" lon="-84.958498"><ele>274.9</ele><time>2026-08-16T20:09:09Z</time></trkpt>
<trkpt lat="35.131856" lon="-84.958532"><ele>274.9</ele><time>2026-08-16T20:09:11Z</time></trkpt>
<trkpt lat="35.131858" lon="-84.958581"><ele>274.9</ele><time>2026-08-16T20:09:14Z</time></trkpt>
<trkpt lat="35.13187" lon="-84.958628"><ele>274.9</ele><time>2026-08-16T20:09:17Z</time></trkpt>
<trkpt lat="35.131893" lon="-84.958651"><ele>274.9</ele><time>2026-08-16T20:09:19Z</time></trkpt>
<trkpt lat="35.131917" lon="-84.958671"><ele>274.9</ele><time>2026-08-16T20:09:21Z</time></trkpt>
<trkpt lat="35.131938" lon="-84.958695"><ele>275.2</ele><time>2026-08-16T20:09:23Z</time></trkpt>
<trkpt lat="35.131963" lon="-84.958711"><ele>275.2</ele><time>2026-08-16T20:09:25Z</time></trkpt>
<trkpt lat="35.131997" lon="-84.958735"><ele>275.2</ele><time>2026-08-16T20:09:28Z</time></trkpt>
<trkpt lat="35.132034" lon="-84.958748"><ele>275.5</ele><time>2026-08-16T20:09:31Z</time></trkpt>
<trkpt lat="35.132074" lon="-84.95876"><ele>275.8</ele><time>2026-08-16T20:09:34Z</time></trkpt>
<trkpt lat="35.1321" lon="-84.958778"><ele>275.8</ele><time>2026-08-16T20:09:36Z</time></trkpt>
<trkpt lat="35.132129" lon="-84.958805"><ele>275.8</ele><time>2026-08-16T20:09:39Z</time></trkpt>
<trkpt lat="35.132165" lon="-84.958822"><ele>275.5</ele><time>2026-08-16T20:09:42Z</time></trkpt>
<trkpt lat="35.132203" lon="-84.958833"><ele>275.8</ele><time>2026-08-16T20:09:45Z</time></trkpt>
<trkpt lat="35.132229" lon="-84.95885"><ele>275.8</ele><time>2026-08-16T20:09:47Z</time></trkpt>
<trkpt lat="35.132253" lon="-84.958868"><ele>276.1</ele><time>2026-08-16T20:09:49Z</time></trkpt>
<trkpt lat="35.132289" lon="-84.958894"><ele>275.8</ele><time>2026-08-16T20:09:52Z</time></trkpt>
<trkpt lat="35.132311" lon="-84.958923"><ele>275.8</ele><time>2026-08-16T20:09:54Z</time></trkpt>
<trkpt lat="35.132328" lon="-84.958955"><ele>276.1</ele><time>2026-08-16T20:09:56Z</time></trkpt>
<trkpt lat="35.132353" lon="-84.958971"><ele>276.1</ele><time>2026-08-16T20:09:58Z</time></trkpt>
<trkpt lat="35.132369" lon="-84.958999"><ele>275.8</ele><time>2026-08-16T20:10:00Z</time></trkpt>
<trkpt lat="35.132367" lon="-84.959036"><ele>275.8</ele><time>2026-08-16T20:10:02Z</time></trkpt>
<trkpt lat="35.132345" lon="-84.959067"><ele>276.1</ele><time>2026-08-16T20:10:04Z</time></trkpt>
<trkpt lat="35.132313" lon="-84.959071"><ele>276.1</ele><time>2026-08-16T20:10:06Z</time></trkpt>
<trkpt lat="35.132277" lon="-84.959056"><ele>276.5</ele><time>2026-08-16T20:10:09Z</time></trkpt>
<trkpt lat="35.132242" lon="-84.959037"><ele>276.8</ele><time>2026-08-16T20:10:12Z</time></trkpt>
<trkpt lat="35.132204" lon="-84.959022"><ele>276.8</ele><time>2026-08-16T20:10:15Z</time></trkpt>
<trkpt lat="35.132176" lon="-84.959024"><ele>277.1</ele><time>2026-08-16T20:10:17Z</time></trkpt>
<trkpt lat="35.132137" lon="-84.959016"><ele>277.1</ele><time>2026-08-16T20:10:20Z</time></trkpt>
<trkpt lat="35.132108" lon="-84.959016"><ele>276.8</ele><time>2026-08-16T20:10:22Z</time></trkpt>
<trkpt lat="35.132067" lon="-84.959017"><ele>276.8</ele><time>2026-08-16T20:10:25Z</time></trkpt>
<trkpt lat="35.132028" lon="-84.959027"><ele>276.8</ele><time>2026-08-16T20:10:28Z</time></trkpt>
<trkpt lat="35.13199" lon="-84.959042"><ele>277.1</ele><time>2026-08-16T20:10:31Z</time></trkpt>
<trkpt lat="35.131956" lon="-84.95906"><ele>277.4</ele><time>2026-08-16T20:10:34Z</time></trkpt>
<trkpt lat="35.131919" lon="-84.95908"><ele>277.7</ele><time>2026-08-16T20:10:37Z</time></trkpt>
<trkpt lat="35.131896" lon="-84.959102"><ele>278.0</ele><time>2026-08-16T20:10:39Z</time></trkpt>
<trkpt lat="35.131877" lon="-84.959127"><ele>278.0</ele><time>2026-08-16T20:10:41Z</time></trkpt>
<trkpt lat="35.131855" lon="-84.959151"><ele>278.3</ele><time>2026-08-16T20:10:43Z</time></trkpt>
<trkpt lat="35.131835" lon="-84.959177"><ele>278.3</ele><time>2026-08-16T20:10:45Z</time></trkpt>
<trkpt lat="35.131815" lon="-84.959204"><ele>278.6</ele><time>2026-08-16T20:10:47Z</time></trkpt>
<trkpt lat="35.131796" lon="-84.959231"><ele>278.6</ele><time>2026-08-16T20:10:49Z</time></trkpt>
<trkpt lat="35.131777" lon="-84.959257"><ele>278.6</ele><time>2026-08-16T20:10:51Z</time></trkpt>
<trkpt lat="35.131759" lon="-84.959283"><ele>278.9</ele><time>2026-08-16T20:10:53Z</time></trkpt>
<trkpt lat="35.131732" lon="-84.959323"><ele>278.6</ele><time>2026-08-16T20:10:56Z</time></trkpt>
<trkpt lat="35.131711" lon="-84.959365"><ele>278.6</ele><time>2026-08-16T20:10:59Z</time></trkpt>
<trkpt lat="35.131699" lon="-84.959396"><ele>278.9</ele><time>2026-08-16T20:11:01Z</time></trkpt>
<trkpt lat="35.131692" lon="-84.95943"><ele>278.9</ele><time>2026-08-16T20:11:03Z</time></trkpt>
<trkpt lat="35.131682" lon="-84.959463"><ele>279.2</ele><time>2026-08-16T20:11:05Z</time></trkpt>
<trkpt lat="35.131662" lon="-84.959489"><ele>279.5</ele><time>2026-08-16T20:11:07Z</time></trkpt>
<trkpt lat="35.131641" lon="-84.959515"><ele>279.8</ele><time>2026-08-16T20:11:09Z</time></trkpt>
<trkpt lat="35.131622" lon="-84.959539"><ele>279.8</ele><time>2026-08-16T20:11:11Z</time></trkpt>
<trkpt lat="35.131601" lon="-84.959561"><ele>280.1</ele><time>2026-08-16T20:11:13Z</time></trkpt>
<trkpt lat="35.131573" lon="-84.959572"><ele>280.1</ele><time>2026-08-16T20:11:15Z</time></trkpt>
<trkpt lat="35.131533" lon="-84.959585"><ele>279.8</ele><time>2026-08-16T20:11:18Z</time></trkpt>
<trkpt lat="35.131497" lon="-84.959598"><ele>279.5</ele><time>2026-08-16T20:11:21Z</time></trkpt>
<trkpt lat="35.131459" lon="-84.959606"><ele>278.9</ele><time>2026-08-16T20:11:24Z</time></trkpt>
<trkpt lat="35.131431" lon="-84.959605"><ele>278.6</ele><time>2026-08-16T20:11:26Z</time></trkpt>
<trkpt lat="35.131391" lon="-84.959593"><ele>278.0</ele><time>2026-08-16T20:11:29Z</time></trkpt>
<trkpt lat="35.13135" lon="-84.9596"><ele>277.7</ele><time>2026-08-16T20:11:32Z</time></trkpt>
<trkpt lat="35.131323" lon="-84.959613"><ele>277.7</ele><time>2026-08-16T20:11:34Z</time></trkpt>
<trkpt lat="35.131297" lon="-84.959629"><ele>277.7</ele><time>2026-08-16T20:11:36Z</time></trkpt>
<trkpt lat="35.131268" lon="-84.959637"><ele>277.7</ele><time>2026-08-16T20:11:38Z</time></trkpt>
<trkpt lat="35.131229" lon="-84.959638"><ele>277.4</ele><time>2026-08-16T20:11:41Z</time></trkpt>
<trkpt lat="35.131202" lon="-84.959649"><ele>277.4</ele><time>2026-08-16T20:11:43Z</time></trkpt>
<trkpt lat="35.131175" lon="-84.959671"><ele>277.1</ele><time>2026-08-16T20:11:45Z</time></trkpt>
<trkpt lat="35.131152" lon="-84.959695"><ele>277.1</ele><time>2026-08-16T20:11:47Z</time></trkpt>
<trkpt lat="35.131129" lon="-84.959721"><ele>277.1</ele><time>2026-08-16T20:11:49Z</time></trkpt>
<trkpt lat="35.131104" lon="-84.959737"><ele>276.8</ele><time>2026-08-16T20:11:51Z</time></trkpt>
<trkpt lat="35.131077" lon="-84.959745"><ele>276.8</ele><time>2026-08-16T20:11:53Z</time></trkpt>
<trkpt lat="35.131049" lon="-84.959742"><ele>276.5</ele><time>2026-08-16T20:11:55Z</time></trkpt>
<trkpt lat="35.131023" lon="-84.959753"><ele>276.1</ele><time>2026-08-16T20:11:57Z</time></trkpt>
<trkpt lat="35.13099" lon="-84.959785"><ele>275.5</ele><time>2026-08-16T20:12:00Z</time></trkpt>
<trkpt lat="35.130966" lon="-84.959809"><ele>275.5</ele><time>2026-08-16T20:12:02Z</time></trkpt>
<trkpt lat="35.130942" lon="-84.959849"><ele>275.5</ele><time>2026-08-16T20:12:05Z</time></trkpt>
<trkpt lat="35.13094" lon="-84.95989"><ele>275.8</ele><time>2026-08-16T20:12:07Z</time></trkpt>
<trkpt lat="35.130933" lon="-84.959926"><ele>275.8</ele><time>2026-08-16T20:12:09Z</time></trkpt>
<trkpt lat="35.130903" lon="-84.959956"><ele>275.8</ele><time>2026-08-16T20:12:12Z</time></trkpt>
<trkpt lat="35.13087" lon="-84.959969"><ele>275.5</ele><time>2026-08-16T20:12:15Z</time></trkpt>
<trkpt lat="35.130831" lon="-84.95998"><ele>274.9</ele><time>2026-08-16T20:12:18Z</time></trkpt>
<trkpt lat="35.130802" lon="-84.959994"><ele>274.6</ele><time>2026-08-16T20:12:20Z</time></trkpt>
<trkpt lat="35.130774" lon="-84.960003"><ele>274.3</ele><time>2026-08-16T20:12:22Z</time></trkpt>
<trkpt lat="35.130746" lon="-84.960009"><ele>274.3</ele><time>2026-08-16T20:12:24Z</time></trkpt>
<trkpt lat="35.130718" lon="-84.960024"><ele>274.0</ele><time>2026-08-16T20:12:26Z</time></trkpt>
<trkpt lat="35.130691" lon="-84.960042"><ele>273.7</ele><time>2026-08-16T20:12:28Z</time></trkpt>
<trkpt lat="35.130669" lon="-84.960067"><ele>273.7</ele><time>2026-08-16T20:12:30Z</time></trkpt>
<trkpt lat="35.130657" lon="-84.960103"><ele>273.7</ele><time>2026-08-16T20:12:32Z</time></trkpt>
<trkpt lat="35.130657" lon="-84.960154"><ele>273.7</ele><time>2026-08-16T20:12:35Z</time></trkpt>
<trkpt lat="35.130678" lon="-84.960187"><ele>274.0</ele><time>2026-08-16T20:12:37Z</time></trkpt>
<trkpt lat="35.130703" lon="-84.960208"><ele>274.0</ele><time>2026-08-16T20:12:39Z</time></trkpt>
<trkpt lat="35.130723" lon="-84.960237"><ele>274.3</ele><time>2026-08-16T20:12:41Z</time></trkpt>
<trkpt lat="35.130745" lon="-84.960258"><ele>274.3</ele><time>2026-08-16T20:12:43Z</time></trkpt>
<trkpt lat="35.130779" lon="-84.960285"><ele>274.9</ele><time>2026-08-16T20:12:46Z</time></trkpt>
<trkpt lat="35.130811" lon="-84.960316"><ele>275.2</ele><time>2026-08-16T20:12:49Z</time></trkpt>
<trkpt lat="35.13084" lon="-84.960348"><ele>275.8</ele><time>2026-08-16T20:12:52Z</time></trkpt>
<trkpt lat="35.13086" lon="-84.960374"><ele>275.8</ele><time>2026-08-16T20:12:54Z</time></trkpt>
<trkpt lat="35.130884" lon="-84.960412"><ele>276.5</ele><time>2026-08-16T20:12:57Z</time></trkpt>
<trkpt lat="35.130919" lon="-84.960431"><ele>277.1</ele><time>2026-08-16T20:13:00Z</time></trkpt>
<trkpt lat="35.130956" lon="-84.960413"><ele>277.7</ele><time>2026-08-16T20:13:03Z</time></trkpt>
<trkpt lat="35.130966" lon="-84.960365"><ele>278.0</ele><time>2026-08-16T20:13:06Z</time></trkpt>
<trkpt lat="35.130953" lon="-84.960332"><ele>278.3</ele><time>2026-08-16T20:13:08Z</time></trkpt>
<trkpt lat="35.130946" lon="-84.960299"><ele>278.3</ele><time>2026-08-16T20:13:10Z</time></trkpt>
<trkpt lat="35.130952" lon="-84.960266"><ele>278.6</ele><time>2026-08-16T20:13:12Z</time></trkpt>
<trkpt lat="35.130961" lon="-84.960233"><ele>278.9</ele><time>2026-08-16T20:13:14Z</time></trkpt>
<trkpt lat="35.130978" lon="-84.960202"><ele>278.9</ele><time>2026-08-16T20:13:16Z</time></trkpt>
<trkpt lat="35.130996" lon="-84.960175"><ele>279.2</ele><time>2026-08-16T20:13:18Z</time></trkpt>
<trkpt lat="35.13102" lon="-84.960137"><ele>279.5</ele><time>2026-08-16T20:13:21Z</time></trkpt>
<trkpt lat="35.131048" lon="-84.960106"><ele>279.5</ele><time>2026-08-16T20:13:24Z</time></trkpt>
<trkpt lat="35.131077" lon="-84.960076"><ele>279.8</ele><time>2026-08-16T20:13:27Z</time></trkpt>
<trkpt lat="35.131103" lon="-84.960039"><ele>280.1</ele><time>2026-08-16T20:13:30Z</time></trkpt>
<trkpt lat="35.131127" lon="-84.960005"><ele>280.4</ele><time>2026-08-16T20:13:33Z</time></trkpt>
<trkpt lat="35.131153" lon="-84.959973"><ele>280.7</ele><time>2026-08-16T20:13:36Z</time></trkpt>
<trkpt lat="35.131179" lon="-84.959959"><ele>280.7</ele><time>2026-08-16T20:13:38Z</time></trkpt>
<trkpt lat="35.131201" lon="-84.959937"><ele>281.0</ele><time>2026-08-16T20:13:40Z</time></trkpt>
<trkpt lat="35.131226" lon="-84.959915"><ele>281.3</ele><time>2026-08-16T20:13:42Z</time></trkpt>
<trkpt lat="35.13126" lon="-84.959893"><ele>281.6</ele><time>2026-08-16T20:13:45Z</time></trkpt>
<trkpt lat="35.131288" lon="-84.959883"><ele>281.9</ele><time>2026-08-16T20:13:47Z</time></trkpt>
<trkpt lat="35.131324" lon="-84.959863"><ele>282.2</ele><time>2026-08-16T20:13:50Z</time></trkpt>
<trkpt lat="35.131362" lon="-84.959854"><ele>282.2</ele><time>2026-08-16T20:13:53Z</time></trkpt>
<trkpt lat="35.1314" lon="-84.959847"><ele>282.9</ele><time>2026-08-16T20:13:56Z</time></trkpt>
<trkpt lat="35.131429" lon="-84.959854"><ele>282.9</ele><time>2026-08-16T20:13:58Z</time></trkpt>
<trkpt lat="35.131468" lon="-84.959852"><ele>283.5</ele><time>2026-08-16T20:14:01Z</time></trkpt>
<trkpt lat="35.131505" lon="-84.959846"><ele>283.8</ele><time>2026-08-16T20:14:04Z</time></trkpt>
<trkpt lat="35.13154" lon="-84.959834"><ele>284.1</ele><time>2026-08-16T20:14:07Z</time></trkpt>
<trkpt lat="35.131577" lon="-84.95982"><ele>284.4</ele><time>2026-08-16T20:14:10Z</time></trkpt>
<trkpt lat="35.131615" lon="-84.9598"><ele>284.4</ele><time>2026-08-16T20:14:13Z</time></trkpt>
<trkpt lat="35.131643" lon="-84.959798"><ele>284.7</ele><time>2026-08-16T20:14:15Z</time></trkpt>
<trkpt lat="35.131679" lon="-84.959792"><ele>284.7</ele><time>2026-08-16T20:14:18Z</time></trkpt>
<trkpt lat="35.131713" lon="-84.959774"><ele>285.3</ele><time>2026-08-16T20:14:21Z</time></trkpt>
<trkpt lat="35.131747" lon="-84.959747"><ele>285.6</ele><time>2026-08-16T20:14:24Z</time></trkpt>
<trkpt lat="35.131785" lon="-84.95973"><ele>285.9</ele><time>2026-08-16T20:14:27Z</time></trkpt>
<trkpt lat="35.131811" lon="-84.959721"><ele>286.2</ele><time>2026-08-16T20:14:29Z</time></trkpt>
<trkpt lat="35.131847" lon="-84.9597"><ele>286.5</ele><time>2026-08-16T20:14:32Z</time></trkpt>
<trkpt lat="35.131869" lon="-84.959675"><ele>286.5</ele><time>2026-08-16T20:14:34Z</time></trkpt>
<trkpt lat="35.131893" lon="-84.959654"><ele>286.5</ele><time>2026-08-16T20:14:36Z</time></trkpt>
<trkpt lat="35.131918" lon="-84.959634"><ele>286.5</ele><time>2026-08-16T20:14:38Z</time></trkpt>
<trkpt lat="35.131945" lon="-84.959623"><ele>286.8</ele><time>2026-08-16T20:14:40Z</time></trkpt>
<trkpt lat="35.131974" lon="-84.959618"><ele>287.1</ele><time>2026-08-16T20:14:42Z</time></trkpt>
<trkpt lat="35.132002" lon="-84.959619"><ele>287.4</ele><time>2026-08-16T20:14:44Z</time></trkpt>
<trkpt lat="35.132027" lon="-84.959581"><ele>287.7</ele><time>2026-08-16T20:14:47Z</time></trkpt>
<trkpt lat="35.132047" lon="-84.959553"><ele>287.7</ele><time>2026-08-16T20:14:49Z</time></trkpt>
<trkpt lat="35.132073" lon="-84.959536"><ele>287.7</ele><time>2026-08-16T20:14:51Z</time></trkpt>
<trkpt lat="35.132107" lon="-84.959513"><ele>287.4</ele><time>2026-08-16T20:14:54Z</time></trkpt>
<trkpt lat="35.132145" lon="-84.959517"><ele>287.7</ele><time>2026-08-16T20:14:57Z</time></trkpt>
<trkpt lat="35.132183" lon="-84.959517"><ele>288.0</ele><time>2026-08-16T20:15:00Z</time></trkpt>
<trkpt lat="35.132221" lon="-84.959506"><ele>288.0</ele><time>2026-08-16T20:15:03Z</time></trkpt>
<trkpt lat="35.132257" lon="-84.959502"><ele>288.6</ele><time>2026-08-16T20:15:06Z</time></trkpt>
<trkpt lat="35.132295" lon="-84.9595"><ele>288.6</ele><time>2026-08-16T20:15:09Z</time></trkpt>
<trkpt lat="35.132334" lon="-84.9595"><ele>289.3</ele><time>2026-08-16T20:15:12Z</time></trkpt>
<trkpt lat="35.132373" lon="-84.959487"><ele>289.3</ele><time>2026-08-16T20:15:15Z</time></trkpt>
<trkpt lat="35.132411" lon="-84.959486"><ele>289.3</ele><time>2026-08-16T20:15:18Z</time></trkpt>
<trkpt lat="35.132444" lon="-84.959507"><ele>289.6</ele><time>2026-08-16T20:15:21Z</time></trkpt>
<trkpt lat="35.132479" lon="-84.95952"><ele>289.6</ele><time>2026-08-16T20:15:24Z</time></trkpt>
<trkpt lat="35.132515" lon="-84.959531"><ele>289.6</ele><time>2026-08-16T20:15:27Z</time></trkpt>
<trkpt lat="35.132554" lon="-84.959544"><ele>289.3</ele><time>2026-08-16T20:15:30Z</time></trkpt>
<trkpt lat="35.132588" lon="-84.959562"><ele>289.0</ele><time>2026-08-16T20:15:33Z</time></trkpt>
<trkpt lat="35.132622" lon="-84.959586"><ele>288.6</ele><time>2026-08-16T20:15:36Z</time></trkpt>
<trkpt lat="35.132658" lon="-84.959608"><ele>288.6</ele><time>2026-08-16T20:15:39Z</time></trkpt>
<trkpt lat="35.132693" lon="-84.959636"><ele>288.6</ele><time>2026-08-16T20:15:42Z</time></trkpt>
<trkpt lat="35.132717" lon="-84.959652"><ele>288.6</ele><time>2026-08-16T20:15:44Z</time></trkpt>
<trkpt lat="35.132757" lon="-84.959657"><ele>288.3</ele><time>2026-08-16T20:15:47Z</time></trkpt>
<trkpt lat="35.132786" lon="-84.959645"><ele>288.3</ele><time>2026-08-16T20:15:49Z</time></trkpt>
<trkpt lat="35.132809" lon="-84.959619"><ele>288.3</ele><time>2026-08-16T20:15:51Z</time></trkpt>
<trkpt lat="35.132821" lon="-84.959583"><ele>288.6</ele><time>2026-08-16T20:15:53Z</time></trkpt>
<trkpt lat="35.132823" lon="-84.959546"><ele>288.6</ele><time>2026-08-16T20:15:55Z</time></trkpt>
<trkpt lat="35.13282" lon="-84.959511"><ele>289.0</ele><time>2026-08-16T20:15:57Z</time></trkpt>
<trkpt lat="35.132813" lon="-84.959474"><ele>289.0</ele><time>2026-08-16T20:15:59Z</time></trkpt>
<trkpt lat="35.132811" lon="-84.95944"><ele>289.0</ele><time>2026-08-16T20:16:01Z</time></trkpt>
<trkpt lat="35.13281" lon="-84.959405"><ele>289.0</ele><time>2026-08-16T20:16:03Z</time></trkpt>
<trkpt lat="35.132815" lon="-84.959367"><ele>288.6</ele><time>2026-08-16T20:16:05Z</time></trkpt>
<trkpt lat="35.132823" lon="-84.959331"><ele>288.6</ele><time>2026-08-16T20:16:07Z</time></trkpt>
<trkpt lat="35.132847" lon="-84.95929"><ele>289.0</ele><time>2026-08-16T20:16:10Z</time></trkpt>
<trkpt lat="35.132884" lon="-84.959266"><ele>289.3</ele><time>2026-08-16T20:16:13Z</time></trkpt>
<trkpt lat="35.132907" lon="-84.959246"><ele>289.3</ele><time>2026-08-16T20:16:15Z</time></trkpt>
<trkpt lat="35.132926" lon="-84.959218"><ele>289.6</ele><time>2026-08-16T20:16:17Z</time></trkpt>
<trkpt lat="35.132948" lon="-84.959191"><ele>289.6</ele><time>2026-08-16T20:16:19Z</time></trkpt>
<trkpt lat="35.132964" lon="-84.959163"><ele>289.6</ele><time>2026-08-16T20:16:21Z</time></trkpt>
<trkpt lat="35.132983" lon="-84.959136"><ele>289.9</ele><time>2026-08-16T20:16:23Z</time></trkpt>
<trkpt lat="35.132996" lon="-84.959105"><ele>289.6</ele><time>2026-08-16T20:16:25Z</time></trkpt>
<trkpt lat="35.133004" lon="-84.959072"><ele>289.6</ele><time>2026-08-16T20:16:27Z</time></trkpt>
<trkpt lat="35.133016" lon="-84.959039"><ele>289.3</ele><time>2026-08-16T20:16:29Z</time></trkpt>
<trkpt lat="35.133028" lon="-84.959007"><ele>289.3</ele><time>2026-08-16T20:16:31Z</time></trkpt>
<trkpt lat="35.133054" lon="-84.958971"><ele>289.3</ele><time>2026-08-16T20:16:34Z</time></trkpt>
<trkpt lat="35.133076" lon="-84.958933"><ele>289.6</ele><time>2026-08-16T20:16:37Z</time></trkpt>
<trkpt lat="35.13309" lon="-84.958904"><ele>289.6</ele><time>2026-08-16T20:16:39Z</time></trkpt>
<trkpt lat="35.133097" lon="-84.95887"><ele>289.3</ele><time>2026-08-16T20:16:41Z</time></trkpt>
<trkpt lat="35.133113" lon="-84.958842"><ele>289.3</ele><time>2026-08-16T20:16:43Z</time></trkpt>
<trkpt lat="35.133124" lon="-84.958811"><ele>289.0</ele><time>2026-08-16T20:16:45Z</time></trkpt>
<trkpt lat="35.133122" lon="-84.958776"><ele>289.0</ele><time>2026-08-16T20:16:47Z</time></trkpt>
<trkpt lat="35.133124" lon="-84.95874"><ele>288.6</ele><time>2026-08-16T20:16:49Z</time></trkpt>
<trkpt lat="35.133134" lon="-84.958703"><ele>288.6</ele><time>2026-08-16T20:16:51Z</time></trkpt>
<trkpt lat="35.133152" lon="-84.958674"><ele>289.0</ele><time>2026-08-16T20:16:53Z</time></trkpt>
<trkpt lat="35.133168" lon="-84.958646"><ele>289.0</ele><time>2026-08-16T20:16:55Z</time></trkpt>
<trkpt lat="35.133184" lon="-84.958602"><ele>289.0</ele><time>2026-08-16T20:16:58Z</time></trkpt>
<trkpt lat="35.133175" lon="-84.958569"><ele>289.0</ele><time>2026-08-16T20:17:00Z</time></trkpt>
<trkpt lat="35.133153" lon="-84.95854"><ele>289.0</ele><time>2026-08-16T20:17:02Z</time></trkpt>
<trkpt lat="35.133141" lon="-84.958507"><ele>288.6</ele><time>2026-08-16T20:17:04Z</time></trkpt>
<trkpt lat="35.133134" lon="-84.958472"><ele>288.6</ele><time>2026-08-16T20:17:06Z</time></trkpt>
<trkpt lat="35.133138" lon="-84.958438"><ele>288.6</ele><time>2026-08-16T20:17:08Z</time></trkpt>
<trkpt lat="35.133168" lon="-84.95842"><ele>288.6</ele><time>2026-08-16T20:17:10Z</time></trkpt>
<trkpt lat="35.133203" lon="-84.958402"><ele>288.6</ele><time>2026-08-16T20:17:13Z</time></trkpt>
<trkpt lat="35.133241" lon="-84.958393"><ele>288.3</ele><time>2026-08-16T20:17:16Z</time></trkpt>
<trkpt lat="35.133281" lon="-84.958403"><ele>288.3</ele><time>2026-08-16T20:17:19Z</time></trkpt>
<trkpt lat="35.133309" lon="-84.95841"><ele>288.0</ele><time>2026-08-16T20:17:21Z</time></trkpt>
<trkpt lat="35.133347" lon="-84.95842"><ele>287.7</ele><time>2026-08-16T20:17:24Z</time></trkpt>
<trkpt lat="35.133375" lon="-84.958429"><ele>287.4</ele><time>2026-08-16T20:17:26Z</time></trkpt>
<trkpt lat="35.1334" lon="-84.958447"><ele>287.4</ele><time>2026-08-16T20:17:28Z</time></trkpt>
<trkpt lat="35.133437" lon="-84.958462"><ele>287.4</ele><time>2026-08-16T20:17:31Z</time></trkpt>
<trkpt lat="35.133476" lon="-84.95847"><ele>287.7</ele><time>2026-08-16T20:17:34Z</time></trkpt>
<trkpt lat="35.133501" lon="-84.958485"><ele>287.7</ele><time>2026-08-16T20:17:36Z</time></trkpt>
<trkpt lat="35.13353" lon="-84.958494"><ele>288.0</ele><time>2026-08-16T20:17:38Z</time></trkpt>
<trkpt lat="35.133557" lon="-84.958506"><ele>288.0</ele><time>2026-08-16T20:17:40Z</time></trkpt>
<trkpt lat="35.133585" lon="-84.958509"><ele>287.7</ele><time>2026-08-16T20:17:42Z</time></trkpt>
<trkpt lat="35.133624" lon="-84.958502"><ele>287.7</ele><time>2026-08-16T20:17:45Z</time></trkpt>
<trkpt lat="35.133665" lon="-84.958498"><ele>288.0</ele><time>2026-08-16T20:17:48Z</time></trkpt>
<trkpt lat="35.133689" lon="-84.958482"><ele>288.3</ele><time>2026-08-16T20:17:50Z</time></trkpt>
<trkpt lat="35.1337" lon="-84.958444"><ele>288.3</ele><time>2026-08-16T20:17:52Z</time></trkpt>
<trkpt lat="35.133705" lon="-84.95841"><ele>288.3</ele><time>2026-08-16T20:17:54Z</time></trkpt>
<trkpt lat="35.133704" lon="-84.958375"><ele>288.3</ele><time>2026-08-16T20:17:56Z</time></trkpt>
<trkpt lat="35.133692" lon="-84.958344"><ele>288.3</ele><time>2026-08-16T20:17:58Z</time></trkpt>
<trkpt lat="35.133676" lon="-84.958317"><ele>288.6</ele><time>2026-08-16T20:18:00Z</time></trkpt>
<trkpt lat="35.133661" lon="-84.958287"><ele>288.6</ele><time>2026-08-16T20:18:02Z</time></trkpt>
<trkpt lat="35.133656" lon="-84.95825"><ele>289.0</ele><time>2026-08-16T20:18:04Z</time></trkpt>
<trkpt lat="35.133647" lon="-84.958215"><ele>289.0</ele><time>2026-08-16T20:18:06Z</time></trkpt>
<trkpt lat="35.133631" lon="-84.958168"><ele>289.0</ele><time>2026-08-16T20:18:09Z</time></trkpt>
<trkpt lat="35.133632" lon="-84.958135"><ele>289.0</ele><time>2026-08-16T20:18:11Z</time></trkpt>
<trkpt lat="35.133635" lon="-84.958099"><ele>289.3</ele><time>2026-08-16T20:18:13Z</time></trkpt>
<trkpt lat="35.133636" lon="-84.958066"><ele>289.3</ele><time>2026-08-16T20:18:15Z</time></trkpt>
<trkpt lat="35.133651" lon="-84.958026"><ele>289.3</ele><time>2026-08-16T20:18:18Z</time></trkpt>
<trkpt lat="35.133674" lon="-84.95799"><ele>288.6</ele><time>2026-08-16T20:18:21Z</time></trkpt>
<trkpt lat="35.133696" lon="-84.957966"><ele>289.0</ele><time>2026-08-16T20:18:23Z</time></trkpt>
<trkpt lat="35.133719" lon="-84.957944"><ele>289.0</ele><time>2026-08-16T20:18:25Z</time></trkpt>
<trkpt lat="35.133743" lon="-84.957921"><ele>289.3</ele><time>2026-08-16T20:18:27Z</time></trkpt>
<trkpt lat="35.133773" lon="-84.95789"><ele>289.3</ele><time>2026-08-16T20:18:30Z</time></trkpt>
<trkpt lat="35.133801" lon="-84.957856"><ele>289.0</ele><time>2026-08-16T20:18:33Z</time></trkpt>
<trkpt lat="35.133822" lon="-84.957831"><ele>288.6</ele><time>2026-08-16T20:18:35Z</time></trkpt>
<trkpt lat="35.133857" lon="-84.957806"><ele>288.3</ele><time>2026-08-16T20:18:38Z</time></trkpt>
<trkpt lat="35.133899" lon="-84.9578"><ele>288.3</ele><time>2026-08-16T20:18:41Z</time></trkpt>
<trkpt lat="35.133937" lon="-84.95779"><ele>288.3</ele><time>2026-08-16T20:18:44Z</time></trkpt>
<trkpt lat="35.133978" lon="-84.95779"><ele>288.3</ele><time>2026-08-16T20:18:47Z</time></trkpt>
<trkpt lat="35.134007" lon="-84.957803"><ele>288.3</ele><time>2026-08-16T20:18:49Z</time></trkpt>
<trkpt lat="35.134046" lon="-84.95779"><ele>288.0</ele><time>2026-08-16T20:18:52Z</time></trkpt>
<trkpt lat="35.134069" lon="-84.957765"><ele>287.7</ele><time>2026-08-16T20:18:54Z</time></trkpt>
<trkpt lat="35.134086" lon="-84.957732"><ele>287.4</ele><time>2026-08-16T20:18:56Z</time></trkpt>
<trkpt lat="35.134106" lon="-84.957704"><ele>287.1</ele><time>2026-08-16T20:18:58Z</time></trkpt>
<trkpt lat="35.134124" lon="-84.957678"><ele>287.4</ele><time>2026-08-16T20:19:00Z</time></trkpt>
<trkpt lat="35.134141" lon="-84.95765"><ele>287.4</ele><time>2026-08-16T20:19:02Z</time></trkpt>
<trkpt lat="35.134156" lon="-84.957603"><ele>287.4</ele><time>2026-08-16T20:19:05Z</time></trkpt>
<trkpt lat="35.134154" lon="-84.957569"><ele>287.4</ele><time>2026-08-16T20:19:07Z</time></trkpt>
<trkpt lat="35.13415" lon="-84.957519"><ele>287.1</ele><time>2026-08-16T20:19:10Z</time></trkpt>
<trkpt lat="35.134154" lon="-84.957483"><ele>287.1</ele><time>2026-08-16T20:19:12Z</time></trkpt>
<trkpt lat="35.134162" lon="-84.957451"><ele>287.1</ele><time>2026-08-16T20:19:14Z</time></trkpt>
<trkpt lat="35.134142" lon="-84.957419"><ele>286.8</ele><time>2026-08-16T20:19:16Z</time></trkpt>
<trkpt lat="35.134115" lon="-84.957396"><ele>286.8</ele><time>2026-08-16T20:19:18Z</time></trkpt>
<trkpt lat="35.134085" lon="-84.957383"><ele>286.5</ele><time>2026-08-16T20:19:20Z</time></trkpt>
<trkpt lat="35.134061" lon="-84.957364"><ele>286.2</ele><time>2026-08-16T20:19:22Z</time></trkpt>
<trkpt lat="35.134038" lon="-84.957341"><ele>285.9</ele><time>2026-08-16T20:19:24Z</time></trkpt>
<trkpt lat="35.134016" lon="-84.957316"><ele>285.9</ele><time>2026-08-16T20:19:26Z</time></trkpt>
<trkpt lat="35.133988" lon="-84.957306"><ele>285.6</ele><time>2026-08-16T20:19:28Z</time></trkpt>
<trkpt lat="35.133957" lon="-84.957303"><ele>285.6</ele><time>2026-08-16T20:19:30Z</time></trkpt>
<trkpt lat="35.133926" lon="-84.957301"><ele>285.3</ele><time>2026-08-16T20:19:32Z</time></trkpt>
<trkpt lat="35.133899" lon="-84.957291"><ele>285.3</ele><time>2026-08-16T20:19:34Z</time></trkpt>
<trkpt lat="35.133871" lon="-84.957284"><ele>285.0</ele><time>2026-08-16T20:19:36Z</time></trkpt>
<trkpt lat="35.133845" lon="-84.957272"><ele>285.0</ele><time>2026-08-16T20:19:38Z</time></trkpt>
<trkpt lat="35.133816" lon="-84.957266"><ele>285.0</ele><time>2026-08-16T20:19:40Z</time></trkpt>
<trkpt lat="35.133793" lon="-84.957241"><ele>284.7</ele><time>2026-08-16T20:19:42Z</time></trkpt>
<trkpt lat="35.133783" lon="-84.957202"><ele>284.7</ele><time>2026-08-16T20:19:44Z</time></trkpt>
<trkpt lat="35.133788" lon="-84.957163"><ele>284.7</ele><time>2026-08-16T20:19:46Z</time></trkpt>
<trkpt lat="35.133791" lon="-84.957129"><ele>284.7</ele><time>2026-08-16T20:19:48Z</time></trkpt>
<trkpt lat="35.133802" lon="-84.957082"><ele>284.7</ele><time>2026-08-16T20:19:51Z</time></trkpt>
<trkpt lat="35.133829" lon="-84.957056"><ele>284.4</ele><time>2026-08-16T20:19:53Z</time></trkpt>
<trkpt lat="35.133859" lon="-84.95705"><ele>284.4</ele><time>2026-08-16T20:19:55Z</time></trkpt>
<trkpt lat="35.133887" lon="-84.957044"><ele>284.7</ele><time>2026-08-16T20:19:57Z</time></trkpt>
<trkpt lat="35.133923" lon="-84.957028"><ele>284.1</ele><time>2026-08-16T20:20:00Z</time></trkpt>
<trkpt lat="35.133952" lon="-84.957017"><ele>283.8</ele><time>2026-08-16T20:20:02Z</time></trkpt>
<trkpt lat="35.133986" lon="-84.957008"><ele>283.8</ele><time>2026-08-16T20:20:04Z</time></trkpt>
<trkpt lat="35.134017" lon="-84.957006"><ele>283.5</ele><time>2026-08-16T20:20:06Z</time></trkpt>
<trkpt lat="35.134047" lon="-84.957016"><ele>283.5</ele><time>2026-08-16T20:20:08Z</time></trkpt>
<trkpt lat="35.134075" lon="-84.957027"><ele>283.5</ele><time>2026-08-16T20:20:10Z</time></trkpt>
<trkpt lat="35.134117" lon="-84.95703"><ele>283.5</ele><time>2026-08-16T20:20:13Z</time></trkpt>
<trkpt lat="35.134144" lon="-84.957025"><ele>283.2</ele><time>2026-08-16T20:20:15Z</time></trkpt>
<trkpt lat="35.134167" lon="-84.956998"><ele>282.9</ele><time>2026-08-16T20:20:17Z</time></trkpt>
<trkpt lat="35.134177" lon="-84.956964"><ele>282.5</ele><time>2026-08-16T20:20:19Z</time></trkpt>
<trkpt lat="35.134176" lon="-84.956925"><ele>282.2</ele><time>2026-08-16T20:20:21Z</time></trkpt>
<trkpt lat="35.134168" lon="-84.956884"><ele>282.2</ele><time>2026-08-16T20:20:23Z</time></trkpt>
<trkpt lat="35.134162" lon="-84.956848"><ele>282.2</ele><time>2026-08-16T20:20:25Z</time></trkpt>
<trkpt lat="35.134148" lon="-84.956814"><ele>282.2</ele><time>2026-08-16T20:20:27Z</time></trkpt>
<trkpt lat="35.134128" lon="-84.956786"><ele>282.2</ele><time>2026-08-16T20:20:29Z</time></trkpt>
<trkpt lat="35.134111" lon="-84.956758"><ele>282.2</ele><time>2026-08-16T20:20:31Z</time></trkpt>
<trkpt lat="35.134093" lon="-84.95673"><ele>282.2</ele><time>2026-08-16T20:20:33Z</time></trkpt>
<trkpt lat="35.134074" lon="-84.956704"><ele>282.2</ele><time>2026-08-16T20:20:35Z</time></trkpt>
<trkpt lat="35.13406" lon="-84.956671"><ele>282.5</ele><time>2026-08-16T20:20:37Z</time></trkpt>
<trkpt lat="35.134046" lon="-84.956639"><ele>282.5</ele><time>2026-08-16T20:20:39Z</time></trkpt>
<trkpt lat="35.134037" lon="-84.956603"><ele>282.5</ele><time>2026-08-16T20:20:41Z</time></trkpt>
<trkpt lat="35.134031" lon="-84.956569"><ele>282.5</ele><time>2026-08-16T20:20:43Z</time></trkpt>
<trkpt lat="35.134023" lon="-84.956535"><ele>282.5</ele><time>2026-08-16T20:20:45Z</time></trkpt>
<trkpt lat="35.134006" lon="-84.956493"><ele>282.5</ele><time>2026-08-16T20:20:48Z</time></trkpt>
<trkpt lat="35.134011" lon="-84.956454"><ele>282.2</ele><time>2026-08-16T20:20:51Z</time></trkpt>
<trkpt lat="35.134033" lon="-84.956431"><ele>282.2</ele><time>2026-08-16T20:20:53Z</time></trkpt>
<trkpt lat="35.134066" lon="-84.956409"><ele>282.2</ele><time>2026-08-16T20:20:56Z</time></trkpt>
<trkpt lat="35.134104" lon="-84.95639"><ele>282.2</ele><time>2026-08-16T20:20:59Z</time></trkpt>
<trkpt lat="35.134128" lon="-84.956373"><ele>281.9</ele><time>2026-08-16T20:21:01Z</time></trkpt>
<trkpt lat="35.134154" lon="-84.95634"><ele>281.3</ele><time>2026-08-16T20:21:04Z</time></trkpt>
<trkpt lat="35.134149" lon="-84.956292"><ele>281.3</ele><time>2026-08-16T20:21:07Z</time></trkpt>
<trkpt lat="35.134134" lon="-84.956262"><ele>281.3</ele><time>2026-08-16T20:21:09Z</time></trkpt>
<trkpt lat="35.13411" lon="-84.956222"><ele>281.3</ele><time>2026-08-16T20:21:12Z</time></trkpt>
<trkpt lat="35.134089" lon="-84.9562"><ele>281.0</ele><time>2026-08-16T20:21:14Z</time></trkpt>
<trkpt lat="35.134075" lon="-84.956171"><ele>281.0</ele><time>2026-08-16T20:21:16Z</time></trkpt>
<trkpt lat="35.134065" lon="-84.956133"><ele>281.0</ele><time>2026-08-16T20:21:18Z</time></trkpt>
<trkpt lat="35.134062" lon="-84.956093"><ele>280.7</ele><time>2026-08-16T20:21:20Z</time></trkpt>
<trkpt lat="35.134072" lon="-84.956057"><ele>280.7</ele><time>2026-08-16T20:21:22Z</time></trkpt>
<trkpt lat="35.134085" lon="-84.956023"><ele>280.4</ele><time>2026-08-16T20:21:24Z</time></trkpt>
<trkpt lat="35.134094" lon="-84.95599"><ele>280.4</ele><time>2026-08-16T20:21:26Z</time></trkpt>
<trkpt lat="35.134124" lon="-84.95596"><ele>280.1</ele><time>2026-08-16T20:21:29Z</time></trkpt>
<trkpt lat="35.134151" lon="-84.955949"><ele>280.1</ele><time>2026-08-16T20:21:31Z</time></trkpt>
<trkpt lat="35.134182" lon="-84.955944"><ele>279.8</ele><time>2026-08-16T20:21:33Z</time></trkpt>
<trkpt lat="35.134213" lon="-84.955947"><ele>279.8</ele><time>2026-08-16T20:21:35Z</time></trkpt>
<trkpt lat="35.134244" lon="-84.955951"><ele>279.5</ele><time>2026-08-16T20:21:37Z</time></trkpt>
<trkpt lat="35.134274" lon="-84.955955"><ele>279.5</ele><time>2026-08-16T20:21:39Z</time></trkpt>
<trkpt lat="35.134303" lon="-84.95596"><ele>279.2</ele><time>2026-08-16T20:21:41Z</time></trkpt>
<trkpt lat="35.13433" lon="-84.955968"><ele>279.2</ele><time>2026-08-16T20:21:43Z</time></trkpt>
<trkpt lat="35.134358" lon="-84.955985"><ele>279.2</ele><time>2026-08-16T20:21:45Z</time></trkpt>
<trkpt lat="35.134398" lon="-84.955998"><ele>279.2</ele><time>2026-08-16T20:21:48Z</time></trkpt>
<trkpt lat="35.134426" lon="-84.955995"><ele>279.2</ele><time>2026-08-16T20:21:50Z</time></trkpt>
<trkpt lat="35.134451" lon="-84.955981"><ele>278.9</ele><time>2026-08-16T20:21:52Z</time></trkpt>
<trkpt lat="35.134476" lon="-84.955959"><ele>278.6</ele><time>2026-08-16T20:21:54Z</time></trkpt>
<trkpt lat="35.134496" lon="-84.955934"><ele>278.3</ele><time>2026-08-16T20:21:56Z</time></trkpt>
<trkpt lat="35.134513" lon="-84.955903"><ele>278.0</ele><time>2026-08-16T20:21:58Z</time></trkpt>
<trkpt lat="35.134523" lon="-84.955868"><ele>277.7</ele><time>2026-08-16T20:22:00Z</time></trkpt>
<trkpt lat="35.134525" lon="-84.955829"><ele>277.7</ele><time>2026-08-16T20:22:02Z</time></trkpt>
<trkpt lat="35.13452" lon="-84.955791"><ele>277.7</ele><time>2026-08-16T20:22:04Z</time></trkpt>
<trkpt lat="35.134507" lon="-84.955758"><ele>277.7</ele><time>2026-08-16T20:22:06Z</time></trkpt>
<trkpt lat="35.134487" lon="-84.95573"><ele>278.0</ele><time>2026-08-16T20:22:08Z</time></trkpt>
<trkpt lat="35.134469" lon="-84.955702"><ele>277.7</ele><time>2026-08-16T20:22:10Z</time></trkpt>
<trkpt lat="35.134442" lon="-84.955662"><ele>277.7</ele><time>2026-08-16T20:22:13Z</time></trkpt>
<trkpt lat="35.134423" lon="-84.955638"><ele>277.7</ele><time>2026-08-16T20:22:15Z</time></trkpt>
<trkpt lat="35.134406" lon="-84.95561"><ele>278.0</ele><time>2026-08-16T20:22:17Z</time></trkpt>
<trkpt lat="35.134395" lon="-84.955579"><ele>278.0</ele><time>2026-08-16T20:22:19Z</time></trkpt>
<trkpt lat="35.134386" lon="-84.95554"><ele>278.0</ele><time>2026-08-16T20:22:21Z</time></trkpt>
<trkpt lat="35.134375" lon="-84.955493"><ele>278.0</ele><time>2026-08-16T20:22:24Z</time></trkpt>
<trkpt lat="35.134358" lon="-84.955437"><ele>278.0</ele><time>2026-08-16T20:22:27Z</time></trkpt>
<trkpt lat="35.134352" lon="-84.9554"><ele>278.0</ele><time>2026-08-16T20:22:29Z</time></trkpt>
<trkpt lat="35.134353" lon="-84.95536"><ele>277.7</ele><time>2026-08-16T20:22:31Z</time></trkpt>
<trkpt lat="35.134373" lon="-84.955333"><ele>277.7</ele><time>2026-08-16T20:22:34Z</time></trkpt>
<trkpt lat="35.134411" lon="-84.955322"><ele>277.7</ele><time>2026-08-16T20:22:37Z</time></trkpt>
<trkpt lat="35.134439" lon="-84.955316"><ele>277.7</ele><time>2026-08-16T20:22:39Z</time></trkpt>
<trkpt lat="35.134467" lon="-84.955315"><ele>277.4</ele><time>2026-08-16T20:22:41Z</time></trkpt>
<trkpt lat="35.134505" lon="-84.955326"><ele>277.7</ele><time>2026-08-16T20:22:44Z</time></trkpt>
<trkpt lat="35.134542" lon="-84.955329"><ele>277.7</ele><time>2026-08-16T20:22:47Z</time></trkpt>
<trkpt lat="35.134571" lon="-84.955326"><ele>277.7</ele><time>2026-08-16T20:22:49Z</time></trkpt>
<trkpt lat="35.134608" lon="-84.955331"><ele>277.7</ele><time>2026-08-16T20:22:52Z</time></trkpt>
<trkpt lat="35.134636" lon="-84.955336"><ele>277.7</ele><time>2026-08-16T20:22:54Z</time></trkpt>
<trkpt lat="35.134674" lon="-84.955323"><ele>277.7</ele><time>2026-08-16T20:22:57Z</time></trkpt>
<trkpt lat="35.134691" lon="-84.955277"><ele>277.7</ele><time>2026-08-16T20:23:00Z</time></trkpt>
<trkpt lat="35.134707" lon="-84.955232"><ele>277.7</ele><time>2026-08-16T20:23:03Z</time></trkpt>
<trkpt lat="35.134717" lon="-84.9552"><ele>277.4</ele><time>2026-08-16T20:23:05Z</time></trkpt>
<trkpt lat="35.134743" lon="-84.955168"><ele>277.4</ele><time>2026-08-16T20:23:08Z</time></trkpt>
<trkpt lat="35.134778" lon="-84.955151"><ele>277.4</ele><time>2026-08-16T20:23:11Z</time></trkpt>
<trkpt lat="35.134814" lon="-84.955149"><ele>277.7</ele><time>2026-08-16T20:23:14Z</time></trkpt>
<trkpt lat="35.134843" lon="-84.955149"><ele>277.7</ele><time>2026-08-16T20:23:16Z</time></trkpt>
<trkpt lat="35.134873" lon="-84.955154"><ele>277.7</ele><time>2026-08-16T20:23:18Z</time></trkpt>
<trkpt lat="35.134899" lon="-84.955165"><ele>277.7</ele><time>2026-08-16T20:23:20Z</time></trkpt>
<trkpt lat="35.134925" lon="-84.95513"><ele>277.4</ele><time>2026-08-16T20:23:23Z</time></trkpt>
<trkpt lat="35.134904" lon="-84.955105"><ele>277.1</ele><time>2026-08-16T20:23:25Z</time></trkpt>
<trkpt lat="35.134868" lon="-84.955087"><ele>276.8</ele><time>2026-08-16T20:23:28Z</time></trkpt>
<trkpt lat="35.134838" lon="-84.95508"><ele>276.5</ele><time>2026-08-16T20:23:30Z</time></trkpt>
<trkpt lat="35.134811" lon="-84.955074"><ele>276.1</ele><time>2026-08-16T20:23:32Z</time></trkpt>
<trkpt lat="35.134781" lon="-84.955065"><ele>275.8</ele><time>2026-08-16T20:23:34Z</time></trkpt>
<trkpt lat="35.134751" lon="-84.955065"><ele>275.5</ele><time>2026-08-16T20:23:36Z</time></trkpt>
<trkpt lat="35.134723" lon="-84.955063"><ele>274.9</ele><time>2026-08-16T20:23:38Z</time></trkpt>
<trkpt lat="35.134696" lon="-84.955061"><ele>274.6</ele><time>2026-08-16T20:23:40Z</time></trkpt>
<trkpt lat="35.134668" lon="-84.955063"><ele>274.3</ele><time>2026-08-16T20:23:42Z</time></trkpt>
<trkpt lat="35.134628" lon="-84.955072"><ele>274.0</ele><time>2026-08-16T20:23:45Z</time></trkpt>
<trkpt lat="35.134607" lon="-84.955094"><ele>274.0</ele><time>2026-08-16T20:23:47Z</time></trkpt>
<trkpt lat="35.134586" lon="-84.955116"><ele>274.0</ele><time>2026-08-16T20:23:49Z</time></trkpt>
<trkpt lat="35.134561" lon="-84.955134"><ele>274.0</ele><time>2026-08-16T20:23:51Z</time></trkpt>
<trkpt lat="35.13453" lon="-84.955132"><ele>273.7</ele><time>2026-08-16T20:23:53Z</time></trkpt>
<trkpt lat="35.134497" lon="-84.955104"><ele>273.7</ele><time>2026-08-16T20:23:56Z</time></trkpt>
<trkpt lat="35.134467" lon="-84.955068"><ele>273.4</ele><time>2026-08-16T20:23:59Z</time></trkpt>
<trkpt lat="35.134443" lon="-84.955049"><ele>273.1</ele><time>2026-08-16T20:24:01Z</time></trkpt>
<trkpt lat="35.134421" lon="-84.955029"><ele>273.1</ele><time>2026-08-16T20:24:03Z</time></trkpt>
<trkpt lat="35.134399" lon="-84.955009"><ele>272.8</ele><time>2026-08-16T20:24:05Z</time></trkpt>
<trkpt lat="35.134372" lon="-84.954992"><ele>272.5</ele><time>2026-08-16T20:24:07Z</time></trkpt>
<trkpt lat="35.134343" lon="-84.954987"><ele>272.2</ele><time>2026-08-16T20:24:09Z</time></trkpt>
<trkpt lat="35.134317" lon="-84.954973"><ele>271.9</ele><time>2026-08-16T20:24:11Z</time></trkpt>
<trkpt lat="35.134304" lon="-84.954941"><ele>271.9</ele><time>2026-08-16T20:24:13Z</time></trkpt>
<trkpt lat="35.134332" lon="-84.954911"><ele>271.6</ele><time>2026-08-16T20:24:15Z</time></trkpt>
<trkpt lat="35.134366" lon="-84.954916"><ele>271.3</ele><time>2026-08-16T20:24:17Z</time></trkpt>
<trkpt lat="35.134394" lon="-84.954918"><ele>271.3</ele><time>2026-08-16T20:24:19Z</time></trkpt>
<trkpt lat="35.134432" lon="-84.954926"><ele>271.0</ele><time>2026-08-16T20:24:22Z</time></trkpt>
<trkpt lat="35.134471" lon="-84.954931"><ele>270.7</ele><time>2026-08-16T20:24:25Z</time></trkpt>
<trkpt lat="35.134511" lon="-84.954928"><ele>270.4</ele><time>2026-08-16T20:24:28Z</time></trkpt>
<trkpt lat="35.13454" lon="-84.954926"><ele>270.4</ele><time>2026-08-16T20:24:30Z</time></trkpt>
<trkpt lat="35.134568" lon="-84.954921"><ele>270.4</ele><time>2026-08-16T20:24:32Z</time></trkpt>
<trkpt lat="35.134606" lon="-84.954916"><ele>270.1</ele><time>2026-08-16T20:24:35Z</time></trkpt>
<trkpt lat="35.134648" lon="-84.954914"><ele>270.1</ele><time>2026-08-16T20:24:38Z</time></trkpt>
<trkpt lat="35.134687" lon="-84.954907"><ele>270.1</ele><time>2026-08-16T20:24:41Z</time></trkpt>
<trkpt lat="35.134714" lon="-84.954901"><ele>270.1</ele><time>2026-08-16T20:24:43Z</time></trkpt>
<trkpt lat="35.134751" lon="-84.954891"><ele>269.7</ele><time>2026-08-16T20:24:46Z</time></trkpt>
<trkpt lat="35.134779" lon="-84.954887"><ele>269.7</ele><time>2026-08-16T20:24:48Z</time></trkpt>
<trkpt lat="35.134806" lon="-84.954875"><ele>269.7</ele><time>2026-08-16T20:24:50Z</time></trkpt>
<trkpt lat="35.134834" lon="-84.954861"><ele>270.1</ele><time>2026-08-16T20:24:52Z</time></trkpt>
<trkpt lat="35.134863" lon="-84.954853"><ele>270.1</ele><time>2026-08-16T20:24:54Z</time></trkpt>
<trkpt lat="35.134891" lon="-84.954851"><ele>270.1</ele><time>2026-08-16T20:24:56Z</time></trkpt>
<trkpt lat="35.134932" lon="-84.954852"><ele>270.4</ele><time>2026-08-16T20:24:59Z</time></trkpt>
<trkpt lat="35.134969" lon="-84.954866"><ele>270.4</ele><time>2026-08-16T20:25:02Z</time></trkpt>
<trkpt lat="35.134995" lon="-84.954881"><ele>270.7</ele><time>2026-08-16T20:25:04Z</time></trkpt>
<trkpt lat="35.13502" lon="-84.954899"><ele>270.4</ele><time>2026-08-16T20:25:06Z</time></trkpt>
<trkpt lat="35.135049" lon="-84.954911"><ele>270.4</ele><time>2026-08-16T20:25:08Z</time></trkpt>
<trkpt lat="35.135076" lon="-84.954925"><ele>270.7</ele><time>2026-08-16T20:25:10Z</time></trkpt>
<trkpt lat="35.135101" lon="-84.954948"><ele>270.7</ele><time>2026-08-16T20:25:12Z</time></trkpt>
<trkpt lat="35.135125" lon="-84.954967"><ele>271.0</ele><time>2026-08-16T20:25:14Z</time></trkpt>
<trkpt lat="35.13515" lon="-84.954988"><ele>271.0</ele><time>2026-08-16T20:25:16Z</time></trkpt>
<trkpt lat="35.135175" lon="-84.955007"><ele>271.3</ele><time>2026-08-16T20:25:18Z</time></trkpt>
<trkpt lat="35.1352" lon="-84.955048"><ele>271.3</ele><time>2026-08-16T20:25:21Z</time></trkpt>
<trkpt lat="35.135223" lon="-84.95507"><ele>271.6</ele><time>2026-08-16T20:25:23Z</time></trkpt>
<trkpt lat="35.135263" lon="-84.955069"><ele>271.6</ele><time>2026-08-16T20:25:26Z</time></trkpt>
<trkpt lat="35.135285" lon="-84.955041"><ele>271.6</ele><time>2026-08-16T20:25:28Z</time></trkpt>
<trkpt lat="35.135299" lon="-84.955007"><ele>271.3</ele><time>2026-08-16T20:25:30Z</time></trkpt>
<trkpt lat="35.135313" lon="-84.954975"><ele>271.3</ele><time>2026-08-16T20:25:32Z</time></trkpt>
<trkpt lat="35.135334" lon="-84.95495"><ele>271.0</ele><time>2026-08-16T20:25:34Z</time></trkpt>
<trkpt lat="35.135361" lon="-84.954939"><ele>271.0</ele><time>2026-08-16T20:25:36Z</time></trkpt>
<trkpt lat="35.135389" lon="-84.954944"><ele>270.7</ele><time>2026-08-16T20:25:38Z</time></trkpt>
<trkpt lat="35.135426" lon="-84.954957"><ele>270.7</ele><time>2026-08-16T20:25:41Z</time></trkpt>
<trkpt lat="35.135464" lon="-84.95496"><ele>270.7</ele><time>2026-08-16T20:25:44Z</time></trkpt>
<trkpt lat="35.135492" lon="-84.954959"><ele>270.7</ele><time>2026-08-16T20:25:46Z</time></trkpt>
<trkpt lat="35.135529" lon="-84.954933"><ele>270.7</ele><time>2026-08-16T20:25:49Z</time></trkpt>
<trkpt lat="35.135547" lon="-84.954906"><ele>270.1</ele><time>2026-08-16T20:25:51Z</time></trkpt>
<trkpt lat="35.135567" lon="-84.954882"><ele>270.1</ele><time>2026-08-16T20:25:53Z</time></trkpt>
<trkpt lat="35.135593" lon="-84.95487"><ele>270.1</ele><time>2026-08-16T20:25:55Z</time></trkpt>
<trkpt lat="35.135631" lon="-84.954858"><ele>269.7</ele><time>2026-08-16T20:25:58Z</time></trkpt>
<trkpt lat="35.135654" lon="-84.954836"><ele>270.1</ele><time>2026-08-16T20:26:00Z</time></trkpt>
<trkpt lat="35.135667" lon="-84.954804"><ele>270.1</ele><time>2026-08-16T20:26:02Z</time></trkpt>
<trkpt lat="35.135674" lon="-84.954769"><ele>270.4</ele><time>2026-08-16T20:26:04Z</time></trkpt>
<trkpt lat="35.135678" lon="-84.954734"><ele>270.4</ele><time>2026-08-16T20:26:06Z</time></trkpt>
<trkpt lat="35.135684" lon="-84.954685"><ele>270.4</ele><time>2026-08-16T20:26:09Z</time></trkpt>
<trkpt lat="35.135696" lon="-84.95464"><ele>270.1</ele><time>2026-08-16T20:26:12Z</time></trkpt>
<trkpt lat="35.135727" lon="-84.954631"><ele>270.1</ele><time>2026-08-16T20:26:14Z</time></trkpt>
<trkpt lat="35.135754" lon="-84.954648"><ele>270.1</ele><time>2026-08-16T20:26:16Z</time></trkpt>
<trkpt lat="35.135772" lon="-84.954678"><ele>270.4</ele><time>2026-08-16T20:26:18Z</time></trkpt>
<trkpt lat="35.135805" lon="-84.9547"><ele>270.4</ele><time>2026-08-16T20:26:21Z</time></trkpt>
<trkpt lat="35.135814" lon="-84.954747"><ele>270.4</ele><time>2026-08-16T20:26:24Z</time></trkpt>
<trkpt lat="35.135843" lon="-84.954736"><ele>270.7</ele><time>2026-08-16T20:26:26Z</time></trkpt>
<trkpt lat="35.135842" lon="-84.954701"><ele>270.7</ele><time>2026-08-16T20:26:28Z</time></trkpt>
<trkpt lat="35.135801" lon="-84.954705"><ele>270.7</ele><time>2026-08-16T20:26:30Z</time></trkpt>
<trkpt lat="35.135819" lon="-84.954748"><ele>270.4</ele><time>2026-08-16T20:26:32Z</time></trkpt>
<trkpt lat="35.135841" lon="-84.954714"><ele>270.7</ele><time>2026-08-16T20:26:34Z</time></trkpt>
<trkpt lat="35.135832" lon="-84.954677"><ele>271.0</ele><time>2026-08-16T20:26:36Z</time></trkpt>
<trkpt lat="35.135818" lon="-84.954646"><ele>271.3</ele><time>2026-08-16T20:26:38Z</time></trkpt>
<trkpt lat="35.135794" lon="-84.954623"><ele>271.6</ele><time>2026-08-16T20:26:40Z</time></trkpt>
<trkpt lat="35.135773" lon="-84.954601"><ele>271.9</ele><time>2026-08-16T20:26:42Z</time></trkpt>
<trkpt lat="35.135743" lon="-84.954571"><ele>271.9</ele><time>2026-08-16T20:26:45Z</time></trkpt>
<trkpt lat="35.135712" lon="-84.95454"><ele>272.5</ele><time>2026-08-16T20:26:48Z</time></trkpt>
<trkpt lat="35.135677" lon="-84.95452"><ele>273.1</ele><time>2026-08-16T20:26:51Z</time></trkpt>
<trkpt lat="35.135639" lon="-84.954504"><ele>272.8</ele><time>2026-08-16T20:26:54Z</time></trkpt>
<trkpt lat="35.135603" lon="-84.954483"><ele>272.8</ele><time>2026-08-16T20:26:57Z</time></trkpt>
<trkpt lat="35.135577" lon="-84.954467"><ele>272.8</ele><time>2026-08-16T20:26:59Z</time></trkpt>
<trkpt lat="35.135543" lon="-84.954442"><ele>272.8</ele><time>2026-08-16T20:27:02Z</time></trkpt>
<trkpt lat="35.135507" lon="-84.954417"><ele>273.1</ele><time>2026-08-16T20:27:05Z</time></trkpt>
<trkpt lat="35.135474" lon="-84.95439"><ele>273.1</ele><time>2026-08-16T20:27:08Z</time></trkpt>
<trkpt lat="35.135453" lon="-84.954347"><ele>273.1</ele><time>2026-08-16T20:27:11Z</time></trkpt>
<trkpt lat="35.135448" lon="-84.954296"><ele>273.4</ele><time>2026-08-16T20:27:14Z</time></trkpt>
<trkpt lat="35.135481" lon="-84.95427"><ele>273.7</ele><time>2026-08-16T20:27:17Z</time></trkpt>
<trkpt lat="35.135518" lon="-84.954283"><ele>274.0</ele><time>2026-08-16T20:27:20Z</time></trkpt>
<trkpt lat="35.135552" lon="-84.954304"><ele>274.0</ele><time>2026-08-16T20:27:23Z</time></trkpt>
<trkpt lat="35.135589" lon="-84.954326"><ele>274.3</ele><time>2026-08-16T20:27:26Z</time></trkpt>
<trkpt lat="35.13561" lon="-84.95435"><ele>274.6</ele><time>2026-08-16T20:27:28Z</time></trkpt>
<trkpt lat="35.135642" lon="-84.954378"><ele>274.9</ele><time>2026-08-16T20:27:31Z</time></trkpt>
<trkpt lat="35.135674" lon="-84.954402"><ele>274.9</ele><time>2026-08-16T20:27:34Z</time></trkpt>
<trkpt lat="35.135694" lon="-84.954426"><ele>274.9</ele><time>2026-08-16T20:27:36Z</time></trkpt>
<trkpt lat="35.135719" lon="-84.954442"><ele>274.9</ele><time>2026-08-16T20:27:38Z</time></trkpt>
<trkpt lat="35.135756" lon="-84.954462"><ele>274.9</ele><time>2026-08-16T20:27:41Z</time></trkpt>
<trkpt lat="35.135782" lon="-84.954475"><ele>274.9</ele><time>2026-08-16T20:27:43Z</time></trkpt>
<trkpt lat="35.135821" lon="-84.954487"><ele>274.9</ele><time>2026-08-16T20:27:46Z</time></trkpt>
<trkpt lat="35.135861" lon="-84.954478"><ele>275.2</ele><time>2026-08-16T20:27:49Z</time></trkpt>
<trkpt lat="35.135895" lon="-84.954467"><ele>275.5</ele><time>2026-08-16T20:27:52Z</time></trkpt>
<trkpt lat="35.135922" lon="-84.954436"><ele>275.8</ele><time>2026-08-16T20:27:55Z</time></trkpt>
<trkpt lat="35.135957" lon="-84.954411"><ele>275.8</ele><time>2026-08-16T20:27:58Z</time></trkpt>
<trkpt lat="35.135985" lon="-84.954412"><ele>275.8</ele><time>2026-08-16T20:28:00Z</time></trkpt>
<trkpt lat="35.136012" lon="-84.95443"><ele>275.8</ele><time>2026-08-16T20:28:02Z</time></trkpt>
<trkpt lat="35.136038" lon="-84.954454"><ele>276.1</ele><time>2026-08-16T20:28:04Z</time></trkpt>
<trkpt lat="35.13606" lon="-84.954477"><ele>276.1</ele><time>2026-08-16T20:28:06Z</time></trkpt>
<trkpt lat="35.136088" lon="-84.95448"><ele>276.1</ele><time>2026-08-16T20:28:08Z</time></trkpt>
<trkpt lat="35.136113" lon="-84.954456"><ele>276.5</ele><time>2026-08-16T20:28:10Z</time></trkpt>
<trkpt lat="35.136124" lon="-84.95442"><ele>276.8</ele><time>2026-08-16T20:28:12Z</time></trkpt>
<trkpt lat="35.136132" lon="-84.954385"><ele>277.1</ele><time>2026-08-16T20:28:14Z</time></trkpt>
<trkpt lat="35.136122" lon="-84.954352"><ele>277.1</ele><time>2026-08-16T20:28:16Z</time></trkpt>
<trkpt lat="35.1361" lon="-84.954311"><ele>277.1</ele><time>2026-08-16T20:28:19Z</time></trkpt>
<trkpt lat="35.136081" lon="-84.954269"><ele>277.4</ele><time>2026-08-16T20:28:22Z</time></trkpt>
<trkpt lat="35.136042" lon="-84.954262"><ele>277.1</ele><time>2026-08-16T20:28:25Z</time></trkpt>
<trkpt lat="35.136005" lon="-84.954266"><ele>276.8</ele><time>2026-08-16T20:28:28Z</time></trkpt>
<trkpt lat="35.135976" lon="-84.954256"><ele>277.1</ele><time>2026-08-16T20:28:30Z</time></trkpt>
<trkpt lat="35.135948" lon="-84.95424"><ele>277.4</ele><time>2026-08-16T20:28:32Z</time></trkpt>
<trkpt lat="35.135912" lon="-84.95422"><ele>277.4</ele><time>2026-08-16T20:28:35Z</time></trkpt>
<trkpt lat="35.135875" lon="-84.954203"><ele>277.7</ele><time>2026-08-16T20:28:38Z</time></trkpt>
<trkpt lat="35.135849" lon="-84.954192"><ele>277.7</ele><time>2026-08-16T20:28:40Z</time></trkpt>
<trkpt lat="35.135809" lon="-84.954182"><ele>277.4</ele><time>2026-08-16T20:28:43Z</time></trkpt>
<trkpt lat="35.135782" lon="-84.954174"><ele>277.1</ele><time>2026-08-16T20:28:45Z</time></trkpt>
<trkpt lat="35.135753" lon="-84.954167"><ele>277.1</ele><time>2026-08-16T20:28:47Z</time></trkpt>
<trkpt lat="35.135724" lon="-84.954157"><ele>276.8</ele><time>2026-08-16T20:28:49Z</time></trkpt>
<trkpt lat="35.135697" lon="-84.954142"><ele>276.5</ele><time>2026-08-16T20:28:51Z</time></trkpt>
<trkpt lat="35.135669" lon="-84.954128"><ele>276.1</ele><time>2026-08-16T20:28:53Z</time></trkpt>
<trkpt lat="35.135632" lon="-84.954114"><ele>275.8</ele><time>2026-08-16T20:28:56Z</time></trkpt>
<trkpt lat="35.135604" lon="-84.954098"><ele>275.5</ele><time>2026-08-16T20:28:58Z</time></trkpt>
<trkpt lat="35.135576" lon="-84.954086"><ele>275.2</ele><time>2026-08-16T20:29:00Z</time></trkpt>
<trkpt lat="35.135547" lon="-84.954074"><ele>274.9</ele><time>2026-08-16T20:29:02Z</time></trkpt>
<trkpt lat="35.135518" lon="-84.954069"><ele>274.6</ele><time>2026-08-16T20:29:04Z</time></trkpt>
<trkpt lat="35.135487" lon="-84.95407"><ele>274.6</ele><time>2026-08-16T20:29:06Z</time></trkpt>
<trkpt lat="35.135457" lon="-84.95407"><ele>274.6</ele><time>2026-08-16T20:29:08Z</time></trkpt>
<trkpt lat="35.135428" lon="-84.954069"><ele>274.3</ele><time>2026-08-16T20:29:10Z</time></trkpt>
<trkpt lat="35.135399" lon="-84.954071"><ele>274.3</ele><time>2026-08-16T20:29:12Z</time></trkpt>
<trkpt lat="35.135372" lon="-84.954054"><ele>274.3</ele><time>2026-08-16T20:29:14Z</time></trkpt>
<trkpt lat="35.135356" lon="-84.954025"><ele>274.3</ele><time>2026-08-16T20:29:16Z</time></trkpt>
<trkpt lat="35.135329" lon="-84.954013"><ele>274.3</ele><time>2026-08-16T20:29:18Z</time></trkpt>
<trkpt lat="35.135314" lon="-84.954043"><ele>274.0</ele><time>2026-08-16T20:29:19Z</time></trkpt>
<trkpt lat="35.135332" lon="-84.954086"><ele>274.0</ele><time>2026-08-16T20:29:21Z</time></trkpt>
<trkpt lat="35.135361" lon="-84.954093"><ele>274.0</ele><time>2026-08-16T20:29:23Z</time></trkpt>
<trkpt lat="35.13539" lon="-84.954103"><ele>274.3</ele><time>2026-08-16T20:29:25Z</time></trkpt>
<trkpt lat="35.135419" lon="-84.9541"><ele>274.3</ele><time>2026-08-16T20:29:27Z</time></trkpt>
<trkpt lat="35.135446" lon="-84.954101"><ele>274.3</ele><time>2026-08-16T20:29:29Z</time></trkpt>
<trkpt lat="35.135487" lon="-84.954108"><ele>274.0</ele><time>2026-08-16T20:29:32Z</time></trkpt>
<trkpt lat="35.135514" lon="-84.954117"><ele>274.6</ele><time>2026-08-16T20:29:34Z</time></trkpt>
<trkpt lat="35.135544" lon="-84.954118"><ele>274.9</ele><time>2026-08-16T20:29:36Z</time></trkpt>
<trkpt lat="35.135572" lon="-84.954127"><ele>275.2</ele><time>2026-08-16T20:29:38Z</time></trkpt>
<trkpt lat="35.1356" lon="-84.954135"><ele>275.5</ele><time>2026-08-16T20:29:40Z</time></trkpt>
<trkpt lat="35.135634" lon="-84.954161"><ele>275.5</ele><time>2026-08-16T20:29:43Z</time></trkpt>
<trkpt lat="35.135669" lon="-84.954183"><ele>275.8</ele><time>2026-08-16T20:29:46Z</time></trkpt>
<trkpt lat="35.135707" lon="-84.954198"><ele>276.5</ele><time>2026-08-16T20:29:49Z</time></trkpt>
<trkpt lat="35.135745" lon="-84.954212"><ele>276.8</ele><time>2026-08-16T20:29:52Z</time></trkpt>
<trkpt lat="35.135783" lon="-84.95422"><ele>277.1</ele><time>2026-08-16T20:29:55Z</time></trkpt>
<trkpt lat="35.135822" lon="-84.954227"><ele>277.4</ele><time>2026-08-16T20:29:58Z</time></trkpt>
<trkpt lat="35.135862" lon="-84.954232"><ele>277.4</ele><time>2026-08-16T20:30:01Z</time></trkpt>
<trkpt lat="35.1359" lon="-84.954243"><ele>277.4</ele><time>2026-08-16T20:30:04Z</time></trkpt>
<trkpt lat="35.135926" lon="-84.95426"><ele>277.1</ele><time>2026-08-16T20:30:06Z</time></trkpt>
<trkpt lat="35.135955" lon="-84.954276"><ele>277.1</ele><time>2026-08-16T20:30:08Z</time></trkpt>
<trkpt lat="35.135982" lon="-84.954287"><ele>277.1</ele><time>2026-08-16T20:30:10Z</time></trkpt>
<trkpt lat="35.136021" lon="-84.954286"><ele>276.8</ele><time>2026-08-16T20:30:13Z</time></trkpt>
<trkpt lat="35.136049" lon="-84.954289"><ele>276.8</ele><time>2026-08-16T20:30:15Z</time></trkpt>
<trkpt lat="35.13608" lon="-84.954299"><ele>277.1</ele><time>2026-08-16T20:30:17Z</time></trkpt>
<trkpt lat="35.136097" lon="-84.954332"><ele>277.1</ele><time>2026-08-16T20:30:19Z</time></trkpt>
<trkpt lat="35.136115" lon="-84.954361"><ele>277.1</ele><time>2026-08-16T20:30:21Z</time></trkpt>
<trkpt lat="35.136127" lon="-84.954393"><ele>276.8</ele><time>2026-08-16T20:30:23Z</time></trkpt>
<trkpt lat="35.136126" lon="-84.954429"><ele>276.8</ele><time>2026-08-16T20:30:25Z</time></trkpt>
<trkpt lat="35.136104" lon="-84.954471"><ele>276.5</ele><time>2026-08-16T20:30:28Z</time></trkpt>
<trkpt lat="35.136065" lon="-84.954481"><ele>276.1</ele><time>2026-08-16T20:30:31Z</time></trkpt>
<trkpt lat="35.13604" lon="-84.954459"><ele>275.8</ele><time>2026-08-16T20:30:33Z</time></trkpt>
<trkpt lat="35.136017" lon="-84.954435"><ele>275.8</ele><time>2026-08-16T20:30:35Z</time></trkpt>
<trkpt lat="35.135995" lon="-84.954411"><ele>275.8</ele><time>2026-08-16T20:30:37Z</time></trkpt>
<trkpt lat="35.135966" lon="-84.954415"><ele>275.5</ele><time>2026-08-16T20:30:39Z</time></trkpt>
<trkpt lat="35.135939" lon="-84.954423"><ele>275.5</ele><time>2026-08-16T20:30:41Z</time></trkpt>
<trkpt lat="35.13592" lon="-84.954452"><ele>275.5</ele><time>2026-08-16T20:30:43Z</time></trkpt>
<trkpt lat="35.135898" lon="-84.954473"><ele>275.5</ele><time>2026-08-16T20:30:45Z</time></trkpt>
<trkpt lat="35.13587" lon="-84.954482"><ele>275.2</ele><time>2026-08-16T20:30:47Z</time></trkpt>
<trkpt lat="35.13583" lon="-84.954479"><ele>275.2</ele><time>2026-08-16T20:30:50Z</time></trkpt>
<trkpt lat="35.135802" lon="-84.954475"><ele>275.2</ele><time>2026-08-16T20:30:52Z</time></trkpt>
<trkpt lat="35.135774" lon="-84.954462"><ele>274.9</ele><time>2026-08-16T20:30:54Z</time></trkpt>
<trkpt lat="35.135749" lon="-84.954443"><ele>274.9</ele><time>2026-08-16T20:30:56Z</time></trkpt>
<trkpt lat="35.135725" lon="-84.954421"><ele>274.9</ele><time>2026-08-16T20:30:58Z</time></trkpt>
<trkpt lat="35.1357" lon="-84.954404"><ele>274.9</ele><time>2026-08-16T20:31:00Z</time></trkpt>
<trkpt lat="35.135675" lon="-84.954384"><ele>274.9</ele><time>2026-08-16T20:31:02Z</time></trkpt>
<trkpt lat="35.135653" lon="-84.954364"><ele>274.9</ele><time>2026-08-16T20:31:04Z</time></trkpt>
<trkpt lat="35.135628" lon="-84.954348"><ele>274.9</ele><time>2026-08-16T20:31:06Z</time></trkpt>
<trkpt lat="35.135594" lon="-84.954324"><ele>274.6</ele><time>2026-08-16T20:31:09Z</time></trkpt>
<trkpt lat="35.135555" lon="-84.954303"><ele>274.3</ele><time>2026-08-16T20:31:12Z</time></trkpt>
<trkpt lat="35.135529" lon="-84.954291"><ele>274.0</ele><time>2026-08-16T20:31:14Z</time></trkpt>
<trkpt lat="35.1355" lon="-84.954282"><ele>274.0</ele><time>2026-08-16T20:31:16Z</time></trkpt>
<trkpt lat="35.135472" lon="-84.954272"><ele>273.7</ele><time>2026-08-16T20:31:18Z</time></trkpt>
<trkpt lat="35.135443" lon="-84.954296"><ele>273.4</ele><time>2026-08-16T20:31:20Z</time></trkpt>
<trkpt lat="35.135433" lon="-84.954334"><ele>273.1</ele><time>2026-08-16T20:31:22Z</time></trkpt>
<trkpt lat="35.135445" lon="-84.954372"><ele>273.1</ele><time>2026-08-16T20:31:24Z</time></trkpt>
<trkpt lat="35.135468" lon="-84.954401"><ele>272.8</ele><time>2026-08-16T20:31:26Z</time></trkpt>
<trkpt lat="35.135497" lon="-84.954419"><ele>272.8</ele><time>2026-08-16T20:31:28Z</time></trkpt>
<trkpt lat="35.13552" lon="-84.954438"><ele>272.8</ele><time>2026-08-16T20:31:30Z</time></trkpt>
<trkpt lat="35.13554" lon="-84.954461"><ele>272.8</ele><time>2026-08-16T20:31:32Z</time></trkpt>
<trkpt lat="35.135566" lon="-84.95448"><ele>272.5</ele><time>2026-08-16T20:31:34Z</time></trkpt>
<trkpt lat="35.1356" lon="-84.954508"><ele>272.5</ele><time>2026-08-16T20:31:37Z</time></trkpt>
<trkpt lat="35.135625" lon="-84.954525"><ele>272.5</ele><time>2026-08-16T20:31:39Z</time></trkpt>
<trkpt lat="35.135652" lon="-84.954533"><ele>272.5</ele><time>2026-08-16T20:31:41Z</time></trkpt>
<trkpt lat="35.135688" lon="-84.954542"><ele>272.5</ele><time>2026-08-16T20:31:44Z</time></trkpt>
<trkpt lat="35.135722" lon="-84.954568"><ele>272.2</ele><time>2026-08-16T20:31:47Z</time></trkpt>
<trkpt lat="35.135745" lon="-84.954591"><ele>271.9</ele><time>2026-08-16T20:31:49Z</time></trkpt>
<trkpt lat="35.135766" lon="-84.954614"><ele>271.6</ele><time>2026-08-16T20:31:51Z</time></trkpt>
<trkpt lat="35.135787" lon="-84.954637"><ele>271.3</ele><time>2026-08-16T20:31:53Z</time></trkpt>
<trkpt lat="35.135806" lon="-84.954661"><ele>271.3</ele><time>2026-08-16T20:31:55Z</time></trkpt>
<trkpt lat="35.135811" lon="-84.954699"><ele>270.7</ele><time>2026-08-16T20:31:57Z</time></trkpt>
<trkpt lat="35.135785" lon="-84.954724"><ele>270.4</ele><time>2026-08-16T20:31:59Z</time></trkpt>
<trkpt lat="35.135755" lon="-84.954703"><ele>270.4</ele><time>2026-08-16T20:32:01Z</time></trkpt>
<trkpt lat="35.135734" lon="-84.954675"><ele>270.1</ele><time>2026-08-16T20:32:03Z</time></trkpt>
<trkpt lat="35.135702" lon="-84.95465"><ele>269.7</ele><time>2026-08-16T20:32:06Z</time></trkpt>
<trkpt lat="35.135675" lon="-84.954663"><ele>269.7</ele><time>2026-08-16T20:32:08Z</time></trkpt>
<trkpt lat="35.135661" lon="-84.954694"><ele>269.4</ele><time>2026-08-16T20:32:10Z</time></trkpt>
<trkpt lat="35.135655" lon="-84.954731"><ele>270.1</ele><time>2026-08-16T20:32:12Z</time></trkpt>
<trkpt lat="35.13565" lon="-84.954768"><ele>270.4</ele><time>2026-08-16T20:32:14Z</time></trkpt>
<trkpt lat="35.135644" lon="-84.954802"><ele>270.1</ele><time>2026-08-16T20:32:16Z</time></trkpt>
<trkpt lat="35.135633" lon="-84.954834"><ele>270.1</ele><time>2026-08-16T20:32:18Z</time></trkpt>
<trkpt lat="35.135613" lon="-84.954856"><ele>270.1</ele><time>2026-08-16T20:32:20Z</time></trkpt>
<trkpt lat="35.135586" lon="-84.954867"><ele>269.7</ele><time>2026-08-16T20:32:22Z</time></trkpt>
<trkpt lat="35.135557" lon="-84.954862"><ele>269.1</ele><time>2026-08-16T20:32:24Z</time></trkpt>
<trkpt lat="35.135528" lon="-84.954872"><ele>269.4</ele><time>2026-08-16T20:32:26Z</time></trkpt>
<trkpt lat="35.135505" lon="-84.954902"><ele>269.7</ele><time>2026-08-16T20:32:28Z</time></trkpt>
<trkpt lat="35.135482" lon="-84.954931"><ele>270.1</ele><time>2026-08-16T20:32:30Z</time></trkpt>
<trkpt lat="35.135453" lon="-84.954943"><ele>270.1</ele><time>2026-08-16T20:32:32Z</time></trkpt>
<trkpt lat="35.135417" lon="-84.954924"><ele>270.4</ele><time>2026-08-16T20:32:35Z</time></trkpt>
<trkpt lat="35.135392" lon="-84.954907"><ele>270.4</ele><time>2026-08-16T20:32:37Z</time></trkpt>
<trkpt lat="35.135356" lon="-84.954888"><ele>270.4</ele><time>2026-08-16T20:32:40Z</time></trkpt>
<trkpt lat="35.135333" lon="-84.954869"><ele>270.1</ele><time>2026-08-16T20:32:42Z</time></trkpt>
<trkpt lat="35.135293" lon="-84.954878"><ele>270.4</ele><time>2026-08-16T20:32:45Z</time></trkpt>
<trkpt lat="35.13527" lon="-84.954905"><ele>270.7</ele><time>2026-08-16T20:32:47Z</time></trkpt>
<trkpt lat="35.135253" lon="-84.954946"><ele>271.0</ele><time>2026-08-16T20:32:49Z</time></trkpt>
<trkpt lat="35.135232" lon="-84.954983"><ele>271.0</ele><time>2026-08-16T20:32:51Z</time></trkpt>
<trkpt lat="35.135196" lon="-84.954998"><ele>271.0</ele><time>2026-08-16T20:32:54Z</time></trkpt>
<trkpt lat="35.135174" lon="-84.954976"><ele>270.7</ele><time>2026-08-16T20:32:56Z</time></trkpt>
<trkpt lat="35.135154" lon="-84.954932"><ele>270.7</ele><time>2026-08-16T20:32:59Z</time></trkpt>
<trkpt lat="35.135136" lon="-84.954904"><ele>270.7</ele><time>2026-08-16T20:33:01Z</time></trkpt>
<trkpt lat="35.135111" lon="-84.954867"><ele>270.4</ele><time>2026-08-16T20:33:04Z</time></trkpt>
<trkpt lat="35.135081" lon="-84.954838"><ele>270.4</ele><time>2026-08-16T20:33:07Z</time></trkpt>
<trkpt lat="35.135042" lon="-84.954818"><ele>270.4</ele><time>2026-08-16T20:33:10Z</time></trkpt>
<trkpt lat="35.135013" lon="-84.954815"><ele>270.1</ele><time>2026-08-16T20:33:12Z</time></trkpt>
<trkpt lat="35.134988" lon="-84.954795"><ele>270.1</ele><time>2026-08-16T20:33:14Z</time></trkpt>
<trkpt lat="35.134952" lon="-84.954774"><ele>269.7</ele><time>2026-08-16T20:33:17Z</time></trkpt>
<trkpt lat="35.134925" lon="-84.954765"><ele>269.7</ele><time>2026-08-16T20:33:19Z</time></trkpt>
<trkpt lat="35.134897" lon="-84.954766"><ele>269.7</ele><time>2026-08-16T20:33:21Z</time></trkpt>
<trkpt lat="35.134868" lon="-84.954784"><ele>269.7</ele><time>2026-08-16T20:33:23Z</time></trkpt>
<trkpt lat="35.134827" lon="-84.954791"><ele>269.7</ele><time>2026-08-16T20:33:26Z</time></trkpt>
<trkpt lat="35.1348" lon="-84.954809"><ele>269.7</ele><time>2026-08-16T20:33:28Z</time></trkpt>
<trkpt lat="35.134774" lon="-84.954825"><ele>269.7</ele><time>2026-08-16T20:33:30Z</time></trkpt>
<trkpt lat="35.134748" lon="-84.95484"><ele>269.7</ele><time>2026-08-16T20:33:32Z</time></trkpt>
<trkpt lat="35.13472" lon="-84.954852"><ele>269.4</ele><time>2026-08-16T20:33:34Z</time></trkpt>
<trkpt lat="35.134692" lon="-84.954855"><ele>269.4</ele><time>2026-08-16T20:33:36Z</time></trkpt>
<trkpt lat="35.134663" lon="-84.954857"><ele>269.4</ele><time>2026-08-16T20:33:38Z</time></trkpt>
<trkpt lat="35.134624" lon="-84.954869"><ele>269.7</ele><time>2026-08-16T20:33:41Z</time></trkpt>
<trkpt lat="35.134584" lon="-84.954874"><ele>269.7</ele><time>2026-08-16T20:33:44Z</time></trkpt>
<trkpt lat="35.134555" lon="-84.954888"><ele>269.7</ele><time>2026-08-16T20:33:46Z</time></trkpt>
<trkpt lat="35.134527" lon="-84.954898"><ele>270.1</ele><time>2026-08-16T20:33:48Z</time></trkpt>
<trkpt lat="35.134487" lon="-84.954898"><ele>270.1</ele><time>2026-08-16T20:33:51Z</time></trkpt>
<trkpt lat="35.134447" lon="-84.954904"><ele>270.4</ele><time>2026-08-16T20:33:54Z</time></trkpt>
<trkpt lat="35.134408" lon="-84.954918"><ele>270.4</ele><time>2026-08-16T20:33:57Z</time></trkpt>
<trkpt lat="35.134378" lon="-84.95492"><ele>270.7</ele><time>2026-08-16T20:33:59Z</time></trkpt>
<trkpt lat="35.134345" lon="-84.954913"><ele>271.0</ele><time>2026-08-16T20:34:01Z</time></trkpt>
<trkpt lat="35.134316" lon="-84.954913"><ele>271.0</ele><time>2026-08-16T20:34:03Z</time></trkpt>
<trkpt lat="35.134289" lon="-84.954929"><ele>271.3</ele><time>2026-08-16T20:34:05Z</time></trkpt>
<trkpt lat="35.134302" lon="-84.954978"><ele>271.3</ele><time>2026-08-16T20:34:07Z</time></trkpt>
<trkpt lat="35.134329" lon="-84.955003"><ele>271.6</ele><time>2026-08-16T20:34:09Z</time></trkpt>
<trkpt lat="35.134352" lon="-84.955022"><ele>271.9</ele><time>2026-08-16T20:34:11Z</time></trkpt>
<trkpt lat="35.134374" lon="-84.955044"><ele>272.2</ele><time>2026-08-16T20:34:13Z</time></trkpt>
<trkpt lat="35.134399" lon="-84.955061"><ele>272.2</ele><time>2026-08-16T20:34:15Z</time></trkpt>
<trkpt lat="35.134427" lon="-84.955079"><ele>272.5</ele><time>2026-08-16T20:34:17Z</time></trkpt>
<trkpt lat="35.134453" lon="-84.955094"><ele>272.8</ele><time>2026-08-16T20:34:19Z</time></trkpt>
<trkpt lat="35.134474" lon="-84.955116"><ele>272.8</ele><time>2026-08-16T20:34:21Z</time></trkpt>
<trkpt lat="35.134507" lon="-84.955147"><ele>273.4</ele><time>2026-08-16T20:34:24Z</time></trkpt>
<trkpt lat="35.134535" lon="-84.955153"><ele>273.4</ele><time>2026-08-16T20:34:26Z</time></trkpt>
<trkpt lat="35.134562" lon="-84.955142"><ele>273.4</ele><time>2026-08-16T20:34:28Z</time></trkpt>
<trkpt lat="35.134586" lon="-84.955121"><ele>273.4</ele><time>2026-08-16T20:34:30Z</time></trkpt>
<trkpt lat="35.134609" lon="-84.955101"><ele>273.7</ele><time>2026-08-16T20:34:32Z</time></trkpt>
<trkpt lat="35.134645" lon="-84.955081"><ele>273.7</ele><time>2026-08-16T20:34:35Z</time></trkpt>
<trkpt lat="35.134679" lon="-84.955068"><ele>274.0</ele><time>2026-08-16T20:34:38Z</time></trkpt>
<trkpt lat="35.134717" lon="-84.955067"><ele>274.3</ele><time>2026-08-16T20:34:41Z</time></trkpt>
<trkpt lat="35.134757" lon="-84.955073"><ele>274.6</ele><time>2026-08-16T20:34:44Z</time></trkpt>
<trkpt lat="35.134795" lon="-84.955078"><ele>274.9</ele><time>2026-08-16T20:34:47Z</time></trkpt>
<trkpt lat="35.134835" lon="-84.955089"><ele>275.5</ele><time>2026-08-16T20:34:50Z</time></trkpt>
<trkpt lat="35.134863" lon="-84.955101"><ele>275.8</ele><time>2026-08-16T20:34:52Z</time></trkpt>
<trkpt lat="35.134888" lon="-84.955122"><ele>276.1</ele><time>2026-08-16T20:34:54Z</time></trkpt>
<trkpt lat="35.134911" lon="-84.955143"><ele>276.5</ele><time>2026-08-16T20:34:56Z</time></trkpt>
<trkpt lat="35.134926" lon="-84.95518"><ele>276.5</ele><time>2026-08-16T20:34:58Z</time></trkpt>
<trkpt lat="35.134898" lon="-84.955213"><ele>276.8</ele><time>2026-08-16T20:35:00Z</time></trkpt>
<trkpt lat="35.134867" lon="-84.955197"><ele>277.1</ele><time>2026-08-16T20:35:02Z</time></trkpt>
<trkpt lat="35.134832" lon="-84.955186"><ele>277.1</ele><time>2026-08-16T20:35:05Z</time></trkpt>
<trkpt lat="35.134798" lon="-84.955191"><ele>277.1</ele><time>2026-08-16T20:35:08Z</time></trkpt>
<trkpt lat="35.134762" lon="-84.955192"><ele>276.8</ele><time>2026-08-16T20:35:11Z</time></trkpt>
<trkpt lat="35.134735" lon="-84.955209"><ele>276.8</ele><time>2026-08-16T20:35:13Z</time></trkpt>
<trkpt lat="35.134712" lon="-84.95523"><ele>276.8</ele><time>2026-08-16T20:35:15Z</time></trkpt>
<trkpt lat="35.134689" lon="-84.95527"><ele>276.5</ele><time>2026-08-16T20:35:18Z</time></trkpt>
<trkpt lat="35.134677" lon="-84.955301"><ele>276.5</ele><time>2026-08-16T20:35:20Z</time></trkpt>
<trkpt lat="35.134664" lon="-84.955331"><ele>276.5</ele><time>2026-08-16T20:35:22Z</time></trkpt>
<trkpt lat="35.134631" lon="-84.955353"><ele>276.8</ele><time>2026-08-16T20:35:25Z</time></trkpt>
<trkpt lat="35.134592" lon="-84.955337"><ele>276.8</ele><time>2026-08-16T20:35:28Z</time></trkpt>
<trkpt lat="35.134553" lon="-84.955327"><ele>276.8</ele><time>2026-08-16T20:35:31Z</time></trkpt>
<trkpt lat="35.134524" lon="-84.955325"><ele>276.8</ele><time>2026-08-16T20:35:33Z</time></trkpt>
<trkpt lat="35.134495" lon="-84.955319"><ele>276.8</ele><time>2026-08-16T20:35:35Z</time></trkpt>
<trkpt lat="35.134468" lon="-84.955309"><ele>276.8</ele><time>2026-08-16T20:35:37Z</time></trkpt>
<trkpt lat="35.134439" lon="-84.955309"><ele>276.5</ele><time>2026-08-16T20:35:39Z</time></trkpt>
<trkpt lat="35.134412" lon="-84.955315"><ele>276.5</ele><time>2026-08-16T20:35:41Z</time></trkpt>
<trkpt lat="35.134386" lon="-84.955327"><ele>276.5</ele><time>2026-08-16T20:35:43Z</time></trkpt>
<trkpt lat="35.134364" lon="-84.955354"><ele>276.5</ele><time>2026-08-16T20:35:45Z</time></trkpt>
<trkpt lat="35.134352" lon="-84.955387"><ele>276.5</ele><time>2026-08-16T20:35:47Z</time></trkpt>
<trkpt lat="35.13435" lon="-84.955425"><ele>276.8</ele><time>2026-08-16T20:35:49Z</time></trkpt>
<trkpt lat="35.134366" lon="-84.955467"><ele>276.8</ele><time>2026-08-16T20:35:51Z</time></trkpt>
<trkpt lat="35.134371" lon="-84.955505"><ele>276.8</ele><time>2026-08-16T20:35:53Z</time></trkpt>
<trkpt lat="35.134378" lon="-84.955543"><ele>276.8</ele><time>2026-08-16T20:35:55Z</time></trkpt>
<trkpt lat="35.134385" lon="-84.95558"><ele>277.1</ele><time>2026-08-16T20:35:57Z</time></trkpt>
<trkpt lat="35.134398" lon="-84.955612"><ele>277.1</ele><time>2026-08-16T20:35:59Z</time></trkpt>
<trkpt lat="35.134414" lon="-84.955657"><ele>277.1</ele><time>2026-08-16T20:36:02Z</time></trkpt>
<trkpt lat="35.134438" lon="-84.955695"><ele>277.4</ele><time>2026-08-16T20:36:05Z</time></trkpt>
<trkpt lat="35.134453" lon="-84.955728"><ele>277.4</ele><time>2026-08-16T20:36:07Z</time></trkpt>
<trkpt lat="35.134472" lon="-84.955753"><ele>277.4</ele><time>2026-08-16T20:36:09Z</time></trkpt>
<trkpt lat="35.134482" lon="-84.955784"><ele>277.1</ele><time>2026-08-16T20:36:11Z</time></trkpt>
<trkpt lat="35.134492" lon="-84.955816"><ele>277.1</ele><time>2026-08-16T20:36:13Z</time></trkpt>
<trkpt lat="35.134502" lon="-84.955847"><ele>276.8</ele><time>2026-08-16T20:36:15Z</time></trkpt>
<trkpt lat="35.134503" lon="-84.955882"><ele>276.8</ele><time>2026-08-16T20:36:17Z</time></trkpt>
<trkpt lat="35.134493" lon="-84.955914"><ele>276.8</ele><time>2026-08-16T20:36:19Z</time></trkpt>
<trkpt lat="35.134475" lon="-84.955943"><ele>276.8</ele><time>2026-08-16T20:36:21Z</time></trkpt>
<trkpt lat="35.134443" lon="-84.95597"><ele>277.1</ele><time>2026-08-16T20:36:24Z</time></trkpt>
<trkpt lat="35.134409" lon="-84.95599"><ele>277.4</ele><time>2026-08-16T20:36:27Z</time></trkpt>
<trkpt lat="35.134373" lon="-84.956002"><ele>278.0</ele><time>2026-08-16T20:36:30Z</time></trkpt>
<trkpt lat="35.134335" lon="-84.955991"><ele>278.3</ele><time>2026-08-16T20:36:33Z</time></trkpt>
<trkpt lat="35.134309" lon="-84.955976"><ele>278.3</ele><time>2026-08-16T20:36:35Z</time></trkpt>
<trkpt lat="35.134272" lon="-84.955966"><ele>278.3</ele><time>2026-08-16T20:36:38Z</time></trkpt>
<trkpt lat="35.134234" lon="-84.955949"><ele>278.3</ele><time>2026-08-16T20:36:41Z</time></trkpt>
<trkpt lat="35.134208" lon="-84.955937"><ele>278.6</ele><time>2026-08-16T20:36:43Z</time></trkpt>
<trkpt lat="35.134167" lon="-84.955934"><ele>278.6</ele><time>2026-08-16T20:36:46Z</time></trkpt>
<trkpt lat="35.134139" lon="-84.955942"><ele>279.2</ele><time>2026-08-16T20:36:48Z</time></trkpt>
<trkpt lat="35.134115" lon="-84.955968"><ele>279.2</ele><time>2026-08-16T20:36:50Z</time></trkpt>
<trkpt lat="35.134101" lon="-84.956004"><ele>279.2</ele><time>2026-08-16T20:36:52Z</time></trkpt>
<trkpt lat="35.134089" lon="-84.956038"><ele>279.2</ele><time>2026-08-16T20:36:54Z</time></trkpt>
<trkpt lat="35.134078" lon="-84.956086"><ele>279.5</ele><time>2026-08-16T20:36:57Z</time></trkpt>
<trkpt lat="35.134072" lon="-84.956122"><ele>279.5</ele><time>2026-08-16T20:36:59Z</time></trkpt>
<trkpt lat="35.134068" lon="-84.956159"><ele>279.5</ele><time>2026-08-16T20:37:01Z</time></trkpt>
<trkpt lat="35.134077" lon="-84.956193"><ele>279.8</ele><time>2026-08-16T20:37:03Z</time></trkpt>
<trkpt lat="35.134096" lon="-84.956219"><ele>279.8</ele><time>2026-08-16T20:37:05Z</time></trkpt>
<trkpt lat="35.134113" lon="-84.956248"><ele>280.1</ele><time>2026-08-16T20:37:07Z</time></trkpt>
<trkpt lat="35.134143" lon="-84.956283"><ele>280.4</ele><time>2026-08-16T20:37:10Z</time></trkpt>
<trkpt lat="35.134153" lon="-84.956317"><ele>280.4</ele><time>2026-08-16T20:37:12Z</time></trkpt>
<trkpt lat="35.134149" lon="-84.956354"><ele>280.4</ele><time>2026-08-16T20:37:14Z</time></trkpt>
<trkpt lat="35.134136" lon="-84.956391"><ele>280.4</ele><time>2026-08-16T20:37:16Z</time></trkpt>
<trkpt lat="35.134112" lon="-84.956409"><ele>280.7</ele><time>2026-08-16T20:37:18Z</time></trkpt>
<trkpt lat="35.134079" lon="-84.956431"><ele>281.0</ele><time>2026-08-16T20:37:21Z</time></trkpt>
<trkpt lat="35.134054" lon="-84.956446"><ele>281.0</ele><time>2026-08-16T20:37:23Z</time></trkpt>
<trkpt lat="35.13403" lon="-84.956464"><ele>281.0</ele><time>2026-08-16T20:37:25Z</time></trkpt>
<trkpt lat="35.134003" lon="-84.956478"><ele>281.3</ele><time>2026-08-16T20:37:27Z</time></trkpt>
<trkpt lat="35.13399" lon="-84.956509"><ele>281.3</ele><time>2026-08-16T20:37:29Z</time></trkpt>
<trkpt lat="35.133992" lon="-84.956547"><ele>281.3</ele><time>2026-08-16T20:37:31Z</time></trkpt>
<trkpt lat="35.134007" lon="-84.956585"><ele>281.3</ele><time>2026-08-16T20:37:33Z</time></trkpt>
<trkpt lat="35.134021" lon="-84.956617"><ele>281.3</ele><time>2026-08-16T20:37:35Z</time></trkpt>
<trkpt lat="35.134036" lon="-84.956647"><ele>281.3</ele><time>2026-08-16T20:37:37Z</time></trkpt>
<trkpt lat="35.134041" lon="-84.956684"><ele>281.3</ele><time>2026-08-16T20:37:39Z</time></trkpt>
<trkpt lat="35.134056" lon="-84.956733"><ele>281.3</ele><time>2026-08-16T20:37:42Z</time></trkpt>
<trkpt lat="35.134074" lon="-84.956763"><ele>281.3</ele><time>2026-08-16T20:37:44Z</time></trkpt>
<trkpt lat="35.134094" lon="-84.95679"><ele>281.3</ele><time>2026-08-16T20:37:46Z</time></trkpt>
<trkpt lat="35.134114" lon="-84.956818"><ele>281.3</ele><time>2026-08-16T20:37:48Z</time></trkpt>
<trkpt lat="35.13413" lon="-84.956845"><ele>281.3</ele><time>2026-08-16T20:37:50Z</time></trkpt>
<trkpt lat="35.134141" lon="-84.95689"><ele>281.3</ele><time>2026-08-16T20:37:53Z</time></trkpt>
<trkpt lat="35.134142" lon="-84.956924"><ele>281.3</ele><time>2026-08-16T20:37:55Z</time></trkpt>
<trkpt lat="35.134139" lon="-84.956959"><ele>281.0</ele><time>2026-08-16T20:37:57Z</time></trkpt>
<trkpt lat="35.134135" lon="-84.956993"><ele>281.3</ele><time>2026-08-16T20:37:59Z</time></trkpt>
<trkpt lat="35.134126" lon="-84.957026"><ele>281.3</ele><time>2026-08-16T20:38:01Z</time></trkpt>
<trkpt lat="35.134105" lon="-84.957051"><ele>281.6</ele><time>2026-08-16T20:38:03Z</time></trkpt>
<trkpt lat="35.134067" lon="-84.957057"><ele>281.9</ele><time>2026-08-16T20:38:06Z</time></trkpt>
<trkpt lat="35.134032" lon="-84.95705"><ele>282.2</ele><time>2026-08-16T20:38:09Z</time></trkpt>
<trkpt lat="35.133995" lon="-84.957039"><ele>282.2</ele><time>2026-08-16T20:38:12Z</time></trkpt>
<trkpt lat="35.133958" lon="-84.957034"><ele>282.5</ele><time>2026-08-16T20:38:15Z</time></trkpt>
<trkpt lat="35.133934" lon="-84.957054"><ele>282.5</ele><time>2026-08-16T20:38:17Z</time></trkpt>
<trkpt lat="35.133908" lon="-84.957067"><ele>282.9</ele><time>2026-08-16T20:38:19Z</time></trkpt>
<trkpt lat="35.133881" lon="-84.957079"><ele>282.9</ele><time>2026-08-16T20:38:21Z</time></trkpt>
<trkpt lat="35.133853" lon="-84.957091"><ele>283.2</ele><time>2026-08-16T20:38:23Z</time></trkpt>
<trkpt lat="35.133824" lon="-84.957098"><ele>283.2</ele><time>2026-08-16T20:38:25Z</time></trkpt>
<trkpt lat="35.133801" lon="-84.957117"><ele>283.2</ele><time>2026-08-16T20:38:27Z</time></trkpt>
<trkpt lat="35.133788" lon="-84.957147"><ele>283.5</ele><time>2026-08-16T20:38:29Z</time></trkpt>
<trkpt lat="35.133784" lon="-84.95718"><ele>283.5</ele><time>2026-08-16T20:38:31Z</time></trkpt>
<trkpt lat="35.133785" lon="-84.957215"><ele>283.8</ele><time>2026-08-16T20:38:33Z</time></trkpt>
<trkpt lat="35.133792" lon="-84.95725"><ele>283.8</ele><time>2026-08-16T20:38:35Z</time></trkpt>
<trkpt lat="35.133819" lon="-84.957284"><ele>283.8</ele><time>2026-08-16T20:38:38Z</time></trkpt>
<trkpt lat="35.133859" lon="-84.957291"><ele>283.8</ele><time>2026-08-16T20:38:41Z</time></trkpt>
<trkpt lat="35.133895" lon="-84.957304"><ele>283.8</ele><time>2026-08-16T20:38:44Z</time></trkpt>
<trkpt lat="35.133933" lon="-84.957318"><ele>284.1</ele><time>2026-08-16T20:38:47Z</time></trkpt>
<trkpt lat="35.133971" lon="-84.957329"><ele>284.4</ele><time>2026-08-16T20:38:50Z</time></trkpt>
<trkpt lat="35.133998" lon="-84.957337"><ele>284.7</ele><time>2026-08-16T20:38:52Z</time></trkpt>
<trkpt lat="35.134023" lon="-84.957354"><ele>284.7</ele><time>2026-08-16T20:38:54Z</time></trkpt>
<trkpt lat="35.134044" lon="-84.957384"><ele>285.0</ele><time>2026-08-16T20:38:56Z</time></trkpt>
<trkpt lat="35.134068" lon="-84.957409"><ele>285.0</ele><time>2026-08-16T20:38:58Z</time></trkpt>
<trkpt lat="35.134092" lon="-84.95743"><ele>285.3</ele><time>2026-08-16T20:39:00Z</time></trkpt>
<trkpt lat="35.13412" lon="-84.957466"><ele>285.6</ele><time>2026-08-16T20:39:03Z</time></trkpt>
<trkpt lat="35.134129" lon="-84.957498"><ele>285.6</ele><time>2026-08-16T20:39:05Z</time></trkpt>
<trkpt lat="35.134123" lon="-84.957532"><ele>285.9</ele><time>2026-08-16T20:39:07Z</time></trkpt>
<trkpt lat="35.134114" lon="-84.957564"><ele>285.9</ele><time>2026-08-16T20:39:09Z</time></trkpt>
<trkpt lat="35.134113" lon="-84.957599"><ele>285.9</ele><time>2026-08-16T20:39:11Z</time></trkpt>
<trkpt lat="35.134114" lon="-84.957634"><ele>286.2</ele><time>2026-08-16T20:39:13Z</time></trkpt>
<trkpt lat="35.134102" lon="-84.957668"><ele>286.2</ele><time>2026-08-16T20:39:15Z</time></trkpt>
<trkpt lat="35.134082" lon="-84.957698"><ele>286.2</ele><time>2026-08-16T20:39:17Z</time></trkpt>
<trkpt lat="35.134062" lon="-84.957725"><ele>286.2</ele><time>2026-08-16T20:39:19Z</time></trkpt>
<trkpt lat="35.134041" lon="-84.957747"><ele>286.2</ele><time>2026-08-16T20:39:21Z</time></trkpt>
<trkpt lat="35.134022" lon="-84.957771"><ele>286.5</ele><time>2026-08-16T20:39:23Z</time></trkpt>
<trkpt lat="35.133994" lon="-84.957801"><ele>286.5</ele><time>2026-08-16T20:39:26Z</time></trkpt>
<trkpt lat="35.133954" lon="-84.957814"><ele>286.8</ele><time>2026-08-16T20:39:29Z</time></trkpt>
<trkpt lat="35.133915" lon="-84.957808"><ele>287.1</ele><time>2026-08-16T20:39:32Z</time></trkpt>
<trkpt lat="35.133877" lon="-84.957804"><ele>287.4</ele><time>2026-08-16T20:39:35Z</time></trkpt>
<trkpt lat="35.133839" lon="-84.957813"><ele>287.4</ele><time>2026-08-16T20:39:38Z</time></trkpt>
<trkpt lat="35.133801" lon="-84.957829"><ele>287.4</ele><time>2026-08-16T20:39:41Z</time></trkpt>
<trkpt lat="35.13378" lon="-84.957853"><ele>287.4</ele><time>2026-08-16T20:39:43Z</time></trkpt>
<trkpt lat="35.133756" lon="-84.957891"><ele>287.4</ele><time>2026-08-16T20:39:46Z</time></trkpt>
<trkpt lat="35.133745" lon="-84.957924"><ele>287.7</ele><time>2026-08-16T20:39:48Z</time></trkpt>
<trkpt lat="35.133723" lon="-84.95795"><ele>287.7</ele><time>2026-08-16T20:39:50Z</time></trkpt>
<trkpt lat="35.133697" lon="-84.957973"><ele>287.7</ele><time>2026-08-16T20:39:52Z</time></trkpt>
<trkpt lat="35.13367" lon="-84.958008"><ele>287.7</ele><time>2026-08-16T20:39:55Z</time></trkpt>
<trkpt lat="35.133643" lon="-84.958044"><ele>287.7</ele><time>2026-08-16T20:39:58Z</time></trkpt>
<trkpt lat="35.13363" lon="-84.958091"><ele>287.7</ele><time>2026-08-16T20:40:01Z</time></trkpt>
<trkpt lat="35.133624" lon="-84.958124"><ele>288.0</ele><time>2026-08-16T20:40:03Z</time></trkpt>
<trkpt lat="35.133619" lon="-84.95816"><ele>287.7</ele><time>2026-08-16T20:40:05Z</time></trkpt>
<trkpt lat="35.133618" lon="-84.958194"><ele>287.7</ele><time>2026-08-16T20:40:07Z</time></trkpt>
<trkpt lat="35.133622" lon="-84.958229"><ele>287.7</ele><time>2026-08-16T20:40:09Z</time></trkpt>
<trkpt lat="35.133628" lon="-84.958266"><ele>287.4</ele><time>2026-08-16T20:40:11Z</time></trkpt>
<trkpt lat="35.133642" lon="-84.9583"><ele>287.4</ele><time>2026-08-16T20:40:13Z</time></trkpt>
<trkpt lat="35.133653" lon="-84.958334"><ele>287.4</ele><time>2026-08-16T20:40:15Z</time></trkpt>
<trkpt lat="35.133661" lon="-84.958368"><ele>287.1</ele><time>2026-08-16T20:40:17Z</time></trkpt>
<trkpt lat="35.133672" lon="-84.958401"><ele>287.1</ele><time>2026-08-16T20:40:19Z</time></trkpt>
<trkpt lat="35.133681" lon="-84.958435"><ele>287.1</ele><time>2026-08-16T20:40:21Z</time></trkpt>
<trkpt lat="35.133674" lon="-84.958472"><ele>287.1</ele><time>2026-08-16T20:40:23Z</time></trkpt>
<trkpt lat="35.133662" lon="-84.958503"><ele>287.1</ele><time>2026-08-16T20:40:25Z</time></trkpt>
<trkpt lat="35.133628" lon="-84.958527"><ele>287.1</ele><time>2026-08-16T20:40:28Z</time></trkpt>
<trkpt lat="35.133593" lon="-84.958516"><ele>286.8</ele><time>2026-08-16T20:40:31Z</time></trkpt>
<trkpt lat="35.133556" lon="-84.958511"><ele>286.8</ele><time>2026-08-16T20:40:34Z</time></trkpt>
<trkpt lat="35.133527" lon="-84.958513"><ele>286.8</ele><time>2026-08-16T20:40:36Z</time></trkpt>
<trkpt lat="35.133498" lon="-84.958501"><ele>286.8</ele><time>2026-08-16T20:40:38Z</time></trkpt>
<trkpt lat="35.133475" lon="-84.958479"><ele>286.8</ele><time>2026-08-16T20:40:40Z</time></trkpt>
<trkpt lat="35.133439" lon="-84.95846"><ele>286.8</ele><time>2026-08-16T20:40:43Z</time></trkpt>
<trkpt lat="35.133403" lon="-84.958444"><ele>286.8</ele><time>2026-08-16T20:40:46Z</time></trkpt>
<trkpt lat="35.133376" lon="-84.958429"><ele>286.8</ele><time>2026-08-16T20:40:48Z</time></trkpt>
<trkpt lat="35.13335" lon="-84.958413"><ele>286.8</ele><time>2026-08-16T20:40:50Z</time></trkpt>
<trkpt lat="35.133309" lon="-84.958409"><ele>286.8</ele><time>2026-08-16T20:40:53Z</time></trkpt>
<trkpt lat="35.133278" lon="-84.958403"><ele>287.1</ele><time>2026-08-16T20:40:55Z</time></trkpt>
<trkpt lat="35.13325" lon="-84.958398"><ele>287.4</ele><time>2026-08-16T20:40:57Z</time></trkpt>
<trkpt lat="35.133222" lon="-84.958391"><ele>287.4</ele><time>2026-08-16T20:40:59Z</time></trkpt>
<trkpt lat="35.133181" lon="-84.958402"><ele>287.7</ele><time>2026-08-16T20:41:02Z</time></trkpt>
<trkpt lat="35.133155" lon="-84.958421"><ele>287.7</ele><time>2026-08-16T20:41:04Z</time></trkpt>
<trkpt lat="35.133117" lon="-84.958441"><ele>287.7</ele><time>2026-08-16T20:41:07Z</time></trkpt>
<trkpt lat="35.133096" lon="-84.958466"><ele>287.7</ele><time>2026-08-16T20:41:09Z</time></trkpt>
<trkpt lat="35.133096" lon="-84.958512"><ele>287.4</ele><time>2026-08-16T20:41:11Z</time></trkpt>
<trkpt lat="35.133099" lon="-84.958554"><ele>287.7</ele><time>2026-08-16T20:41:13Z</time></trkpt>
<trkpt lat="35.133108" lon="-84.958592"><ele>287.7</ele><time>2026-08-16T20:41:15Z</time></trkpt>
<trkpt lat="35.133116" lon="-84.958635"><ele>287.7</ele><time>2026-08-16T20:41:17Z</time></trkpt>
<trkpt lat="35.133107" lon="-84.958673"><ele>288.0</ele><time>2026-08-16T20:41:19Z</time></trkpt>
<trkpt lat="35.13308" lon="-84.958701"><ele>287.7</ele><time>2026-08-16T20:41:22Z</time></trkpt>
<trkpt lat="35.133059" lon="-84.958741"><ele>287.7</ele><time>2026-08-16T20:41:25Z</time></trkpt>
<trkpt lat="35.13306" lon="-84.958777"><ele>287.7</ele><time>2026-08-16T20:41:27Z</time></trkpt>
<trkpt lat="35.133055" lon="-84.958815"><ele>287.7</ele><time>2026-08-16T20:41:29Z</time></trkpt>
<trkpt lat="35.133044" lon="-84.958854"><ele>288.0</ele><time>2026-08-16T20:41:31Z</time></trkpt>
<trkpt lat="35.133029" lon="-84.958886"><ele>288.3</ele><time>2026-08-16T20:41:33Z</time></trkpt>
<trkpt lat="35.133025" lon="-84.958923"><ele>288.6</ele><time>2026-08-16T20:41:35Z</time></trkpt>
<trkpt lat="35.133016" lon="-84.958955"><ele>288.6</ele><time>2026-08-16T20:41:37Z</time></trkpt>
<trkpt lat="35.132987" lon="-84.958992"><ele>288.3</ele><time>2026-08-16T20:41:40Z</time></trkpt>
<trkpt lat="35.132966" lon="-84.959015"><ele>288.3</ele><time>2026-08-16T20:41:42Z</time></trkpt>
<trkpt lat="35.132948" lon="-84.959043"><ele>288.0</ele><time>2026-08-16T20:41:44Z</time></trkpt>
<trkpt lat="35.13294" lon="-84.959078"><ele>288.3</ele><time>2026-08-16T20:41:46Z</time></trkpt>
<trkpt lat="35.132933" lon="-84.959111"><ele>288.3</ele><time>2026-08-16T20:41:48Z</time></trkpt>
<trkpt lat="35.132929" lon="-84.959145"><ele>288.6</ele><time>2026-08-16T20:41:50Z</time></trkpt>
<trkpt lat="35.132911" lon="-84.959175"><ele>289.0</ele><time>2026-08-16T20:41:52Z</time></trkpt>
<trkpt lat="35.13288" lon="-84.959206"><ele>288.6</ele><time>2026-08-16T20:41:55Z</time></trkpt>
<trkpt lat="35.132864" lon="-84.959234"><ele>288.6</ele><time>2026-08-16T20:41:57Z</time></trkpt>
<trkpt lat="35.132844" lon="-84.95927"><ele>288.6</ele><time>2026-08-16T20:42:00Z</time></trkpt>
<trkpt lat="35.132817" lon="-84.959306"><ele>288.3</ele><time>2026-08-16T20:42:03Z</time></trkpt>
<trkpt lat="35.1328" lon="-84.95934"><ele>288.0</ele><time>2026-08-16T20:42:05Z</time></trkpt>
<trkpt lat="35.132789" lon="-84.95938"><ele>287.7</ele><time>2026-08-16T20:42:07Z</time></trkpt>
<trkpt lat="35.132786" lon="-84.959423"><ele>287.7</ele><time>2026-08-16T20:42:09Z</time></trkpt>
<trkpt lat="35.132785" lon="-84.959461"><ele>287.7</ele><time>2026-08-16T20:42:11Z</time></trkpt>
<trkpt lat="35.132789" lon="-84.959495"><ele>287.7</ele><time>2026-08-16T20:42:13Z</time></trkpt>
<trkpt lat="35.132795" lon="-84.959536"><ele>287.7</ele><time>2026-08-16T20:42:15Z</time></trkpt>
<trkpt lat="35.132793" lon="-84.959573"><ele>287.7</ele><time>2026-08-16T20:42:17Z</time></trkpt>
<trkpt lat="35.132788" lon="-84.95961"><ele>287.7</ele><time>2026-08-16T20:42:19Z</time></trkpt>
<trkpt lat="35.132775" lon="-84.959643"><ele>287.4</ele><time>2026-08-16T20:42:21Z</time></trkpt>
<trkpt lat="35.13275" lon="-84.959668"><ele>287.4</ele><time>2026-08-16T20:42:23Z</time></trkpt>
<trkpt lat="35.132718" lon="-84.959668"><ele>287.4</ele><time>2026-08-16T20:42:26Z</time></trkpt>
<trkpt lat="35.13269" lon="-84.959663"><ele>287.4</ele><time>2026-08-16T20:42:28Z</time></trkpt>
<trkpt lat="35.132663" lon="-84.959647"><ele>287.4</ele><time>2026-08-16T20:42:30Z</time></trkpt>
<trkpt lat="35.132629" lon="-84.959618"><ele>287.4</ele><time>2026-08-16T20:42:33Z</time></trkpt>
<trkpt lat="35.132605" lon="-84.959595"><ele>287.7</ele><time>2026-08-16T20:42:35Z</time></trkpt>
<trkpt lat="35.13258" lon="-84.959573"><ele>287.7</ele><time>2026-08-16T20:42:37Z</time></trkpt>
<trkpt lat="35.132555" lon="-84.959556"><ele>288.0</ele><time>2026-08-16T20:42:39Z</time></trkpt>
<trkpt lat="35.132528" lon="-84.959539"><ele>288.0</ele><time>2026-08-16T20:42:41Z</time></trkpt>
<trkpt lat="35.132502" lon="-84.959525"><ele>288.3</ele><time>2026-08-16T20:42:43Z</time></trkpt>
<trkpt lat="35.132476" lon="-84.959511"><ele>288.3</ele><time>2026-08-16T20:42:45Z</time></trkpt>
<trkpt lat="35.132447" lon="-84.9595"><ele>288.3</ele><time>2026-08-16T20:42:47Z</time></trkpt>
<trkpt lat="35.132423" lon="-84.959483"><ele>288.6</ele><time>2026-08-16T20:42:49Z</time></trkpt>
<trkpt lat="35.132385" lon="-84.959468"><ele>288.3</ele><time>2026-08-16T20:42:52Z</time></trkpt>
<trkpt lat="35.132357" lon="-84.959469"><ele>288.3</ele><time>2026-08-16T20:42:54Z</time></trkpt>
<trkpt lat="35.132327" lon="-84.959475"><ele>288.0</ele><time>2026-08-16T20:42:56Z</time></trkpt>
<trkpt lat="35.132299" lon="-84.95948"><ele>288.0</ele><time>2026-08-16T20:42:58Z</time></trkpt>
<trkpt lat="35.132258" lon="-84.959487"><ele>287.7</ele><time>2026-08-16T20:43:01Z</time></trkpt>
<trkpt lat="35.132228" lon="-84.959489"><ele>287.7</ele><time>2026-08-16T20:43:03Z</time></trkpt>
<trkpt lat="35.1322" lon="-84.959486"><ele>287.4</ele><time>2026-08-16T20:43:05Z</time></trkpt>
<trkpt lat="35.132162" lon="-84.959501"><ele>287.1</ele><time>2026-08-16T20:43:08Z</time></trkpt>
<trkpt lat="35.132122" lon="-84.959506"><ele>286.8</ele><time>2026-08-16T20:43:11Z</time></trkpt>
<trkpt lat="35.132093" lon="-84.959502"><ele>286.8</ele><time>2026-08-16T20:43:13Z</time></trkpt>
<trkpt lat="35.132062" lon="-84.959504"><ele>286.5</ele><time>2026-08-16T20:43:15Z</time></trkpt>
<trkpt lat="35.132032" lon="-84.959515"><ele>286.5</ele><time>2026-08-16T20:43:17Z</time></trkpt>
<trkpt lat="35.132005" lon="-84.959535"><ele>286.5</ele><time>2026-08-16T20:43:19Z</time></trkpt>
<trkpt lat="35.131986" lon="-84.959567"><ele>286.5</ele><time>2026-08-16T20:43:21Z</time></trkpt>
<trkpt lat="35.131969" lon="-84.959605"><ele>286.5</ele><time>2026-08-16T20:43:23Z</time></trkpt>
<trkpt lat="35.131947" lon="-84.959632"><ele>286.8</ele><time>2026-08-16T20:43:25Z</time></trkpt>
<trkpt lat="35.131916" lon="-84.959633"><ele>286.5</ele><time>2026-08-16T20:43:27Z</time></trkpt>
<trkpt lat="35.131888" lon="-84.959637"><ele>286.2</ele><time>2026-08-16T20:43:29Z</time></trkpt>
<trkpt lat="35.131859" lon="-84.959642"><ele>285.9</ele><time>2026-08-16T20:43:31Z</time></trkpt>
<trkpt lat="35.131833" lon="-84.959656"><ele>285.6</ele><time>2026-08-16T20:43:33Z</time></trkpt>
<trkpt lat="35.131812" lon="-84.959681"><ele>285.6</ele><time>2026-08-16T20:43:35Z</time></trkpt>
<trkpt lat="35.131794" lon="-84.959718"><ele>285.3</ele><time>2026-08-16T20:43:37Z</time></trkpt>
<trkpt lat="35.131772" lon="-84.959743"><ele>285.3</ele><time>2026-08-16T20:43:39Z</time></trkpt>
<trkpt lat="35.131745" lon="-84.959753"><ele>285.0</ele><time>2026-08-16T20:43:41Z</time></trkpt>
<trkpt lat="35.131719" lon="-84.95977"><ele>284.7</ele><time>2026-08-16T20:43:43Z</time></trkpt>
<trkpt lat="35.131691" lon="-84.95978"><ele>284.7</ele><time>2026-08-16T20:43:45Z</time></trkpt>
<trkpt lat="35.131649" lon="-84.959788"><ele>284.4</ele><time>2026-08-16T20:43:48Z</time></trkpt>
<trkpt lat="35.13162" lon="-84.959801"><ele>284.1</ele><time>2026-08-16T20:43:50Z</time></trkpt>
<trkpt lat="35.131587" lon="-84.959806"><ele>283.8</ele><time>2026-08-16T20:43:52Z</time></trkpt>
<trkpt lat="35.131555" lon="-84.959816"><ele>283.8</ele><time>2026-08-16T20:43:54Z</time></trkpt>
<trkpt lat="35.13152" lon="-84.959825"><ele>283.2</ele><time>2026-08-16T20:43:56Z</time></trkpt>
<trkpt lat="35.131482" lon="-84.95984"><ele>282.9</ele><time>2026-08-16T20:43:59Z</time></trkpt>
<trkpt lat="35.131452" lon="-84.959835"><ele>282.5</ele><time>2026-08-16T20:44:01Z</time></trkpt>
<trkpt lat="35.131424" lon="-84.959826"><ele>282.5</ele><time>2026-08-16T20:44:03Z</time></trkpt>
<trkpt lat="35.131396" lon="-84.959832"><ele>282.2</ele><time>2026-08-16T20:44:05Z</time></trkpt>
<trkpt lat="35.131365" lon="-84.959835"><ele>281.9</ele><time>2026-08-16T20:44:07Z</time></trkpt>
<trkpt lat="35.131335" lon="-84.959836"><ele>281.6</ele><time>2026-08-16T20:44:09Z</time></trkpt>
<trkpt lat="35.131304" lon="-84.959852"><ele>281.3</ele><time>2026-08-16T20:44:11Z</time></trkpt>
<trkpt lat="35.131273" lon="-84.959863"><ele>281.3</ele><time>2026-08-16T20:44:13Z</time></trkpt>
<trkpt lat="35.131246" lon="-84.959884"><ele>281.0</ele><time>2026-08-16T20:44:15Z</time></trkpt>
<trkpt lat="35.131222" lon="-84.959907"><ele>280.7</ele><time>2026-08-16T20:44:17Z</time></trkpt>
<trkpt lat="35.131201" lon="-84.959932"><ele>280.4</ele><time>2026-08-16T20:44:19Z</time></trkpt>
<trkpt lat="35.131173" lon="-84.959943"><ele>280.1</ele><time>2026-08-16T20:44:21Z</time></trkpt>
<trkpt lat="35.131144" lon="-84.95996"><ele>279.8</ele><time>2026-08-16T20:44:23Z</time></trkpt>
<trkpt lat="35.131121" lon="-84.95999"><ele>279.8</ele><time>2026-08-16T20:44:25Z</time></trkpt>
<trkpt lat="35.131099" lon="-84.960017"><ele>279.5</ele><time>2026-08-16T20:44:27Z</time></trkpt>
<trkpt lat="35.131084" lon="-84.960045"><ele>279.5</ele><time>2026-08-16T20:44:29Z</time></trkpt>
<trkpt lat="35.131067" lon="-84.960073"><ele>279.2</ele><time>2026-08-16T20:44:31Z</time></trkpt>
<trkpt lat="35.131048" lon="-84.9601"><ele>279.2</ele><time>2026-08-16T20:44:33Z</time></trkpt>
<trkpt lat="35.131031" lon="-84.960135"><ele>278.9</ele><time>2026-08-16T20:44:35Z</time></trkpt>
<trkpt lat="35.131011" lon="-84.960162"><ele>278.9</ele><time>2026-08-16T20:44:37Z</time></trkpt>
<trkpt lat="35.130993" lon="-84.960193"><ele>278.6</ele><time>2026-08-16T20:44:39Z</time></trkpt>
<trkpt lat="35.130971" lon="-84.960221"><ele>278.3</ele><time>2026-08-16T20:44:41Z</time></trkpt>
<trkpt lat="35.13095" lon="-84.960251"><ele>278.0</ele><time>2026-08-16T20:44:43Z</time></trkpt>
<trkpt lat="35.130935" lon="-84.960286"><ele>278.0</ele><time>2026-08-16T20:44:45Z</time></trkpt>
<trkpt lat="35.130931" lon="-84.960325"><ele>277.7</ele><time>2026-08-16T20:44:47Z</time></trkpt>
<trkpt lat="35.130938" lon="-84.960362"><ele>277.4</ele><time>2026-08-16T20:44:49Z</time></trkpt>
<trkpt lat="35.130944" lon="-84.960396"><ele>277.1</ele><time>2026-08-16T20:44:51Z</time></trkpt>
<trkpt lat="35.130944" lon="-84.960433"><ele>276.8</ele><time>2026-08-16T20:44:53Z</time></trkpt>
<trkpt lat="35.13092" lon="-84.960457"><ele>276.1</ele><time>2026-08-16T20:44:55Z</time></trkpt>
<trkpt lat="35.130889" lon="-84.960438"><ele>275.8</ele><time>2026-08-16T20:44:57Z</time></trkpt>
<trkpt lat="35.130867" lon="-84.960407"><ele>275.5</ele><time>2026-08-16T20:44:59Z</time></trkpt>
<trkpt lat="35.130851" lon="-84.960376"><ele>275.2</ele><time>2026-08-16T20:45:01Z</time></trkpt>
<trkpt lat="35.130833" lon="-84.960341"><ele>274.9</ele><time>2026-08-16T20:45:03Z</time></trkpt>
<trkpt lat="35.130812" lon="-84.960313"><ele>274.6</ele><time>2026-08-16T20:45:05Z</time></trkpt>
<trkpt lat="35.130792" lon="-84.960287"><ele>274.3</ele><time>2026-08-16T20:45:07Z</time></trkpt>
<trkpt lat="35.130769" lon="-84.960263"><ele>274.0</ele><time>2026-08-16T20:45:09Z</time></trkpt>
<trkpt lat="35.130734" lon="-84.960235"><ele>273.7</ele><time>2026-08-16T20:45:12Z</time></trkpt>
<trkpt lat="35.130712" lon="-84.960206"><ele>273.4</ele><time>2026-08-16T20:45:14Z</time></trkpt>
<trkpt lat="35.130693" lon="-84.960172"><ele>273.4</ele><time>2026-08-16T20:45:16Z</time></trkpt>
<trkpt lat="35.130672" lon="-84.960137"><ele>273.1</ele><time>2026-08-16T20:45:18Z</time></trkpt>
<trkpt lat="35.130669" lon="-84.96009"><ele>273.1</ele><time>2026-08-16T20:45:20Z</time></trkpt>
<trkpt lat="35.130688" lon="-84.960053"><ele>273.1</ele><time>2026-08-16T20:45:22Z</time></trkpt>
<trkpt lat="35.130713" lon="-84.960026"><ele>273.1</ele><time>2026-08-16T20:45:24Z</time></trkpt>
<trkpt lat="35.130741" lon="-84.960014"><ele>273.1</ele><time>2026-08-16T20:45:26Z</time></trkpt>
<trkpt lat="35.130768" lon="-84.959999"><ele>273.4</ele><time>2026-08-16T20:45:28Z</time></trkpt>
<trkpt lat="35.130799" lon="-84.959994"><ele>273.4</ele><time>2026-08-16T20:45:30Z</time></trkpt>
<trkpt lat="35.130827" lon="-84.959986"><ele>273.7</ele><time>2026-08-16T20:45:32Z</time></trkpt>
<trkpt lat="35.130866" lon="-84.959975"><ele>274.3</ele><time>2026-08-16T20:45:35Z</time></trkpt>
<trkpt lat="35.130893" lon="-84.959964"><ele>274.6</ele><time>2026-08-16T20:45:37Z</time></trkpt>
<trkpt lat="35.130918" lon="-84.959948"><ele>274.6</ele><time>2026-08-16T20:45:39Z</time></trkpt>
<trkpt lat="35.130948" lon="-84.959944"><ele>274.9</ele><time>2026-08-16T20:45:41Z</time></trkpt>
<trkpt lat="35.130974" lon="-84.959927"><ele>275.2</ele><time>2026-08-16T20:45:43Z</time></trkpt>
<trkpt lat="35.13099" lon="-84.959891"><ele>275.5</ele><time>2026-08-16T20:45:45Z</time></trkpt>
<trkpt lat="35.131006" lon="-84.959858"><ele>275.5</ele><time>2026-08-16T20:45:47Z</time></trkpt>
<trkpt lat="35.131019" lon="-84.959826"><ele>275.5</ele><time>2026-08-16T20:45:49Z</time></trkpt>
<trkpt lat="35.131039" lon="-84.959797"><ele>275.5</ele><time>2026-08-16T20:45:51Z</time></trkpt>
<trkpt lat="35.131065" lon="-84.959772"><ele>275.5</ele><time>2026-08-16T20:45:53Z</time></trkpt>
<trkpt lat="35.131092" lon="-84.959754"><ele>275.2</ele><time>2026-08-16T20:45:55Z</time></trkpt>
<trkpt lat="35.13112" lon="-84.959749"><ele>275.8</ele><time>2026-08-16T20:45:57Z</time></trkpt>
<trkpt lat="35.131164" lon="-84.959752"><ele>276.5</ele><time>2026-08-16T20:46:00Z</time></trkpt>
<trkpt lat="35.131193" lon="-84.959746"><ele>276.8</ele><time>2026-08-16T20:46:02Z</time></trkpt>
<trkpt lat="35.131218" lon="-84.959727"><ele>276.8</ele><time>2026-08-16T20:46:04Z</time></trkpt>
<trkpt lat="35.131245" lon="-84.959704"><ele>276.8</ele><time>2026-08-16T20:46:06Z</time></trkpt>
<trkpt lat="35.131272" lon="-84.959691"><ele>276.8</ele><time>2026-08-16T20:46:08Z</time></trkpt>
<trkpt lat="35.1313" lon="-84.959681"><ele>277.1</ele><time>2026-08-16T20:46:10Z</time></trkpt>
<trkpt lat="35.131327" lon="-84.95967"><ele>277.1</ele><time>2026-08-16T20:46:12Z</time></trkpt>
<trkpt lat="35.131363" lon="-84.959651"><ele>277.4</ele><time>2026-08-16T20:46:15Z</time></trkpt>
<trkpt lat="35.131389" lon="-84.959637"><ele>277.4</ele><time>2026-08-16T20:46:17Z</time></trkpt>
<trkpt lat="35.131413" lon="-84.959618"><ele>277.4</ele><time>2026-08-16T20:46:19Z</time></trkpt>
<trkpt lat="35.131451" lon="-84.959603"><ele>277.1</ele><time>2026-08-16T20:46:22Z</time></trkpt>
<trkpt lat="35.131479" lon="-84.959599"><ele>277.4</ele><time>2026-08-16T20:46:24Z</time></trkpt>
<trkpt lat="35.131511" lon="-84.959596"><ele>277.7</ele><time>2026-08-16T20:46:26Z</time></trkpt>
<trkpt lat="35.13154" lon="-84.959587"><ele>278.0</ele><time>2026-08-16T20:46:28Z</time></trkpt>
<trkpt lat="35.131568" lon="-84.95958"><ele>278.3</ele><time>2026-08-16T20:46:30Z</time></trkpt>
<trkpt lat="35.131594" lon="-84.959567"><ele>278.6</ele><time>2026-08-16T20:46:32Z</time></trkpt>
<trkpt lat="35.131629" lon="-84.959567"><ele>278.9</ele><time>2026-08-16T20:46:34Z</time></trkpt>
<trkpt lat="35.131657" lon="-84.959557"><ele>278.9</ele><time>2026-08-16T20:46:36Z</time></trkpt>
<trkpt lat="35.131692" lon="-84.95954"><ele>279.2</ele><time>2026-08-16T20:46:39Z</time></trkpt>
<trkpt lat="35.131719" lon="-84.959506"><ele>279.5</ele><time>2026-08-16T20:46:42Z</time></trkpt>
<trkpt lat="35.13174" lon="-84.959463"><ele>279.2</ele><time>2026-08-16T20:46:45Z</time></trkpt>
<trkpt lat="35.131755" lon="-84.959434"><ele>279.2</ele><time>2026-08-16T20:46:47Z</time></trkpt>
<trkpt lat="35.13176" lon="-84.959398"><ele>278.9</ele><time>2026-08-16T20:46:49Z</time></trkpt>
<trkpt lat="35.131757" lon="-84.959359"><ele>278.6</ele><time>2026-08-16T20:46:51Z</time></trkpt>
<trkpt lat="35.131764" lon="-84.959325"><ele>278.3</ele><time>2026-08-16T20:46:53Z</time></trkpt>
<trkpt lat="35.131786" lon="-84.959284"><ele>278.3</ele><time>2026-08-16T20:46:56Z</time></trkpt>
<trkpt lat="35.131802" lon="-84.959241"><ele>278.6</ele><time>2026-08-16T20:46:59Z</time></trkpt>
<trkpt lat="35.131825" lon="-84.959203"><ele>278.6</ele><time>2026-08-16T20:47:02Z</time></trkpt>
<trkpt lat="35.131849" lon="-84.959168"><ele>278.3</ele><time>2026-08-16T20:47:05Z</time></trkpt>
<trkpt lat="35.131877" lon="-84.95914"><ele>278.3</ele><time>2026-08-16T20:47:08Z</time></trkpt>
<trkpt lat="35.131906" lon="-84.959113"><ele>278.0</ele><time>2026-08-16T20:47:11Z</time></trkpt>
<trkpt lat="35.131926" lon="-84.959088"><ele>278.0</ele><time>2026-08-16T20:47:13Z</time></trkpt>
<trkpt lat="35.131951" lon="-84.959069"><ele>277.7</ele><time>2026-08-16T20:47:15Z</time></trkpt>
<trkpt lat="35.131977" lon="-84.959053"><ele>277.4</ele><time>2026-08-16T20:47:17Z</time></trkpt>
<trkpt lat="35.132015" lon="-84.959037"><ele>277.1</ele><time>2026-08-16T20:47:20Z</time></trkpt>
<trkpt lat="35.132046" lon="-84.959031"><ele>276.8</ele><time>2026-08-16T20:47:22Z</time></trkpt>
<trkpt lat="35.132072" lon="-84.959022"><ele>276.8</ele><time>2026-08-16T20:47:24Z</time></trkpt>
<trkpt lat="35.132114" lon="-84.959022"><ele>276.5</ele><time>2026-08-16T20:47:27Z</time></trkpt>
<trkpt lat="35.132154" lon="-84.95902"><ele>276.5</ele><time>2026-08-16T20:47:30Z</time></trkpt>
<trkpt lat="35.132182" lon="-84.959015"><ele>276.5</ele><time>2026-08-16T20:47:32Z</time></trkpt>
<trkpt lat="35.132222" lon="-84.959022"><ele>276.5</ele><time>2026-08-16T20:47:35Z</time></trkpt>
<trkpt lat="35.132262" lon="-84.959026"><ele>276.5</ele><time>2026-08-16T20:47:38Z</time></trkpt>
<trkpt lat="35.13229" lon="-84.959028"><ele>276.1</ele><time>2026-08-16T20:47:40Z</time></trkpt>
<trkpt lat="35.132332" lon="-84.959029"><ele>275.8</ele><time>2026-08-16T20:47:43Z</time></trkpt>
<trkpt lat="35.132359" lon="-84.959023"><ele>276.1</ele><time>2026-08-16T20:47:45Z</time></trkpt>
<trkpt lat="35.132383" lon="-84.959006"><ele>275.8</ele><time>2026-08-16T20:47:47Z</time></trkpt>
<trkpt lat="35.132396" lon="-84.958975"><ele>275.5</ele><time>2026-08-16T20:47:49Z</time></trkpt>
<trkpt lat="35.132382" lon="-84.958938"><ele>275.8</ele><time>2026-08-16T20:47:51Z</time></trkpt>
<trkpt lat="35.132363" lon="-84.958907"><ele>275.8</ele><time>2026-08-16T20:47:53Z</time></trkpt>
<trkpt lat="35.13234" lon="-84.958882"><ele>275.5</ele><time>2026-08-16T20:47:55Z</time></trkpt>
<trkpt lat="35.13232" lon="-84.958858"><ele>275.5</ele><time>2026-08-16T20:47:57Z</time></trkpt>
<trkpt lat="35.132294" lon="-84.958838"><ele>275.5</ele><time>2026-08-16T20:47:59Z</time></trkpt>
<trkpt lat="35.132269" lon="-84.958822"><ele>275.8</ele><time>2026-08-16T20:48:01Z</time></trkpt>
<trkpt lat="35.132243" lon="-84.958809"><ele>275.5</ele><time>2026-08-16T20:48:03Z</time></trkpt>
<trkpt lat="35.13222" lon="-84.958788"><ele>275.5</ele><time>2026-08-16T20:48:05Z</time></trkpt>
<trkpt lat="35.132194" lon="-84.958776"><ele>275.2</ele><time>2026-08-16T20:48:07Z</time></trkpt>
<trkpt lat="35.132161" lon="-84.958757"><ele>275.2</ele><time>2026-08-16T20:48:10Z</time></trkpt>
<trkpt lat="35.132125" lon="-84.958733"><ele>275.2</ele><time>2026-08-16T20:48:13Z</time></trkpt>
<trkpt lat="35.13209" lon="-84.958706"><ele>275.2</ele><time>2026-08-16T20:48:16Z</time></trkpt>
<trkpt lat="35.132062" lon="-84.958699"><ele>275.2</ele><time>2026-08-16T20:48:18Z</time></trkpt>
<trkpt lat="35.132021" lon="-84.958695"><ele>275.2</ele><time>2026-08-16T20:48:21Z</time></trkpt>
<trkpt lat="35.131991" lon="-84.958678"><ele>275.2</ele><time>2026-08-16T20:48:23Z</time></trkpt>
<trkpt lat="35.131965" lon="-84.958664"><ele>275.2</ele><time>2026-08-16T20:48:25Z</time></trkpt>
<trkpt lat="35.131933" lon="-84.958634"><ele>275.2</ele><time>2026-08-16T20:48:28Z</time></trkpt>
<trkpt lat="35.131902" lon="-84.9586"><ele>274.9</ele><time>2026-08-16T20:48:31Z</time></trkpt>
<trkpt lat="35.131876" lon="-84.958562"><ele>274.6</ele><time>2026-08-16T20:48:34Z</time></trkpt>
<trkpt lat="35.13187" lon="-84.958527"><ele>274.3</ele><time>2026-08-16T20:48:36Z</time></trkpt>
<trkpt lat="35.131871" lon="-84.958491"><ele>274.6</ele><time>2026-08-16T20:48:38Z</time></trkpt>
<trkpt lat="35.131874" lon="-84.958457"><ele>274.6</ele><time>2026-08-16T20:48:40Z</time></trkpt>
<trkpt lat="35.131887" lon="-84.958424"><ele>274.6</ele><time>2026-08-16T20:48:42Z</time></trkpt>
<trkpt lat="35.131893" lon="-84.958389"><ele>274.6</ele><time>2026-08-16T20:48:44Z</time></trkpt>
<trkpt lat="35.131891" lon="-84.958354"><ele>274.3</ele><time>2026-08-16T20:48:46Z</time></trkpt>
<trkpt lat="35.131901" lon="-84.958322"><ele>274.3</ele><time>2026-08-16T20:48:48Z</time></trkpt>
<trkpt lat="35.131926" lon="-84.958281"><ele>274.3</ele><time>2026-08-16T20:48:51Z</time></trkpt>
<trkpt lat="35.131949" lon="-84.95826"><ele>274.3</ele><time>2026-08-16T20:48:53Z</time></trkpt>
<trkpt lat="35.131974" lon="-84.958239"><ele>274.3</ele><time>2026-08-16T20:48:55Z</time></trkpt>
<trkpt lat="35.131995" lon="-84.958216"><ele>274.0</ele><time>2026-08-16T20:48:57Z</time></trkpt>
<trkpt lat="35.13202" lon="-84.958176"><ele>274.0</ele><time>2026-08-16T20:49:00Z</time></trkpt>
<trkpt lat="35.132036" lon="-84.958147"><ele>273.7</ele><time>2026-08-16T20:49:02Z</time></trkpt>
<trkpt lat="35.13206" lon="-84.95813"><ele>273.7</ele><time>2026-08-16T20:49:04Z</time></trkpt>
<trkpt lat="35.132091" lon="-84.958102"><ele>273.4</ele><time>2026-08-16T20:49:07Z</time></trkpt>
<trkpt lat="35.132125" lon="-84.958078"><ele>273.1</ele><time>2026-08-16T20:49:10Z</time></trkpt>
<trkpt lat="35.132153" lon="-84.95807"><ele>273.1</ele><time>2026-08-16T20:49:12Z</time></trkpt>
<trkpt lat="35.132181" lon="-84.958063"><ele>273.1</ele><time>2026-08-16T20:49:14Z</time></trkpt>
<trkpt lat="35.13222" lon="-84.958059"><ele>273.1</ele><time>2026-08-16T20:49:17Z</time></trkpt>
<trkpt lat="35.132256" lon="-84.958063"><ele>273.1</ele><time>2026-08-16T20:49:20Z</time></trkpt>
<trkpt lat="35.132282" lon="-84.958078"><ele>273.1</ele><time>2026-08-16T20:49:22Z</time></trkpt>
<trkpt lat="35.132321" lon="-84.958067"><ele>273.1</ele><time>2026-08-16T20:49:25Z</time></trkpt>
<trkpt lat="35.132336" lon="-84.958035"><ele>273.1</ele><time>2026-08-16T20:49:27Z</time></trkpt>
<trkpt lat="35.13234" lon="-84.957999"><ele>273.1</ele><time>2026-08-16T20:49:29Z</time></trkpt>
<trkpt lat="35.132351" lon="-84.957966"><ele>273.4</ele><time>2026-08-16T20:49:31Z</time></trkpt>
<trkpt lat="35.132365" lon="-84.957936"><ele>273.4</ele><time>2026-08-16T20:49:33Z</time></trkpt>
<trkpt lat="35.132391" lon="-84.9579"><ele>273.1</ele><time>2026-08-16T20:49:36Z</time></trkpt>
<trkpt lat="35.132409" lon="-84.957874"><ele>273.1</ele><time>2026-08-16T20:49:38Z</time></trkpt>
<trkpt lat="35.132422" lon="-84.957844"><ele>272.8</ele><time>2026-08-16T20:49:40Z</time></trkpt>
<trkpt lat="35.132406" lon="-84.957806"><ele>272.8</ele><time>2026-08-16T20:49:42Z</time></trkpt>
<trkpt lat="35.132391" lon="-84.957777"><ele>272.8</ele><time>2026-08-16T20:49:44Z</time></trkpt>
<trkpt lat="35.132373" lon="-84.957751"><ele>272.8</ele><time>2026-08-16T20:49:46Z</time></trkpt>
<trkpt lat="35.132346" lon="-84.957731"><ele>272.5</ele><time>2026-08-16T20:49:48Z</time></trkpt>
<trkpt lat="35.132324" lon="-84.957704"><ele>272.5</ele><time>2026-08-16T20:49:50Z</time></trkpt>
<trkpt lat="35.132308" lon="-84.957676"><ele>272.2</ele><time>2026-08-16T20:49:52Z</time></trkpt>
<trkpt lat="35.132284" lon="-84.957657"><ele>272.2</ele><time>2026-08-16T20:49:54Z</time></trkpt>
<trkpt lat="35.13225" lon="-84.957634"><ele>272.2</ele><time>2026-08-16T20:49:57Z</time></trkpt>
<trkpt lat="35.132223" lon="-84.957624"><ele>272.2</ele><time>2026-08-16T20:49:59Z</time></trkpt>
<trkpt lat="35.132192" lon="-84.957621"><ele>272.2</ele><time>2026-08-16T20:50:01Z</time></trkpt>
<trkpt lat="35.132161" lon="-84.957624"><ele>272.2</ele><time>2026-08-16T20:50:03Z</time></trkpt>
<trkpt lat="35.13213" lon="-84.957631"><ele>272.2</ele><time>2026-08-16T20:50:05Z</time></trkpt>
<trkpt lat="35.1321" lon="-84.957639"><ele>271.9</ele><time>2026-08-16T20:50:07Z</time></trkpt>
<trkpt lat="35.132073" lon="-84.957655"><ele>271.9</ele><time>2026-08-16T20:50:09Z</time></trkpt>
<trkpt lat="35.132045" lon="-84.95767"><ele>271.6</ele><time>2026-08-16T20:50:11Z</time></trkpt>
<trkpt lat="35.132016" lon="-84.957678"><ele>271.6</ele><time>2026-08-16T20:50:13Z</time></trkpt>
<trkpt lat="35.131989" lon="-84.95769"><ele>271.3</ele><time>2026-08-16T20:50:15Z</time></trkpt>
<trkpt lat="35.131966" lon="-84.95771"><ele>271.0</ele><time>2026-08-16T20:50:17Z</time></trkpt>
<trkpt lat="35.131942" lon="-84.957734"><ele>270.7</ele><time>2026-08-16T20:50:19Z</time></trkpt>
<trkpt lat="35.131912" lon="-84.957748"><ele>270.7</ele><time>2026-08-16T20:50:21Z</time></trkpt>
<trkpt lat="35.13188" lon="-84.957745"><ele>270.7</ele><time>2026-08-16T20:50:23Z</time></trkpt>
<trkpt lat="35.131848" lon="-84.957735"><ele>270.4</ele><time>2026-08-16T20:50:25Z</time></trkpt>
<trkpt lat="35.13182" lon="-84.957736"><ele>270.1</ele><time>2026-08-16T20:50:27Z</time></trkpt>
<trkpt lat="35.131782" lon="-84.957719"><ele>270.1</ele><time>2026-08-16T20:50:30Z</time></trkpt>
<trkpt lat="35.131759" lon="-84.9577"><ele>270.1</ele><time>2026-08-16T20:50:32Z</time></trkpt>
<trkpt lat="35.131735" lon="-84.957678"><ele>270.1</ele><time>2026-08-16T20:50:34Z</time></trkpt>
<trkpt lat="35.13171" lon="-84.957643"><ele>270.1</ele><time>2026-08-16T20:50:37Z</time></trkpt>
<trkpt lat="35.131695" lon="-84.957614"><ele>270.1</ele><time>2026-08-16T20:50:39Z</time></trkpt>
<trkpt lat="35.131698" lon="-84.957569"><ele>270.1</ele><time>2026-08-16T20:50:42Z</time></trkpt>
<trkpt lat="35.131718" lon="-84.957542"><ele>270.4</ele><time>2026-08-16T20:50:44Z</time></trkpt>
<trkpt lat="35.131742" lon="-84.95752"><ele>270.4</ele><time>2026-08-16T20:50:46Z</time></trkpt>
<trkpt lat="35.131768" lon="-84.957506"><ele>270.4</ele><time>2026-08-16T20:50:48Z</time></trkpt>
<trkpt lat="35.131793" lon="-84.957486"><ele>270.4</ele><time>2026-08-16T20:50:50Z</time></trkpt>
<trkpt lat="35.131822" lon="-84.957452"><ele>270.4</ele><time>2026-08-16T20:50:53Z</time></trkpt>
<trkpt lat="35.131845" lon="-84.957433"><ele>270.7</ele><time>2026-08-16T20:50:55Z</time></trkpt>
<trkpt lat="35.131873" lon="-84.957425"><ele>270.7</ele><time>2026-08-16T20:50:57Z</time></trkpt>
<trkpt lat="35.131908" lon="-84.957413"><ele>271.0</ele><time>2026-08-16T20:51:00Z</time></trkpt>
<trkpt lat="35.13194" lon="-84.957414"><ele>271.3</ele><time>2026-08-16T20:51:03Z</time></trkpt>
<trkpt lat="35.131978" lon="-84.95742"><ele>271.6</ele><time>2026-08-16T20:51:06Z</time></trkpt>
<trkpt lat="35.132007" lon="-84.957419"><ele>271.6</ele><time>2026-08-16T20:51:08Z</time></trkpt>
<trkpt lat="35.132037" lon="-84.957413"><ele>271.6</ele><time>2026-08-16T20:51:10Z</time></trkpt>
<trkpt lat="35.132076" lon="-84.957418"><ele>271.3</ele><time>2026-08-16T20:51:13Z</time></trkpt>
<trkpt lat="35.132115" lon="-84.957418"><ele>271.3</ele><time>2026-08-16T20:51:16Z</time></trkpt>
<trkpt lat="35.132155" lon="-84.9574"><ele>271.3</ele><time>2026-08-16T20:51:19Z</time></trkpt>
<trkpt lat="35.132171" lon="-84.957367"><ele>271.3</ele><time>2026-08-16T20:51:21Z</time></trkpt>
<trkpt lat="35.132171" lon="-84.957331"><ele>271.6</ele><time>2026-08-16T20:51:23Z</time></trkpt>
<trkpt lat="35.132178" lon="-84.957298"><ele>271.9</ele><time>2026-08-16T20:51:25Z</time></trkpt>
<trkpt lat="35.132198" lon="-84.95727"><ele>271.9</ele><time>2026-08-16T20:51:27Z</time></trkpt>
<trkpt lat="35.132232" lon="-84.957243"><ele>271.9</ele><time>2026-08-16T20:51:30Z</time></trkpt>
<trkpt lat="35.132254" lon="-84.957223"><ele>272.2</ele><time>2026-08-16T20:51:32Z</time></trkpt>
<trkpt lat="35.132271" lon="-84.957196"><ele>272.2</ele><time>2026-08-16T20:51:34Z</time></trkpt>
<trkpt lat="35.132291" lon="-84.957169"><ele>272.2</ele><time>2026-08-16T20:51:36Z</time></trkpt>
<trkpt lat="35.132306" lon="-84.957141"><ele>272.5</ele><time>2026-08-16T20:51:38Z</time></trkpt>
<trkpt lat="35.132323" lon="-84.957113"><ele>272.5</ele><time>2026-08-16T20:51:40Z</time></trkpt>
<trkpt lat="35.13234" lon="-84.957085"><ele>272.5</ele><time>2026-08-16T20:51:42Z</time></trkpt>
<trkpt lat="35.132357" lon="-84.957056"><ele>272.5</ele><time>2026-08-16T20:51:44Z</time></trkpt>
<trkpt lat="35.132374" lon="-84.957026"><ele>272.5</ele><time>2026-08-16T20:51:46Z</time></trkpt>
<trkpt lat="35.132394" lon="-84.956997"><ele>272.2</ele><time>2026-08-16T20:51:48Z</time></trkpt>
<trkpt lat="35.132417" lon="-84.956969"><ele>272.2</ele><time>2026-08-16T20:51:50Z</time></trkpt>
<trkpt lat="35.13244" lon="-84.95695"><ele>272.5</ele><time>2026-08-16T20:51:52Z</time></trkpt>
<trkpt lat="35.132466" lon="-84.956912"><ele>272.5</ele><time>2026-08-16T20:51:55Z</time></trkpt>
<trkpt lat="35.132481" lon="-84.956882"><ele>272.5</ele><time>2026-08-16T20:51:57Z</time></trkpt>
<trkpt lat="35.132483" lon="-84.956833"><ele>272.5</ele><time>2026-08-16T20:52:00Z</time></trkpt>
<trkpt lat="35.132466" lon="-84.9568"><ele>272.2</ele><time>2026-08-16T20:52:02Z</time></trkpt>
<trkpt lat="35.13244" lon="-84.956776"><ele>272.2</ele><time>2026-08-16T20:52:04Z</time></trkpt>
<trkpt lat="35.132409" lon="-84.956765"><ele>272.2</ele><time>2026-08-16T20:52:06Z</time></trkpt>
<trkpt lat="35.132376" lon="-84.956758"><ele>271.9</ele><time>2026-08-16T20:52:08Z</time></trkpt>
<trkpt lat="35.132342" lon="-84.956763"><ele>272.2</ele><time>2026-08-16T20:52:10Z</time></trkpt>
<trkpt lat="35.132312" lon="-84.95677"><ele>272.5</ele><time>2026-08-16T20:52:12Z</time></trkpt>
<trkpt lat="35.132274" lon="-84.956786"><ele>272.5</ele><time>2026-08-16T20:52:15Z</time></trkpt>
<trkpt lat="35.132241" lon="-84.956814"><ele>272.5</ele><time>2026-08-16T20:52:18Z</time></trkpt>
<trkpt lat="35.13221" lon="-84.956846"><ele>272.5</ele><time>2026-08-16T20:52:21Z</time></trkpt>
<trkpt lat="35.13219" lon="-84.956871"><ele>272.5</ele><time>2026-08-16T20:52:23Z</time></trkpt>
<trkpt lat="35.132166" lon="-84.95689"><ele>272.5</ele><time>2026-08-16T20:52:25Z</time></trkpt>
<trkpt lat="35.132138" lon="-84.956901"><ele>272.5</ele><time>2026-08-16T20:52:27Z</time></trkpt>
<trkpt lat="35.132115" lon="-84.956925"><ele>272.5</ele><time>2026-08-16T20:52:29Z</time></trkpt>
<trkpt lat="35.132083" lon="-84.956959"><ele>272.2</ele><time>2026-08-16T20:52:32Z</time></trkpt>
<trkpt lat="35.132067" lon="-84.956989"><ele>272.2</ele><time>2026-08-16T20:52:34Z</time></trkpt>
<trkpt lat="35.132048" lon="-84.957017"><ele>271.9</ele><time>2026-08-16T20:52:36Z</time></trkpt>
<trkpt lat="35.132023" lon="-84.95704"><ele>271.6</ele><time>2026-08-16T20:52:38Z</time></trkpt>
<trkpt lat="35.131998" lon="-84.957063"><ele>271.6</ele><time>2026-08-16T20:52:40Z</time></trkpt>
<trkpt lat="35.131968" lon="-84.957076"><ele>271.0</ele><time>2026-08-16T20:52:42Z</time></trkpt>
<trkpt lat="35.131942" lon="-84.957092"><ele>270.7</ele><time>2026-08-16T20:52:44Z</time></trkpt>
<trkpt lat="35.131904" lon="-84.957111"><ele>270.7</ele><time>2026-08-16T20:52:47Z</time></trkpt>
<trkpt lat="35.131867" lon="-84.957129"><ele>270.7</ele><time>2026-08-16T20:52:50Z</time></trkpt>
<trkpt lat="35.131843" lon="-84.957146"><ele>270.7</ele><time>2026-08-16T20:52:52Z</time></trkpt>
<trkpt lat="35.131817" lon="-84.957161"><ele>270.7</ele><time>2026-08-16T20:52:54Z</time></trkpt>
<trkpt lat="35.131783" lon="-84.957183"><ele>270.4</ele><time>2026-08-16T20:52:57Z</time></trkpt>
<trkpt lat="35.131749" lon="-84.957209"><ele>270.4</ele><time>2026-08-16T20:53:00Z</time></trkpt>
<trkpt lat="35.131724" lon="-84.957227"><ele>270.4</ele><time>2026-08-16T20:53:02Z</time></trkpt>
<trkpt lat="35.131698" lon="-84.957246"><ele>270.4</ele><time>2026-08-16T20:53:04Z</time></trkpt>
<trkpt lat="35.131671" lon="-84.957257"><ele>270.1</ele><time>2026-08-16T20:53:06Z</time></trkpt>
<trkpt lat="35.131634" lon="-84.957281"><ele>270.1</ele><time>2026-08-16T20:53:09Z</time></trkpt>
<trkpt lat="35.131606" lon="-84.957292"><ele>270.4</ele><time>2026-08-16T20:53:11Z</time></trkpt>
<trkpt lat="35.131569" lon="-84.957306"><ele>270.4</ele><time>2026-08-16T20:53:14Z</time></trkpt>
<trkpt lat="35.131542" lon="-84.957316"><ele>270.4</ele><time>2026-08-16T20:53:16Z</time></trkpt>
<trkpt lat="35.131514" lon="-84.957326"><ele>270.1</ele><time>2026-08-16T20:53:18Z</time></trkpt>
<trkpt lat="35.131485" lon="-84.957333"><ele>269.7</ele><time>2026-08-16T20:53:20Z</time></trkpt>
<trkpt lat="35.131461" lon="-84.957354"><ele>269.4</ele><time>2026-08-16T20:53:22Z</time></trkpt>
<trkpt lat="35.131433" lon="-84.95737"><ele>269.4</ele><time>2026-08-16T20:53:24Z</time></trkpt>
<trkpt lat="35.131404" lon="-84.957383"><ele>269.4</ele><time>2026-08-16T20:53:26Z</time></trkpt>
<trkpt lat="35.131365" lon="-84.957389"><ele>269.7</ele><time>2026-08-16T20:53:29Z</time></trkpt>
<trkpt lat="35.131327" lon="-84.957404"><ele>269.7</ele><time>2026-08-16T20:53:32Z</time></trkpt>
<trkpt lat="35.131298" lon="-84.957407"><ele>269.4</ele><time>2026-08-16T20:53:34Z</time></trkpt>
<trkpt lat="35.131263" lon="-84.957417"><ele>269.4</ele><time>2026-08-16T20:53:37Z</time></trkpt>
<trkpt lat="35.131224" lon="-84.957416"><ele>269.4</ele><time>2026-08-16T20:53:40Z</time></trkpt>
<trkpt lat="35.1312" lon="-84.957393"><ele>269.4</ele><time>2026-08-16T20:53:42Z</time></trkpt>
<trkpt lat="35.131175" lon="-84.957375"><ele>269.1</ele><time>2026-08-16T20:53:44Z</time></trkpt>
<trkpt lat="35.131146" lon="-84.95736"><ele>269.1</ele><time>2026-08-16T20:53:46Z</time></trkpt>
<trkpt lat="35.131118" lon="-84.957374"><ele>269.1</ele><time>2026-08-16T20:53:48Z</time></trkpt>
<trkpt lat="35.131095" lon="-84.957403"><ele>269.1</ele><time>2026-08-16T20:53:50Z</time></trkpt>
<trkpt lat="35.131083" lon="-84.95744"><ele>269.1</ele><time>2026-08-16T20:53:52Z</time></trkpt>
<trkpt lat="35.131071" lon="-84.957473"><ele>269.1</ele><time>2026-08-16T20:53:54Z</time></trkpt>
<trkpt lat="35.131063" lon="-84.957506"><ele>268.8</ele><time>2026-08-16T20:53:56Z</time></trkpt>
<trkpt lat="35.131047" lon="-84.957539"><ele>268.8</ele><time>2026-08-16T20:53:58Z</time></trkpt>
<trkpt lat="35.131024" lon="-84.95757"><ele>268.5</ele><time>2026-08-16T20:54:00Z</time></trkpt>
<trkpt lat="35.131003" lon="-84.957599"><ele>268.8</ele><time>2026-08-16T20:54:02Z</time></trkpt>
<trkpt lat="35.130982" lon="-84.957623"><ele>268.8</ele><time>2026-08-16T20:54:04Z</time></trkpt>
<trkpt lat="35.130965" lon="-84.957651"><ele>268.8</ele><time>2026-08-16T20:54:06Z</time></trkpt>
<trkpt lat="35.130941" lon="-84.957671"><ele>268.8</ele><time>2026-08-16T20:54:08Z</time></trkpt>
<trkpt lat="35.130907" lon="-84.957676"><ele>268.8</ele><time>2026-08-16T20:54:10Z</time></trkpt>
<trkpt lat="35.13088" lon="-84.95766"><ele>269.1</ele><time>2026-08-16T20:54:12Z</time></trkpt>
<trkpt lat="35.130857" lon="-84.95764"><ele>269.4</ele><time>2026-08-16T20:54:14Z</time></trkpt>
<trkpt lat="35.130829" lon="-84.957634"><ele>269.4</ele><time>2026-08-16T20:54:16Z</time></trkpt>
<trkpt lat="35.130799" lon="-84.957647"><ele>269.1</ele><time>2026-08-16T20:54:18Z</time></trkpt>
<trkpt lat="35.130785" lon="-84.957683"><ele>269.1</ele><time>2026-08-16T20:54:20Z</time></trkpt>
<trkpt lat="35.130783" lon="-84.957722"><ele>268.8</ele><time>2026-08-16T20:54:22Z</time></trkpt>
<trkpt lat="35.130794" lon="-84.957756"><ele>268.8</ele><time>2026-08-16T20:54:24Z</time></trkpt>
<trkpt lat="35.130799" lon="-84.957789"><ele>268.5</ele><time>2026-08-16T20:54:26Z</time></trkpt>
<trkpt lat="35.130791" lon="-84.957824"><ele>268.5</ele><time>2026-08-16T20:54:28Z</time></trkpt>
<trkpt lat="35.130775" lon="-84.957854"><ele>268.2</ele><time>2026-08-16T20:54:30Z</time></trkpt>
<trkpt lat="35.13075" lon="-84.957873"><ele>268.2</ele><time>2026-08-16T20:54:32Z</time></trkpt>
<trkpt lat="35.130718" lon="-84.957905"><ele>267.9</ele><time>2026-08-16T20:54:35Z</time></trkpt>
<trkpt lat="35.130694" lon="-84.957925"><ele>267.9</ele><time>2026-08-16T20:54:37Z</time></trkpt>
<trkpt lat="35.130668" lon="-84.957939"><ele>267.9</ele><time>2026-08-16T20:54:39Z</time></trkpt>
<trkpt lat="35.130638" lon="-84.957947"><ele>267.9</ele><time>2026-08-16T20:54:41Z</time></trkpt>
<trkpt lat="35.130609" lon="-84.957952"><ele>267.9</ele><time>2026-08-16T20:54:43Z</time></trkpt>
<trkpt lat="35.130579" lon="-84.957961"><ele>267.9</ele><time>2026-08-16T20:54:45Z</time></trkpt>
<trkpt lat="35.130553" lon="-84.957969"><ele>268.2</ele><time>2026-08-16T20:54:47Z</time></trkpt>
<trkpt lat="35.130523" lon="-84.957977"><ele>268.2</ele><time>2026-08-16T20:54:49Z</time></trkpt>
<trkpt lat="35.130496" lon="-84.957993"><ele>268.2</ele><time>2026-08-16T20:54:51Z</time></trkpt>
<trkpt lat="35.13047" lon="-84.958012"><ele>268.5</ele><time>2026-08-16T20:54:53Z</time></trkpt>
<trkpt lat="35.130448" lon="-84.958036"><ele>268.5</ele><time>2026-08-16T20:54:55Z</time></trkpt>
<trkpt lat="35.130423" lon="-84.958053"><ele>268.8</ele><time>2026-08-16T20:54:57Z</time></trkpt>
<trkpt lat="35.130393" lon="-84.958067"><ele>268.8</ele><time>2026-08-16T20:54:59Z</time></trkpt>
<trkpt lat="35.130374" lon="-84.958093"><ele>268.5</ele><time>2026-08-16T20:55:01Z</time></trkpt>
<trkpt lat="35.130353" lon="-84.958118"><ele>268.5</ele><time>2026-08-16T20:55:03Z</time></trkpt>
<trkpt lat="35.130329" lon="-84.95814"><ele>268.5</ele><time>2026-08-16T20:55:05Z</time></trkpt>
<trkpt lat="35.130295" lon="-84.958176"><ele>268.2</ele><time>2026-08-16T20:55:07Z</time></trkpt>
<trkpt lat="35.130242" lon="-84.95822"><ele>268.2</ele><time>2026-08-16T20:55:09Z</time></trkpt>
<trkpt lat="35.130209" lon="-84.95822"><ele>268.2</ele><time>2026-08-16T20:55:10Z</time></trkpt>
<trkpt lat="35.130226" lon="-84.958247"><ele>268.5</ele><time>2026-08-16T20:55:12Z</time></trkpt>
<trkpt lat="35.130198" lon="-84.958246"><ele>268.5</ele><time>2026-08-16T20:55:14Z</time></trkpt>
<trkpt lat="35.130174" lon="-84.958217"><ele>268.5</ele><time>2026-08-16T20:55:16Z</time></trkpt>
<trkpt lat="35.130147" lon="-84.958173"><ele>268.5</ele><time>2026-08-16T20:55:18Z</time></trkpt>
<trkpt lat="35.130124" lon="-84.958144"><ele>268.8</ele><time>2026-08-16T20:55:21Z</time></trkpt>
<trkpt lat="35.130106" lon="-84.958106"><ele>268.8</ele><time>2026-08-16T20:55:26Z</time></trkpt>
<trkpt lat="35.130074" lon="-84.958091"><ele>268.8</ele><time>2026-08-16T20:55:29Z</time></trkpt>
<trkpt lat="35.130038" lon="-84.958091"><ele>269.1</ele><time>2026-08-16T20:55:31Z</time></trkpt>
<trkpt lat="35.130021" lon="-84.958126"><ele>269.1</ele><time>2026-08-16T20:55:33Z</time></trkpt>
<trkpt lat="35.130013" lon="-84.958164"><ele>269.4</ele><time>2026-08-16T20:55:35Z</time></trkpt>
<trkpt lat="35.129988" lon="-84.958191"><ele>269.4</ele><time>2026-08-16T20:55:37Z</time></trkpt>
<trkpt lat="35.129963" lon="-84.958212"><ele>269.7</ele><time>2026-08-16T20:55:39Z</time></trkpt>
<trkpt lat="35.129937" lon="-84.95823"><ele>269.7</ele><time>2026-08-16T20:55:41Z</time></trkpt>
<trkpt lat="35.129898" lon="-84.958239"><ele>269.7</ele><time>2026-08-16T20:55:44Z</time></trkpt>
<trkpt lat="35.12987" lon="-84.958234"><ele>270.1</ele><time>2026-08-16T20:55:46Z</time></trkpt>
<trkpt lat="35.129841" lon="-84.958215"><ele>270.1</ele><time>2026-08-16T20:55:48Z</time></trkpt>
<trkpt lat="35.129822" lon="-84.95819"><ele>270.1</ele><time>2026-08-16T20:55:50Z</time></trkpt>
<trkpt lat="35.129804" lon="-84.958162"><ele>270.4</ele><time>2026-08-16T20:55:52Z</time></trkpt>
<trkpt lat="35.129783" lon="-84.958122"><ele>270.7</ele><time>2026-08-16T20:55:55Z</time></trkpt>
<trkpt lat="35.129761" lon="-84.95809"><ele>270.7</ele><time>2026-08-16T20:55:58Z</time></trkpt>
<trkpt lat="35.129747" lon="-84.95805"><ele>271.0</ele><time>2026-08-16T20:56:01Z</time></trkpt>
<trkpt lat="35.129741" lon="-84.958006"><ele>271.3</ele><time>2026-08-16T20:56:04Z</time></trkpt>
<trkpt lat="35.129739" lon="-84.957961"><ele>271.0</ele><time>2026-08-16T20:56:07Z</time></trkpt>
<trkpt lat="35.129733" lon="-84.957928"><ele>271.0</ele><time>2026-08-16T20:56:09Z</time></trkpt>
<trkpt lat="35.129726" lon="-84.957885"><ele>271.0</ele><time>2026-08-16T20:56:12Z</time></trkpt>
<trkpt lat="35.129706" lon="-84.957841"><ele>271.0</ele><time>2026-08-16T20:56:15Z</time></trkpt>
<trkpt lat="35.129701" lon="-84.957793"><ele>270.7</ele><time>2026-08-16T20:56:18Z</time></trkpt>
<trkpt lat="35.129687" lon="-84.957748"><ele>270.7</ele><time>2026-08-16T20:56:21Z</time></trkpt>
<trkpt lat="35.129675" lon="-84.957717"><ele>270.7</ele><time>2026-08-16T20:56:23Z</time></trkpt>
<trkpt lat="35.129676" lon="-84.957672"><ele>270.7</ele><time>2026-08-16T20:56:26Z</time></trkpt>
<trkpt lat="35.129699" lon="-84.957652"><ele>270.4</ele><time>2026-08-16T20:56:28Z</time></trkpt>
<trkpt lat="35.129736" lon="-84.957639"><ele>270.1</ele><time>2026-08-16T20:56:31Z</time></trkpt>
<trkpt lat="35.129762" lon="-84.957629"><ele>270.1</ele><time>2026-08-16T20:56:33Z</time></trkpt>
<trkpt lat="35.129801" lon="-84.957624"><ele>269.7</ele><time>2026-08-16T20:56:36Z</time></trkpt>
<trkpt lat="35.129831" lon="-84.95762"><ele>269.4</ele><time>2026-08-16T20:56:38Z</time></trkpt>
<trkpt lat="35.129861" lon="-84.957605"><ele>269.4</ele><time>2026-08-16T20:56:40Z</time></trkpt>
<trkpt lat="35.129883" lon="-84.957576"><ele>269.4</ele><time>2026-08-16T20:56:42Z</time></trkpt>
<trkpt lat="35.129904" lon="-84.957555"><ele>269.1</ele><time>2026-08-16T20:56:44Z</time></trkpt>
<trkpt lat="35.129928" lon="-84.957535"><ele>269.1</ele><time>2026-08-16T20:56:46Z</time></trkpt>
<trkpt lat="35.129951" lon="-84.957513"><ele>269.4</ele><time>2026-08-16T20:56:48Z</time></trkpt>
<trkpt lat="35.129978" lon="-84.957493"><ele>269.7</ele><time>2026-08-16T20:56:50Z</time></trkpt>
<trkpt lat="35.130002" lon="-84.957474"><ele>269.7</ele><time>2026-08-16T20:56:52Z</time></trkpt>
<trkpt lat="35.130029" lon="-84.957438"><ele>269.7</ele><time>2026-08-16T20:56:55Z</time></trkpt>
<trkpt lat="35.130062" lon="-84.95741"><ele>269.7</ele><time>2026-08-16T20:56:58Z</time></trkpt>
<trkpt lat="35.130089" lon="-84.957395"><ele>269.7</ele><time>2026-08-16T20:57:00Z</time></trkpt>
<trkpt lat="35.130111" lon="-84.957371"><ele>269.7</ele><time>2026-08-16T20:57:02Z</time></trkpt>
<trkpt lat="35.130138" lon="-84.957335"><ele>269.7</ele><time>2026-08-16T20:57:05Z</time></trkpt>
<trkpt lat="35.130152" lon="-84.957306"><ele>270.1</ele><time>2026-08-16T20:57:07Z</time></trkpt>
<trkpt lat="35.130175" lon="-84.957282"><ele>270.4</ele><time>2026-08-16T20:57:09Z</time></trkpt>
<trkpt lat="35.130199" lon="-84.957259"><ele>270.7</ele><time>2026-08-16T20:57:11Z</time></trkpt>
<trkpt lat="35.130236" lon="-84.957245"><ele>270.7</ele><time>2026-08-16T20:57:14Z</time></trkpt>
<trkpt lat="35.130267" lon="-84.957223"><ele>271.0</ele><time>2026-08-16T20:57:17Z</time></trkpt>
<trkpt lat="35.130297" lon="-84.957199"><ele>270.7</ele><time>2026-08-16T20:57:20Z</time></trkpt>
<trkpt lat="35.130322" lon="-84.957161"><ele>270.4</ele><time>2026-08-16T20:57:23Z</time></trkpt>
<trkpt lat="35.130352" lon="-84.957148"><ele>270.4</ele><time>2026-08-16T20:57:25Z</time></trkpt>
<trkpt lat="35.130386" lon="-84.957124"><ele>270.7</ele><time>2026-08-16T20:57:28Z</time></trkpt>
<trkpt lat="35.130414" lon="-84.957114"><ele>270.7</ele><time>2026-08-16T20:57:30Z</time></trkpt>
<trkpt lat="35.130434" lon="-84.957089"><ele>271.0</ele><time>2026-08-16T20:57:32Z</time></trkpt>
<trkpt lat="35.13047" lon="-84.957069"><ele>271.0</ele><time>2026-08-16T20:57:35Z</time></trkpt>
<trkpt lat="35.130511" lon="-84.95707"><ele>271.3</ele><time>2026-08-16T20:57:38Z</time></trkpt>
<trkpt lat="35.13054" lon="-84.957061"><ele>271.3</ele><time>2026-08-16T20:57:40Z</time></trkpt>
<trkpt lat="35.130568" lon="-84.957051"><ele>271.6</ele><time>2026-08-16T20:57:42Z</time></trkpt>
<trkpt lat="35.1306" lon="-84.95704"><ele>271.6</ele><time>2026-08-16T20:57:44Z</time></trkpt>
<trkpt lat="35.130627" lon="-84.95702"><ele>271.9</ele><time>2026-08-16T20:57:46Z</time></trkpt>
<trkpt lat="35.13065" lon="-84.956995"><ele>271.9</ele><time>2026-08-16T20:57:48Z</time></trkpt>
<trkpt lat="35.130672" lon="-84.956976"><ele>271.9</ele><time>2026-08-16T20:57:50Z</time></trkpt>
<trkpt lat="35.130695" lon="-84.956957"><ele>271.9</ele><time>2026-08-16T20:57:52Z</time></trkpt>
<trkpt lat="35.130728" lon="-84.956927"><ele>271.9</ele><time>2026-08-16T20:57:55Z</time></trkpt>
<trkpt lat="35.130749" lon="-84.956905"><ele>271.9</ele><time>2026-08-16T20:57:57Z</time></trkpt>
<trkpt lat="35.130776" lon="-84.956884"><ele>271.9</ele><time>2026-08-16T20:57:59Z</time></trkpt>
<trkpt lat="35.13081" lon="-84.956855"><ele>271.9</ele><time>2026-08-16T20:58:02Z</time></trkpt>
<trkpt lat="35.130833" lon="-84.956834"><ele>271.9</ele><time>2026-08-16T20:58:04Z</time></trkpt>
<trkpt lat="35.13085" lon="-84.956807"><ele>271.9</ele><time>2026-08-16T20:58:06Z</time></trkpt>
<trkpt lat="35.13086" lon="-84.956765"><ele>271.9</ele><time>2026-08-16T20:58:09Z</time></trkpt>
<trkpt lat="35.13088" lon="-84.956724"><ele>271.9</ele><time>2026-08-16T20:58:12Z</time></trkpt>
<trkpt lat="35.130909" lon="-84.956691"><ele>271.9</ele><time>2026-08-16T20:58:15Z</time></trkpt>
<trkpt lat="35.130943" lon="-84.956673"><ele>271.9</ele><time>2026-08-16T20:58:18Z</time></trkpt>
<trkpt lat="35.130975" lon="-84.956645"><ele>272.2</ele><time>2026-08-16T20:58:21Z</time></trkpt>
<trkpt lat="35.130989" lon="-84.9566"><ele>271.9</ele><time>2026-08-16T20:58:24Z</time></trkpt>
<trkpt lat="35.131004" lon="-84.956553"><ele>271.6</ele><time>2026-08-16T20:58:27Z</time></trkpt>
<trkpt lat="35.131017" lon="-84.956524"><ele>271.3</ele><time>2026-08-16T20:58:29Z</time></trkpt>
<trkpt lat="35.131037" lon="-84.956496"><ele>271.3</ele><time>2026-08-16T20:58:31Z</time></trkpt>
<trkpt lat="35.131053" lon="-84.956467"><ele>271.3</ele><time>2026-08-16T20:58:33Z</time></trkpt>
<trkpt lat="35.131073" lon="-84.956441"><ele>271.3</ele><time>2026-08-16T20:58:35Z</time></trkpt>
<trkpt lat="35.131092" lon="-84.956416"><ele>271.3</ele><time>2026-08-16T20:58:37Z</time></trkpt>
<trkpt lat="35.131111" lon="-84.956389"><ele>271.3</ele><time>2026-08-16T20:58:39Z</time></trkpt>
<trkpt lat="35.131132" lon="-84.956366"><ele>271.3</ele><time>2026-08-16T20:58:41Z</time></trkpt>
<trkpt lat="35.131156" lon="-84.956345"><ele>271.0</ele><time>2026-08-16T20:58:43Z</time></trkpt>
<trkpt lat="35.131177" lon="-84.956323"><ele>271.0</ele><time>2026-08-16T20:58:45Z</time></trkpt>
<trkpt lat="35.131205" lon="-84.956286"><ele>270.7</ele><time>2026-08-16T20:58:48Z</time></trkpt>
<trkpt lat="35.131215" lon="-84.956254"><ele>270.7</ele><time>2026-08-16T20:58:50Z</time></trkpt>
<trkpt lat="35.131224" lon="-84.956206"><ele>270.4</ele><time>2026-08-16T20:58:53Z</time></trkpt>
<trkpt lat="35.13123" lon="-84.956158"><ele>270.7</ele><time>2026-08-16T20:58:56Z</time></trkpt>
<trkpt lat="35.131226" lon="-84.956124"><ele>270.4</ele><time>2026-08-16T20:58:58Z</time></trkpt>
<trkpt lat="35.131232" lon="-84.956091"><ele>270.4</ele><time>2026-08-16T20:59:00Z</time></trkpt>
<trkpt lat="35.131222" lon="-84.956046"><ele>270.4</ele><time>2026-08-16T20:59:03Z</time></trkpt>
<trkpt lat="35.131193" lon="-84.956029"><ele>270.4</ele><time>2026-08-16T20:59:05Z</time></trkpt>
<trkpt lat="35.131156" lon="-84.956026"><ele>270.1</ele><time>2026-08-16T20:59:07Z</time></trkpt>
<trkpt lat="35.131119" lon="-84.956016"><ele>270.1</ele><time>2026-08-16T20:59:09Z</time></trkpt>
<trkpt lat="35.13109" lon="-84.956006"><ele>270.1</ele><time>2026-08-16T20:59:11Z</time></trkpt>
<trkpt lat="35.131059" lon="-84.956005"><ele>270.4</ele><time>2026-08-16T20:59:13Z</time></trkpt>
<trkpt lat="35.131027" lon="-84.956017"><ele>270.7</ele><time>2026-08-16T20:59:15Z</time></trkpt>
<trkpt lat="35.130993" lon="-84.956035"><ele>271.0</ele><time>2026-08-16T20:59:17Z</time></trkpt>
<trkpt lat="35.130957" lon="-84.956054"><ele>271.0</ele><time>2026-08-16T20:59:19Z</time></trkpt>
<trkpt lat="35.130928" lon="-84.956079"><ele>271.0</ele><time>2026-08-16T20:59:21Z</time></trkpt>
<trkpt lat="35.130896" lon="-84.956104"><ele>271.3</ele><time>2026-08-16T20:59:23Z</time></trkpt>
<trkpt lat="35.130872" lon="-84.956128"><ele>271.3</ele><time>2026-08-16T20:59:25Z</time></trkpt>
<trkpt lat="35.13085" lon="-84.956158"><ele>271.3</ele><time>2026-08-16T20:59:27Z</time></trkpt>
<trkpt lat="35.130828" lon="-84.956186"><ele>271.3</ele><time>2026-08-16T20:59:29Z</time></trkpt>
<trkpt lat="35.130806" lon="-84.956214"><ele>271.3</ele><time>2026-08-16T20:59:31Z</time></trkpt>
<trkpt lat="35.13079" lon="-84.956244"><ele>271.0</ele><time>2026-08-16T20:59:33Z</time></trkpt>
<trkpt lat="35.130781" lon="-84.95628"><ele>271.0</ele><time>2026-08-16T20:59:35Z</time></trkpt>
<trkpt lat="35.130767" lon="-84.956323"><ele>270.7</ele><time>2026-08-16T20:59:38Z</time></trkpt>
<trkpt lat="35.130747" lon="-84.956356"><ele>270.4</ele><time>2026-08-16T20:59:40Z</time></trkpt>
<trkpt lat="35.130722" lon="-84.956385"><ele>270.4</ele><time>2026-08-16T20:59:42Z</time></trkpt>
<trkpt lat="35.130696" lon="-84.956406"><ele>270.1</ele><time>2026-08-16T20:59:44Z</time></trkpt>
<trkpt lat="35.130662" lon="-84.956387"><ele>270.1</ele><time>2026-08-16T20:59:47Z</time></trkpt>
<trkpt lat="35.130648" lon="-84.956352"><ele>270.4</ele><time>2026-08-16T20:59:49Z</time></trkpt>
<trkpt lat="35.130644" lon="-84.956318"><ele>270.4</ele><time>2026-08-16T20:59:51Z</time></trkpt>
<trkpt lat="35.130625" lon="-84.95628"><ele>270.1</ele><time>2026-08-16T20:59:54Z</time></trkpt>
<trkpt lat="35.130584" lon="-84.956276"><ele>270.1</ele><time>2026-08-16T20:59:57Z</time></trkpt>
<trkpt lat="35.130557" lon="-84.9563"><ele>270.1</ele><time>2026-08-16T20:59:59Z</time></trkpt>
<trkpt lat="35.130542" lon="-84.956335"><ele>269.7</ele><time>2026-08-16T21:00:01Z</time></trkpt>
<trkpt lat="35.130532" lon="-84.956377"><ele>269.7</ele><time>2026-08-16T21:00:03Z</time></trkpt>
<trkpt lat="35.130523" lon="-84.95641"><ele>269.7</ele><time>2026-08-16T21:00:05Z</time></trkpt>
<trkpt lat="35.130508" lon="-84.956441"><ele>269.7</ele><time>2026-08-16T21:00:07Z</time></trkpt>
<trkpt lat="35.130484" lon="-84.956482"><ele>269.7</ele><time>2026-08-16T21:00:10Z</time></trkpt>
<trkpt lat="35.13047" lon="-84.956511"><ele>269.7</ele><time>2026-08-16T21:00:12Z</time></trkpt>
<trkpt lat="35.130461" lon="-84.956544"><ele>270.1</ele><time>2026-08-16T21:00:14Z</time></trkpt>
<trkpt lat="35.130446" lon="-84.956576"><ele>270.1</ele><time>2026-08-16T21:00:16Z</time></trkpt>
<trkpt lat="35.130423" lon="-84.956602"><ele>270.1</ele><time>2026-08-16T21:00:18Z</time></trkpt>
<trkpt lat="35.130395" lon="-84.956621"><ele>269.7</ele><time>2026-08-16T21:00:20Z</time></trkpt>
<trkpt lat="35.130358" lon="-84.956644"><ele>269.7</ele><time>2026-08-16T21:00:23Z</time></trkpt>
<trkpt lat="35.130328" lon="-84.956654"><ele>269.4</ele><time>2026-08-16T21:00:25Z</time></trkpt>
<trkpt lat="35.130303" lon="-84.956672"><ele>269.4</ele><time>2026-08-16T21:00:27Z</time></trkpt>
<trkpt lat="35.130278" lon="-84.956692"><ele>269.1</ele><time>2026-08-16T21:00:29Z</time></trkpt>
<trkpt lat="35.130245" lon="-84.956715"><ele>269.1</ele><time>2026-08-16T21:00:32Z</time></trkpt>
<trkpt lat="35.13022" lon="-84.956733"><ele>268.8</ele><time>2026-08-16T21:00:34Z</time></trkpt>
<trkpt lat="35.130191" lon="-84.956741"><ele>268.8</ele><time>2026-08-16T21:00:36Z</time></trkpt>
<trkpt lat="35.130156" lon="-84.956741"><ele>268.8</ele><time>2026-08-16T21:00:38Z</time></trkpt>
<trkpt lat="35.130126" lon="-84.956749"><ele>269.1</ele><time>2026-08-16T21:00:40Z</time></trkpt>
<trkpt lat="35.130091" lon="-84.956738"><ele>269.1</ele><time>2026-08-16T21:00:43Z</time></trkpt>
<trkpt lat="35.130063" lon="-84.95671"><ele>269.1</ele><time>2026-08-16T21:00:46Z</time></trkpt>
<trkpt lat="35.130044" lon="-84.956675"><ele>268.8</ele><time>2026-08-16T21:00:49Z</time></trkpt>
<trkpt lat="35.130032" lon="-84.956635"><ele>269.1</ele><time>2026-08-16T21:00:52Z</time></trkpt>
<trkpt lat="35.13002" lon="-84.95659"><ele>269.4</ele><time>2026-08-16T21:00:55Z</time></trkpt>
<trkpt lat="35.129997" lon="-84.956551"><ele>269.4</ele><time>2026-08-16T21:00:58Z</time></trkpt>
<trkpt lat="35.129969" lon="-84.956535"><ele>269.4</ele><time>2026-08-16T21:01:00Z</time></trkpt>
<trkpt lat="35.129925" lon="-84.956562"><ele>269.1</ele><time>2026-08-16T21:01:02Z</time></trkpt>
<trkpt lat="35.129908" lon="-84.956589"><ele>269.1</ele><time>2026-08-16T21:01:03Z</time></trkpt>
<trkpt lat="35.129901" lon="-84.956625"><ele>269.1</ele><time>2026-08-16T21:01:04Z</time></trkpt>
<trkpt lat="35.129893" lon="-84.95667"><ele>269.1</ele><time>2026-08-16T21:01:06Z</time></trkpt>
<trkpt lat="35.129884" lon="-84.956709"><ele>269.1</ele><time>2026-08-16T21:01:08Z</time></trkpt>
<trkpt lat="35.129874" lon="-84.956745"><ele>269.1</ele><time>2026-08-16T21:01:10Z</time></trkpt>
<trkpt lat="35.129855" lon="-84.956782"><ele>269.4</ele><time>2026-08-16T21:01:13Z</time></trkpt>
<trkpt lat="35.129842" lon="-84.956814"><ele>269.7</ele><time>2026-08-16T21:01:15Z</time></trkpt>
<trkpt lat="35.129812" lon="-84.956843"><ele>269.7</ele><time>2026-08-16T21:01:18Z</time></trkpt>
<trkpt lat="35.129781" lon="-84.956846"><ele>269.7</ele><time>2026-08-16T21:01:20Z</time></trkpt>
<trkpt lat="35.129753" lon="-84.956852"><ele>269.4</ele><time>2026-08-16T21:01:22Z</time></trkpt>
<trkpt lat="35.129724" lon="-84.956854"><ele>269.4</ele><time>2026-08-16T21:01:24Z</time></trkpt>
<trkpt lat="35.129696" lon="-84.95686"><ele>269.1</ele><time>2026-08-16T21:01:26Z</time></trkpt>
<trkpt lat="35.129667" lon="-84.956878"><ele>269.1</ele><time>2026-08-16T21:01:28Z</time></trkpt>
<trkpt lat="35.129651" lon="-84.956913"><ele>269.1</ele><time>2026-08-16T21:01:30Z</time></trkpt>
<trkpt lat="35.129639" lon="-84.956948"><ele>269.4</ele><time>2026-08-16T21:01:32Z</time></trkpt>
<trkpt lat="35.129614" lon="-84.956988"><ele>269.4</ele><time>2026-08-16T21:01:35Z</time></trkpt>
<trkpt lat="35.129587" lon="-84.957"><ele>269.7</ele><time>2026-08-16T21:01:37Z</time></trkpt>
<trkpt lat="35.129559" lon="-84.957008"><ele>269.7</ele><time>2026-08-16T21:01:39Z</time></trkpt>
<trkpt lat="35.129531" lon="-84.957009"><ele>269.4</ele><time>2026-08-16T21:01:41Z</time></trkpt>
<trkpt lat="35.12951" lon="-84.956985"><ele>269.7</ele><time>2026-08-16T21:01:43Z</time></trkpt>
<trkpt lat="35.129503" lon="-84.956948"><ele>269.7</ele><time>2026-08-16T21:01:45Z</time></trkpt>
<trkpt lat="35.129506" lon="-84.956911"><ele>270.1</ele><time>2026-08-16T21:01:47Z</time></trkpt>
<trkpt lat="35.129505" lon="-84.956877"><ele>270.1</ele><time>2026-08-16T21:01:49Z</time></trkpt>
<trkpt lat="35.129497" lon="-84.956843"><ele>270.1</ele><time>2026-08-16T21:01:51Z</time></trkpt>
<trkpt lat="35.129484" lon="-84.956812"><ele>270.1</ele><time>2026-08-16T21:01:53Z</time></trkpt>
<trkpt lat="35.129471" lon="-84.956767"><ele>269.7</ele><time>2026-08-16T21:01:56Z</time></trkpt>
<trkpt lat="35.129462" lon="-84.956733"><ele>269.4</ele><time>2026-08-16T21:01:58Z</time></trkpt>
<trkpt lat="35.129452" lon="-84.956702"><ele>269.4</ele><time>2026-08-16T21:02:00Z</time></trkpt>
<trkpt lat="35.12943" lon="-84.956678"><ele>269.1</ele><time>2026-08-16T21:02:02Z</time></trkpt>
<trkpt lat="35.129399" lon="-84.956672"><ele>269.1</ele><time>2026-08-16T21:02:04Z</time></trkpt>
<trkpt lat="35.129369" lon="-84.956685"><ele>269.1</ele><time>2026-08-16T21:02:06Z</time></trkpt>
<trkpt lat="35.129344" lon="-84.956711"><ele>269.1</ele><time>2026-08-16T21:02:08Z</time></trkpt>
<trkpt lat="35.129319" lon="-84.956732"><ele>269.1</ele><time>2026-08-16T21:02:10Z</time></trkpt>
<trkpt lat="35.129289" lon="-84.956746"><ele>269.4</ele><time>2026-08-16T21:02:12Z</time></trkpt>
<trkpt lat="35.12926" lon="-84.956761"><ele>269.4</ele><time>2026-08-16T21:02:14Z</time></trkpt>
<trkpt lat="35.129234" lon="-84.956777"><ele>269.7</ele><time>2026-08-16T21:02:16Z</time></trkpt>
<trkpt lat="35.129197" lon="-84.956795"><ele>269.7</ele><time>2026-08-16T21:02:19Z</time></trkpt>
<trkpt lat="35.129161" lon="-84.956815"><ele>270.1</ele><time>2026-08-16T21:02:22Z</time></trkpt>
<trkpt lat="35.129123" lon="-84.956807"><ele>270.4</ele><time>2026-08-16T21:02:25Z</time></trkpt>
<trkpt lat="35.129088" lon="-84.956792"><ele>270.7</ele><time>2026-08-16T21:02:28Z</time></trkpt>
<trkpt lat="35.129058" lon="-84.956774"><ele>271.3</ele><time>2026-08-16T21:02:31Z</time></trkpt>
<trkpt lat="35.129052" lon="-84.956729"><ele>271.6</ele><time>2026-08-16T21:02:34Z</time></trkpt>
<trkpt lat="35.129078" lon="-84.956695"><ele>271.9</ele><time>2026-08-16T21:02:37Z</time></trkpt>
<trkpt lat="35.129111" lon="-84.956669"><ele>272.2</ele><time>2026-08-16T21:02:40Z</time></trkpt>
<trkpt lat="35.129135" lon="-84.956649"><ele>272.5</ele><time>2026-08-16T21:02:42Z</time></trkpt>
<trkpt lat="35.12915" lon="-84.95662"><ele>272.5</ele><time>2026-08-16T21:02:44Z</time></trkpt>
<trkpt lat="35.129174" lon="-84.956585"><ele>272.8</ele><time>2026-08-16T21:02:47Z</time></trkpt>
<trkpt lat="35.129195" lon="-84.956544"><ele>273.1</ele><time>2026-08-16T21:02:50Z</time></trkpt>
<trkpt lat="35.129215" lon="-84.9565"><ele>273.1</ele><time>2026-08-16T21:02:53Z</time></trkpt>
<trkpt lat="35.129226" lon="-84.956456"><ele>273.1</ele><time>2026-08-16T21:02:56Z</time></trkpt>
<trkpt lat="35.129245" lon="-84.956414"><ele>273.1</ele><time>2026-08-16T21:02:59Z</time></trkpt>
<trkpt lat="35.129278" lon="-84.956385"><ele>272.8</ele><time>2026-08-16T21:03:02Z</time></trkpt>
<trkpt lat="35.129312" lon="-84.95636"><ele>272.8</ele><time>2026-08-16T21:03:05Z</time></trkpt>
<trkpt lat="35.129341" lon="-84.956326"><ele>272.5</ele><time>2026-08-16T21:03:08Z</time></trkpt>
<trkpt lat="35.12938" lon="-84.956314"><ele>272.5</ele><time>2026-08-16T21:03:11Z</time></trkpt>
<trkpt lat="35.129407" lon="-84.956324"><ele>272.2</ele><time>2026-08-16T21:03:13Z</time></trkpt>
<trkpt lat="35.129434" lon="-84.956342"><ele>272.2</ele><time>2026-08-16T21:03:15Z</time></trkpt>
<trkpt lat="35.129455" lon="-84.956381"><ele>271.9</ele><time>2026-08-16T21:03:18Z</time></trkpt>
<trkpt lat="35.129489" lon="-84.956407"><ele>271.9</ele><time>2026-08-16T21:03:21Z</time></trkpt>
<trkpt lat="35.129524" lon="-84.956439"><ele>271.9</ele><time>2026-08-16T21:03:24Z</time></trkpt>
<trkpt lat="35.12955" lon="-84.956455"><ele>272.2</ele><time>2026-08-16T21:03:26Z</time></trkpt>
<trkpt lat="35.129572" lon="-84.956476"><ele>272.2</ele><time>2026-08-16T21:03:28Z</time></trkpt>
<trkpt lat="35.129594" lon="-84.956499"><ele>272.5</ele><time>2026-08-16T21:03:30Z</time></trkpt>
<trkpt lat="35.129622" lon="-84.956508"><ele>272.5</ele><time>2026-08-16T21:03:32Z</time></trkpt>
<trkpt lat="35.129649" lon="-84.956516"><ele>272.5</ele><time>2026-08-16T21:03:34Z</time></trkpt>
<trkpt lat="35.129675" lon="-84.956527"><ele>272.5</ele><time>2026-08-16T21:03:36Z</time></trkpt>
<trkpt lat="35.129703" lon="-84.956528"><ele>272.2</ele><time>2026-08-16T21:03:38Z</time></trkpt>
<trkpt lat="35.12973" lon="-84.95652"><ele>272.5</ele><time>2026-08-16T21:03:40Z</time></trkpt>
<trkpt lat="35.129759" lon="-84.956516"><ele>272.5</ele><time>2026-08-16T21:03:42Z</time></trkpt>
<trkpt lat="35.129786" lon="-84.956506"><ele>272.5</ele><time>2026-08-16T21:03:44Z</time></trkpt>
<trkpt lat="35.129823" lon="-84.956489"><ele>272.5</ele><time>2026-08-16T21:03:47Z</time></trkpt>
<trkpt lat="35.12985" lon="-84.956476"><ele>272.5</ele><time>2026-08-16T21:03:49Z</time></trkpt>
<trkpt lat="35.129874" lon="-84.956454"><ele>272.5</ele><time>2026-08-16T21:03:51Z</time></trkpt>
<trkpt lat="35.129898" lon="-84.956436"><ele>272.5</ele><time>2026-08-16T21:03:53Z</time></trkpt>
<trkpt lat="35.129916" lon="-84.956411"><ele>272.5</ele><time>2026-08-16T21:03:55Z</time></trkpt>
<trkpt lat="35.12993" lon="-84.956379"><ele>272.5</ele><time>2026-08-16T21:03:57Z</time></trkpt>
<trkpt lat="35.129933" lon="-84.956344"><ele>272.8</ele><time>2026-08-16T21:03:59Z</time></trkpt>
<trkpt lat="35.129942" lon="-84.956312"><ele>272.8</ele><time>2026-08-16T21:04:01Z</time></trkpt>
<trkpt lat="35.12996" lon="-84.956272"><ele>273.1</ele><time>2026-08-16T21:04:04Z</time></trkpt>
<trkpt lat="35.129975" lon="-84.956232"><ele>273.1</ele><time>2026-08-16T21:04:07Z</time></trkpt>
<trkpt lat="35.129988" lon="-84.956184"><ele>273.1</ele><time>2026-08-16T21:04:10Z</time></trkpt>
<trkpt lat="35.129997" lon="-84.95615"><ele>273.4</ele><time>2026-08-16T21:04:12Z</time></trkpt>
<trkpt lat="35.130002" lon="-84.956102"><ele>273.1</ele><time>2026-08-16T21:04:15Z</time></trkpt>
<trkpt lat="35.130005" lon="-84.956055"><ele>273.1</ele><time>2026-08-16T21:04:18Z</time></trkpt>
<trkpt lat="35.130029" lon="-84.956024"><ele>273.1</ele><time>2026-08-16T21:04:21Z</time></trkpt>
<trkpt lat="35.130059" lon="-84.956018"><ele>272.8</ele><time>2026-08-16T21:04:23Z</time></trkpt>
<trkpt lat="35.130088" lon="-84.956032"><ele>272.8</ele><time>2026-08-16T21:04:25Z</time></trkpt>
<trkpt lat="35.130111" lon="-84.956051"><ele>272.8</ele><time>2026-08-16T21:04:27Z</time></trkpt>
<trkpt lat="35.130131" lon="-84.956077"><ele>273.1</ele><time>2026-08-16T21:04:29Z</time></trkpt>
<trkpt lat="35.130148" lon="-84.956103"><ele>273.1</ele><time>2026-08-16T21:04:31Z</time></trkpt>
<trkpt lat="35.130164" lon="-84.956149"><ele>273.1</ele><time>2026-08-16T21:04:34Z</time></trkpt>
<trkpt lat="35.130163" lon="-84.956187"><ele>273.1</ele><time>2026-08-16T21:04:36Z</time></trkpt>
<trkpt lat="35.130157" lon="-84.956235"><ele>273.4</ele><time>2026-08-16T21:04:39Z</time></trkpt>
<trkpt lat="35.130154" lon="-84.956269"><ele>273.4</ele><time>2026-08-16T21:04:41Z</time></trkpt>
<trkpt lat="35.130155" lon="-84.956304"><ele>273.4</ele><time>2026-08-16T21:04:43Z</time></trkpt>
<trkpt lat="35.130156" lon="-84.956339"><ele>273.7</ele><time>2026-08-16T21:04:45Z</time></trkpt>
<trkpt lat="35.130156" lon="-84.956374"><ele>273.7</ele><time>2026-08-16T21:04:47Z</time></trkpt>
<trkpt lat="35.130155" lon="-84.95641"><ele>273.7</ele><time>2026-08-16T21:04:49Z</time></trkpt>
<trkpt lat="35.130178" lon="-84.956431"><ele>273.7</ele><time>2026-08-16T21:04:51Z</time></trkpt>
<trkpt lat="35.130221" lon="-84.956445"><ele>273.7</ele><time>2026-08-16T21:04:53Z</time></trkpt>
<trkpt lat="35.130249" lon="-84.956443"><ele>273.7</ele><time>2026-08-16T21:04:54Z</time></trkpt>
<trkpt lat="35.130288" lon="-84.956435"><ele>273.7</ele><time>2026-08-16T21:04:56Z</time></trkpt>
<trkpt lat="35.130322" lon="-84.956404"><ele>274.0</ele><time>2026-08-16T21:04:58Z</time></trkpt>
<trkpt lat="35.130354" lon="-84.956383"><ele>274.3</ele><time>2026-08-16T21:05:00Z</time></trkpt>
<trkpt lat="35.13038" lon="-84.956349"><ele>274.3</ele><time>2026-08-16T21:05:03Z</time></trkpt>
<trkpt lat="35.130394" lon="-84.956318"><ele>274.6</ele><time>2026-08-16T21:05:05Z</time></trkpt>
<trkpt lat="35.130409" lon="-84.956286"><ele>274.6</ele><time>2026-08-16T21:05:07Z</time></trkpt>
<trkpt lat="35.130413" lon="-84.956249"><ele>274.6</ele><time>2026-08-16T21:05:09Z</time></trkpt>
<trkpt lat="35.13042" lon="-84.956209"><ele>274.3</ele><time>2026-08-16T21:05:11Z</time></trkpt>
<trkpt lat="35.130432" lon="-84.956171"><ele>274.3</ele><time>2026-08-16T21:05:13Z</time></trkpt>
<trkpt lat="35.13044" lon="-84.956139"><ele>274.3</ele><time>2026-08-16T21:05:15Z</time></trkpt>
<trkpt lat="35.130445" lon="-84.956106"><ele>274.3</ele><time>2026-08-16T21:05:17Z</time></trkpt>
<trkpt lat="35.130459" lon="-84.956073"><ele>274.3</ele><time>2026-08-16T21:05:19Z</time></trkpt>
<trkpt lat="35.130468" lon="-84.956039"><ele>274.0</ele><time>2026-08-16T21:05:21Z</time></trkpt>
<trkpt lat="35.130482" lon="-84.956006"><ele>274.0</ele><time>2026-08-16T21:05:23Z</time></trkpt>
<trkpt lat="35.13049" lon="-84.955973"><ele>274.0</ele><time>2026-08-16T21:05:25Z</time></trkpt>
<trkpt lat="35.13049" lon="-84.955938"><ele>274.0</ele><time>2026-08-16T21:05:27Z</time></trkpt>
<trkpt lat="35.130486" lon="-84.955903"><ele>273.7</ele><time>2026-08-16T21:05:29Z</time></trkpt>
<trkpt lat="35.130478" lon="-84.955868"><ele>273.7</ele><time>2026-08-16T21:05:31Z</time></trkpt>
<trkpt lat="35.130475" lon="-84.955831"><ele>273.7</ele><time>2026-08-16T21:05:33Z</time></trkpt>
<trkpt lat="35.130469" lon="-84.955796"><ele>273.7</ele><time>2026-08-16T21:05:35Z</time></trkpt>
<trkpt lat="35.130489" lon="-84.955764"><ele>273.4</ele><time>2026-08-16T21:05:37Z</time></trkpt>
<trkpt lat="35.1305" lon="-84.955729"><ele>273.4</ele><time>2026-08-16T21:05:39Z</time></trkpt>
<trkpt lat="35.130503" lon="-84.955691"><ele>273.4</ele><time>2026-08-16T21:05:41Z</time></trkpt>
<trkpt lat="35.130501" lon="-84.955654"><ele>273.7</ele><time>2026-08-16T21:05:43Z</time></trkpt>
<trkpt lat="35.1305" lon="-84.955617"><ele>273.7</ele><time>2026-08-16T21:05:45Z</time></trkpt>
<trkpt lat="35.130507" lon="-84.955582"><ele>274.0</ele><time>2026-08-16T21:05:47Z</time></trkpt>
<trkpt lat="35.130522" lon="-84.955551"><ele>274.0</ele><time>2026-08-16T21:05:49Z</time></trkpt>
<trkpt lat="35.130539" lon="-84.955524"><ele>274.0</ele><time>2026-08-16T21:05:51Z</time></trkpt>
<trkpt lat="35.130557" lon="-84.95549"><ele>274.0</ele><time>2026-08-16T21:05:53Z</time></trkpt>
<trkpt lat="35.130585" lon="-84.955472"><ele>274.0</ele><time>2026-08-16T21:05:55Z</time></trkpt>
<trkpt lat="35.13061" lon="-84.955456"><ele>274.0</ele><time>2026-08-16T21:05:57Z</time></trkpt>
<trkpt lat="35.130639" lon="-84.955445"><ele>274.0</ele><time>2026-08-16T21:05:59Z</time></trkpt>
<trkpt lat="35.130669" lon="-84.955446"><ele>274.0</ele><time>2026-08-16T21:06:01Z</time></trkpt>
<trkpt lat="35.130698" lon="-84.955441"><ele>274.3</ele><time>2026-08-16T21:06:03Z</time></trkpt>
<trkpt lat="35.130728" lon="-84.955441"><ele>274.3</ele><time>2026-08-16T21:06:05Z</time></trkpt>
<trkpt lat="35.130754" lon="-84.955432"><ele>274.3</ele><time>2026-08-16T21:06:07Z</time></trkpt>
<trkpt lat="35.130784" lon="-84.955425"><ele>274.3</ele><time>2026-08-16T21:06:09Z</time></trkpt>
<trkpt lat="35.130819" lon="-84.955407"><ele>274.3</ele><time>2026-08-16T21:06:12Z</time></trkpt>
<trkpt lat="35.130844" lon="-84.955392"><ele>274.0</ele><time>2026-08-16T21:06:14Z</time></trkpt>
<trkpt lat="35.130873" lon="-84.955386"><ele>274.0</ele><time>2026-08-16T21:06:16Z</time></trkpt>
<trkpt lat="35.130909" lon="-84.955381"><ele>274.0</ele><time>2026-08-16T21:06:19Z</time></trkpt>
<trkpt lat="35.130945" lon="-84.955376"><ele>273.7</ele><time>2026-08-16T21:06:22Z</time></trkpt>
<trkpt lat="35.130983" lon="-84.955364"><ele>273.7</ele><time>2026-08-16T21:06:25Z</time></trkpt>
<trkpt lat="35.13101" lon="-84.955368"><ele>273.7</ele><time>2026-08-16T21:06:27Z</time></trkpt>
<trkpt lat="35.131038" lon="-84.955367"><ele>273.7</ele><time>2026-08-16T21:06:29Z</time></trkpt>
<trkpt lat="35.131065" lon="-84.955358"><ele>274.0</ele><time>2026-08-16T21:06:31Z</time></trkpt>
<trkpt lat="35.131092" lon="-84.955347"><ele>273.7</ele><time>2026-08-16T21:06:33Z</time></trkpt>
<trkpt lat="35.131113" lon="-84.955325"><ele>273.7</ele><time>2026-08-16T21:06:35Z</time></trkpt>
<trkpt lat="35.131133" lon="-84.955298"><ele>274.0</ele><time>2026-08-16T21:06:37Z</time></trkpt>
<trkpt lat="35.131154" lon="-84.95527"><ele>274.0</ele><time>2026-08-16T21:06:39Z</time></trkpt>
<trkpt lat="35.131171" lon="-84.955241"><ele>274.0</ele><time>2026-08-16T21:06:41Z</time></trkpt>
<trkpt lat="35.131194" lon="-84.955218"><ele>274.0</ele><time>2026-08-16T21:06:43Z</time></trkpt>
<trkpt lat="35.131222" lon="-84.955182"><ele>274.0</ele><time>2026-08-16T21:06:46Z</time></trkpt>
<trkpt lat="35.131248" lon="-84.955144"><ele>274.0</ele><time>2026-08-16T21:06:49Z</time></trkpt>
<trkpt lat="35.131268" lon="-84.955104"><ele>273.7</ele><time>2026-08-16T21:06:52Z</time></trkpt>
<trkpt lat="35.1313" lon="-84.955075"><ele>273.4</ele><time>2026-08-16T21:06:55Z</time></trkpt>
<trkpt lat="35.131333" lon="-84.955049"><ele>273.4</ele><time>2026-08-16T21:06:58Z</time></trkpt>
<trkpt lat="35.13136" lon="-84.955039"><ele>273.4</ele><time>2026-08-16T21:07:00Z</time></trkpt>
<trkpt lat="35.131387" lon="-84.955027"><ele>273.1</ele><time>2026-08-16T21:07:02Z</time></trkpt>
<trkpt lat="35.131413" lon="-84.955012"><ele>273.1</ele><time>2026-08-16T21:07:04Z</time></trkpt>
<trkpt lat="35.131444" lon="-84.954994"><ele>273.1</ele><time>2026-08-16T21:07:06Z</time></trkpt>
<trkpt lat="35.131474" lon="-84.954987"><ele>273.1</ele><time>2026-08-16T21:07:08Z</time></trkpt>
<trkpt lat="35.131504" lon="-84.954981"><ele>273.1</ele><time>2026-08-16T21:07:10Z</time></trkpt>
<trkpt lat="35.131545" lon="-84.954991"><ele>273.1</ele><time>2026-08-16T21:07:13Z</time></trkpt>
<trkpt lat="35.131574" lon="-84.954984"><ele>273.1</ele><time>2026-08-16T21:07:15Z</time></trkpt>
<trkpt lat="35.131599" lon="-84.954964"><ele>273.4</ele><time>2026-08-16T21:07:17Z</time></trkpt>
<trkpt lat="35.131623" lon="-84.954942"><ele>273.4</ele><time>2026-08-16T21:07:19Z</time></trkpt>
<trkpt lat="35.131647" lon="-84.954921"><ele>273.4</ele><time>2026-08-16T21:07:21Z</time></trkpt>
<trkpt lat="35.131679" lon="-84.954891"><ele>273.7</ele><time>2026-08-16T21:07:24Z</time></trkpt>
<trkpt lat="35.131704" lon="-84.954857"><ele>273.7</ele><time>2026-08-16T21:07:27Z</time></trkpt>
<trkpt lat="35.131738" lon="-84.954832"><ele>273.4</ele><time>2026-08-16T21:07:30Z</time></trkpt>
<trkpt lat="35.131779" lon="-84.954824"><ele>273.4</ele><time>2026-08-16T21:07:33Z</time></trkpt>
<trkpt lat="35.131812" lon="-84.954828"><ele>273.1</ele><time>2026-08-16T21:07:35Z</time></trkpt>
<trkpt lat="35.131855" lon="-84.954827"><ele>273.1</ele><time>2026-08-16T21:07:37Z</time></trkpt>
<trkpt lat="35.13189" lon="-84.954843"><ele>272.8</ele><time>2026-08-16T21:07:39Z</time></trkpt>
<trkpt lat="35.131912" lon="-84.954863"><ele>272.8</ele><time>2026-08-16T21:07:41Z</time></trkpt>
<trkpt lat="35.131932" lon="-84.954895"><ele>272.8</ele><time>2026-08-16T21:07:43Z</time></trkpt>
<trkpt lat="35.131946" lon="-84.954926"><ele>272.5</ele><time>2026-08-16T21:07:45Z</time></trkpt>
<trkpt lat="35.131957" lon="-84.954973"><ele>272.5</ele><time>2026-08-16T21:07:48Z</time></trkpt>
<trkpt lat="35.131969" lon="-84.95502"><ele>272.2</ele><time>2026-08-16T21:07:51Z</time></trkpt>
<trkpt lat="35.131975" lon="-84.955053"><ele>272.2</ele><time>2026-08-16T21:07:53Z</time></trkpt>
<trkpt lat="35.131977" lon="-84.955088"><ele>272.2</ele><time>2026-08-16T21:07:55Z</time></trkpt>
<trkpt lat="35.131983" lon="-84.955121"><ele>272.2</ele><time>2026-08-16T21:07:57Z</time></trkpt>
<trkpt lat="35.131989" lon="-84.955156"><ele>272.2</ele><time>2026-08-16T21:07:59Z</time></trkpt>
<trkpt lat="35.132001" lon="-84.955192"><ele>271.9</ele><time>2026-08-16T21:08:02Z</time></trkpt>
<trkpt lat="35.132029" lon="-84.955171"><ele>271.9</ele><time>2026-08-16T21:08:03Z</time></trkpt>
<trkpt lat="35.132052" lon="-84.95514"><ele>271.6</ele><time>2026-08-16T21:08:05Z</time></trkpt>
<trkpt lat="35.132067" lon="-84.955104"><ele>271.6</ele><time>2026-08-16T21:08:07Z</time></trkpt>
<trkpt lat="35.132088" lon="-84.955065"><ele>271.3</ele><time>2026-08-16T21:08:09Z</time></trkpt>
<trkpt lat="35.132099" lon="-84.955028"><ele>271.3</ele><time>2026-08-16T21:08:11Z</time></trkpt>
<trkpt lat="35.13211" lon="-84.954988"><ele>271.0</ele><time>2026-08-16T21:08:13Z</time></trkpt>
<trkpt lat="35.132129" lon="-84.954951"><ele>271.0</ele><time>2026-08-16T21:08:15Z</time></trkpt>
<trkpt lat="35.132146" lon="-84.954914"><ele>271.0</ele><time>2026-08-16T21:08:17Z</time></trkpt>
<trkpt lat="35.132161" lon="-84.954878"><ele>270.7</ele><time>2026-08-16T21:08:19Z</time></trkpt>
<trkpt lat="35.132168" lon="-84.954844"><ele>270.7</ele><time>2026-08-16T21:08:21Z</time></trkpt>
<trkpt lat="35.132195" lon="-84.954817"><ele>270.7</ele><time>2026-08-16T21:08:23Z</time></trkpt>
<trkpt lat="35.132229" lon="-84.954812"><ele>270.7</ele><time>2026-08-16T21:08:25Z</time></trkpt>
<trkpt lat="35.132261" lon="-84.954808"><ele>270.7</ele><time>2026-08-16T21:08:27Z</time></trkpt>
<trkpt lat="35.132292" lon="-84.954817"><ele>270.7</ele><time>2026-08-16T21:08:29Z</time></trkpt>
<trkpt lat="35.132323" lon="-84.954827"><ele>270.7</ele><time>2026-08-16T21:08:31Z</time></trkpt>
<trkpt lat="35.132353" lon="-84.95485"><ele>270.4</ele><time>2026-08-16T21:08:34Z</time></trkpt>
<trkpt lat="35.132382" lon="-84.954875"><ele>270.7</ele><time>2026-08-16T21:08:37Z</time></trkpt>
<trkpt lat="35.132411" lon="-84.95487"><ele>270.7</ele><time>2026-08-16T21:08:39Z</time></trkpt>
<trkpt lat="35.132425" lon="-84.954833"><ele>270.7</ele><time>2026-08-16T21:08:41Z</time></trkpt>
<trkpt lat="35.13242" lon="-84.954799"><ele>270.7</ele><time>2026-08-16T21:08:43Z</time></trkpt>
<trkpt lat="35.132407" lon="-84.954766"><ele>270.7</ele><time>2026-08-16T21:08:45Z</time></trkpt>
<trkpt lat="35.132399" lon="-84.954732"><ele>270.7</ele><time>2026-08-16T21:08:47Z</time></trkpt>
<trkpt lat="35.13239" lon="-84.954697"><ele>270.7</ele><time>2026-08-16T21:08:49Z</time></trkpt>
<trkpt lat="35.132386" lon="-84.954648"><ele>270.7</ele><time>2026-08-16T21:08:52Z</time></trkpt>
<trkpt lat="35.132391" lon="-84.954614"><ele>270.7</ele><time>2026-08-16T21:08:54Z</time></trkpt>
<trkpt lat="35.132409" lon="-84.954583"><ele>270.4</ele><time>2026-08-16T21:08:56Z</time></trkpt>
<trkpt lat="35.132434" lon="-84.954559"><ele>270.7</ele><time>2026-08-16T21:08:58Z</time></trkpt>
<trkpt lat="35.132468" lon="-84.954556"><ele>271.0</ele><time>2026-08-16T21:09:00Z</time></trkpt>
<trkpt lat="35.132492" lon="-84.954537"><ele>271.0</ele><time>2026-08-16T21:09:02Z</time></trkpt>
<trkpt lat="35.132522" lon="-84.95453"><ele>271.0</ele><time>2026-08-16T21:09:04Z</time></trkpt>
<trkpt lat="35.13255" lon="-84.954526"><ele>271.0</ele><time>2026-08-16T21:09:06Z</time></trkpt>
<trkpt lat="35.132578" lon="-84.954525"><ele>271.0</ele><time>2026-08-16T21:09:08Z</time></trkpt>
<trkpt lat="35.132609" lon="-84.954539"><ele>271.0</ele><time>2026-08-16T21:09:11Z</time></trkpt>
<trkpt lat="35.132641" lon="-84.954551"><ele>271.0</ele><time>2026-08-16T21:09:14Z</time></trkpt>
<trkpt lat="35.132678" lon="-84.954561"><ele>271.3</ele><time>2026-08-16T21:09:17Z</time></trkpt>
<trkpt lat="35.132719" lon="-84.954574"><ele>271.3</ele><time>2026-08-16T21:09:20Z</time></trkpt>
<trkpt lat="35.132747" lon="-84.954583"><ele>271.3</ele><time>2026-08-16T21:09:22Z</time></trkpt>
<trkpt lat="35.132778" lon="-84.954581"><ele>271.0</ele><time>2026-08-16T21:09:24Z</time></trkpt>
<trkpt lat="35.132809" lon="-84.954581"><ele>271.0</ele><time>2026-08-16T21:09:26Z</time></trkpt>
<trkpt lat="35.132842" lon="-84.954581"><ele>271.0</ele><time>2026-08-16T21:09:28Z</time></trkpt>
<trkpt lat="35.132874" lon="-84.954579"><ele>270.7</ele><time>2026-08-16T21:09:30Z</time></trkpt>
<trkpt lat="35.132903" lon="-84.954582"><ele>270.7</ele><time>2026-08-16T21:09:32Z</time></trkpt>
<trkpt lat="35.132931" lon="-84.954592"><ele>270.7</ele><time>2026-08-16T21:09:34Z</time></trkpt>
<trkpt lat="35.132961" lon="-84.954604"><ele>270.7</ele><time>2026-08-16T21:09:36Z</time></trkpt>
<trkpt lat="35.132988" lon="-84.954616"><ele>270.7</ele><time>2026-08-16T21:09:38Z</time></trkpt>
<trkpt lat="35.133026" lon="-84.954626"><ele>271.0</ele><time>2026-08-16T21:09:41Z</time></trkpt>
<trkpt lat="35.133058" lon="-84.954647"><ele>271.0</ele><time>2026-08-16T21:09:44Z</time></trkpt>
<trkpt lat="35.13309" lon="-84.954678"><ele>271.3</ele><time>2026-08-16T21:09:47Z</time></trkpt>
<trkpt lat="35.133103" lon="-84.954712"><ele>271.3</ele><time>2026-08-16T21:09:49Z</time></trkpt>
<trkpt lat="35.133105" lon="-84.954746"><ele>271.0</ele><time>2026-08-16T21:09:51Z</time></trkpt>
<trkpt lat="35.1331" lon="-84.954782"><ele>271.0</ele><time>2026-08-16T21:09:53Z</time></trkpt>
<trkpt lat="35.133097" lon="-84.954817"><ele>270.7</ele><time>2026-08-16T21:09:55Z</time></trkpt>
<trkpt lat="35.133098" lon="-84.954852"><ele>270.7</ele><time>2026-08-16T21:09:57Z</time></trkpt>
<trkpt lat="35.133097" lon="-84.954891"><ele>270.7</ele><time>2026-08-16T21:09:59Z</time></trkpt>
<trkpt lat="35.133092" lon="-84.95493"><ele>270.7</ele><time>2026-08-16T21:10:01Z</time></trkpt>
<trkpt lat="35.133082" lon="-84.954968"><ele>270.7</ele><time>2026-08-16T21:10:03Z</time></trkpt>
<trkpt lat="35.133077" lon="-84.955004"><ele>270.7</ele><time>2026-08-16T21:10:05Z</time></trkpt>
<trkpt lat="35.133068" lon="-84.95504"><ele>270.7</ele><time>2026-08-16T21:10:07Z</time></trkpt>
<trkpt lat="35.133063" lon="-84.955077"><ele>270.7</ele><time>2026-08-16T21:10:09Z</time></trkpt>
<trkpt lat="35.133062" lon="-84.955114"><ele>270.7</ele><time>2026-08-16T21:10:11Z</time></trkpt>
<trkpt lat="35.133055" lon="-84.955151"><ele>270.4</ele><time>2026-08-16T21:10:13Z</time></trkpt>
<trkpt lat="35.133054" lon="-84.955189"><ele>270.1</ele><time>2026-08-16T21:10:15Z</time></trkpt>
<trkpt lat="35.133068" lon="-84.955219"><ele>270.1</ele><time>2026-08-16T21:10:17Z</time></trkpt>
<trkpt lat="35.13309" lon="-84.955243"><ele>269.7</ele><time>2026-08-16T21:10:19Z</time></trkpt>
<trkpt lat="35.133126" lon="-84.955249"><ele>269.7</ele><time>2026-08-16T21:10:21Z</time></trkpt>
<trkpt lat="35.133159" lon="-84.955231"><ele>269.7</ele><time>2026-08-16T21:10:23Z</time></trkpt>
<trkpt lat="35.133186" lon="-84.955207"><ele>269.7</ele><time>2026-08-16T21:10:25Z</time></trkpt>
<trkpt lat="35.133207" lon="-84.955178"><ele>269.4</ele><time>2026-08-16T21:10:27Z</time></trkpt>
<trkpt lat="35.133217" lon="-84.95514"><ele>269.4</ele><time>2026-08-16T21:10:29Z</time></trkpt>
<trkpt lat="35.133229" lon="-84.955105"><ele>269.1</ele><time>2026-08-16T21:10:31Z</time></trkpt>
<trkpt lat="35.133241" lon="-84.955069"><ele>268.8</ele><time>2026-08-16T21:10:33Z</time></trkpt>
<trkpt lat="35.133249" lon="-84.955034"><ele>268.8</ele><time>2026-08-16T21:10:35Z</time></trkpt>
<trkpt lat="35.133257" lon="-84.954998"><ele>268.8</ele><time>2026-08-16T21:10:37Z</time></trkpt>
<trkpt lat="35.133266" lon="-84.954964"><ele>268.8</ele><time>2026-08-16T21:10:39Z</time></trkpt>
<trkpt lat="35.133284" lon="-84.954918"><ele>268.5</ele><time>2026-08-16T21:10:42Z</time></trkpt>
<trkpt lat="35.133306" lon="-84.954888"><ele>268.5</ele><time>2026-08-16T21:10:44Z</time></trkpt>
<trkpt lat="35.133323" lon="-84.954858"><ele>268.5</ele><time>2026-08-16T21:10:46Z</time></trkpt>
<trkpt lat="35.133336" lon="-84.954826"><ele>268.5</ele><time>2026-08-16T21:10:48Z</time></trkpt>
<trkpt lat="35.133351" lon="-84.954797"><ele>268.5</ele><time>2026-08-16T21:10:50Z</time></trkpt>
<trkpt lat="35.133366" lon="-84.95477"><ele>268.5</ele><time>2026-08-16T21:10:52Z</time></trkpt>
<trkpt lat="35.133392" lon="-84.954746"><ele>268.8</ele><time>2026-08-16T21:10:54Z</time></trkpt>
<trkpt lat="35.133417" lon="-84.954725"><ele>268.5</ele><time>2026-08-16T21:10:56Z</time></trkpt>
<trkpt lat="35.133432" lon="-84.954696"><ele>268.5</ele><time>2026-08-16T21:10:58Z</time></trkpt>
<trkpt lat="35.13345" lon="-84.954666"><ele>268.2</ele><time>2026-08-16T21:11:00Z</time></trkpt>
<trkpt lat="35.133472" lon="-84.954645"><ele>268.2</ele><time>2026-08-16T21:11:02Z</time></trkpt>
<trkpt lat="35.133501" lon="-84.954636"><ele>268.2</ele><time>2026-08-16T21:11:04Z</time></trkpt>
<trkpt lat="35.133531" lon="-84.954637"><ele>268.2</ele><time>2026-08-16T21:11:06Z</time></trkpt>
<trkpt lat="35.133562" lon="-84.954642"><ele>268.2</ele><time>2026-08-16T21:11:08Z</time></trkpt>
<trkpt lat="35.133592" lon="-84.954649"><ele>268.2</ele><time>2026-08-16T21:11:10Z</time></trkpt>
<trkpt lat="35.133621" lon="-84.954648"><ele>267.9</ele><time>2026-08-16T21:11:12Z</time></trkpt>
<trkpt lat="35.133661" lon="-84.95465"><ele>267.6</ele><time>2026-08-16T21:11:15Z</time></trkpt>
<trkpt lat="35.1337" lon="-84.954659"><ele>267.3</ele><time>2026-08-16T21:11:18Z</time></trkpt>
<trkpt lat="35.133728" lon="-84.954656"><ele>267.3</ele><time>2026-08-16T21:11:20Z</time></trkpt>
<trkpt lat="35.133769" lon="-84.954654"><ele>267.0</ele><time>2026-08-16T21:11:23Z</time></trkpt>
<trkpt lat="35.133808" lon="-84.954653"><ele>267.0</ele><time>2026-08-16T21:11:26Z</time></trkpt>
<trkpt lat="35.133845" lon="-84.954632"><ele>266.7</ele><time>2026-08-16T21:11:29Z</time></trkpt>
<trkpt lat="35.133868" lon="-84.954609"><ele>266.4</ele><time>2026-08-16T21:11:31Z</time></trkpt>
<trkpt lat="35.133891" lon="-84.954583"><ele>265.8</ele><time>2026-08-16T21:11:33Z</time></trkpt>
<trkpt lat="35.133908" lon="-84.954552"><ele>265.8</ele><time>2026-08-16T21:11:35Z</time></trkpt>
<trkpt lat="35.133919" lon="-84.954518"><ele>265.5</ele><time>2026-08-16T21:11:37Z</time></trkpt>
<trkpt lat="35.133928" lon="-84.954485"><ele>265.5</ele><time>2026-08-16T21:11:39Z</time></trkpt>
<trkpt lat="35.133946" lon="-84.954458"><ele>265.2</ele><time>2026-08-16T21:11:41Z</time></trkpt>
<trkpt lat="35.133969" lon="-84.954416"><ele>265.2</ele><time>2026-08-16T21:11:44Z</time></trkpt>
<trkpt lat="35.133981" lon="-84.954385"><ele>264.9</ele><time>2026-08-16T21:11:46Z</time></trkpt>
<trkpt lat="35.133996" lon="-84.954356"><ele>264.9</ele><time>2026-08-16T21:11:48Z</time></trkpt>
<trkpt lat="35.134014" lon="-84.954329"><ele>264.9</ele><time>2026-08-16T21:11:50Z</time></trkpt>
<trkpt lat="35.134034" lon="-84.954303"><ele>264.9</ele><time>2026-08-16T21:11:52Z</time></trkpt>
<trkpt lat="35.134055" lon="-84.954277"><ele>265.2</ele><time>2026-08-16T21:11:54Z</time></trkpt>
<trkpt lat="35.134075" lon="-84.954254"><ele>265.2</ele><time>2026-08-16T21:11:56Z</time></trkpt>
<trkpt lat="35.134104" lon="-84.954222"><ele>265.2</ele><time>2026-08-16T21:11:59Z</time></trkpt>
<trkpt lat="35.134124" lon="-84.954198"><ele>265.2</ele><time>2026-08-16T21:12:01Z</time></trkpt>
<trkpt lat="35.134146" lon="-84.954173"><ele>265.5</ele><time>2026-08-16T21:12:03Z</time></trkpt>
<trkpt lat="35.134168" lon="-84.954149"><ele>265.5</ele><time>2026-08-16T21:12:05Z</time></trkpt>
<trkpt lat="35.1342" lon="-84.954122"><ele>265.8</ele><time>2026-08-16T21:12:08Z</time></trkpt>
<trkpt lat="35.134236" lon="-84.954101"><ele>266.1</ele><time>2026-08-16T21:12:11Z</time></trkpt>
<trkpt lat="35.134271" lon="-84.954087"><ele>266.1</ele><time>2026-08-16T21:12:14Z</time></trkpt>
<trkpt lat="35.134311" lon="-84.954083"><ele>266.4</ele><time>2026-08-16T21:12:17Z</time></trkpt>
<trkpt lat="35.134341" lon="-84.954096"><ele>266.4</ele><time>2026-08-16T21:12:19Z</time></trkpt>
<trkpt lat="35.134382" lon="-84.954115"><ele>266.7</ele><time>2026-08-16T21:12:22Z</time></trkpt>
<trkpt lat="35.13441" lon="-84.954133"><ele>267.0</ele><time>2026-08-16T21:12:24Z</time></trkpt>
<trkpt lat="35.134438" lon="-84.954149"><ele>267.3</ele><time>2026-08-16T21:12:26Z</time></trkpt>
<trkpt lat="35.134464" lon="-84.954162"><ele>267.6</ele><time>2026-08-16T21:12:28Z</time></trkpt>
<trkpt lat="35.134503" lon="-84.954174"><ele>267.6</ele><time>2026-08-16T21:12:31Z</time></trkpt>
<trkpt lat="35.134532" lon="-84.954178"><ele>267.9</ele><time>2026-08-16T21:12:33Z</time></trkpt>
<trkpt lat="35.134574" lon="-84.954184"><ele>268.2</ele><time>2026-08-16T21:12:36Z</time></trkpt>
<trkpt lat="35.134613" lon="-84.954185"><ele>268.5</ele><time>2026-08-16T21:12:39Z</time></trkpt>
<trkpt lat="35.134641" lon="-84.954194"><ele>268.5</ele><time>2026-08-16T21:12:42Z</time></trkpt>
<trkpt lat="35.134676" lon="-84.954202"><ele>268.5</ele><time>2026-08-16T21:12:45Z</time></trkpt>
<trkpt lat="35.134717" lon="-84.954196"><ele>268.5</ele><time>2026-08-16T21:12:48Z</time></trkpt>
<trkpt lat="35.134743" lon="-84.954182"><ele>268.8</ele><time>2026-08-16T21:12:50Z</time></trkpt>
<trkpt lat="35.134768" lon="-84.95416"><ele>268.8</ele><time>2026-08-16T21:12:52Z</time></trkpt>
<trkpt lat="35.134791" lon="-84.954135"><ele>269.1</ele><time>2026-08-16T21:12:54Z</time></trkpt>
<trkpt lat="35.134813" lon="-84.954113"><ele>269.1</ele><time>2026-08-16T21:12:56Z</time></trkpt>
<trkpt lat="35.134847" lon="-84.954087"><ele>269.1</ele><time>2026-08-16T21:12:59Z</time></trkpt>
<trkpt lat="35.134872" lon="-84.954071"><ele>269.1</ele><time>2026-08-16T21:13:01Z</time></trkpt>
<trkpt lat="35.134896" lon="-84.954052"><ele>269.4</ele><time>2026-08-16T21:13:03Z</time></trkpt>
<trkpt lat="35.134921" lon="-84.954034"><ele>269.4</ele><time>2026-08-16T21:13:05Z</time></trkpt>
<trkpt lat="35.134945" lon="-84.954014"><ele>269.4</ele><time>2026-08-16T21:13:07Z</time></trkpt>
<trkpt lat="35.134965" lon="-84.95399"><ele>269.4</ele><time>2026-08-16T21:13:09Z</time></trkpt>
<trkpt lat="35.134998" lon="-84.953989"><ele>269.4</ele><time>2026-08-16T21:13:11Z</time></trkpt>
<trkpt lat="35.135019" lon="-84.954015"><ele>269.7</ele><time>2026-08-16T21:13:13Z</time></trkpt>
<trkpt lat="35.135014" lon="-84.95405"><ele>270.1</ele><time>2026-08-16T21:13:15Z</time></trkpt>
<trkpt lat="35.13501" lon="-84.954088"><ele>270.4</ele><time>2026-08-16T21:13:17Z</time></trkpt>
<trkpt lat="35.135011" lon="-84.954122"><ele>270.7</ele><time>2026-08-16T21:13:19Z</time></trkpt>
<trkpt lat="35.135028" lon="-84.954165"><ele>271.0</ele><time>2026-08-16T21:13:22Z</time></trkpt>
<trkpt lat="35.135051" lon="-84.954186"><ele>271.0</ele><time>2026-08-16T21:13:24Z</time></trkpt>
<trkpt lat="35.135076" lon="-84.954202"><ele>271.3</ele><time>2026-08-16T21:13:26Z</time></trkpt>
<trkpt lat="35.135108" lon="-84.954202"><ele>271.3</ele><time>2026-08-16T21:13:28Z</time></trkpt>
<trkpt lat="35.135136" lon="-84.954204"><ele>271.6</ele><time>2026-08-16T21:13:30Z</time></trkpt>
<trkpt lat="35.135165" lon="-84.95419"><ele>271.9</ele><time>2026-08-16T21:13:32Z</time></trkpt>
<trkpt lat="35.135194" lon="-84.954173"><ele>271.9</ele><time>2026-08-16T21:13:34Z</time></trkpt>
<trkpt lat="35.135219" lon="-84.954154"><ele>272.2</ele><time>2026-08-16T21:13:36Z</time></trkpt>
<trkpt lat="35.135246" lon="-84.954142"><ele>272.2</ele><time>2026-08-16T21:13:38Z</time></trkpt>
<trkpt lat="35.135275" lon="-84.95413"><ele>272.2</ele><time>2026-08-16T21:13:40Z</time></trkpt>
<trkpt lat="35.135297" lon="-84.95411"><ele>272.5</ele><time>2026-08-16T21:13:42Z</time></trkpt>
<trkpt lat="35.13532" lon="-84.954085"><ele>272.5</ele><time>2026-08-16T21:13:44Z</time></trkpt>
<trkpt lat="35.135302" lon="-84.954042"><ele>272.8</ele><time>2026-08-16T21:13:47Z</time></trkpt>
<trkpt lat="35.135272" lon="-84.954073"><ele>272.8</ele><time>2026-08-16T21:13:49Z</time></trkpt>
<trkpt lat="35.135265" lon="-84.95411"><ele>272.8</ele><time>2026-08-16T21:13:51Z</time></trkpt>
<trkpt lat="35.135247" lon="-84.954138"><ele>272.8</ele><time>2026-08-16T21:13:53Z</time></trkpt>
<trkpt lat="35.135224" lon="-84.95416"><ele>272.5</ele><time>2026-08-16T21:13:55Z</time></trkpt>
<trkpt lat="35.135197" lon="-84.954176"><ele>272.2</ele><time>2026-08-16T21:13:57Z</time></trkpt>
<trkpt lat="35.135174" lon="-84.954197"><ele>272.2</ele><time>2026-08-16T21:13:59Z</time></trkpt>
<trkpt lat="35.135143" lon="-84.954212"><ele>271.9</ele><time>2026-08-16T21:14:01Z</time></trkpt>
<trkpt lat="35.135116" lon="-84.954226"><ele>271.6</ele><time>2026-08-16T21:14:03Z</time></trkpt>
<trkpt lat="35.135081" lon="-84.954221"><ele>271.3</ele><time>2026-08-16T21:14:05Z</time></trkpt>
<trkpt lat="35.135048" lon="-84.954208"><ele>271.0</ele><time>2026-08-16T21:14:07Z</time></trkpt>
<trkpt lat="35.135024" lon="-84.954183"><ele>271.0</ele><time>2026-08-16T21:14:09Z</time></trkpt>
<trkpt lat="35.135009" lon="-84.954154"><ele>271.3</ele><time>2026-08-16T21:14:11Z</time></trkpt>
<trkpt lat="35.134991" lon="-84.95411"><ele>271.0</ele><time>2026-08-16T21:14:14Z</time></trkpt>
<trkpt lat="35.134991" lon="-84.954059"><ele>270.4</ele><time>2026-08-16T21:14:17Z</time></trkpt>
<trkpt lat="35.134984" lon="-84.954022"><ele>270.4</ele><time>2026-08-16T21:14:19Z</time></trkpt>
<trkpt lat="35.134968" lon="-84.953991"><ele>270.1</ele><time>2026-08-16T21:14:21Z</time></trkpt>
<trkpt lat="35.134933" lon="-84.953981"><ele>270.1</ele><time>2026-08-16T21:14:23Z</time></trkpt>
<trkpt lat="35.134903" lon="-84.954006"><ele>269.7</ele><time>2026-08-16T21:14:25Z</time></trkpt>
<trkpt lat="35.134882" lon="-84.954037"><ele>269.7</ele><time>2026-08-16T21:14:27Z</time></trkpt>
<trkpt lat="35.134857" lon="-84.954059"><ele>269.7</ele><time>2026-08-16T21:14:29Z</time></trkpt>
<trkpt lat="35.134827" lon="-84.954071"><ele>269.4</ele><time>2026-08-16T21:14:31Z</time></trkpt>
<trkpt lat="35.134798" lon="-84.954086"><ele>269.4</ele><time>2026-08-16T21:14:33Z</time></trkpt>
<trkpt lat="35.134769" lon="-84.954104"><ele>269.4</ele><time>2026-08-16T21:14:35Z</time></trkpt>
<trkpt lat="35.134741" lon="-84.95412"><ele>269.4</ele><time>2026-08-16T21:14:37Z</time></trkpt>
<trkpt lat="35.134713" lon="-84.954135"><ele>269.1</ele><time>2026-08-16T21:14:39Z</time></trkpt>
<trkpt lat="35.134676" lon="-84.954161"><ele>269.1</ele><time>2026-08-16T21:14:42Z</time></trkpt>
<trkpt lat="35.13465" lon="-84.954178"><ele>268.8</ele><time>2026-08-16T21:14:44Z</time></trkpt>
<trkpt lat="35.13462" lon="-84.954184"><ele>268.5</ele><time>2026-08-16T21:14:46Z</time></trkpt>
<trkpt lat="35.134591" lon="-84.954188"><ele>268.5</ele><time>2026-08-16T21:14:48Z</time></trkpt>
<trkpt lat="35.134562" lon="-84.954188"><ele>268.5</ele><time>2026-08-16T21:14:50Z</time></trkpt>
<trkpt lat="35.13452" lon="-84.954183"><ele>268.5</ele><time>2026-08-16T21:14:53Z</time></trkpt>
<trkpt lat="35.134489" lon="-84.954181"><ele>268.5</ele><time>2026-08-16T21:14:55Z</time></trkpt>
<trkpt lat="35.134461" lon="-84.954178"><ele>268.2</ele><time>2026-08-16T21:14:57Z</time></trkpt>
<trkpt lat="35.134433" lon="-84.954171"><ele>267.9</ele><time>2026-08-16T21:14:59Z</time></trkpt>
<trkpt lat="35.134397" lon="-84.954147"><ele>267.6</ele><time>2026-08-16T21:15:02Z</time></trkpt>
<trkpt lat="35.134361" lon="-84.954122"><ele>267.3</ele><time>2026-08-16T21:15:05Z</time></trkpt>
<trkpt lat="35.134333" lon="-84.954107"><ele>267.3</ele><time>2026-08-16T21:15:07Z</time></trkpt>
<trkpt lat="35.134308" lon="-84.954089"><ele>267.0</ele><time>2026-08-16T21:15:09Z</time></trkpt>
<trkpt lat="35.134267" lon="-84.954088"><ele>267.3</ele><time>2026-08-16T21:15:12Z</time></trkpt>
<trkpt lat="35.134236" lon="-84.954085"><ele>266.7</ele><time>2026-08-16T21:15:14Z</time></trkpt>
<trkpt lat="35.134206" lon="-84.954097"><ele>266.4</ele><time>2026-08-16T21:15:16Z</time></trkpt>
<trkpt lat="35.134178" lon="-84.954109"><ele>266.4</ele><time>2026-08-16T21:15:18Z</time></trkpt>
<trkpt lat="35.134152" lon="-84.954129"><ele>266.4</ele><time>2026-08-16T21:15:20Z</time></trkpt>
<trkpt lat="35.134127" lon="-84.954151"><ele>266.1</ele><time>2026-08-16T21:15:22Z</time></trkpt>
<trkpt lat="35.1341" lon="-84.954164"><ele>266.1</ele><time>2026-08-16T21:15:24Z</time></trkpt>
<trkpt lat="35.134074" lon="-84.954181"><ele>266.1</ele><time>2026-08-16T21:15:26Z</time></trkpt>
<trkpt lat="35.134051" lon="-84.954205"><ele>265.8</ele><time>2026-08-16T21:15:28Z</time></trkpt>
<trkpt lat="35.134026" lon="-84.954227"><ele>265.5</ele><time>2026-08-16T21:15:30Z</time></trkpt>
<trkpt lat="35.134004" lon="-84.954254"><ele>265.5</ele><time>2026-08-16T21:15:32Z</time></trkpt>
<trkpt lat="35.133984" lon="-84.954279"><ele>265.5</ele><time>2026-08-16T21:15:34Z</time></trkpt>
<trkpt lat="35.133963" lon="-84.954303"><ele>265.5</ele><time>2026-08-16T21:15:36Z</time></trkpt>
<trkpt lat="35.133947" lon="-84.954337"><ele>265.5</ele><time>2026-08-16T21:15:38Z</time></trkpt>
<trkpt lat="35.13393" lon="-84.954372"><ele>265.5</ele><time>2026-08-16T21:15:40Z</time></trkpt>
<trkpt lat="35.133912" lon="-84.954405"><ele>265.5</ele><time>2026-08-16T21:15:42Z</time></trkpt>
<trkpt lat="35.133896" lon="-84.954438"><ele>265.5</ele><time>2026-08-16T21:15:44Z</time></trkpt>
<trkpt lat="35.133878" lon="-84.954466"><ele>265.8</ele><time>2026-08-16T21:15:46Z</time></trkpt>
<trkpt lat="35.13386" lon="-84.954497"><ele>265.8</ele><time>2026-08-16T21:15:48Z</time></trkpt>
<trkpt lat="35.133844" lon="-84.954529"><ele>266.1</ele><time>2026-08-16T21:15:50Z</time></trkpt>
<trkpt lat="35.133828" lon="-84.954561"><ele>266.4</ele><time>2026-08-16T21:15:52Z</time></trkpt>
<trkpt lat="35.133806" lon="-84.95459"><ele>266.7</ele><time>2026-08-16T21:15:54Z</time></trkpt>
<trkpt lat="35.133783" lon="-84.954614"><ele>266.7</ele><time>2026-08-16T21:15:56Z</time></trkpt>
<trkpt lat="35.133756" lon="-84.954626"><ele>267.0</ele><time>2026-08-16T21:15:58Z</time></trkpt>
<trkpt lat="35.133719" lon="-84.954633"><ele>267.3</ele><time>2026-08-16T21:16:01Z</time></trkpt>
<trkpt lat="35.133692" lon="-84.954626"><ele>267.6</ele><time>2026-08-16T21:16:03Z</time></trkpt>
<trkpt lat="35.133651" lon="-84.954628"><ele>267.6</ele><time>2026-08-16T21:16:06Z</time></trkpt>
<trkpt lat="35.133613" lon="-84.954642"><ele>267.9</ele><time>2026-08-16T21:16:09Z</time></trkpt>
<trkpt lat="35.133576" lon="-84.954644"><ele>268.2</ele><time>2026-08-16T21:16:12Z</time></trkpt>
<trkpt lat="35.133539" lon="-84.95464"><ele>268.5</ele><time>2026-08-16T21:16:15Z</time></trkpt>
<trkpt lat="35.133501" lon="-84.954632"><ele>268.5</ele><time>2026-08-16T21:16:18Z</time></trkpt>
<trkpt lat="35.133473" lon="-84.954629"><ele>268.5</ele><time>2026-08-16T21:16:20Z</time></trkpt>
<trkpt lat="35.133444" lon="-84.954636"><ele>268.5</ele><time>2026-08-16T21:16:22Z</time></trkpt>
<trkpt lat="35.133418" lon="-84.954653"><ele>268.5</ele><time>2026-08-16T21:16:24Z</time></trkpt>
<trkpt lat="35.133393" lon="-84.954671"><ele>268.5</ele><time>2026-08-16T21:16:26Z</time></trkpt>
<trkpt lat="35.133376" lon="-84.9547"><ele>268.8</ele><time>2026-08-16T21:16:28Z</time></trkpt>
<trkpt lat="35.13336" lon="-84.95473"><ele>268.8</ele><time>2026-08-16T21:16:30Z</time></trkpt>
<trkpt lat="35.133333" lon="-84.954746"><ele>269.1</ele><time>2026-08-16T21:16:32Z</time></trkpt>
<trkpt lat="35.133309" lon="-84.954766"><ele>268.8</ele><time>2026-08-16T21:16:34Z</time></trkpt>
<trkpt lat="35.13329" lon="-84.954792"><ele>268.8</ele><time>2026-08-16T21:16:36Z</time></trkpt>
<trkpt lat="35.133275" lon="-84.954825"><ele>268.8</ele><time>2026-08-16T21:16:38Z</time></trkpt>
<trkpt lat="35.133266" lon="-84.954863"><ele>268.8</ele><time>2026-08-16T21:16:40Z</time></trkpt>
<trkpt lat="35.133251" lon="-84.954893"><ele>268.8</ele><time>2026-08-16T21:16:42Z</time></trkpt>
<trkpt lat="35.133232" lon="-84.954919"><ele>269.1</ele><time>2026-08-16T21:16:44Z</time></trkpt>
<trkpt lat="35.133214" lon="-84.954948"><ele>269.1</ele><time>2026-08-16T21:16:46Z</time></trkpt>
<trkpt lat="35.133201" lon="-84.954981"><ele>269.1</ele><time>2026-08-16T21:16:48Z</time></trkpt>
<trkpt lat="35.133196" lon="-84.955018"><ele>269.1</ele><time>2026-08-16T21:16:50Z</time></trkpt>
<trkpt lat="35.133186" lon="-84.955054"><ele>269.4</ele><time>2026-08-16T21:16:52Z</time></trkpt>
<trkpt lat="35.133174" lon="-84.955089"><ele>269.4</ele><time>2026-08-16T21:16:54Z</time></trkpt>
<trkpt lat="35.133165" lon="-84.955126"><ele>269.7</ele><time>2026-08-16T21:16:56Z</time></trkpt>
<trkpt lat="35.133159" lon="-84.955164"><ele>269.7</ele><time>2026-08-16T21:16:58Z</time></trkpt>
<trkpt lat="35.13315" lon="-84.955198"><ele>270.1</ele><time>2026-08-16T21:17:00Z</time></trkpt>
<trkpt lat="35.133127" lon="-84.955225"><ele>270.4</ele><time>2026-08-16T21:17:02Z</time></trkpt>
<trkpt lat="35.1331" lon="-84.955238"><ele>270.4</ele><time>2026-08-16T21:17:04Z</time></trkpt>
<trkpt lat="35.133069" lon="-84.955217"><ele>270.4</ele><time>2026-08-16T21:17:07Z</time></trkpt>
<trkpt lat="35.133053" lon="-84.955172"><ele>270.4</ele><time>2026-08-16T21:17:10Z</time></trkpt>
<trkpt lat="35.13305" lon="-84.955136"><ele>270.7</ele><time>2026-08-16T21:17:12Z</time></trkpt>
<trkpt lat="35.133059" lon="-84.955098"><ele>270.7</ele><time>2026-08-16T21:17:14Z</time></trkpt>
<trkpt lat="35.133068" lon="-84.955065"><ele>270.7</ele><time>2026-08-16T21:17:16Z</time></trkpt>
<trkpt lat="35.133075" lon="-84.955029"><ele>270.7</ele><time>2026-08-16T21:17:18Z</time></trkpt>
<trkpt lat="35.133084" lon="-84.954993"><ele>270.7</ele><time>2026-08-16T21:17:20Z</time></trkpt>
<trkpt lat="35.133089" lon="-84.954958"><ele>270.7</ele><time>2026-08-16T21:17:22Z</time></trkpt>
<trkpt lat="35.133097" lon="-84.954925"><ele>270.7</ele><time>2026-08-16T21:17:24Z</time></trkpt>
<trkpt lat="35.133108" lon="-84.954893"><ele>271.0</ele><time>2026-08-16T21:17:26Z</time></trkpt>
<trkpt lat="35.133113" lon="-84.954844"><ele>271.6</ele><time>2026-08-16T21:17:29Z</time></trkpt>
<trkpt lat="35.133111" lon="-84.954806"><ele>271.6</ele><time>2026-08-16T21:17:31Z</time></trkpt>
<trkpt lat="35.133113" lon="-84.954771"><ele>271.6</ele><time>2026-08-16T21:17:33Z</time></trkpt>
<trkpt lat="35.133109" lon="-84.954735"><ele>271.9</ele><time>2026-08-16T21:17:35Z</time></trkpt>
<trkpt lat="35.133099" lon="-84.954687"><ele>271.9</ele><time>2026-08-16T21:17:38Z</time></trkpt>
<trkpt lat="35.133077" lon="-84.954663"><ele>271.6</ele><time>2026-08-16T21:17:40Z</time></trkpt>
<trkpt lat="35.133048" lon="-84.954649"><ele>271.6</ele><time>2026-08-16T21:17:42Z</time></trkpt>
<trkpt lat="35.133019" lon="-84.954639"><ele>271.6</ele><time>2026-08-16T21:17:44Z</time></trkpt>
<trkpt lat="35.132989" lon="-84.954627"><ele>271.6</ele><time>2026-08-16T21:17:46Z</time></trkpt>
<trkpt lat="35.132958" lon="-84.954616"><ele>271.6</ele><time>2026-08-16T21:17:48Z</time></trkpt>
<trkpt lat="35.132929" lon="-84.954603"><ele>271.3</ele><time>2026-08-16T21:17:50Z</time></trkpt>
<trkpt lat="35.132899" lon="-84.954593"><ele>271.3</ele><time>2026-08-16T21:17:52Z</time></trkpt>
<trkpt lat="35.132866" lon="-84.954585"><ele>271.3</ele><time>2026-08-16T21:17:54Z</time></trkpt>
<trkpt lat="35.132835" lon="-84.954579"><ele>271.3</ele><time>2026-08-16T21:17:56Z</time></trkpt>
<trkpt lat="35.132803" lon="-84.954574"><ele>271.3</ele><time>2026-08-16T21:17:58Z</time></trkpt>
<trkpt lat="35.13277" lon="-84.954577"><ele>271.3</ele><time>2026-08-16T21:18:00Z</time></trkpt>
<trkpt lat="35.132737" lon="-84.954577"><ele>271.3</ele><time>2026-08-16T21:18:02Z</time></trkpt>
<trkpt lat="35.132707" lon="-84.954573"><ele>271.6</ele><time>2026-08-16T21:18:04Z</time></trkpt>
<trkpt lat="35.132679" lon="-84.954562"><ele>271.6</ele><time>2026-08-16T21:18:06Z</time></trkpt>
<trkpt lat="35.132648" lon="-84.954555"><ele>271.6</ele><time>2026-08-16T21:18:08Z</time></trkpt>
<trkpt lat="35.132618" lon="-84.954548"><ele>271.6</ele><time>2026-08-16T21:18:10Z</time></trkpt>
<trkpt lat="35.132588" lon="-84.954534"><ele>271.6</ele><time>2026-08-16T21:18:12Z</time></trkpt>
<trkpt lat="35.132558" lon="-84.954524"><ele>271.6</ele><time>2026-08-16T21:18:14Z</time></trkpt>
<trkpt lat="35.132527" lon="-84.954515"><ele>271.3</ele><time>2026-08-16T21:18:16Z</time></trkpt>
<trkpt lat="35.132496" lon="-84.954516"><ele>271.3</ele><time>2026-08-16T21:18:18Z</time></trkpt>
<trkpt lat="35.132465" lon="-84.954522"><ele>271.3</ele><time>2026-08-16T21:18:20Z</time></trkpt>
<trkpt lat="35.132435" lon="-84.954531"><ele>271.3</ele><time>2026-08-16T21:18:22Z</time></trkpt>
<trkpt lat="35.132407" lon="-84.954542"><ele>271.3</ele><time>2026-08-16T21:18:24Z</time></trkpt>
<trkpt lat="35.13238" lon="-84.954554"><ele>271.3</ele><time>2026-08-16T21:18:26Z</time></trkpt>
<trkpt lat="35.132355" lon="-84.954579"><ele>271.3</ele><time>2026-08-16T21:18:28Z</time></trkpt>
<trkpt lat="35.132335" lon="-84.954611"><ele>271.3</ele><time>2026-08-16T21:18:30Z</time></trkpt>
<trkpt lat="35.132328" lon="-84.954661"><ele>271.6</ele><time>2026-08-16T21:18:32Z</time></trkpt>
<trkpt lat="35.132329" lon="-84.954703"><ele>271.6</ele><time>2026-08-16T21:18:34Z</time></trkpt>
<trkpt lat="35.132336" lon="-84.95474"><ele>271.6</ele><time>2026-08-16T21:18:36Z</time></trkpt>
<trkpt lat="35.132345" lon="-84.954776"><ele>271.3</ele><time>2026-08-16T21:18:38Z</time></trkpt>
<trkpt lat="35.132356" lon="-84.954809"><ele>271.0</ele><time>2026-08-16T21:18:40Z</time></trkpt>
<trkpt lat="35.132365" lon="-84.954843"><ele>271.0</ele><time>2026-08-16T21:18:42Z</time></trkpt>
<trkpt lat="35.132357" lon="-84.954882"><ele>271.3</ele><time>2026-08-16T21:18:44Z</time></trkpt>
<trkpt lat="35.132338" lon="-84.954908"><ele>271.3</ele><time>2026-08-16T21:18:46Z</time></trkpt>
<trkpt lat="35.132305" lon="-84.954907"><ele>271.6</ele><time>2026-08-16T21:18:49Z</time></trkpt>
<trkpt lat="35.132282" lon="-84.954888"><ele>271.6</ele><time>2026-08-16T21:18:51Z</time></trkpt>
<trkpt lat="35.132248" lon="-84.95487"><ele>271.6</ele><time>2026-08-16T21:18:54Z</time></trkpt>
<trkpt lat="35.132208" lon="-84.954863"><ele>271.6</ele><time>2026-08-16T21:18:57Z</time></trkpt>
<trkpt lat="35.132179" lon="-84.954858"><ele>271.3</ele><time>2026-08-16T21:18:59Z</time></trkpt>
<trkpt lat="35.13214" lon="-84.954872"><ele>271.3</ele><time>2026-08-16T21:19:02Z</time></trkpt>
<trkpt lat="35.132119" lon="-84.954895"><ele>271.3</ele><time>2026-08-16T21:19:04Z</time></trkpt>
<trkpt lat="35.132106" lon="-84.954925"><ele>271.3</ele><time>2026-08-16T21:19:06Z</time></trkpt>
<trkpt lat="35.132097" lon="-84.954959"><ele>271.6</ele><time>2026-08-16T21:19:08Z</time></trkpt>
<trkpt lat="35.132094" lon="-84.954996"><ele>271.6</ele><time>2026-08-16T21:19:10Z</time></trkpt>
<trkpt lat="35.132089" lon="-84.955031"><ele>271.9</ele><time>2026-08-16T21:19:12Z</time></trkpt>
<trkpt lat="35.132079" lon="-84.955064"><ele>271.9</ele><time>2026-08-16T21:19:14Z</time></trkpt>
<trkpt lat="35.132071" lon="-84.955097"><ele>272.2</ele><time>2026-08-16T21:19:16Z</time></trkpt>
<trkpt lat="35.132061" lon="-84.955129"><ele>272.5</ele><time>2026-08-16T21:19:18Z</time></trkpt>
<trkpt lat="35.132045" lon="-84.955158"><ele>272.5</ele><time>2026-08-16T21:19:20Z</time></trkpt>
<trkpt lat="35.132014" lon="-84.955172"><ele>272.5</ele><time>2026-08-16T21:19:22Z</time></trkpt>
<trkpt lat="35.131988" lon="-84.955161"><ele>272.5</ele><time>2026-08-16T21:19:24Z</time></trkpt>
<trkpt lat="35.131963" lon="-84.95512"><ele>272.8</ele><time>2026-08-16T21:19:27Z</time></trkpt>
<trkpt lat="35.131961" lon="-84.955082"><ele>272.8</ele><time>2026-08-16T21:19:29Z</time></trkpt>
<trkpt lat="35.131954" lon="-84.955046"><ele>273.1</ele><time>2026-08-16T21:19:31Z</time></trkpt>
<trkpt lat="35.131943" lon="-84.955013"><ele>273.1</ele><time>2026-08-16T21:19:33Z</time></trkpt>
<trkpt lat="35.131927" lon="-84.954982"><ele>273.4</ele><time>2026-08-16T21:19:35Z</time></trkpt>
<trkpt lat="35.131914" lon="-84.954953"><ele>273.4</ele><time>2026-08-16T21:19:37Z</time></trkpt>
<trkpt lat="35.131896" lon="-84.954912"><ele>273.4</ele><time>2026-08-16T21:19:40Z</time></trkpt>
<trkpt lat="35.131876" lon="-84.954887"><ele>273.4</ele><time>2026-08-16T21:19:42Z</time></trkpt>
<trkpt lat="35.131854" lon="-84.954864"><ele>273.7</ele><time>2026-08-16T21:19:44Z</time></trkpt>
<trkpt lat="35.131828" lon="-84.954849"><ele>273.7</ele><time>2026-08-16T21:19:46Z</time></trkpt>
<trkpt lat="35.131789" lon="-84.95483"><ele>273.7</ele><time>2026-08-16T21:19:49Z</time></trkpt>
<trkpt lat="35.13176" lon="-84.954829"><ele>273.7</ele><time>2026-08-16T21:19:51Z</time></trkpt>
<trkpt lat="35.131733" lon="-84.95484"><ele>273.7</ele><time>2026-08-16T21:19:53Z</time></trkpt>
<trkpt lat="35.131706" lon="-84.954853"><ele>274.0</ele><time>2026-08-16T21:19:55Z</time></trkpt>
<trkpt lat="35.131681" lon="-84.954874"><ele>274.3</ele><time>2026-08-16T21:19:57Z</time></trkpt>
<trkpt lat="35.131654" lon="-84.954899"><ele>274.6</ele><time>2026-08-16T21:19:59Z</time></trkpt>
<trkpt lat="35.131626" lon="-84.954918"><ele>274.3</ele><time>2026-08-16T21:20:01Z</time></trkpt>
<trkpt lat="35.131605" lon="-84.954946"><ele>274.3</ele><time>2026-08-16T21:20:03Z</time></trkpt>
<trkpt lat="35.131583" lon="-84.954968"><ele>274.3</ele><time>2026-08-16T21:20:05Z</time></trkpt>
<trkpt lat="35.131552" lon="-84.95498"><ele>274.3</ele><time>2026-08-16T21:20:07Z</time></trkpt>
<trkpt lat="35.131523" lon="-84.954996"><ele>274.3</ele><time>2026-08-16T21:20:09Z</time></trkpt>
<trkpt lat="35.131497" lon="-84.955011"><ele>274.3</ele><time>2026-08-16T21:20:11Z</time></trkpt>
<trkpt lat="35.131468" lon="-84.955009"><ele>274.0</ele><time>2026-08-16T21:20:13Z</time></trkpt>
<trkpt lat="35.13143" lon="-84.954993"><ele>274.0</ele><time>2026-08-16T21:20:16Z</time></trkpt>
<trkpt lat="35.131399" lon="-84.954988"><ele>274.0</ele><time>2026-08-16T21:20:18Z</time></trkpt>
<trkpt lat="35.131369" lon="-84.954999"><ele>274.0</ele><time>2026-08-16T21:20:20Z</time></trkpt>
<trkpt lat="35.131343" lon="-84.955018"><ele>274.0</ele><time>2026-08-16T21:20:22Z</time></trkpt>
<trkpt lat="35.131314" lon="-84.955035"><ele>274.0</ele><time>2026-08-16T21:20:24Z</time></trkpt>
<trkpt lat="35.131288" lon="-84.95505"><ele>274.3</ele><time>2026-08-16T21:20:26Z</time></trkpt>
<trkpt lat="35.131261" lon="-84.955065"><ele>274.3</ele><time>2026-08-16T21:20:28Z</time></trkpt>
<trkpt lat="35.131237" lon="-84.955088"><ele>274.6</ele><time>2026-08-16T21:20:30Z</time></trkpt>
<trkpt lat="35.131215" lon="-84.955111"><ele>274.9</ele><time>2026-08-16T21:20:32Z</time></trkpt>
<trkpt lat="35.131194" lon="-84.955137"><ele>274.9</ele><time>2026-08-16T21:20:34Z</time></trkpt>
<trkpt lat="35.131177" lon="-84.955167"><ele>275.2</ele><time>2026-08-16T21:20:36Z</time></trkpt>
<trkpt lat="35.131157" lon="-84.955193"><ele>275.2</ele><time>2026-08-16T21:20:38Z</time></trkpt>
<trkpt lat="35.131124" lon="-84.955224"><ele>275.2</ele><time>2026-08-16T21:20:41Z</time></trkpt>
<trkpt lat="35.131099" lon="-84.955246"><ele>275.2</ele><time>2026-08-16T21:20:43Z</time></trkpt>
<trkpt lat="35.131079" lon="-84.955271"><ele>275.2</ele><time>2026-08-16T21:20:45Z</time></trkpt>
<trkpt lat="35.131059" lon="-84.955299"><ele>275.2</ele><time>2026-08-16T21:20:47Z</time></trkpt>
<trkpt lat="35.131037" lon="-84.955321"><ele>275.2</ele><time>2026-08-16T21:20:49Z</time></trkpt>
<trkpt lat="35.131012" lon="-84.95534"><ele>275.2</ele><time>2026-08-16T21:20:51Z</time></trkpt>
<trkpt lat="35.130973" lon="-84.955354"><ele>275.2</ele><time>2026-08-16T21:20:54Z</time></trkpt>
<trkpt lat="35.130932" lon="-84.955352"><ele>275.2</ele><time>2026-08-16T21:20:57Z</time></trkpt>
<trkpt lat="35.13089" lon="-84.955354"><ele>275.2</ele><time>2026-08-16T21:21:00Z</time></trkpt>
<trkpt lat="35.130863" lon="-84.955362"><ele>275.2</ele><time>2026-08-16T21:21:02Z</time></trkpt>
<trkpt lat="35.130834" lon="-84.955374"><ele>275.2</ele><time>2026-08-16T21:21:04Z</time></trkpt>
<trkpt lat="35.130793" lon="-84.95537"><ele>275.2</ele><time>2026-08-16T21:21:07Z</time></trkpt>
<trkpt lat="35.130755" lon="-84.955388"><ele>275.5</ele><time>2026-08-16T21:21:10Z</time></trkpt>
<trkpt lat="35.130729" lon="-84.955403"><ele>275.5</ele><time>2026-08-16T21:21:12Z</time></trkpt>
<trkpt lat="35.130701" lon="-84.955419"><ele>275.5</ele><time>2026-08-16T21:21:14Z</time></trkpt>
<trkpt lat="35.130674" lon="-84.955431"><ele>275.2</ele><time>2026-08-16T21:21:16Z</time></trkpt>
<trkpt lat="35.130644" lon="-84.955441"><ele>275.2</ele><time>2026-08-16T21:21:18Z</time></trkpt>
<trkpt lat="35.130612" lon="-84.955445"><ele>274.9</ele><time>2026-08-16T21:21:20Z</time></trkpt>
<trkpt lat="35.130584" lon="-84.955457"><ele>274.9</ele><time>2026-08-16T21:21:22Z</time></trkpt>
<trkpt lat="35.130557" lon="-84.95547"><ele>274.9</ele><time>2026-08-16T21:21:24Z</time></trkpt>
<trkpt lat="35.13053" lon="-84.955486"><ele>274.9</ele><time>2026-08-16T21:21:26Z</time></trkpt>
<trkpt lat="35.130506" lon="-84.955509"><ele>274.9</ele><time>2026-08-16T21:21:28Z</time></trkpt>
<trkpt lat="35.130487" lon="-84.955536"><ele>274.9</ele><time>2026-08-16T21:21:30Z</time></trkpt>
<trkpt lat="35.130472" lon="-84.95557"><ele>274.6</ele><time>2026-08-16T21:21:32Z</time></trkpt>
<trkpt lat="35.130458" lon="-84.955606"><ele>274.6</ele><time>2026-08-16T21:21:34Z</time></trkpt>
<trkpt lat="35.13045" lon="-84.955644"><ele>274.6</ele><time>2026-08-16T21:21:36Z</time></trkpt>
<trkpt lat="35.130449" lon="-84.955683"><ele>274.6</ele><time>2026-08-16T21:21:38Z</time></trkpt>
<trkpt lat="35.130451" lon="-84.955723"><ele>274.6</ele><time>2026-08-16T21:21:40Z</time></trkpt>
<trkpt lat="35.130448" lon="-84.955761"><ele>274.6</ele><time>2026-08-16T21:21:42Z</time></trkpt>
<trkpt lat="35.130435" lon="-84.955796"><ele>274.3</ele><time>2026-08-16T21:21:44Z</time></trkpt>
<trkpt lat="35.13042" lon="-84.95583"><ele>274.6</ele><time>2026-08-16T21:21:46Z</time></trkpt>
<trkpt lat="35.13042" lon="-84.955868"><ele>274.9</ele><time>2026-08-16T21:21:48Z</time></trkpt>
<trkpt lat="35.130424" lon="-84.955908"><ele>274.9</ele><time>2026-08-16T21:21:50Z</time></trkpt>
<trkpt lat="35.130423" lon="-84.955944"><ele>274.9</ele><time>2026-08-16T21:21:52Z</time></trkpt>
<trkpt lat="35.130426" lon="-84.955979"><ele>274.9</ele><time>2026-08-16T21:21:54Z</time></trkpt>
<trkpt lat="35.130426" lon="-84.95602"><ele>274.9</ele><time>2026-08-16T21:21:56Z</time></trkpt>
<trkpt lat="35.130419" lon="-84.956057"><ele>274.9</ele><time>2026-08-16T21:21:58Z</time></trkpt>
<trkpt lat="35.130409" lon="-84.956092"><ele>275.2</ele><time>2026-08-16T21:22:00Z</time></trkpt>
<trkpt lat="35.130399" lon="-84.956125"><ele>275.2</ele><time>2026-08-16T21:22:02Z</time></trkpt>
<trkpt lat="35.130385" lon="-84.956162"><ele>275.5</ele><time>2026-08-16T21:22:04Z</time></trkpt>
<trkpt lat="35.130375" lon="-84.956197"><ele>275.5</ele><time>2026-08-16T21:22:06Z</time></trkpt>
<trkpt lat="35.13037" lon="-84.956234"><ele>275.5</ele><time>2026-08-16T21:22:08Z</time></trkpt>
<trkpt lat="35.130356" lon="-84.956287"><ele>275.8</ele><time>2026-08-16T21:22:10Z</time></trkpt>
<trkpt lat="35.130345" lon="-84.956327"><ele>275.5</ele><time>2026-08-16T21:22:13Z</time></trkpt>
<trkpt lat="35.130322" lon="-84.956364"><ele>275.8</ele><time>2026-08-16T21:22:15Z</time></trkpt>
<trkpt lat="35.130303" lon="-84.956393"><ele>275.8</ele><time>2026-08-16T21:22:17Z</time></trkpt>
<trkpt lat="35.130275" lon="-84.956415"><ele>275.5</ele><time>2026-08-16T21:22:20Z</time></trkpt>
<trkpt lat="35.130238" lon="-84.956425"><ele>275.2</ele><time>2026-08-16T21:22:23Z</time></trkpt>
<trkpt lat="35.130205" lon="-84.956417"><ele>274.9</ele><time>2026-08-16T21:22:26Z</time></trkpt>
<trkpt lat="35.130169" lon="-84.956404"><ele>274.9</ele><time>2026-08-16T21:22:29Z</time></trkpt>
<trkpt lat="35.130154" lon="-84.956363"><ele>274.6</ele><time>2026-08-16T21:22:32Z</time></trkpt>
<trkpt lat="35.130151" lon="-84.956327"><ele>274.6</ele><time>2026-08-16T21:22:34Z</time></trkpt>
<trkpt lat="35.130147" lon="-84.956281"><ele>274.3</ele><time>2026-08-16T21:22:37Z</time></trkpt>
<trkpt lat="35.130147" lon="-84.956234"><ele>274.6</ele><time>2026-08-16T21:22:40Z</time></trkpt>
<trkpt lat="35.130146" lon="-84.956197"><ele>274.3</ele><time>2026-08-16T21:22:42Z</time></trkpt>
<trkpt lat="35.130136" lon="-84.956153"><ele>274.0</ele><time>2026-08-16T21:22:45Z</time></trkpt>
<trkpt lat="35.130111" lon="-84.95612"><ele>274.0</ele><time>2026-08-16T21:22:48Z</time></trkpt>
<trkpt lat="35.130078" lon="-84.9561"><ele>273.7</ele><time>2026-08-16T21:22:51Z</time></trkpt>
<trkpt lat="35.130042" lon="-84.956087"><ele>273.7</ele><time>2026-08-16T21:22:54Z</time></trkpt>
<trkpt lat="35.130003" lon="-84.956097"><ele>273.7</ele><time>2026-08-16T21:22:57Z</time></trkpt>
<trkpt lat="35.129988" lon="-84.956137"><ele>274.3</ele><time>2026-08-16T21:23:00Z</time></trkpt>
<trkpt lat="35.12998" lon="-84.956176"><ele>274.3</ele><time>2026-08-16T21:23:03Z</time></trkpt>
<trkpt lat="35.129967" lon="-84.956222"><ele>274.0</ele><time>2026-08-16T21:23:06Z</time></trkpt>
<trkpt lat="35.129954" lon="-84.956254"><ele>274.0</ele><time>2026-08-16T21:23:08Z</time></trkpt>
<trkpt lat="35.129941" lon="-84.956284"><ele>274.0</ele><time>2026-08-16T21:23:10Z</time></trkpt>
<trkpt lat="35.129928" lon="-84.95633"><ele>273.7</ele><time>2026-08-16T21:23:13Z</time></trkpt>
<trkpt lat="35.129914" lon="-84.956361"><ele>273.7</ele><time>2026-08-16T21:23:15Z</time></trkpt>
<trkpt lat="35.129902" lon="-84.956395"><ele>273.7</ele><time>2026-08-16T21:23:17Z</time></trkpt>
<trkpt lat="35.129892" lon="-84.956426"><ele>273.4</ele><time>2026-08-16T21:23:19Z</time></trkpt>
<trkpt lat="35.129873" lon="-84.956459"><ele>273.1</ele><time>2026-08-16T21:23:21Z</time></trkpt>
<trkpt lat="35.129851" lon="-84.956489"><ele>273.4</ele><time>2026-08-16T21:23:23Z</time></trkpt>
<trkpt lat="35.129824" lon="-84.956515"><ele>273.7</ele><time>2026-08-16T21:23:25Z</time></trkpt>
<trkpt lat="35.129793" lon="-84.95653"><ele>273.7</ele><time>2026-08-16T21:23:27Z</time></trkpt>
<trkpt lat="35.12976" lon="-84.956534"><ele>274.0</ele><time>2026-08-16T21:23:29Z</time></trkpt>
<trkpt lat="35.12973" lon="-84.956538"><ele>273.7</ele><time>2026-08-16T21:23:31Z</time></trkpt>
<trkpt lat="35.129702" lon="-84.956544"><ele>273.7</ele><time>2026-08-16T21:23:33Z</time></trkpt>
<trkpt lat="35.129661" lon="-84.956552"><ele>273.4</ele><time>2026-08-16T21:23:36Z</time></trkpt>
<trkpt lat="35.129632" lon="-84.95655"><ele>273.4</ele><time>2026-08-16T21:23:38Z</time></trkpt>
<trkpt lat="35.129606" lon="-84.956538"><ele>273.4</ele><time>2026-08-16T21:23:40Z</time></trkpt>
<trkpt lat="35.129568" lon="-84.956523"><ele>273.4</ele><time>2026-08-16T21:23:43Z</time></trkpt>
<trkpt lat="35.129542" lon="-84.956511"><ele>273.4</ele><time>2026-08-16T21:23:45Z</time></trkpt>
<trkpt lat="35.129518" lon="-84.956492"><ele>273.4</ele><time>2026-08-16T21:23:47Z</time></trkpt>
<trkpt lat="35.129487" lon="-84.956465"><ele>273.1</ele><time>2026-08-16T21:23:50Z</time></trkpt>
<trkpt lat="35.129457" lon="-84.956434"><ele>273.1</ele><time>2026-08-16T21:23:53Z</time></trkpt>
<trkpt lat="35.129427" lon="-84.956405"><ele>272.8</ele><time>2026-08-16T21:23:56Z</time></trkpt>
<trkpt lat="35.129397" lon="-84.956372"><ele>272.5</ele><time>2026-08-16T21:23:59Z</time></trkpt>
<trkpt lat="35.12937" lon="-84.956354"><ele>272.8</ele><time>2026-08-16T21:24:01Z</time></trkpt>
<trkpt lat="35.129342" lon="-84.956343"><ele>273.1</ele><time>2026-08-16T21:24:03Z</time></trkpt>
<trkpt lat="35.129303" lon="-84.956357"><ele>273.7</ele><time>2026-08-16T21:24:06Z</time></trkpt>
<trkpt lat="35.129274" lon="-84.956368"><ele>273.7</ele><time>2026-08-16T21:24:08Z</time></trkpt>
<trkpt lat="35.129245" lon="-84.956377"><ele>273.7</ele><time>2026-08-16T21:24:10Z</time></trkpt>
<trkpt lat="35.129221" lon="-84.956396"><ele>274.0</ele><time>2026-08-16T21:24:12Z</time></trkpt>
<trkpt lat="35.129199" lon="-84.95642"><ele>274.0</ele><time>2026-08-16T21:24:14Z</time></trkpt>
<trkpt lat="35.129187" lon="-84.956455"><ele>274.0</ele><time>2026-08-16T21:24:16Z</time></trkpt>
<trkpt lat="35.129182" lon="-84.956489"><ele>274.0</ele><time>2026-08-16T21:24:18Z</time></trkpt>
<trkpt lat="35.129177" lon="-84.956524"><ele>274.0</ele><time>2026-08-16T21:24:20Z</time></trkpt>
<trkpt lat="35.129172" lon="-84.956558"><ele>274.0</ele><time>2026-08-16T21:24:22Z</time></trkpt>
<trkpt lat="35.129159" lon="-84.956592"><ele>274.3</ele><time>2026-08-16T21:24:24Z</time></trkpt>
<trkpt lat="35.129144" lon="-84.956624"><ele>273.7</ele><time>2026-08-16T21:24:26Z</time></trkpt>
<trkpt lat="35.129125" lon="-84.956654"><ele>273.4</ele><time>2026-08-16T21:24:28Z</time></trkpt>
<trkpt lat="35.129104" lon="-84.956681"><ele>273.4</ele><time>2026-08-16T21:24:30Z</time></trkpt>
<trkpt lat="35.129078" lon="-84.956699"><ele>273.4</ele><time>2026-08-16T21:24:32Z</time></trkpt>
<trkpt lat="35.129055" lon="-84.956721"><ele>273.1</ele><time>2026-08-16T21:24:34Z</time></trkpt>
<trkpt lat="35.129046" lon="-84.956759"><ele>272.8</ele><time>2026-08-16T21:24:36Z</time></trkpt>
<trkpt lat="35.129052" lon="-84.956797"><ele>272.2</ele><time>2026-08-16T21:24:38Z</time></trkpt>
<trkpt lat="35.129082" lon="-84.956823"><ele>271.9</ele><time>2026-08-16T21:24:40Z</time></trkpt>
<trkpt lat="35.129119" lon="-84.956829"><ele>271.6</ele><time>2026-08-16T21:24:42Z</time></trkpt>
<trkpt lat="35.129153" lon="-84.956827"><ele>271.6</ele><time>2026-08-16T21:24:44Z</time></trkpt>
<trkpt lat="35.129187" lon="-84.956826"><ele>271.3</ele><time>2026-08-16T21:24:46Z</time></trkpt>
<trkpt lat="35.12922" lon="-84.956816"><ele>271.3</ele><time>2026-08-16T21:24:48Z</time></trkpt>
<trkpt lat="35.129252" lon="-84.956797"><ele>271.0</ele><time>2026-08-16T21:24:50Z</time></trkpt>
<trkpt lat="35.129281" lon="-84.956776"><ele>270.4</ele><time>2026-08-16T21:24:52Z</time></trkpt>
<trkpt lat="35.12931" lon="-84.95676"><ele>270.1</ele><time>2026-08-16T21:24:54Z</time></trkpt>
<trkpt lat="35.129339" lon="-84.956743"><ele>270.1</ele><time>2026-08-16T21:24:56Z</time></trkpt>
<trkpt lat="35.129366" lon="-84.956724"><ele>270.1</ele><time>2026-08-16T21:24:58Z</time></trkpt>
<trkpt lat="35.129392" lon="-84.956704"><ele>269.7</ele><time>2026-08-16T21:25:00Z</time></trkpt>
<trkpt lat="35.129419" lon="-84.956691"><ele>269.7</ele><time>2026-08-16T21:25:02Z</time></trkpt>
<trkpt lat="35.129448" lon="-84.956688"><ele>269.7</ele><time>2026-08-16T21:25:04Z</time></trkpt>
<trkpt lat="35.129473" lon="-84.956717"><ele>270.1</ele><time>2026-08-16T21:25:06Z</time></trkpt>
<trkpt lat="35.129485" lon="-84.956764"><ele>270.4</ele><time>2026-08-16T21:25:09Z</time></trkpt>
<trkpt lat="35.129499" lon="-84.956797"><ele>270.7</ele><time>2026-08-16T21:25:11Z</time></trkpt>
<trkpt lat="35.129518" lon="-84.956831"><ele>270.7</ele><time>2026-08-16T21:25:13Z</time></trkpt>
<trkpt lat="35.129534" lon="-84.956867"><ele>270.7</ele><time>2026-08-16T21:25:15Z</time></trkpt>
<trkpt lat="35.129544" lon="-84.9569"><ele>270.7</ele><time>2026-08-16T21:25:17Z</time></trkpt>
<trkpt lat="35.129548" lon="-84.956936"><ele>270.7</ele><time>2026-08-16T21:25:19Z</time></trkpt>
<trkpt lat="35.129553" lon="-84.956972"><ele>271.0</ele><time>2026-08-16T21:25:21Z</time></trkpt>
<trkpt lat="35.129575" lon="-84.957"><ele>270.7</ele><time>2026-08-16T21:25:23Z</time></trkpt>
<trkpt lat="35.129606" lon="-84.956999"><ele>270.7</ele><time>2026-08-16T21:25:25Z</time></trkpt>
<trkpt lat="35.129646" lon="-84.956991"><ele>270.7</ele><time>2026-08-16T21:25:28Z</time></trkpt>
<trkpt lat="35.129674" lon="-84.956972"><ele>270.7</ele><time>2026-08-16T21:25:30Z</time></trkpt>
<trkpt lat="35.1297" lon="-84.956945"><ele>270.4</ele><time>2026-08-16T21:25:32Z</time></trkpt>
<trkpt lat="35.129715" lon="-84.956908"><ele>270.4</ele><time>2026-08-16T21:25:34Z</time></trkpt>
<trkpt lat="35.129729" lon="-84.956873"><ele>270.1</ele><time>2026-08-16T21:25:36Z</time></trkpt>
<trkpt lat="35.129756" lon="-84.956852"><ele>269.7</ele><time>2026-08-16T21:25:38Z</time></trkpt>
<trkpt lat="35.129786" lon="-84.956844"><ele>270.1</ele><time>2026-08-16T21:25:40Z</time></trkpt>
<trkpt lat="35.129816" lon="-84.956845"><ele>270.4</ele><time>2026-08-16T21:25:42Z</time></trkpt>
<trkpt lat="35.129846" lon="-84.956835"><ele>270.7</ele><time>2026-08-16T21:25:44Z</time></trkpt>
<trkpt lat="35.129874" lon="-84.956817"><ele>271.0</ele><time>2026-08-16T21:25:46Z</time></trkpt>
<trkpt lat="35.129897" lon="-84.956794"><ele>271.0</ele><time>2026-08-16T21:25:48Z</time></trkpt>
<trkpt lat="35.129917" lon="-84.956762"><ele>271.0</ele><time>2026-08-16T21:25:50Z</time></trkpt>
<trkpt lat="35.129932" lon="-84.95673"><ele>271.0</ele><time>2026-08-16T21:25:52Z</time></trkpt>
<trkpt lat="35.129942" lon="-84.956699"><ele>270.7</ele><time>2026-08-16T21:25:54Z</time></trkpt>
<trkpt lat="35.129951" lon="-84.956665"><ele>270.4</ele><time>2026-08-16T21:25:56Z</time></trkpt>
<trkpt lat="35.129959" lon="-84.956626"><ele>270.1</ele><time>2026-08-16T21:25:58Z</time></trkpt>
<trkpt lat="35.129973" lon="-84.95659"><ele>270.4</ele><time>2026-08-16T21:26:00Z</time></trkpt>
<trkpt lat="35.129994" lon="-84.956562"><ele>270.4</ele><time>2026-08-16T21:26:02Z</time></trkpt>
<trkpt lat="35.130023" lon="-84.956551"><ele>270.4</ele><time>2026-08-16T21:26:04Z</time></trkpt>
<trkpt lat="35.13006" lon="-84.956578"><ele>270.7</ele><time>2026-08-16T21:26:06Z</time></trkpt>
<trkpt lat="35.130068" lon="-84.956612"><ele>270.7</ele><time>2026-08-16T21:26:08Z</time></trkpt>
<trkpt lat="35.130075" lon="-84.956645"><ele>270.4</ele><time>2026-08-16T21:26:10Z</time></trkpt>
<trkpt lat="35.130087" lon="-84.956677"><ele>270.4</ele><time>2026-08-16T21:26:12Z</time></trkpt>
<trkpt lat="35.130109" lon="-84.956702"><ele>270.4</ele><time>2026-08-16T21:26:14Z</time></trkpt>
<trkpt lat="35.13013" lon="-84.956725"><ele>270.4</ele><time>2026-08-16T21:26:16Z</time></trkpt>
<trkpt lat="35.130153" lon="-84.956744"><ele>269.7</ele><time>2026-08-16T21:26:18Z</time></trkpt>
<trkpt lat="35.130185" lon="-84.956767"><ele>270.1</ele><time>2026-08-16T21:26:21Z</time></trkpt>
<trkpt lat="35.130213" lon="-84.956765"><ele>270.1</ele><time>2026-08-16T21:26:23Z</time></trkpt>
<trkpt lat="35.130255" lon="-84.956755"><ele>270.1</ele><time>2026-08-16T21:26:26Z</time></trkpt>
<trkpt lat="35.130286" lon="-84.95674"><ele>270.1</ele><time>2026-08-16T21:26:28Z</time></trkpt>
<trkpt lat="35.130315" lon="-84.956717"><ele>270.1</ele><time>2026-08-16T21:26:30Z</time></trkpt>
<trkpt lat="35.13034" lon="-84.956692"><ele>270.4</ele><time>2026-08-16T21:26:32Z</time></trkpt>
<trkpt lat="35.130365" lon="-84.956673"><ele>270.4</ele><time>2026-08-16T21:26:34Z</time></trkpt>
<trkpt lat="35.130392" lon="-84.956655"><ele>270.4</ele><time>2026-08-16T21:26:36Z</time></trkpt>
<trkpt lat="35.130421" lon="-84.956642"><ele>270.4</ele><time>2026-08-16T21:26:38Z</time></trkpt>
<trkpt lat="35.130449" lon="-84.956619"><ele>270.7</ele><time>2026-08-16T21:26:40Z</time></trkpt>
<trkpt lat="35.130476" lon="-84.956601"><ele>270.7</ele><time>2026-08-16T21:26:42Z</time></trkpt>
<trkpt lat="35.130503" lon="-84.956581"><ele>270.7</ele><time>2026-08-16T21:26:44Z</time></trkpt>
<trkpt lat="35.130525" lon="-84.956553"><ele>270.7</ele><time>2026-08-16T21:26:46Z</time></trkpt>
<trkpt lat="35.130542" lon="-84.956521"><ele>270.7</ele><time>2026-08-16T21:26:48Z</time></trkpt>
<trkpt lat="35.130551" lon="-84.956488"><ele>271.0</ele><time>2026-08-16T21:26:50Z</time></trkpt>
<trkpt lat="35.130561" lon="-84.956456"><ele>271.0</ele><time>2026-08-16T21:26:52Z</time></trkpt>
<trkpt lat="35.130575" lon="-84.956425"><ele>271.0</ele><time>2026-08-16T21:26:54Z</time></trkpt>
<trkpt lat="35.130582" lon="-84.956391"><ele>270.7</ele><time>2026-08-16T21:26:56Z</time></trkpt>
<trkpt lat="35.130586" lon="-84.956355"><ele>270.7</ele><time>2026-08-16T21:26:58Z</time></trkpt>
<trkpt lat="35.130592" lon="-84.956321"><ele>271.0</ele><time>2026-08-16T21:27:00Z</time></trkpt>
<trkpt lat="35.130605" lon="-84.956292"><ele>271.0</ele><time>2026-08-16T21:27:02Z</time></trkpt>
<trkpt lat="35.130624" lon="-84.956265"><ele>271.0</ele><time>2026-08-16T21:27:04Z</time></trkpt>
<trkpt lat="35.130659" lon="-84.956271"><ele>271.0</ele><time>2026-08-16T21:27:06Z</time></trkpt>
<trkpt lat="35.13068" lon="-84.956295"><ele>271.3</ele><time>2026-08-16T21:27:08Z</time></trkpt>
<trkpt lat="35.130699" lon="-84.956322"><ele>271.3</ele><time>2026-08-16T21:27:10Z</time></trkpt>
<trkpt lat="35.130731" lon="-84.956349"><ele>271.6</ele><time>2026-08-16T21:27:13Z</time></trkpt>
<trkpt lat="35.13077" lon="-84.956356"><ele>271.3</ele><time>2026-08-16T21:27:16Z</time></trkpt>
<trkpt lat="35.130806" lon="-84.956334"><ele>271.3</ele><time>2026-08-16T21:27:19Z</time></trkpt>
<trkpt lat="35.130827" lon="-84.956306"><ele>271.3</ele><time>2026-08-16T21:27:21Z</time></trkpt>
<trkpt lat="35.130841" lon="-84.956271"><ele>271.3</ele><time>2026-08-16T21:27:23Z</time></trkpt>
<trkpt lat="35.130854" lon="-84.956242"><ele>271.6</ele><time>2026-08-16T21:27:25Z</time></trkpt>
<trkpt lat="35.130871" lon="-84.956214"><ele>271.6</ele><time>2026-08-16T21:27:27Z</time></trkpt>
<trkpt lat="35.130885" lon="-84.956183"><ele>271.9</ele><time>2026-08-16T21:27:29Z</time></trkpt>
<trkpt lat="35.130907" lon="-84.956157"><ele>271.9</ele><time>2026-08-16T21:27:31Z</time></trkpt>
<trkpt lat="35.130931" lon="-84.956137"><ele>272.2</ele><time>2026-08-16T21:27:33Z</time></trkpt>
<trkpt lat="35.130956" lon="-84.956119"><ele>272.2</ele><time>2026-08-16T21:27:35Z</time></trkpt>
<trkpt lat="35.130984" lon="-84.956089"><ele>272.2</ele><time>2026-08-16T21:27:38Z</time></trkpt>
<trkpt lat="35.131005" lon="-84.956066"><ele>271.9</ele><time>2026-08-16T21:27:40Z</time></trkpt>
<trkpt lat="35.131029" lon="-84.956047"><ele>271.9</ele><time>2026-08-16T21:27:42Z</time></trkpt>
<trkpt lat="35.131049" lon="-84.956022"><ele>271.9</ele><time>2026-08-16T21:27:44Z</time></trkpt>
<trkpt lat="35.131071" lon="-84.956001"><ele>271.6</ele><time>2026-08-16T21:27:46Z</time></trkpt>
<trkpt lat="35.131098" lon="-84.955989"><ele>271.6</ele><time>2026-08-16T21:27:48Z</time></trkpt>
<trkpt lat="35.131128" lon="-84.955986"><ele>271.3</ele><time>2026-08-16T21:27:50Z</time></trkpt>
<trkpt lat="35.131157" lon="-84.955999"><ele>271.0</ele><time>2026-08-16T21:27:52Z</time></trkpt>
<trkpt lat="35.131187" lon="-84.956009"><ele>271.0</ele><time>2026-08-16T21:27:54Z</time></trkpt>
<trkpt lat="35.131211" lon="-84.956027"><ele>271.0</ele><time>2026-08-16T21:27:56Z</time></trkpt>
<trkpt lat="35.131231" lon="-84.956058"><ele>271.0</ele><time>2026-08-16T21:27:58Z</time></trkpt>
<trkpt lat="35.131229" lon="-84.956098"><ele>271.3</ele><time>2026-08-16T21:28:00Z</time></trkpt>
<trkpt lat="35.131222" lon="-84.956134"><ele>271.3</ele><time>2026-08-16T21:28:02Z</time></trkpt>
<trkpt lat="35.131215" lon="-84.95617"><ele>271.6</ele><time>2026-08-16T21:28:04Z</time></trkpt>
<trkpt lat="35.131205" lon="-84.956203"><ele>271.6</ele><time>2026-08-16T21:28:06Z</time></trkpt>
<trkpt lat="35.131193" lon="-84.956236"><ele>271.6</ele><time>2026-08-16T21:28:08Z</time></trkpt>
<trkpt lat="35.13118" lon="-84.956266"><ele>271.6</ele><time>2026-08-16T21:28:10Z</time></trkpt>
<trkpt lat="35.13117" lon="-84.956303"><ele>271.6</ele><time>2026-08-16T21:28:12Z</time></trkpt>
<trkpt lat="35.131151" lon="-84.956334"><ele>271.6</ele><time>2026-08-16T21:28:14Z</time></trkpt>
<trkpt lat="35.131129" lon="-84.95636"><ele>271.9</ele><time>2026-08-16T21:28:16Z</time></trkpt>
<trkpt lat="35.131108" lon="-84.956385"><ele>271.9</ele><time>2026-08-16T21:28:18Z</time></trkpt>
<trkpt lat="35.131085" lon="-84.956411"><ele>271.9</ele><time>2026-08-16T21:28:20Z</time></trkpt>
<trkpt lat="35.131061" lon="-84.956435"><ele>272.2</ele><time>2026-08-16T21:28:22Z</time></trkpt>
<trkpt lat="35.131036" lon="-84.956454"><ele>271.9</ele><time>2026-08-16T21:28:24Z</time></trkpt>
<trkpt lat="35.131016" lon="-84.956485"><ele>271.9</ele><time>2026-08-16T21:28:26Z</time></trkpt>
<trkpt lat="35.130995" lon="-84.956516"><ele>271.9</ele><time>2026-08-16T21:28:28Z</time></trkpt>
<trkpt lat="35.130976" lon="-84.956544"><ele>271.9</ele><time>2026-08-16T21:28:30Z</time></trkpt>
<trkpt lat="35.130958" lon="-84.956574"><ele>272.2</ele><time>2026-08-16T21:28:32Z</time></trkpt>
<trkpt lat="35.130944" lon="-84.956609"><ele>272.5</ele><time>2026-08-16T21:28:34Z</time></trkpt>
<trkpt lat="35.130933" lon="-84.956646"><ele>272.8</ele><time>2026-08-16T21:28:36Z</time></trkpt>
<trkpt lat="35.130923" lon="-84.956682"><ele>272.8</ele><time>2026-08-16T21:28:38Z</time></trkpt>
<trkpt lat="35.130903" lon="-84.956709"><ele>272.8</ele><time>2026-08-16T21:28:40Z</time></trkpt>
<trkpt lat="35.130872" lon="-84.956719"><ele>272.8</ele><time>2026-08-16T21:28:42Z</time></trkpt>
<trkpt lat="35.130834" lon="-84.956737"><ele>272.5</ele><time>2026-08-16T21:28:45Z</time></trkpt>
<trkpt lat="35.130818" lon="-84.956768"><ele>272.5</ele><time>2026-08-16T21:28:47Z</time></trkpt>
<trkpt lat="35.130804" lon="-84.956802"><ele>272.5</ele><time>2026-08-16T21:28:49Z</time></trkpt>
<trkpt lat="35.130792" lon="-84.956836"><ele>272.5</ele><time>2026-08-16T21:28:51Z</time></trkpt>
<trkpt lat="35.130776" lon="-84.956868"><ele>272.8</ele><time>2026-08-16T21:28:53Z</time></trkpt>
<trkpt lat="35.130752" lon="-84.956887"><ele>272.5</ele><time>2026-08-16T21:28:55Z</time></trkpt>
<trkpt lat="35.130715" lon="-84.95691"><ele>272.5</ele><time>2026-08-16T21:28:58Z</time></trkpt>
<trkpt lat="35.130694" lon="-84.956934"><ele>272.5</ele><time>2026-08-16T21:29:00Z</time></trkpt>
<trkpt lat="35.130672" lon="-84.956954"><ele>272.5</ele><time>2026-08-16T21:29:02Z</time></trkpt>
<trkpt lat="35.130639" lon="-84.956983"><ele>272.5</ele><time>2026-08-16T21:29:05Z</time></trkpt>
<trkpt lat="35.130608" lon="-84.957015"><ele>272.5</ele><time>2026-08-16T21:29:08Z</time></trkpt>
<trkpt lat="35.130583" lon="-84.957036"><ele>272.2</ele><time>2026-08-16T21:29:10Z</time></trkpt>
<trkpt lat="35.130551" lon="-84.957066"><ele>272.2</ele><time>2026-08-16T21:29:13Z</time></trkpt>
<trkpt lat="35.130523" lon="-84.957078"><ele>272.2</ele><time>2026-08-16T21:29:15Z</time></trkpt>
<trkpt lat="35.130485" lon="-84.957067"><ele>271.9</ele><time>2026-08-16T21:29:18Z</time></trkpt>
<trkpt lat="35.130456" lon="-84.957069"><ele>271.9</ele><time>2026-08-16T21:29:20Z</time></trkpt>
<trkpt lat="35.130427" lon="-84.95707"><ele>271.6</ele><time>2026-08-16T21:29:22Z</time></trkpt>
<trkpt lat="35.130398" lon="-84.957078"><ele>271.6</ele><time>2026-08-16T21:29:24Z</time></trkpt>
<trkpt lat="35.130371" lon="-84.957095"><ele>271.3</ele><time>2026-08-16T21:29:26Z</time></trkpt>
<trkpt lat="35.130348" lon="-84.957117"><ele>271.3</ele><time>2026-08-16T21:29:28Z</time></trkpt>
<trkpt lat="35.130324" lon="-84.957136"><ele>271.3</ele><time>2026-08-16T21:29:30Z</time></trkpt>
<trkpt lat="35.130296" lon="-84.957155"><ele>271.3</ele><time>2026-08-16T21:29:32Z</time></trkpt>
<trkpt lat="35.130268" lon="-84.957174"><ele>271.3</ele><time>2026-08-16T21:29:34Z</time></trkpt>
<trkpt lat="35.130244" lon="-84.9572"><ele>271.3</ele><time>2026-08-16T21:29:36Z</time></trkpt>
<trkpt lat="35.130221" lon="-84.957225"><ele>271.6</ele><time>2026-08-16T21:29:38Z</time></trkpt>
<trkpt lat="35.130195" lon="-84.957245"><ele>271.6</ele><time>2026-08-16T21:29:40Z</time></trkpt>
<trkpt lat="35.130169" lon="-84.957256"><ele>271.6</ele><time>2026-08-16T21:29:42Z</time></trkpt>
<trkpt lat="35.130129" lon="-84.957267"><ele>271.0</ele><time>2026-08-16T21:29:45Z</time></trkpt>
<trkpt lat="35.130098" lon="-84.957296"><ele>270.7</ele><time>2026-08-16T21:29:48Z</time></trkpt>
<trkpt lat="35.130079" lon="-84.957323"><ele>270.7</ele><time>2026-08-16T21:29:50Z</time></trkpt>
<trkpt lat="35.130064" lon="-84.957356"><ele>270.7</ele><time>2026-08-16T21:29:52Z</time></trkpt>
<trkpt lat="35.130048" lon="-84.957391"><ele>270.7</ele><time>2026-08-16T21:29:54Z</time></trkpt>
<trkpt lat="35.130023" lon="-84.957416"><ele>270.7</ele><time>2026-08-16T21:29:56Z</time></trkpt>
<trkpt lat="35.129997" lon="-84.957439"><ele>270.4</ele><time>2026-08-16T21:29:58Z</time></trkpt>
<trkpt lat="35.129975" lon="-84.957466"><ele>270.4</ele><time>2026-08-16T21:30:00Z</time></trkpt>
<trkpt lat="35.12995" lon="-84.95749"><ele>270.4</ele><time>2026-08-16T21:30:02Z</time></trkpt>
<trkpt lat="35.129923" lon="-84.95751"><ele>270.4</ele><time>2026-08-16T21:30:04Z</time></trkpt>
<trkpt lat="35.129898" lon="-84.957531"><ele>270.4</ele><time>2026-08-16T21:30:06Z</time></trkpt>
<trkpt lat="35.12987" lon="-84.957547"><ele>270.1</ele><time>2026-08-16T21:30:08Z</time></trkpt>
<trkpt lat="35.129847" lon="-84.957566"><ele>270.1</ele><time>2026-08-16T21:30:10Z</time></trkpt>
<trkpt lat="35.129825" lon="-84.957588"><ele>269.7</ele><time>2026-08-16T21:30:12Z</time></trkpt>
<trkpt lat="35.129805" lon="-84.957618"><ele>269.7</ele><time>2026-08-16T21:30:14Z</time></trkpt>
<trkpt lat="35.129782" lon="-84.957645"><ele>269.7</ele><time>2026-08-16T21:30:16Z</time></trkpt>
<trkpt lat="35.129754" lon="-84.957662"><ele>270.1</ele><time>2026-08-16T21:30:18Z</time></trkpt>
<trkpt lat="35.129723" lon="-84.957662"><ele>270.4</ele><time>2026-08-16T21:30:20Z</time></trkpt>
<trkpt lat="35.129695" lon="-84.957658"><ele>270.4</ele><time>2026-08-16T21:30:22Z</time></trkpt>
<trkpt lat="35.129668" lon="-84.957658"><ele>270.7</ele><time>2026-08-16T21:30:24Z</time></trkpt>
<trkpt lat="35.129639" lon="-84.957653"><ele>270.7</ele><time>2026-08-16T21:30:26Z</time></trkpt>
<trkpt lat="35.129614" lon="-84.957672"><ele>270.7</ele><time>2026-08-16T21:30:28Z</time></trkpt>
<trkpt lat="35.129612" lon="-84.957718"><ele>271.0</ele><time>2026-08-16T21:30:30Z</time></trkpt>
<trkpt lat="35.129635" lon="-84.957767"><ele>271.0</ele><time>2026-08-16T21:30:32Z</time></trkpt>
<trkpt lat="35.129657" lon="-84.957806"><ele>271.3</ele><time>2026-08-16T21:30:34Z</time></trkpt>
<trkpt lat="35.129664" lon="-84.957844"><ele>271.3</ele><time>2026-08-16T21:30:36Z</time></trkpt>
<trkpt lat="35.12967" lon="-84.957881"><ele>271.6</ele><time>2026-08-16T21:30:38Z</time></trkpt>
<trkpt lat="35.129675" lon="-84.957916"><ele>271.6</ele><time>2026-08-16T21:30:40Z</time></trkpt>
<trkpt lat="35.129683" lon="-84.957951"><ele>271.6</ele><time>2026-08-16T21:30:42Z</time></trkpt>
<trkpt lat="35.129686" lon="-84.957987"><ele>271.6</ele><time>2026-08-16T21:30:44Z</time></trkpt>
<trkpt lat="35.129693" lon="-84.958025"><ele>271.6</ele><time>2026-08-16T21:30:46Z</time></trkpt>
<trkpt lat="35.129701" lon="-84.958061"><ele>271.6</ele><time>2026-08-16T21:30:48Z</time></trkpt>
<trkpt lat="35.129714" lon="-84.958092"><ele>271.6</ele><time>2026-08-16T21:30:50Z</time></trkpt>
<trkpt lat="35.129724" lon="-84.958127"><ele>271.6</ele><time>2026-08-16T21:30:52Z</time></trkpt>
<trkpt lat="35.12974" lon="-84.958158"><ele>271.6</ele><time>2026-08-16T21:30:54Z</time></trkpt>
<trkpt lat="35.129761" lon="-84.958186"><ele>271.6</ele><time>2026-08-16T21:30:56Z</time></trkpt>
<trkpt lat="35.12978" lon="-84.958215"><ele>271.6</ele><time>2026-08-16T21:30:58Z</time></trkpt>
<trkpt lat="35.129803" lon="-84.958239"><ele>271.3</ele><time>2026-08-16T21:31:00Z</time></trkpt>
<trkpt lat="35.129829" lon="-84.95826"><ele>270.7</ele><time>2026-08-16T21:31:02Z</time></trkpt>
<trkpt lat="35.129857" lon="-84.958282"><ele>270.7</ele><time>2026-08-16T21:31:04Z</time></trkpt>
<trkpt lat="35.12988" lon="-84.958312"><ele>270.4</ele><time>2026-08-16T21:31:06Z</time></trkpt>
<trkpt lat="35.129917" lon="-84.958312"><ele>270.1</ele><time>2026-08-16T21:31:08Z</time></trkpt>
<trkpt lat="35.129949" lon="-84.958309"><ele>270.1</ele><time>2026-08-16T21:31:10Z</time></trkpt>
<trkpt lat="35.129979" lon="-84.958282"><ele>270.1</ele><time>2026-08-16T21:31:12Z</time></trkpt>
<trkpt lat="35.130005" lon="-84.958249"><ele>269.7</ele><time>2026-08-16T21:31:14Z</time></trkpt>
<trkpt lat="35.130025" lon="-84.958212"><ele>269.7</ele><time>2026-08-16T21:31:16Z</time></trkpt>
<trkpt lat="35.130042" lon="-84.958175"><ele>269.4</ele><time>2026-08-16T21:31:18Z</time></trkpt>
<trkpt lat="35.130064" lon="-84.958141"><ele>269.4</ele><time>2026-08-16T21:31:20Z</time></trkpt>
<trkpt lat="35.130098" lon="-84.958135"><ele>269.1</ele><time>2026-08-16T21:31:22Z</time></trkpt>
<trkpt lat="35.130127" lon="-84.958158"><ele>269.1</ele><time>2026-08-16T21:31:24Z</time></trkpt>
<trkpt lat="35.130143" lon="-84.958192"><ele>268.8</ele><time>2026-08-16T21:31:26Z</time></trkpt>
<trkpt lat="35.130151" lon="-84.958227"><ele>268.8</ele><time>2026-08-16T21:31:28Z</time></trkpt>
<trkpt lat="35.130176" lon="-84.958262"><ele>268.8</ele><time>2026-08-16T21:31:31Z</time></trkpt>
<trkpt lat="35.130199" lon="-84.958286"><ele>268.8</ele><time>2026-08-16T21:31:33Z</time></trkpt>
<trkpt lat="35.130228" lon="-84.958294"><ele>269.1</ele><time>2026-08-16T21:31:35Z</time></trkpt>
<trkpt lat="35.130257" lon="-84.958297"><ele>268.8</ele><time>2026-08-16T21:31:37Z</time></trkpt>
<trkpt lat="35.130288" lon="-84.958281"><ele>268.8</ele><time>2026-08-16T21:31:39Z</time></trkpt>
<trkpt lat="35.130314" lon="-84.958254"><ele>268.8</ele><time>2026-08-16T21:31:41Z</time></trkpt>
<trkpt lat="35.130345" lon="-84.958219"><ele>269.1</ele><time>2026-08-16T21:31:43Z</time></trkpt>
<trkpt lat="35.130371" lon="-84.958188"><ele>268.8</ele><time>2026-08-16T21:31:45Z</time></trkpt>
<trkpt lat="35.130396" lon="-84.95816"><ele>268.8</ele><time>2026-08-16T21:31:47Z</time></trkpt>
<trkpt lat="35.13042" lon="-84.958132"><ele>268.8</ele><time>2026-08-16T21:31:49Z</time></trkpt>
<trkpt lat="35.130445" lon="-84.958105"><ele>268.8</ele><time>2026-08-16T21:31:51Z</time></trkpt>
<trkpt lat="35.130468" lon="-84.958073"><ele>268.8</ele><time>2026-08-16T21:31:53Z</time></trkpt>
<trkpt lat="35.130493" lon="-84.958042"><ele>268.8</ele><time>2026-08-16T21:31:55Z</time></trkpt>
<trkpt lat="35.130518" lon="-84.958017"><ele>268.8</ele><time>2026-08-16T21:31:57Z</time></trkpt>
<trkpt lat="35.130541" lon="-84.957994"><ele>268.8</ele><time>2026-08-16T21:31:59Z</time></trkpt>
<trkpt lat="35.130567" lon="-84.957971"><ele>268.5</ele><time>2026-08-16T21:32:01Z</time></trkpt>
<trkpt lat="35.130595" lon="-84.957956"><ele>268.5</ele><time>2026-08-16T21:32:03Z</time></trkpt>
<trkpt lat="35.130625" lon="-84.957956"><ele>268.2</ele><time>2026-08-16T21:32:05Z</time></trkpt>
<trkpt lat="35.130654" lon="-84.957958"><ele>268.2</ele><time>2026-08-16T21:32:07Z</time></trkpt>
<trkpt lat="35.130684" lon="-84.957951"><ele>268.2</ele><time>2026-08-16T21:32:09Z</time></trkpt>
<trkpt lat="35.130709" lon="-84.957931"><ele>268.2</ele><time>2026-08-16T21:32:11Z</time></trkpt>
<trkpt lat="35.130736" lon="-84.957914"><ele>268.5</ele><time>2026-08-16T21:32:13Z</time></trkpt>
<trkpt lat="35.130762" lon="-84.957897"><ele>268.5</ele><time>2026-08-16T21:32:15Z</time></trkpt>
<trkpt lat="35.130784" lon="-84.957874"><ele>268.5</ele><time>2026-08-16T21:32:17Z</time></trkpt>
<trkpt lat="35.130805" lon="-84.95785"><ele>268.5</ele><time>2026-08-16T21:32:19Z</time></trkpt>
<trkpt lat="35.130822" lon="-84.957819"><ele>268.8</ele><time>2026-08-16T21:32:21Z</time></trkpt>
<trkpt lat="35.130825" lon="-84.95778"><ele>268.8</ele><time>2026-08-16T21:32:23Z</time></trkpt>
<trkpt lat="35.130821" lon="-84.957741"><ele>269.1</ele><time>2026-08-16T21:32:25Z</time></trkpt>
<trkpt lat="35.130814" lon="-84.957703"><ele>269.1</ele><time>2026-08-16T21:32:27Z</time></trkpt>
<trkpt lat="35.130815" lon="-84.957668"><ele>269.1</ele><time>2026-08-16T21:32:29Z</time></trkpt>
<trkpt lat="35.130833" lon="-84.957641"><ele>269.4</ele><time>2026-08-16T21:32:31Z</time></trkpt>
<trkpt lat="35.13086" lon="-84.957623"><ele>269.4</ele><time>2026-08-16T21:32:33Z</time></trkpt>
<trkpt lat="35.130892" lon="-84.957626"><ele>269.4</ele><time>2026-08-16T21:32:35Z</time></trkpt>
<trkpt lat="35.130919" lon="-84.957641"><ele>269.4</ele><time>2026-08-16T21:32:37Z</time></trkpt>
<trkpt lat="35.130944" lon="-84.957656"><ele>269.7</ele><time>2026-08-16T21:32:39Z</time></trkpt>
<trkpt lat="35.130972" lon="-84.95765"><ele>269.4</ele><time>2026-08-16T21:32:41Z</time></trkpt>
<trkpt lat="35.130998" lon="-84.957632"><ele>269.4</ele><time>2026-08-16T21:32:43Z</time></trkpt>
<trkpt lat="35.131018" lon="-84.957607"><ele>269.4</ele><time>2026-08-16T21:32:45Z</time></trkpt>
<trkpt lat="35.131044" lon="-84.957569"><ele>269.1</ele><time>2026-08-16T21:32:48Z</time></trkpt>
<trkpt lat="35.131067" lon="-84.957546"><ele>269.1</ele><time>2026-08-16T21:32:50Z</time></trkpt>
<trkpt lat="35.131086" lon="-84.957519"><ele>269.1</ele><time>2026-08-16T21:32:52Z</time></trkpt>
<trkpt lat="35.1311" lon="-84.957486"><ele>269.1</ele><time>2026-08-16T21:32:54Z</time></trkpt>
<trkpt lat="35.131114" lon="-84.957451"><ele>269.4</ele><time>2026-08-16T21:32:56Z</time></trkpt>
<trkpt lat="35.131125" lon="-84.957415"><ele>269.4</ele><time>2026-08-16T21:32:58Z</time></trkpt>
<trkpt lat="35.131147" lon="-84.957392"><ele>269.4</ele><time>2026-08-16T21:33:00Z</time></trkpt>
<trkpt lat="35.131176" lon="-84.957378"><ele>269.1</ele><time>2026-08-16T21:33:02Z</time></trkpt>
<trkpt lat="35.131207" lon="-84.957378"><ele>269.4</ele><time>2026-08-16T21:33:04Z</time></trkpt>
<trkpt lat="35.131236" lon="-84.957396"><ele>269.7</ele><time>2026-08-16T21:33:06Z</time></trkpt>
<trkpt lat="35.131265" lon="-84.957417"><ele>270.1</ele><time>2026-08-16T21:33:08Z</time></trkpt>
<trkpt lat="35.131292" lon="-84.957428"><ele>270.1</ele><time>2026-08-16T21:33:10Z</time></trkpt>
<trkpt lat="35.131322" lon="-84.957424"><ele>270.1</ele><time>2026-08-16T21:33:12Z</time></trkpt>
<trkpt lat="35.13135" lon="-84.957418"><ele>270.1</ele><time>2026-08-16T21:33:14Z</time></trkpt>
<trkpt lat="35.13139" lon="-84.957415"><ele>270.1</ele><time>2026-08-16T21:33:17Z</time></trkpt>
<trkpt lat="35.131419" lon="-84.957403"><ele>270.1</ele><time>2026-08-16T21:33:19Z</time></trkpt>
<trkpt lat="35.131448" lon="-84.957393"><ele>270.1</ele><time>2026-08-16T21:33:21Z</time></trkpt>
<trkpt lat="35.13148" lon="-84.95738"><ele>270.1</ele><time>2026-08-16T21:33:23Z</time></trkpt>
<trkpt lat="35.131505" lon="-84.957361"><ele>270.1</ele><time>2026-08-16T21:33:25Z</time></trkpt>
<trkpt lat="35.131529" lon="-84.957344"><ele>270.1</ele><time>2026-08-16T21:33:27Z</time></trkpt>
<trkpt lat="35.131558" lon="-84.957331"><ele>270.1</ele><time>2026-08-16T21:33:29Z</time></trkpt>
<trkpt lat="35.131583" lon="-84.957315"><ele>270.1</ele><time>2026-08-16T21:33:31Z</time></trkpt>
<trkpt lat="35.131611" lon="-84.957301"><ele>270.1</ele><time>2026-08-16T21:33:33Z</time></trkpt>
<trkpt lat="35.131636" lon="-84.957286"><ele>270.1</ele><time>2026-08-16T21:33:35Z</time></trkpt>
<trkpt lat="35.131663" lon="-84.957272"><ele>270.4</ele><time>2026-08-16T21:33:37Z</time></trkpt>
<trkpt lat="35.13169" lon="-84.957258"><ele>270.4</ele><time>2026-08-16T21:33:39Z</time></trkpt>
<trkpt lat="35.131715" lon="-84.957239"><ele>270.4</ele><time>2026-08-16T21:33:41Z</time></trkpt>
<trkpt lat="35.131743" lon="-84.957225"><ele>270.4</ele><time>2026-08-16T21:33:43Z</time></trkpt>
<trkpt lat="35.131768" lon="-84.957206"><ele>270.4</ele><time>2026-08-16T21:33:45Z</time></trkpt>
<trkpt lat="35.131802" lon="-84.957185"><ele>270.7</ele><time>2026-08-16T21:33:48Z</time></trkpt>
<trkpt lat="35.131831" lon="-84.957171"><ele>270.7</ele><time>2026-08-16T21:33:50Z</time></trkpt>
<trkpt lat="35.131859" lon="-84.957156"><ele>271.0</ele><time>2026-08-16T21:33:52Z</time></trkpt>
<trkpt lat="35.131899" lon="-84.957142"><ele>271.0</ele><time>2026-08-16T21:33:55Z</time></trkpt>
<trkpt lat="35.131935" lon="-84.95712"><ele>271.0</ele><time>2026-08-16T21:33:58Z</time></trkpt>
<trkpt lat="35.131963" lon="-84.957108"><ele>271.0</ele><time>2026-08-16T21:34:00Z</time></trkpt>
<trkpt lat="35.132001" lon="-84.957094"><ele>271.0</ele><time>2026-08-16T21:34:03Z</time></trkpt>
<trkpt lat="35.13203" lon="-84.957083"><ele>271.0</ele><time>2026-08-16T21:34:05Z</time></trkpt>
<trkpt lat="35.132058" lon="-84.957066"><ele>271.3</ele><time>2026-08-16T21:34:07Z</time></trkpt>
<trkpt lat="35.132083" lon="-84.957049"><ele>271.3</ele><time>2026-08-16T21:34:09Z</time></trkpt>
<trkpt lat="35.132101" lon="-84.957019"><ele>271.6</ele><time>2026-08-16T21:34:11Z</time></trkpt>
<trkpt lat="35.132118" lon="-84.956992"><ele>271.9</ele><time>2026-08-16T21:34:13Z</time></trkpt>
<trkpt lat="35.132148" lon="-84.956957"><ele>272.5</ele><time>2026-08-16T21:34:16Z</time></trkpt>
<trkpt lat="35.132169" lon="-84.95693"><ele>272.5</ele><time>2026-08-16T21:34:18Z</time></trkpt>
<trkpt lat="35.132195" lon="-84.956906"><ele>272.8</ele><time>2026-08-16T21:34:20Z</time></trkpt>
<trkpt lat="35.132223" lon="-84.956891"><ele>272.8</ele><time>2026-08-16T21:34:22Z</time></trkpt>
<trkpt lat="35.132249" lon="-84.956868"><ele>272.8</ele><time>2026-08-16T21:34:24Z</time></trkpt>
<trkpt lat="35.132269" lon="-84.956844"><ele>272.8</ele><time>2026-08-16T21:34:26Z</time></trkpt>
<trkpt lat="35.132291" lon="-84.956818"><ele>272.8</ele><time>2026-08-16T21:34:28Z</time></trkpt>
<trkpt lat="35.132316" lon="-84.956798"><ele>272.8</ele><time>2026-08-16T21:34:30Z</time></trkpt>
<trkpt lat="35.13234" lon="-84.956778"><ele>272.5</ele><time>2026-08-16T21:34:32Z</time></trkpt>
<trkpt lat="35.132368" lon="-84.956762"><ele>272.5</ele><time>2026-08-16T21:34:34Z</time></trkpt>
<trkpt lat="35.132397" lon="-84.956758"><ele>272.2</ele><time>2026-08-16T21:34:36Z</time></trkpt>
<trkpt lat="35.132425" lon="-84.956768"><ele>272.2</ele><time>2026-08-16T21:34:38Z</time></trkpt>
<trkpt lat="35.132449" lon="-84.956786"><ele>272.2</ele><time>2026-08-16T21:34:40Z</time></trkpt>
<trkpt lat="35.132471" lon="-84.956809"><ele>271.9</ele><time>2026-08-16T21:34:42Z</time></trkpt>
<trkpt lat="35.132483" lon="-84.956842"><ele>272.2</ele><time>2026-08-16T21:34:44Z</time></trkpt>
<trkpt lat="35.132484" lon="-84.956879"><ele>272.2</ele><time>2026-08-16T21:34:46Z</time></trkpt>
<trkpt lat="35.132472" lon="-84.95692"><ele>272.5</ele><time>2026-08-16T21:34:48Z</time></trkpt>
<trkpt lat="35.132445" lon="-84.956951"><ele>272.2</ele><time>2026-08-16T21:34:50Z</time></trkpt>
<trkpt lat="35.132416" lon="-84.956968"><ele>272.2</ele><time>2026-08-16T21:34:52Z</time></trkpt>
<trkpt lat="35.132392" lon="-84.956988"><ele>272.2</ele><time>2026-08-16T21:34:54Z</time></trkpt>
<trkpt lat="35.132369" lon="-84.957012"><ele>272.2</ele><time>2026-08-16T21:34:56Z</time></trkpt>
<trkpt lat="35.132345" lon="-84.957036"><ele>272.2</ele><time>2026-08-16T21:34:58Z</time></trkpt>
<trkpt lat="35.132324" lon="-84.957065"><ele>272.5</ele><time>2026-08-16T21:35:00Z</time></trkpt>
<trkpt lat="35.132305" lon="-84.957093"><ele>272.5</ele><time>2026-08-16T21:35:02Z</time></trkpt>
<trkpt lat="35.132287" lon="-84.957122"><ele>272.8</ele><time>2026-08-16T21:35:04Z</time></trkpt>
<trkpt lat="35.13227" lon="-84.957153"><ele>272.8</ele><time>2026-08-16T21:35:06Z</time></trkpt>
<trkpt lat="35.132252" lon="-84.957185"><ele>272.8</ele><time>2026-08-16T21:35:08Z</time></trkpt>
<trkpt lat="35.132235" lon="-84.957212"><ele>272.5</ele><time>2026-08-16T21:35:10Z</time></trkpt>
<trkpt lat="35.132212" lon="-84.95723"><ele>272.2</ele><time>2026-08-16T21:35:12Z</time></trkpt>
<trkpt lat="35.132188" lon="-84.957251"><ele>272.2</ele><time>2026-08-16T21:35:14Z</time></trkpt>
<trkpt lat="35.132166" lon="-84.957272"><ele>272.2</ele><time>2026-08-16T21:35:16Z</time></trkpt>
<trkpt lat="35.132149" lon="-84.9573"><ele>271.9</ele><time>2026-08-16T21:35:18Z</time></trkpt>
<trkpt lat="35.132141" lon="-84.957336"><ele>271.6</ele><time>2026-08-16T21:35:20Z</time></trkpt>
<trkpt lat="35.132148" lon="-84.957375"><ele>271.6</ele><time>2026-08-16T21:35:22Z</time></trkpt>
<trkpt lat="35.132147" lon="-84.957409"><ele>271.3</ele><time>2026-08-16T21:35:24Z</time></trkpt>
<trkpt lat="35.132127" lon="-84.957434"><ele>271.3</ele><time>2026-08-16T21:35:26Z</time></trkpt>
<trkpt lat="35.132094" lon="-84.957441"><ele>271.3</ele><time>2026-08-16T21:35:28Z</time></trkpt>
<trkpt lat="35.132061" lon="-84.957443"><ele>271.3</ele><time>2026-08-16T21:35:30Z</time></trkpt>
<trkpt lat="35.132028" lon="-84.957428"><ele>271.3</ele><time>2026-08-16T21:35:32Z</time></trkpt>
<trkpt lat="35.131997" lon="-84.957429"><ele>271.0</ele><time>2026-08-16T21:35:34Z</time></trkpt>
<trkpt lat="35.131967" lon="-84.957436"><ele>271.3</ele><time>2026-08-16T21:35:36Z</time></trkpt>
<trkpt lat="35.13194" lon="-84.957443"><ele>271.0</ele><time>2026-08-16T21:35:38Z</time></trkpt>
<trkpt lat="35.13191" lon="-84.957443"><ele>271.0</ele><time>2026-08-16T21:35:40Z</time></trkpt>
<trkpt lat="35.131883" lon="-84.957445"><ele>270.7</ele><time>2026-08-16T21:35:42Z</time></trkpt>
<trkpt lat="35.131853" lon="-84.957444"><ele>270.4</ele><time>2026-08-16T21:35:44Z</time></trkpt>
<trkpt lat="35.131821" lon="-84.957451"><ele>270.4</ele><time>2026-08-16T21:35:46Z</time></trkpt>
<trkpt lat="35.131792" lon="-84.957464"><ele>270.1</ele><time>2026-08-16T21:35:48Z</time></trkpt>
<trkpt lat="35.131772" lon="-84.957491"><ele>269.7</ele><time>2026-08-16T21:35:50Z</time></trkpt>
<trkpt lat="35.131753" lon="-84.95752"><ele>269.7</ele><time>2026-08-16T21:35:52Z</time></trkpt>
<trkpt lat="35.13173" lon="-84.957548"><ele>269.7</ele><time>2026-08-16T21:35:54Z</time></trkpt>
<trkpt lat="35.131706" lon="-84.957571"><ele>269.7</ele><time>2026-08-16T21:35:56Z</time></trkpt>
<trkpt lat="35.131685" lon="-84.957596"><ele>269.7</ele><time>2026-08-16T21:35:58Z</time></trkpt>
<trkpt lat="35.13168" lon="-84.957634"><ele>269.7</ele><time>2026-08-16T21:36:00Z</time></trkpt>
<trkpt lat="35.131684" lon="-84.95767"><ele>269.7</ele><time>2026-08-16T21:36:02Z</time></trkpt>
<trkpt lat="35.131702" lon="-84.957702"><ele>269.7</ele><time>2026-08-16T21:36:04Z</time></trkpt>
<trkpt lat="35.131729" lon="-84.957724"><ele>270.1</ele><time>2026-08-16T21:36:06Z</time></trkpt>
<trkpt lat="35.131757" lon="-84.957744"><ele>270.1</ele><time>2026-08-16T21:36:08Z</time></trkpt>
<trkpt lat="35.131788" lon="-84.957754"><ele>270.1</ele><time>2026-08-16T21:36:10Z</time></trkpt>
<trkpt lat="35.131819" lon="-84.95776"><ele>270.1</ele><time>2026-08-16T21:36:12Z</time></trkpt>
<trkpt lat="35.131849" lon="-84.957763"><ele>270.1</ele><time>2026-08-16T21:36:14Z</time></trkpt>
<trkpt lat="35.131877" lon="-84.957761"><ele>270.1</ele><time>2026-08-16T21:36:16Z</time></trkpt>
<trkpt lat="35.131911" lon="-84.95776"><ele>270.1</ele><time>2026-08-16T21:36:18Z</time></trkpt>
<trkpt lat="35.131943" lon="-84.957753"><ele>270.4</ele><time>2026-08-16T21:36:20Z</time></trkpt>
<trkpt lat="35.131972" lon="-84.957741"><ele>270.7</ele><time>2026-08-16T21:36:22Z</time></trkpt>
<trkpt lat="35.131997" lon="-84.957717"><ele>270.7</ele><time>2026-08-16T21:36:24Z</time></trkpt>
<trkpt lat="35.132022" lon="-84.957697"><ele>271.0</ele><time>2026-08-16T21:36:26Z</time></trkpt>
<trkpt lat="35.132051" lon="-84.957687"><ele>271.0</ele><time>2026-08-16T21:36:28Z</time></trkpt>
<trkpt lat="35.132081" lon="-84.957679"><ele>271.3</ele><time>2026-08-16T21:36:30Z</time></trkpt>
<trkpt lat="35.132109" lon="-84.957666"><ele>271.3</ele><time>2026-08-16T21:36:32Z</time></trkpt>
<trkpt lat="35.132139" lon="-84.957652"><ele>271.6</ele><time>2026-08-16T21:36:34Z</time></trkpt>
<trkpt lat="35.132169" lon="-84.95764"><ele>271.6</ele><time>2026-08-16T21:36:36Z</time></trkpt>
<trkpt lat="35.1322" lon="-84.957635"><ele>271.6</ele><time>2026-08-16T21:36:38Z</time></trkpt>
<trkpt lat="35.132228" lon="-84.957643"><ele>271.9</ele><time>2026-08-16T21:36:40Z</time></trkpt>
<trkpt lat="35.132255" lon="-84.957651"><ele>271.9</ele><time>2026-08-16T21:36:42Z</time></trkpt>
<trkpt lat="35.132282" lon="-84.957668"><ele>271.6</ele><time>2026-08-16T21:36:44Z</time></trkpt>
<trkpt lat="35.132302" lon="-84.957692"><ele>271.6</ele><time>2026-08-16T21:36:46Z</time></trkpt>
<trkpt lat="35.132326" lon="-84.957731"><ele>271.6</ele><time>2026-08-16T21:36:49Z</time></trkpt>
<trkpt lat="35.132356" lon="-84.957764"><ele>271.9</ele><time>2026-08-16T21:36:52Z</time></trkpt>
<trkpt lat="35.132381" lon="-84.957802"><ele>272.5</ele><time>2026-08-16T21:36:55Z</time></trkpt>
<trkpt lat="35.132386" lon="-84.957852"><ele>272.5</ele><time>2026-08-16T21:36:58Z</time></trkpt>
<trkpt lat="35.132384" lon="-84.95789"><ele>272.5</ele><time>2026-08-16T21:37:00Z</time></trkpt>
<trkpt lat="35.132361" lon="-84.957922"><ele>272.5</ele><time>2026-08-16T21:37:02Z</time></trkpt>
<trkpt lat="35.132339" lon="-84.957949"><ele>272.5</ele><time>2026-08-16T21:37:04Z</time></trkpt>
<trkpt lat="35.13232" lon="-84.957978"><ele>272.8</ele><time>2026-08-16T21:37:06Z</time></trkpt>
<trkpt lat="35.132308" lon="-84.95801"><ele>272.8</ele><time>2026-08-16T21:37:08Z</time></trkpt>
<trkpt lat="35.132296" lon="-84.958044"><ele>272.8</ele><time>2026-08-16T21:37:10Z</time></trkpt>
<trkpt lat="35.132285" lon="-84.95808"><ele>272.8</ele><time>2026-08-16T21:37:12Z</time></trkpt>
<trkpt lat="35.132259" lon="-84.9581"><ele>273.1</ele><time>2026-08-16T21:37:14Z</time></trkpt>
<trkpt lat="35.132232" lon="-84.958091"><ele>272.8</ele><time>2026-08-16T21:37:16Z</time></trkpt>
<trkpt lat="35.132206" lon="-84.958076"><ele>272.8</ele><time>2026-08-16T21:37:18Z</time></trkpt>
<trkpt lat="35.132176" lon="-84.958073"><ele>272.5</ele><time>2026-08-16T21:37:20Z</time></trkpt>
<trkpt lat="35.132147" lon="-84.958072"><ele>272.5</ele><time>2026-08-16T21:37:22Z</time></trkpt>
<trkpt lat="35.132119" lon="-84.958072"><ele>272.5</ele><time>2026-08-16T21:37:24Z</time></trkpt>
<trkpt lat="35.132092" lon="-84.958083"><ele>272.5</ele><time>2026-08-16T21:37:26Z</time></trkpt>
<trkpt lat="35.132067" lon="-84.9581"><ele>272.8</ele><time>2026-08-16T21:37:28Z</time></trkpt>
<trkpt lat="35.132042" lon="-84.958117"><ele>272.8</ele><time>2026-08-16T21:37:30Z</time></trkpt>
<trkpt lat="35.132017" lon="-84.958136"><ele>272.8</ele><time>2026-08-16T21:37:32Z</time></trkpt>
<trkpt lat="35.131992" lon="-84.958156"><ele>273.1</ele><time>2026-08-16T21:37:34Z</time></trkpt>
<trkpt lat="35.131971" lon="-84.958183"><ele>273.4</ele><time>2026-08-16T21:37:36Z</time></trkpt>
<trkpt lat="35.131959" lon="-84.958219"><ele>273.7</ele><time>2026-08-16T21:37:38Z</time></trkpt>
<trkpt lat="35.131947" lon="-84.958254"><ele>273.7</ele><time>2026-08-16T21:37:40Z</time></trkpt>
<trkpt lat="35.131925" lon="-84.95828"><ele>274.0</ele><time>2026-08-16T21:37:42Z</time></trkpt>
<trkpt lat="35.131901" lon="-84.958301"><ele>274.0</ele><time>2026-08-16T21:37:44Z</time></trkpt>
<trkpt lat="35.131879" lon="-84.958326"><ele>274.0</ele><time>2026-08-16T21:37:46Z</time></trkpt>
<trkpt lat="35.131864" lon="-84.95836"><ele>274.0</ele><time>2026-08-16T21:37:48Z</time></trkpt>
<trkpt lat="35.131857" lon="-84.958401"><ele>274.0</ele><time>2026-08-16T21:37:50Z</time></trkpt>
<trkpt lat="35.131861" lon="-84.958447"><ele>274.3</ele><time>2026-08-16T21:37:52Z</time></trkpt>
<trkpt lat="35.131863" lon="-84.958489"><ele>274.3</ele><time>2026-08-16T21:37:54Z</time></trkpt>
<trkpt lat="35.131857" lon="-84.958528"><ele>274.3</ele><time>2026-08-16T21:37:56Z</time></trkpt>
<trkpt lat="35.131853" lon="-84.958564"><ele>274.3</ele><time>2026-08-16T21:37:58Z</time></trkpt>
<trkpt lat="35.131858" lon="-84.958601"><ele>274.3</ele><time>2026-08-16T21:38:00Z</time></trkpt>
<trkpt lat="35.131876" lon="-84.958636"><ele>274.3</ele><time>2026-08-16T21:38:02Z</time></trkpt>
<trkpt lat="35.131906" lon="-84.958659"><ele>274.6</ele><time>2026-08-16T21:38:04Z</time></trkpt>
<trkpt lat="35.13193" lon="-84.958684"><ele>274.6</ele><time>2026-08-16T21:38:06Z</time></trkpt>
<trkpt lat="35.131955" lon="-84.958704"><ele>274.6</ele><time>2026-08-16T21:38:08Z</time></trkpt>
<trkpt lat="35.13198" lon="-84.958721"><ele>274.6</ele><time>2026-08-16T21:38:10Z</time></trkpt>
<trkpt lat="35.132012" lon="-84.958732"><ele>274.6</ele><time>2026-08-16T21:38:12Z</time></trkpt>
<trkpt lat="35.13204" lon="-84.958748"><ele>274.9</ele><time>2026-08-16T21:38:14Z</time></trkpt>
<trkpt lat="35.132067" lon="-84.958759"><ele>274.9</ele><time>2026-08-16T21:38:16Z</time></trkpt>
<trkpt lat="35.132095" lon="-84.95877"><ele>274.9</ele><time>2026-08-16T21:38:18Z</time></trkpt>
<trkpt lat="35.132123" lon="-84.958783"><ele>275.2</ele><time>2026-08-16T21:38:20Z</time></trkpt>
<trkpt lat="35.132145" lon="-84.958804"><ele>275.2</ele><time>2026-08-16T21:38:22Z</time></trkpt>
<trkpt lat="35.132169" lon="-84.958824"><ele>275.2</ele><time>2026-08-16T21:38:24Z</time></trkpt>
<trkpt lat="35.132196" lon="-84.958846"><ele>275.2</ele><time>2026-08-16T21:38:26Z</time></trkpt>
<trkpt lat="35.132226" lon="-84.958859"><ele>275.2</ele><time>2026-08-16T21:38:28Z</time></trkpt>
<trkpt lat="35.132257" lon="-84.958871"><ele>275.2</ele><time>2026-08-16T21:38:30Z</time></trkpt>
<trkpt lat="35.132286" lon="-84.958887"><ele>275.2</ele><time>2026-08-16T21:38:32Z</time></trkpt>
<trkpt lat="35.132311" lon="-84.958909"><ele>275.2</ele><time>2026-08-16T21:38:34Z</time></trkpt>
<trkpt lat="35.132335" lon="-84.958933"><ele>275.2</ele><time>2026-08-16T21:38:36Z</time></trkpt>
<trkpt lat="35.132358" lon="-84.958956"><ele>275.2</ele><time>2026-08-16T21:38:38Z</time></trkpt>
<trkpt lat="35.132383" lon="-84.958992"><ele>275.2</ele><time>2026-08-16T21:38:41Z</time></trkpt>
<trkpt lat="35.132404" lon="-84.959034"><ele>275.5</ele><time>2026-08-16T21:38:44Z</time></trkpt>
<trkpt lat="35.132393" lon="-84.959074"><ele>275.5</ele><time>2026-08-16T21:38:46Z</time></trkpt>
<trkpt lat="35.132367" lon="-84.959107"><ele>275.5</ele><time>2026-08-16T21:38:48Z</time></trkpt>
<trkpt lat="35.132324" lon="-84.959109"><ele>275.5</ele><time>2026-08-16T21:38:51Z</time></trkpt>
<trkpt lat="35.132295" lon="-84.959099"><ele>275.8</ele><time>2026-08-16T21:38:53Z</time></trkpt>
<trkpt lat="35.132266" lon="-84.959087"><ele>276.1</ele><time>2026-08-16T21:38:55Z</time></trkpt>
<trkpt lat="35.132235" lon="-84.959077"><ele>276.1</ele><time>2026-08-16T21:38:57Z</time></trkpt>
<trkpt lat="35.132206" lon="-84.959069"><ele>276.1</ele><time>2026-08-16T21:38:59Z</time></trkpt>
<trkpt lat="35.132165" lon="-84.959059"><ele>276.1</ele><time>2026-08-16T21:39:02Z</time></trkpt>
<trkpt lat="35.132137" lon="-84.959054"><ele>276.1</ele><time>2026-08-16T21:39:04Z</time></trkpt>
<trkpt lat="35.132107" lon="-84.959048"><ele>276.1</ele><time>2026-08-16T21:39:06Z</time></trkpt>
<trkpt lat="35.132077" lon="-84.959049"><ele>276.5</ele><time>2026-08-16T21:39:08Z</time></trkpt>
<trkpt lat="35.132049" lon="-84.959054"><ele>276.5</ele><time>2026-08-16T21:39:10Z</time></trkpt>
<trkpt lat="35.13202" lon="-84.95906"><ele>276.5</ele><time>2026-08-16T21:39:12Z</time></trkpt>
<trkpt lat="35.131991" lon="-84.959067"><ele>276.5</ele><time>2026-08-16T21:39:14Z</time></trkpt>
<trkpt lat="35.131951" lon="-84.959079"><ele>276.8</ele><time>2026-08-16T21:39:17Z</time></trkpt>
<trkpt lat="35.131915" lon="-84.959104"><ele>277.4</ele><time>2026-08-16T21:39:20Z</time></trkpt>
<trkpt lat="35.131894" lon="-84.959128"><ele>277.7</ele><time>2026-08-16T21:39:22Z</time></trkpt>
<trkpt lat="35.131875" lon="-84.959154"><ele>278.0</ele><time>2026-08-16T21:39:24Z</time></trkpt>
<trkpt lat="35.131853" lon="-84.959176"><ele>278.0</ele><time>2026-08-16T21:39:26Z</time></trkpt>
<trkpt lat="35.131827" lon="-84.959214"><ele>278.0</ele><time>2026-08-16T21:39:29Z</time></trkpt>
<trkpt lat="35.131809" lon="-84.959241"><ele>278.3</ele><time>2026-08-16T21:39:31Z</time></trkpt>
<trkpt lat="35.131786" lon="-84.959282"><ele>278.3</ele><time>2026-08-16T21:39:34Z</time></trkpt>
<trkpt lat="35.131766" lon="-84.959309"><ele>278.3</ele><time>2026-08-16T21:39:36Z</time></trkpt>
<trkpt lat="35.13175" lon="-84.959337"><ele>278.3</ele><time>2026-08-16T21:39:38Z</time></trkpt>
<trkpt lat="35.131736" lon="-84.95937"><ele>278.3</ele><time>2026-08-16T21:39:40Z</time></trkpt>
<trkpt lat="35.131726" lon="-84.959407"><ele>278.3</ele><time>2026-08-16T21:39:42Z</time></trkpt>
<trkpt lat="35.131714" lon="-84.959439"><ele>278.6</ele><time>2026-08-16T21:39:44Z</time></trkpt>
<trkpt lat="35.1317" lon="-84.959471"><ele>278.9</ele><time>2026-08-16T21:39:46Z</time></trkpt>
<trkpt lat="35.131686" lon="-84.959504"><ele>278.9</ele><time>2026-08-16T21:39:48Z</time></trkpt>
<trkpt lat="35.13167" lon="-84.959536"><ele>279.2</ele><time>2026-08-16T21:39:50Z</time></trkpt>
<trkpt lat="35.131644" lon="-84.959558"><ele>279.2</ele><time>2026-08-16T21:39:52Z</time></trkpt>
<trkpt lat="35.131621" lon="-84.959583"><ele>279.5</ele><time>2026-08-16T21:39:54Z</time></trkpt>
<trkpt lat="35.131581" lon="-84.959596"><ele>279.2</ele><time>2026-08-16T21:39:57Z</time></trkpt>
<trkpt lat="35.131552" lon="-84.959599"><ele>279.2</ele><time>2026-08-16T21:39:59Z</time></trkpt>
<trkpt lat="35.131522" lon="-84.959605"><ele>278.9</ele><time>2026-08-16T21:40:01Z</time></trkpt>
<trkpt lat="35.131493" lon="-84.959611"><ele>278.6</ele><time>2026-08-16T21:40:03Z</time></trkpt>
<trkpt lat="35.131458" lon="-84.959612"><ele>278.0</ele><time>2026-08-16T21:40:06Z</time></trkpt>
<trkpt lat="35.131419" lon="-84.959609"><ele>277.4</ele><time>2026-08-16T21:40:09Z</time></trkpt>
<trkpt lat="35.131389" lon="-84.959611"><ele>277.1</ele><time>2026-08-16T21:40:11Z</time></trkpt>
<trkpt lat="35.131358" lon="-84.959618"><ele>277.1</ele><time>2026-08-16T21:40:13Z</time></trkpt>
<trkpt lat="35.131326" lon="-84.959626"><ele>277.1</ele><time>2026-08-16T21:40:15Z</time></trkpt>
<trkpt lat="35.131297" lon="-84.959638"><ele>277.1</ele><time>2026-08-16T21:40:17Z</time></trkpt>
<trkpt lat="35.131268" lon="-84.959639"><ele>276.8</ele><time>2026-08-16T21:40:19Z</time></trkpt>
<trkpt lat="35.13124" lon="-84.959639"><ele>276.8</ele><time>2026-08-16T21:40:21Z</time></trkpt>
<trkpt lat="35.131211" lon="-84.959652"><ele>276.5</ele><time>2026-08-16T21:40:23Z</time></trkpt>
<trkpt lat="35.131185" lon="-84.959668"><ele>276.8</ele><time>2026-08-16T21:40:25Z</time></trkpt>
<trkpt lat="35.131159" lon="-84.959688"><ele>276.8</ele><time>2026-08-16T21:40:27Z</time></trkpt>
<trkpt lat="35.131125" lon="-84.959713"><ele>276.5</ele><time>2026-08-16T21:40:30Z</time></trkpt>
<trkpt lat="35.131086" lon="-84.95973"><ele>276.5</ele><time>2026-08-16T21:40:33Z</time></trkpt>
<trkpt lat="35.131057" lon="-84.959737"><ele>276.1</ele><time>2026-08-16T21:40:35Z</time></trkpt>
<trkpt lat="35.13102" lon="-84.959759"><ele>275.8</ele><time>2026-08-16T21:40:38Z</time></trkpt>
<trkpt lat="35.130997" lon="-84.959779"><ele>275.5</ele><time>2026-08-16T21:40:40Z</time></trkpt>
<trkpt lat="35.130973" lon="-84.959801"><ele>275.5</ele><time>2026-08-16T21:40:42Z</time></trkpt>
<trkpt lat="35.130951" lon="-84.959825"><ele>275.2</ele><time>2026-08-16T21:40:44Z</time></trkpt>
<trkpt lat="35.130938" lon="-84.959861"><ele>275.2</ele><time>2026-08-16T21:40:46Z</time></trkpt>
<trkpt lat="35.130928" lon="-84.959905"><ele>275.2</ele><time>2026-08-16T21:40:48Z</time></trkpt>
<trkpt lat="35.130918" lon="-84.959943"><ele>275.2</ele><time>2026-08-16T21:40:50Z</time></trkpt>
<trkpt lat="35.130885" lon="-84.959971"><ele>274.9</ele><time>2026-08-16T21:40:53Z</time></trkpt>
<trkpt lat="35.130858" lon="-84.959979"><ele>274.9</ele><time>2026-08-16T21:40:55Z</time></trkpt>
<trkpt lat="35.13082" lon="-84.959991"><ele>274.6</ele><time>2026-08-16T21:40:58Z</time></trkpt>
<trkpt lat="35.130792" lon="-84.959996"><ele>274.3</ele><time>2026-08-16T21:41:00Z</time></trkpt>
<trkpt lat="35.130761" lon="-84.959997"><ele>274.0</ele><time>2026-08-16T21:41:02Z</time></trkpt>
<trkpt lat="35.130733" lon="-84.960003"><ele>273.7</ele><time>2026-08-16T21:41:04Z</time></trkpt>
<trkpt lat="35.130703" lon="-84.960012"><ele>273.4</ele><time>2026-08-16T21:41:06Z</time></trkpt>
<trkpt lat="35.130679" lon="-84.960032"><ele>273.4</ele><time>2026-08-16T21:41:08Z</time></trkpt>
<trkpt lat="35.130655" lon="-84.960058"><ele>273.4</ele><time>2026-08-16T21:41:10Z</time></trkpt>
<trkpt lat="35.13064" lon="-84.960096"><ele>273.1</ele><time>2026-08-16T21:41:12Z</time></trkpt>
<trkpt lat="35.13064" lon="-84.960139"><ele>273.1</ele><time>2026-08-16T21:41:14Z</time></trkpt>
<trkpt lat="35.130666" lon="-84.96018"><ele>273.4</ele><time>2026-08-16T21:41:16Z</time></trkpt>
<trkpt lat="35.130691" lon="-84.960212"><ele>273.4</ele><time>2026-08-16T21:41:18Z</time></trkpt>
<trkpt lat="35.130715" lon="-84.960243"><ele>273.4</ele><time>2026-08-16T21:41:20Z</time></trkpt>
<trkpt lat="35.130744" lon="-84.960272"><ele>273.7</ele><time>2026-08-16T21:41:22Z</time></trkpt>
<trkpt lat="35.130774" lon="-84.960296"><ele>274.0</ele><time>2026-08-16T21:41:24Z</time></trkpt>
<trkpt lat="35.130806" lon="-84.96032"><ele>274.3</ele><time>2026-08-16T21:41:26Z</time></trkpt>
<trkpt lat="35.130826" lon="-84.960351"><ele>274.6</ele><time>2026-08-16T21:41:28Z</time></trkpt>
<trkpt lat="35.130845" lon="-84.96038"><ele>274.6</ele><time>2026-08-16T21:41:30Z</time></trkpt>
<trkpt lat="35.130867" lon="-84.960406"><ele>274.9</ele><time>2026-08-16T21:41:32Z</time></trkpt>
<trkpt lat="35.130896" lon="-84.960441"><ele>275.5</ele><time>2026-08-16T21:41:35Z</time></trkpt>
<trkpt lat="35.130925" lon="-84.960456"><ele>275.8</ele><time>2026-08-16T21:41:37Z</time></trkpt>
<trkpt lat="35.130952" lon="-84.960469"><ele>276.1</ele><time>2026-08-16T21:41:39Z</time></trkpt>
<trkpt lat="35.130982" lon="-84.960454"><ele>276.8</ele><time>2026-08-16T21:41:41Z</time></trkpt>
<trkpt lat="35.130989" lon="-84.960412"><ele>277.1</ele><time>2026-08-16T21:41:43Z</time></trkpt>
<trkpt lat="35.130979" lon="-84.960369"><ele>277.1</ele><time>2026-08-16T21:41:45Z</time></trkpt>
<trkpt lat="35.130974" lon="-84.960328"><ele>277.4</ele><time>2026-08-16T21:41:47Z</time></trkpt>
<trkpt lat="35.130982" lon="-84.960294"><ele>277.4</ele><time>2026-08-16T21:41:49Z</time></trkpt>
<trkpt lat="35.130993" lon="-84.960261"><ele>277.7</ele><time>2026-08-16T21:41:51Z</time></trkpt>
<trkpt lat="35.131002" lon="-84.960228"><ele>278.0</ele><time>2026-08-16T21:41:53Z</time></trkpt>
<trkpt lat="35.131018" lon="-84.9602"><ele>278.0</ele><time>2026-08-16T21:41:55Z</time></trkpt>
<trkpt lat="35.131038" lon="-84.960173"><ele>278.3</ele><time>2026-08-16T21:41:57Z</time></trkpt>
<trkpt lat="35.131055" lon="-84.960142"><ele>278.6</ele><time>2026-08-16T21:41:59Z</time></trkpt>
<trkpt lat="35.131076" lon="-84.960118"><ele>278.9</ele><time>2026-08-16T21:42:01Z</time></trkpt>
<trkpt lat="35.131097" lon="-84.960094"><ele>278.9</ele><time>2026-08-16T21:42:03Z</time></trkpt>
<trkpt lat="35.131115" lon="-84.960067"><ele>279.2</ele><time>2026-08-16T21:42:05Z</time></trkpt>
<trkpt lat="35.131133" lon="-84.960036"><ele>279.5</ele><time>2026-08-16T21:42:07Z</time></trkpt>
<trkpt lat="35.131154" lon="-84.960011"><ele>279.5</ele><time>2026-08-16T21:42:09Z</time></trkpt>
<trkpt lat="35.131177" lon="-84.95999"><ele>279.8</ele><time>2026-08-16T21:42:11Z</time></trkpt>
<trkpt lat="35.131206" lon="-84.959973"><ele>280.1</ele><time>2026-08-16T21:42:13Z</time></trkpt>
<trkpt lat="35.131235" lon="-84.959962"><ele>280.1</ele><time>2026-08-16T21:42:15Z</time></trkpt>
<trkpt lat="35.13126" lon="-84.959945"><ele>280.4</ele><time>2026-08-16T21:42:17Z</time></trkpt>
<trkpt lat="35.131285" lon="-84.959926"><ele>280.7</ele><time>2026-08-16T21:42:19Z</time></trkpt>
<trkpt lat="35.13131" lon="-84.959913"><ele>281.0</ele><time>2026-08-16T21:42:21Z</time></trkpt>
<trkpt lat="35.131337" lon="-84.959902"><ele>281.3</ele><time>2026-08-16T21:42:23Z</time></trkpt>
<trkpt lat="35.131375" lon="-84.959882"><ele>281.6</ele><time>2026-08-16T21:42:26Z</time></trkpt>
<trkpt lat="35.131401" lon="-84.959874"><ele>281.6</ele><time>2026-08-16T21:42:28Z</time></trkpt>
<trkpt lat="35.131441" lon="-84.959873"><ele>281.9</ele><time>2026-08-16T21:42:31Z</time></trkpt>
<trkpt lat="35.131479" lon="-84.959868"><ele>282.2</ele><time>2026-08-16T21:42:34Z</time></trkpt>
<trkpt lat="35.131506" lon="-84.95986"><ele>282.5</ele><time>2026-08-16T21:42:36Z</time></trkpt>
<trkpt lat="35.131547" lon="-84.959855"><ele>282.9</ele><time>2026-08-16T21:42:39Z</time></trkpt>
<trkpt lat="35.131576" lon="-84.959852"><ele>283.2</ele><time>2026-08-16T21:42:41Z</time></trkpt>
<trkpt lat="35.131613" lon="-84.959841"><ele>283.5</ele><time>2026-08-16T21:42:44Z</time></trkpt>
<trkpt lat="35.131652" lon="-84.959822"><ele>283.8</ele><time>2026-08-16T21:42:47Z</time></trkpt>
<trkpt lat="35.131692" lon="-84.959814"><ele>284.1</ele><time>2026-08-16T21:42:50Z</time></trkpt>
<trkpt lat="35.131733" lon="-84.95981"><ele>284.4</ele><time>2026-08-16T21:42:53Z</time></trkpt>
<trkpt lat="35.13176" lon="-84.959796"><ele>284.4</ele><time>2026-08-16T21:42:55Z</time></trkpt>
<trkpt lat="35.131794" lon="-84.959771"><ele>284.7</ele><time>2026-08-16T21:42:58Z</time></trkpt>
<trkpt lat="35.13182" lon="-84.959758"><ele>284.7</ele><time>2026-08-16T21:43:00Z</time></trkpt>
<trkpt lat="35.131846" lon="-84.959741"><ele>285.0</ele><time>2026-08-16T21:43:02Z</time></trkpt>
<trkpt lat="35.13187" lon="-84.959722"><ele>285.0</ele><time>2026-08-16T21:43:04Z</time></trkpt>
<trkpt lat="35.131893" lon="-84.959701"><ele>285.3</ele><time>2026-08-16T21:43:06Z</time></trkpt>
<trkpt lat="35.131917" lon="-84.959681"><ele>285.6</ele><time>2026-08-16T21:43:08Z</time></trkpt>
<trkpt lat="35.131943" lon="-84.959666"><ele>285.6</ele><time>2026-08-16T21:43:10Z</time></trkpt>
<trkpt lat="35.131972" lon="-84.959657"><ele>285.9</ele><time>2026-08-16T21:43:12Z</time></trkpt>
<trkpt lat="35.132012" lon="-84.959656"><ele>286.5</ele><time>2026-08-16T21:43:15Z</time></trkpt>
<trkpt lat="35.132039" lon="-84.959624"><ele>286.5</ele><time>2026-08-16T21:43:18Z</time></trkpt>
<trkpt lat="35.132049" lon="-84.959592"><ele>286.5</ele><time>2026-08-16T21:43:20Z</time></trkpt>
<trkpt lat="35.13208" lon="-84.959558"><ele>286.2</ele><time>2026-08-16T21:43:23Z</time></trkpt>
<trkpt lat="35.132108" lon="-84.959545"><ele>286.2</ele><time>2026-08-16T21:43:25Z</time></trkpt>
<trkpt lat="35.132135" lon="-84.959536"><ele>286.2</ele><time>2026-08-16T21:43:27Z</time></trkpt>
<trkpt lat="35.132163" lon="-84.959538"><ele>286.5</ele><time>2026-08-16T21:43:29Z</time></trkpt>
<trkpt lat="35.132191" lon="-84.959536"><ele>286.8</ele><time>2026-08-16T21:43:31Z</time></trkpt>
<trkpt lat="35.132219" lon="-84.95953"><ele>287.1</ele><time>2026-08-16T21:43:33Z</time></trkpt>
<trkpt lat="35.132246" lon="-84.959525"><ele>287.1</ele><time>2026-08-16T21:43:35Z</time></trkpt>
<trkpt lat="35.132276" lon="-84.959526"><ele>287.4</ele><time>2026-08-16T21:43:37Z</time></trkpt>
<trkpt lat="35.132317" lon="-84.959526"><ele>287.7</ele><time>2026-08-16T21:43:40Z</time></trkpt>
<trkpt lat="35.132356" lon="-84.959513"><ele>288.0</ele><time>2026-08-16T21:43:43Z</time></trkpt>
<trkpt lat="35.132387" lon="-84.959513"><ele>288.0</ele><time>2026-08-16T21:43:45Z</time></trkpt>
<trkpt lat="35.132427" lon="-84.95951"><ele>288.3</ele><time>2026-08-16T21:43:48Z</time></trkpt>
<trkpt lat="35.132467" lon="-84.959522"><ele>288.3</ele><time>2026-08-16T21:43:51Z</time></trkpt>
<trkpt lat="35.132496" lon="-84.959526"><ele>288.6</ele><time>2026-08-16T21:43:53Z</time></trkpt>
<trkpt lat="35.132535" lon="-84.959534"><ele>288.3</ele><time>2026-08-16T21:43:56Z</time></trkpt>
<trkpt lat="35.132574" lon="-84.959546"><ele>288.0</ele><time>2026-08-16T21:43:59Z</time></trkpt>
<trkpt lat="35.132601" lon="-84.959555"><ele>288.0</ele><time>2026-08-16T21:44:01Z</time></trkpt>
<trkpt lat="35.132628" lon="-84.959571"><ele>288.0</ele><time>2026-08-16T21:44:03Z</time></trkpt>
<trkpt lat="35.132655" lon="-84.959591"><ele>287.7</ele><time>2026-08-16T21:44:05Z</time></trkpt>
<trkpt lat="35.132681" lon="-84.959606"><ele>287.7</ele><time>2026-08-16T21:44:07Z</time></trkpt>
<trkpt lat="35.132716" lon="-84.959629"><ele>287.4</ele><time>2026-08-16T21:44:10Z</time></trkpt>
<trkpt lat="35.132737" lon="-84.95965"><ele>287.4</ele><time>2026-08-16T21:44:12Z</time></trkpt>
<trkpt lat="35.132776" lon="-84.959664"><ele>287.1</ele><time>2026-08-16T21:44:15Z</time></trkpt>
<trkpt lat="35.132805" lon="-84.959659"><ele>287.1</ele><time>2026-08-16T21:44:17Z</time></trkpt>
<trkpt lat="35.132835" lon="-84.959649"><ele>287.1</ele><time>2026-08-16T21:44:19Z</time></trkpt>
<trkpt lat="35.132855" lon="-84.959626"><ele>287.4</ele><time>2026-08-16T21:44:21Z</time></trkpt>
<trkpt lat="35.132864" lon="-84.959593"><ele>287.4</ele><time>2026-08-16T21:44:23Z</time></trkpt>
<trkpt lat="35.132861" lon="-84.959552"><ele>287.4</ele><time>2026-08-16T21:44:25Z</time></trkpt>
<trkpt lat="35.132861" lon="-84.959514"><ele>287.1</ele><time>2026-08-16T21:44:27Z</time></trkpt>
<trkpt lat="35.132862" lon="-84.959476"><ele>287.1</ele><time>2026-08-16T21:44:29Z</time></trkpt>
<trkpt lat="35.132855" lon="-84.959436"><ele>287.4</ele><time>2026-08-16T21:44:31Z</time></trkpt>
<trkpt lat="35.132848" lon="-84.959399"><ele>287.4</ele><time>2026-08-16T21:44:33Z</time></trkpt>
<trkpt lat="35.13285" lon="-84.959365"><ele>287.4</ele><time>2026-08-16T21:44:35Z</time></trkpt>
<trkpt lat="35.132863" lon="-84.959332"><ele>287.4</ele><time>2026-08-16T21:44:37Z</time></trkpt>
<trkpt lat="35.132874" lon="-84.959301"><ele>287.4</ele><time>2026-08-16T21:44:39Z</time></trkpt>
<trkpt lat="35.132895" lon="-84.959276"><ele>287.7</ele><time>2026-08-16T21:44:41Z</time></trkpt>
<trkpt lat="35.132922" lon="-84.959259"><ele>287.7</ele><time>2026-08-16T21:44:43Z</time></trkpt>
<trkpt lat="35.132946" lon="-84.959239"><ele>288.0</ele><time>2026-08-16T21:44:45Z</time></trkpt>
<trkpt lat="35.13297" lon="-84.959217"><ele>288.0</ele><time>2026-08-16T21:44:47Z</time></trkpt>
<trkpt lat="35.132988" lon="-84.959191"><ele>288.3</ele><time>2026-08-16T21:44:49Z</time></trkpt>
<trkpt lat="35.133008" lon="-84.959167"><ele>288.3</ele><time>2026-08-16T21:44:51Z</time></trkpt>
<trkpt lat="35.133025" lon="-84.959139"><ele>288.0</ele><time>2026-08-16T21:44:53Z</time></trkpt>
<trkpt lat="35.133047" lon="-84.959097"><ele>288.0</ele><time>2026-08-16T21:44:56Z</time></trkpt>
<trkpt lat="35.133057" lon="-84.959063"><ele>288.0</ele><time>2026-08-16T21:44:58Z</time></trkpt>
<trkpt lat="35.13307" lon="-84.959033"><ele>287.7</ele><time>2026-08-16T21:45:00Z</time></trkpt>
<trkpt lat="35.133084" lon="-84.959003"><ele>287.7</ele><time>2026-08-16T21:45:02Z</time></trkpt>
<trkpt lat="35.133101" lon="-84.958976"><ele>288.0</ele><time>2026-08-16T21:45:04Z</time></trkpt>
<trkpt lat="35.133122" lon="-84.958951"><ele>288.0</ele><time>2026-08-16T21:45:06Z</time></trkpt>
<trkpt lat="35.133143" lon="-84.958929"><ele>288.0</ele><time>2026-08-16T21:45:08Z</time></trkpt>
<trkpt lat="35.13316" lon="-84.958899"><ele>288.0</ele><time>2026-08-16T21:45:10Z</time></trkpt>
<trkpt lat="35.133168" lon="-84.958866"><ele>287.7</ele><time>2026-08-16T21:45:12Z</time></trkpt>
<trkpt lat="35.133181" lon="-84.958835"><ele>287.7</ele><time>2026-08-16T21:45:14Z</time></trkpt>
<trkpt lat="35.133182" lon="-84.958798"><ele>287.4</ele><time>2026-08-16T21:45:16Z</time></trkpt>
<trkpt lat="35.133182" lon="-84.958761"><ele>287.4</ele><time>2026-08-16T21:45:18Z</time></trkpt>
<trkpt lat="35.133201" lon="-84.958731"><ele>287.1</ele><time>2026-08-16T21:45:20Z</time></trkpt>
<trkpt lat="35.133217" lon="-84.9587"><ele>287.4</ele><time>2026-08-16T21:45:22Z</time></trkpt>
<trkpt lat="35.133235" lon="-84.958656"><ele>287.1</ele><time>2026-08-16T21:45:25Z</time></trkpt>
<trkpt lat="35.133233" lon="-84.958622"><ele>287.1</ele><time>2026-08-16T21:45:27Z</time></trkpt>
<trkpt lat="35.133214" lon="-84.958588"><ele>286.8</ele><time>2026-08-16T21:45:29Z</time></trkpt>
<trkpt lat="35.133191" lon="-84.958558"><ele>286.8</ele><time>2026-08-16T21:45:31Z</time></trkpt>
<trkpt lat="35.133176" lon="-84.958521"><ele>287.1</ele><time>2026-08-16T21:45:33Z</time></trkpt>
<trkpt lat="35.133172" lon="-84.958485"><ele>287.1</ele><time>2026-08-16T21:45:35Z</time></trkpt>
<trkpt lat="35.133187" lon="-84.958454"><ele>287.4</ele><time>2026-08-16T21:45:37Z</time></trkpt>
<trkpt lat="35.133212" lon="-84.958438"><ele>287.1</ele><time>2026-08-16T21:45:39Z</time></trkpt>
<trkpt lat="35.133242" lon="-84.958429"><ele>287.1</ele><time>2026-08-16T21:45:41Z</time></trkpt>
<trkpt lat="35.133271" lon="-84.958426"><ele>286.8</ele><time>2026-08-16T21:45:43Z</time></trkpt>
<trkpt lat="35.133313" lon="-84.958427"><ele>286.8</ele><time>2026-08-16T21:45:46Z</time></trkpt>
<trkpt lat="35.133343" lon="-84.95843"><ele>286.5</ele><time>2026-08-16T21:45:48Z</time></trkpt>
<trkpt lat="35.133371" lon="-84.958429"><ele>286.5</ele><time>2026-08-16T21:45:50Z</time></trkpt>
<trkpt lat="35.133412" lon="-84.958435"><ele>286.2</ele><time>2026-08-16T21:45:53Z</time></trkpt>
<trkpt lat="35.13344" lon="-84.958449"><ele>285.9</ele><time>2026-08-16T21:45:55Z</time></trkpt>
<trkpt lat="35.133465" lon="-84.958469"><ele>285.9</ele><time>2026-08-16T21:45:57Z</time></trkpt>
<trkpt lat="35.133504" lon="-84.958483"><ele>285.6</ele><time>2026-08-16T21:46:00Z</time></trkpt>
<trkpt lat="35.133533" lon="-84.95849"><ele>285.6</ele><time>2026-08-16T21:46:02Z</time></trkpt>
<trkpt lat="35.13356" lon="-84.958502"><ele>285.9</ele><time>2026-08-16T21:46:04Z</time></trkpt>
<trkpt lat="35.133585" lon="-84.958521"><ele>285.9</ele><time>2026-08-16T21:46:06Z</time></trkpt>
<trkpt lat="35.133611" lon="-84.958529"><ele>285.9</ele><time>2026-08-16T21:46:08Z</time></trkpt>
<trkpt lat="35.133651" lon="-84.958537"><ele>286.2</ele><time>2026-08-16T21:46:11Z</time></trkpt>
<trkpt lat="35.13368" lon="-84.958534"><ele>286.2</ele><time>2026-08-16T21:46:13Z</time></trkpt>
<trkpt lat="35.133709" lon="-84.958527"><ele>286.2</ele><time>2026-08-16T21:46:15Z</time></trkpt>
<trkpt lat="35.133735" lon="-84.958507"><ele>286.2</ele><time>2026-08-16T21:46:17Z</time></trkpt>
<trkpt lat="35.13375" lon="-84.958478"><ele>286.2</ele><time>2026-08-16T21:46:19Z</time></trkpt>
<trkpt lat="35.133751" lon="-84.958439"><ele>286.2</ele><time>2026-08-16T21:46:21Z</time></trkpt>
<trkpt lat="35.133747" lon="-84.958402"><ele>286.2</ele><time>2026-08-16T21:46:23Z</time></trkpt>
<trkpt lat="35.133729" lon="-84.958368"><ele>286.2</ele><time>2026-08-16T21:46:25Z</time></trkpt>
<trkpt lat="35.133714" lon="-84.958336"><ele>286.5</ele><time>2026-08-16T21:46:27Z</time></trkpt>
<trkpt lat="35.1337" lon="-84.958302"><ele>286.5</ele><time>2026-08-16T21:46:29Z</time></trkpt>
<trkpt lat="35.133684" lon="-84.95827"><ele>286.8</ele><time>2026-08-16T21:46:31Z</time></trkpt>
<trkpt lat="35.13367" lon="-84.958237"><ele>286.8</ele><time>2026-08-16T21:46:33Z</time></trkpt>
<trkpt lat="35.133659" lon="-84.958203"><ele>287.1</ele><time>2026-08-16T21:46:35Z</time></trkpt>
<trkpt lat="35.133648" lon="-84.958169"><ele>286.8</ele><time>2026-08-16T21:46:37Z</time></trkpt>
<trkpt lat="35.133648" lon="-84.958134"><ele>286.8</ele><time>2026-08-16T21:46:39Z</time></trkpt>
<trkpt lat="35.133649" lon="-84.958099"><ele>286.8</ele><time>2026-08-16T21:46:41Z</time></trkpt>
<trkpt lat="35.133656" lon="-84.958064"><ele>286.8</ele><time>2026-08-16T21:46:43Z</time></trkpt>
<trkpt lat="35.133664" lon="-84.958028"><ele>286.8</ele><time>2026-08-16T21:46:45Z</time></trkpt>
<trkpt lat="35.133685" lon="-84.957999"><ele>287.1</ele><time>2026-08-16T21:46:47Z</time></trkpt>
<trkpt lat="35.133712" lon="-84.957979"><ele>287.1</ele><time>2026-08-16T21:46:49Z</time></trkpt>
<trkpt lat="35.133739" lon="-84.957964"><ele>287.1</ele><time>2026-08-16T21:46:51Z</time></trkpt>
<trkpt lat="35.133765" lon="-84.957946"><ele>287.4</ele><time>2026-08-16T21:46:53Z</time></trkpt>
<trkpt lat="35.133787" lon="-84.957926"><ele>287.4</ele><time>2026-08-16T21:46:55Z</time></trkpt>
<trkpt lat="35.133803" lon="-84.957894"><ele>287.1</ele><time>2026-08-16T21:46:57Z</time></trkpt>
<trkpt lat="35.133823" lon="-84.957867"><ele>286.8</ele><time>2026-08-16T21:46:59Z</time></trkpt>
<trkpt lat="35.133848" lon="-84.957847"><ele>286.8</ele><time>2026-08-16T21:47:01Z</time></trkpt>
<trkpt lat="35.133878" lon="-84.957831"><ele>286.5</ele><time>2026-08-16T21:47:03Z</time></trkpt>
<trkpt lat="35.133907" lon="-84.957823"><ele>286.5</ele><time>2026-08-16T21:47:05Z</time></trkpt>
<trkpt lat="35.133936" lon="-84.957814"><ele>286.5</ele><time>2026-08-16T21:47:07Z</time></trkpt>
<trkpt lat="35.133975" lon="-84.957807"><ele>286.5</ele><time>2026-08-16T21:47:10Z</time></trkpt>
<trkpt lat="35.134012" lon="-84.957806"><ele>286.2</ele><time>2026-08-16T21:47:13Z</time></trkpt>
<trkpt lat="35.134049" lon="-84.9578"><ele>285.9</ele><time>2026-08-16T21:47:16Z</time></trkpt>
<trkpt lat="35.134074" lon="-84.957763"><ele>285.9</ele><time>2026-08-16T21:47:19Z</time></trkpt>
<trkpt lat="35.134081" lon="-84.957728"><ele>285.9</ele><time>2026-08-16T21:47:21Z</time></trkpt>
<trkpt lat="35.134094" lon="-84.957694"><ele>285.9</ele><time>2026-08-16T21:47:23Z</time></trkpt>
<trkpt lat="35.134115" lon="-84.957664"><ele>285.6</ele><time>2026-08-16T21:47:25Z</time></trkpt>
<trkpt lat="35.134129" lon="-84.957632"><ele>285.3</ele><time>2026-08-16T21:47:27Z</time></trkpt>
<trkpt lat="35.134135" lon="-84.957596"><ele>285.3</ele><time>2026-08-16T21:47:29Z</time></trkpt>
<trkpt lat="35.134135" lon="-84.95756"><ele>285.0</ele><time>2026-08-16T21:47:31Z</time></trkpt>
<trkpt lat="35.134134" lon="-84.957524"><ele>285.0</ele><time>2026-08-16T21:47:33Z</time></trkpt>
<trkpt lat="35.134139" lon="-84.95749"><ele>284.7</ele><time>2026-08-16T21:47:35Z</time></trkpt>
<trkpt lat="35.134133" lon="-84.957456"><ele>284.7</ele><time>2026-08-16T21:47:37Z</time></trkpt>
<trkpt lat="35.134115" lon="-84.957423"><ele>284.4</ele><time>2026-08-16T21:47:39Z</time></trkpt>
<trkpt lat="35.134088" lon="-84.957404"><ele>284.1</ele><time>2026-08-16T21:47:41Z</time></trkpt>
<trkpt lat="35.134062" lon="-84.957385"><ele>284.1</ele><time>2026-08-16T21:47:43Z</time></trkpt>
<trkpt lat="35.134041" lon="-84.957364"><ele>283.8</ele><time>2026-08-16T21:47:45Z</time></trkpt>
<trkpt lat="35.134007" lon="-84.957334"><ele>283.5</ele><time>2026-08-16T21:47:48Z</time></trkpt>
<trkpt lat="35.133983" lon="-84.957318"><ele>283.8</ele><time>2026-08-16T21:47:50Z</time></trkpt>
<trkpt lat="35.133953" lon="-84.957307"><ele>283.2</ele><time>2026-08-16T21:47:52Z</time></trkpt>
<trkpt lat="35.133922" lon="-84.957302"><ele>282.9</ele><time>2026-08-16T21:47:54Z</time></trkpt>
<trkpt lat="35.133892" lon="-84.957294"><ele>282.9</ele><time>2026-08-16T21:47:56Z</time></trkpt>
<trkpt lat="35.133854" lon="-84.957283"><ele>282.5</ele><time>2026-08-16T21:47:59Z</time></trkpt>
<trkpt lat="35.133815" lon="-84.957265"><ele>282.5</ele><time>2026-08-16T21:48:02Z</time></trkpt>
<trkpt lat="35.133792" lon="-84.95724"><ele>282.9</ele><time>2026-08-16T21:48:04Z</time></trkpt>
<trkpt lat="35.133786" lon="-84.957202"><ele>282.5</ele><time>2026-08-16T21:48:06Z</time></trkpt>
<trkpt lat="35.133789" lon="-84.957164"><ele>282.5</ele><time>2026-08-16T21:48:08Z</time></trkpt>
<trkpt lat="35.13379" lon="-84.957126"><ele>282.5</ele><time>2026-08-16T21:48:10Z</time></trkpt>
<trkpt lat="35.133808" lon="-84.957083"><ele>282.2</ele><time>2026-08-16T21:48:13Z</time></trkpt>
<trkpt lat="35.133835" lon="-84.957069"><ele>282.2</ele><time>2026-08-16T21:48:15Z</time></trkpt>
<trkpt lat="35.133864" lon="-84.957065"><ele>282.2</ele><time>2026-08-16T21:48:17Z</time></trkpt>
<trkpt lat="35.133893" lon="-84.957052"><ele>281.9</ele><time>2026-08-16T21:48:19Z</time></trkpt>
<trkpt lat="35.133922" lon="-84.957041"><ele>281.9</ele><time>2026-08-16T21:48:21Z</time></trkpt>
<trkpt lat="35.13395" lon="-84.957027"><ele>281.9</ele><time>2026-08-16T21:48:23Z</time></trkpt>
<trkpt lat="35.133981" lon="-84.957019"><ele>281.6</ele><time>2026-08-16T21:48:25Z</time></trkpt>
<trkpt lat="35.13401" lon="-84.957012"><ele>281.6</ele><time>2026-08-16T21:48:27Z</time></trkpt>
<trkpt lat="35.13404" lon="-84.957013"><ele>281.3</ele><time>2026-08-16T21:48:29Z</time></trkpt>
<trkpt lat="35.134068" lon="-84.957027"><ele>281.3</ele><time>2026-08-16T21:48:31Z</time></trkpt>
<trkpt lat="35.134097" lon="-84.957043"><ele>281.0</ele><time>2026-08-16T21:48:33Z</time></trkpt>
<trkpt lat="35.134125" lon="-84.957045"><ele>281.0</ele><time>2026-08-16T21:48:35Z</time></trkpt>
<trkpt lat="35.134153" lon="-84.957033"><ele>280.7</ele><time>2026-08-16T21:48:37Z</time></trkpt>
<trkpt lat="35.134172" lon="-84.957003"><ele>280.7</ele><time>2026-08-16T21:48:39Z</time></trkpt>
<trkpt lat="35.134181" lon="-84.956952"><ele>280.1</ele><time>2026-08-16T21:48:42Z</time></trkpt>
<trkpt lat="35.134181" lon="-84.956915"><ele>279.8</ele><time>2026-08-16T21:48:44Z</time></trkpt>
<trkpt lat="35.134175" lon="-84.956877"><ele>280.1</ele><time>2026-08-16T21:48:46Z</time></trkpt>
<trkpt lat="35.134165" lon="-84.956841"><ele>280.1</ele><time>2026-08-16T21:48:48Z</time></trkpt>
<trkpt lat="35.134151" lon="-84.956809"><ele>280.1</ele><time>2026-08-16T21:48:50Z</time></trkpt>
<trkpt lat="35.13413" lon="-84.956782"><ele>280.1</ele><time>2026-08-16T21:48:52Z</time></trkpt>
<trkpt lat="35.134114" lon="-84.956754"><ele>280.1</ele><time>2026-08-16T21:48:54Z</time></trkpt>
<trkpt lat="35.134098" lon="-84.956725"><ele>280.1</ele><time>2026-08-16T21:48:56Z</time></trkpt>
<trkpt lat="35.134085" lon="-84.956695"><ele>279.8</ele><time>2026-08-16T21:48:58Z</time></trkpt>
<trkpt lat="35.134082" lon="-84.956662"><ele>279.8</ele><time>2026-08-16T21:49:00Z</time></trkpt>
<trkpt lat="35.134098" lon="-84.956627"><ele>280.1</ele><time>2026-08-16T21:49:02Z</time></trkpt>
<trkpt lat="35.134116" lon="-84.956597"><ele>280.4</ele><time>2026-08-16T21:49:04Z</time></trkpt>
<trkpt lat="35.134093" lon="-84.956556"><ele>280.4</ele><time>2026-08-16T21:49:06Z</time></trkpt>
<trkpt lat="35.134073" lon="-84.956525"><ele>280.4</ele><time>2026-08-16T21:49:08Z</time></trkpt>
<trkpt lat="35.13406" lon="-84.956493"><ele>280.1</ele><time>2026-08-16T21:49:10Z</time></trkpt>
<trkpt lat="35.134058" lon="-84.956456"><ele>280.1</ele><time>2026-08-16T21:49:13Z</time></trkpt>
<trkpt lat="35.134078" lon="-84.956427"><ele>280.1</ele><time>2026-08-16T21:49:16Z</time></trkpt>
<trkpt lat="35.134109" lon="-84.95642"><ele>279.8</ele><time>2026-08-16T21:49:19Z</time></trkpt>
<trkpt lat="35.134109" lon="-84.956423"><ele>279.8</ele><time>2026-08-16T21:49:20Z</time></trkpt>
<trkpt lat="35.134109" lon="-84.956424"><ele>279.8</ele><time>2026-08-16T21:49:24Z</time></trkpt>
<trkpt lat="35.13411" lon="-84.956423"><ele>279.8</ele><time>2026-08-16T21:49:25Z</time></trkpt>
<trkpt lat="35.134144" lon="-84.956402"><ele>279.8</ele><time>2026-08-16T21:49:29Z</time></trkpt>
<trkpt lat="35.134171" lon="-84.95638"><ele>279.5</ele><time>2026-08-16T21:49:32Z</time></trkpt>
<trkpt lat="35.134194" lon="-84.956346"><ele>279.2</ele><time>2026-08-16T21:49:35Z</time></trkpt>
<trkpt lat="35.134193" lon="-84.956307"><ele>279.2</ele><time>2026-08-16T21:49:37Z</time></trkpt>
<trkpt lat="35.134171" lon="-84.956265"><ele>278.9</ele><time>2026-08-16T21:49:39Z</time></trkpt>
<trkpt lat="35.134151" lon="-84.956232"><ele>278.9</ele><time>2026-08-16T21:49:41Z</time></trkpt>
<trkpt lat="35.134133" lon="-84.956198"><ele>278.9</ele><time>2026-08-16T21:49:44Z</time></trkpt>
<trkpt lat="35.134109" lon="-84.956163"><ele>278.6</ele><time>2026-08-16T21:49:47Z</time></trkpt>
<trkpt lat="35.134084" lon="-84.956128"><ele>278.3</ele><time>2026-08-16T21:49:50Z</time></trkpt>
<trkpt lat="35.134075" lon="-84.956084"><ele>278.0</ele><time>2026-08-16T21:49:53Z</time></trkpt>
<trkpt lat="35.134092" lon="-84.956048"><ele>277.7</ele><time>2026-08-16T21:49:56Z</time></trkpt>
<trkpt lat="35.134114" lon="-84.956011"><ele>277.7</ele><time>2026-08-16T21:49:59Z</time></trkpt>
<trkpt lat="35.134142" lon="-84.955977"><ele>277.7</ele><time>2026-08-16T21:50:02Z</time></trkpt>
<trkpt lat="35.13417" lon="-84.955963"><ele>277.4</ele><time>2026-08-16T21:50:04Z</time></trkpt>
<trkpt lat="35.134198" lon="-84.955964"><ele>277.4</ele><time>2026-08-16T21:50:06Z</time></trkpt>
<trkpt lat="35.134227" lon="-84.95597"><ele>277.1</ele><time>2026-08-16T21:50:08Z</time></trkpt>
<trkpt lat="35.134267" lon="-84.955982"><ele>277.1</ele><time>2026-08-16T21:50:11Z</time></trkpt>
<trkpt lat="35.134306" lon="-84.955992"><ele>277.1</ele><time>2026-08-16T21:50:14Z</time></trkpt>
<trkpt lat="35.134346" lon="-84.956007"><ele>276.8</ele><time>2026-08-16T21:50:17Z</time></trkpt>
<trkpt lat="35.134373" lon="-84.956022"><ele>276.8</ele><time>2026-08-16T21:50:19Z</time></trkpt>
<trkpt lat="35.134403" lon="-84.956021"><ele>276.8</ele><time>2026-08-16T21:50:21Z</time></trkpt>
<trkpt lat="35.13443" lon="-84.956007"><ele>276.5</ele><time>2026-08-16T21:50:23Z</time></trkpt>
<trkpt lat="35.134455" lon="-84.955988"><ele>276.1</ele><time>2026-08-16T21:50:25Z</time></trkpt>
<trkpt lat="35.134478" lon="-84.955964"><ele>276.1</ele><time>2026-08-16T21:50:27Z</time></trkpt>
<trkpt lat="35.1345" lon="-84.95594"><ele>276.1</ele><time>2026-08-16T21:50:29Z</time></trkpt>
<trkpt lat="35.134517" lon="-84.95591"><ele>275.8</ele><time>2026-08-16T21:50:31Z</time></trkpt>
<trkpt lat="35.134531" lon="-84.955877"><ele>275.5</ele><time>2026-08-16T21:50:33Z</time></trkpt>
<trkpt lat="35.134533" lon="-84.955839"><ele>275.2</ele><time>2026-08-16T21:50:35Z</time></trkpt>
<trkpt lat="35.134527" lon="-84.955805"><ele>275.2</ele><time>2026-08-16T21:50:37Z</time></trkpt>
<trkpt lat="35.134512" lon="-84.955774"><ele>275.2</ele><time>2026-08-16T21:50:39Z</time></trkpt>
<trkpt lat="35.134494" lon="-84.955741"><ele>275.2</ele><time>2026-08-16T21:50:41Z</time></trkpt>
<trkpt lat="35.134476" lon="-84.955708"><ele>275.5</ele><time>2026-08-16T21:50:43Z</time></trkpt>
<trkpt lat="35.134456" lon="-84.95568"><ele>275.5</ele><time>2026-08-16T21:50:45Z</time></trkpt>
<trkpt lat="35.134437" lon="-84.955652"><ele>275.5</ele><time>2026-08-16T21:50:47Z</time></trkpt>
<trkpt lat="35.134416" lon="-84.955625"><ele>275.5</ele><time>2026-08-16T21:50:49Z</time></trkpt>
<trkpt lat="35.134406" lon="-84.955592"><ele>275.5</ele><time>2026-08-16T21:50:51Z</time></trkpt>
<trkpt lat="35.134401" lon="-84.955558"><ele>275.5</ele><time>2026-08-16T21:50:53Z</time></trkpt>
<trkpt lat="35.134391" lon="-84.955527"><ele>275.5</ele><time>2026-08-16T21:50:55Z</time></trkpt>
<trkpt lat="35.13438" lon="-84.955495"><ele>275.5</ele><time>2026-08-16T21:50:57Z</time></trkpt>
<trkpt lat="35.134369" lon="-84.955462"><ele>275.2</ele><time>2026-08-16T21:50:59Z</time></trkpt>
<trkpt lat="35.134362" lon="-84.955424"><ele>274.9</ele><time>2026-08-16T21:51:01Z</time></trkpt>
<trkpt lat="35.134362" lon="-84.955388"><ele>274.9</ele><time>2026-08-16T21:51:03Z</time></trkpt>
<trkpt lat="35.134375" lon="-84.955353"><ele>274.9</ele><time>2026-08-16T21:51:05Z</time></trkpt>
<trkpt lat="35.134395" lon="-84.955328"><ele>274.9</ele><time>2026-08-16T21:51:07Z</time></trkpt>
<trkpt lat="35.13442" lon="-84.955311"><ele>274.9</ele><time>2026-08-16T21:51:09Z</time></trkpt>
<trkpt lat="35.134452" lon="-84.95531"><ele>274.9</ele><time>2026-08-16T21:51:11Z</time></trkpt>
<trkpt lat="35.134483" lon="-84.955316"><ele>274.9</ele><time>2026-08-16T21:51:13Z</time></trkpt>
<trkpt lat="35.134515" lon="-84.955324"><ele>274.9</ele><time>2026-08-16T21:51:15Z</time></trkpt>
<trkpt lat="35.13455" lon="-84.955325"><ele>275.2</ele><time>2026-08-16T21:51:17Z</time></trkpt>
<trkpt lat="35.13458" lon="-84.955325"><ele>275.2</ele><time>2026-08-16T21:51:19Z</time></trkpt>
<trkpt lat="35.13461" lon="-84.955331"><ele>275.2</ele><time>2026-08-16T21:51:21Z</time></trkpt>
<trkpt lat="35.134639" lon="-84.955339"><ele>275.2</ele><time>2026-08-16T21:51:23Z</time></trkpt>
<trkpt lat="35.134667" lon="-84.95535"><ele>274.9</ele><time>2026-08-16T21:51:25Z</time></trkpt>
<trkpt lat="35.134695" lon="-84.955343"><ele>274.9</ele><time>2026-08-16T21:51:27Z</time></trkpt>
<trkpt lat="35.134711" lon="-84.955316"><ele>274.9</ele><time>2026-08-16T21:51:29Z</time></trkpt>
<trkpt lat="35.134716" lon="-84.955282"><ele>274.9</ele><time>2026-08-16T21:51:31Z</time></trkpt>
<trkpt lat="35.134729" lon="-84.955248"><ele>274.9</ele><time>2026-08-16T21:51:33Z</time></trkpt>
<trkpt lat="35.134747" lon="-84.955219"><ele>274.9</ele><time>2026-08-16T21:51:35Z</time></trkpt>
<trkpt lat="35.134776" lon="-84.955188"><ele>274.9</ele><time>2026-08-16T21:51:38Z</time></trkpt>
<trkpt lat="35.134802" lon="-84.955175"><ele>275.2</ele><time>2026-08-16T21:51:40Z</time></trkpt>
<trkpt lat="35.134831" lon="-84.955166"><ele>275.2</ele><time>2026-08-16T21:51:42Z</time></trkpt>
<trkpt lat="35.13486" lon="-84.955164"><ele>275.2</ele><time>2026-08-16T21:51:44Z</time></trkpt>
<trkpt lat="35.134887" lon="-84.95517"><ele>275.2</ele><time>2026-08-16T21:51:46Z</time></trkpt>
<trkpt lat="35.134916" lon="-84.955178"><ele>274.9</ele><time>2026-08-16T21:51:48Z</time></trkpt>
<trkpt lat="35.134943" lon="-84.955187"><ele>274.9</ele><time>2026-08-16T21:51:50Z</time></trkpt>
<trkpt lat="35.134959" lon="-84.955147"><ele>274.9</ele><time>2026-08-16T21:51:52Z</time></trkpt>
<trkpt lat="35.134926" lon="-84.955114"><ele>274.6</ele><time>2026-08-16T21:51:54Z</time></trkpt>
<trkpt lat="35.134891" lon="-84.955104"><ele>274.3</ele><time>2026-08-16T21:51:56Z</time></trkpt>
<trkpt lat="35.134857" lon="-84.955096"><ele>273.7</ele><time>2026-08-16T21:51:58Z</time></trkpt>
<trkpt lat="35.134826" lon="-84.955091"><ele>273.7</ele><time>2026-08-16T21:52:00Z</time></trkpt>
<trkpt lat="35.134795" lon="-84.955082"><ele>273.4</ele><time>2026-08-16T21:52:02Z</time></trkpt>
<trkpt lat="35.134764" lon="-84.955073"><ele>273.1</ele><time>2026-08-16T21:52:04Z</time></trkpt>
<trkpt lat="35.134734" lon="-84.955067"><ele>272.8</ele><time>2026-08-16T21:52:06Z</time></trkpt>
<trkpt lat="35.134702" lon="-84.955066"><ele>272.5</ele><time>2026-08-16T21:52:08Z</time></trkpt>
<trkpt lat="35.13467" lon="-84.955075"><ele>272.2</ele><time>2026-08-16T21:52:10Z</time></trkpt>
<trkpt lat="35.134641" lon="-84.955086"><ele>272.2</ele><time>2026-08-16T21:52:12Z</time></trkpt>
<trkpt lat="35.134616" lon="-84.955109"><ele>271.9</ele><time>2026-08-16T21:52:14Z</time></trkpt>
<trkpt lat="35.134593" lon="-84.955132"><ele>271.6</ele><time>2026-08-16T21:52:16Z</time></trkpt>
<trkpt lat="35.134565" lon="-84.955149"><ele>271.6</ele><time>2026-08-16T21:52:18Z</time></trkpt>
<trkpt lat="35.134524" lon="-84.955148"><ele>271.6</ele><time>2026-08-16T21:52:20Z</time></trkpt>
<trkpt lat="35.134497" lon="-84.955127"><ele>271.3</ele><time>2026-08-16T21:52:22Z</time></trkpt>
<trkpt lat="35.134481" lon="-84.955097"><ele>271.0</ele><time>2026-08-16T21:52:24Z</time></trkpt>
<trkpt lat="35.13446" lon="-84.955069"><ele>270.7</ele><time>2026-08-16T21:52:26Z</time></trkpt>
<trkpt lat="35.134433" lon="-84.95505"><ele>270.7</ele><time>2026-08-16T21:52:28Z</time></trkpt>
<trkpt lat="35.134398" lon="-84.955023"><ele>270.4</ele><time>2026-08-16T21:52:31Z</time></trkpt>
<trkpt lat="35.134374" lon="-84.955003"><ele>270.4</ele><time>2026-08-16T21:52:33Z</time></trkpt>
<trkpt lat="35.134347" lon="-84.954988"><ele>270.1</ele><time>2026-08-16T21:52:35Z</time></trkpt>
<trkpt lat="35.134323" lon="-84.954965"><ele>269.7</ele><time>2026-08-16T21:52:37Z</time></trkpt>
<trkpt lat="35.134325" lon="-84.954925"><ele>269.4</ele><time>2026-08-16T21:52:39Z</time></trkpt>
<trkpt lat="35.134354" lon="-84.954918"><ele>269.1</ele><time>2026-08-16T21:52:41Z</time></trkpt>
<trkpt lat="35.134382" lon="-84.954922"><ele>269.1</ele><time>2026-08-16T21:52:43Z</time></trkpt>
<trkpt lat="35.134411" lon="-84.95493"><ele>269.1</ele><time>2026-08-16T21:52:45Z</time></trkpt>
<trkpt lat="35.13444" lon="-84.954936"><ele>268.8</ele><time>2026-08-16T21:52:47Z</time></trkpt>
<trkpt lat="35.134468" lon="-84.954935"><ele>268.8</ele><time>2026-08-16T21:52:49Z</time></trkpt>
<trkpt lat="35.134496" lon="-84.954934"><ele>268.5</ele><time>2026-08-16T21:52:51Z</time></trkpt>
<trkpt lat="35.134524" lon="-84.954937"><ele>267.9</ele><time>2026-08-16T21:52:53Z</time></trkpt>
<trkpt lat="35.134551" lon="-84.954934"><ele>267.9</ele><time>2026-08-16T21:52:55Z</time></trkpt>
<trkpt lat="35.134593" lon="-84.954934"><ele>267.6</ele><time>2026-08-16T21:52:58Z</time></trkpt>
<trkpt lat="35.134623" lon="-84.954934"><ele>267.6</ele><time>2026-08-16T21:53:00Z</time></trkpt>
<trkpt lat="35.134662" lon="-84.954934"><ele>267.6</ele><time>2026-08-16T21:53:03Z</time></trkpt>
<trkpt lat="35.134702" lon="-84.954927"><ele>267.3</ele><time>2026-08-16T21:53:06Z</time></trkpt>
<trkpt lat="35.134729" lon="-84.954921"><ele>267.6</ele><time>2026-08-16T21:53:08Z</time></trkpt>
<trkpt lat="35.134757" lon="-84.954917"><ele>267.6</ele><time>2026-08-16T21:53:10Z</time></trkpt>
<trkpt lat="35.134783" lon="-84.954907"><ele>267.6</ele><time>2026-08-16T21:53:12Z</time></trkpt>
<trkpt lat="35.134811" lon="-84.954897"><ele>267.3</ele><time>2026-08-16T21:53:14Z</time></trkpt>
<trkpt lat="35.134838" lon="-84.954886"><ele>267.3</ele><time>2026-08-16T21:53:16Z</time></trkpt>
<trkpt lat="35.134868" lon="-84.954886"><ele>267.6</ele><time>2026-08-16T21:53:18Z</time></trkpt>
<trkpt lat="35.134896" lon="-84.954876"><ele>267.6</ele><time>2026-08-16T21:53:20Z</time></trkpt>
<trkpt lat="35.134934" lon="-84.95488"><ele>267.6</ele><time>2026-08-16T21:53:23Z</time></trkpt>
<trkpt lat="35.134962" lon="-84.954885"><ele>267.6</ele><time>2026-08-16T21:53:25Z</time></trkpt>
<trkpt lat="35.134988" lon="-84.954901"><ele>267.9</ele><time>2026-08-16T21:53:27Z</time></trkpt>
<trkpt lat="35.135015" lon="-84.954917"><ele>267.9</ele><time>2026-08-16T21:53:29Z</time></trkpt>
<trkpt lat="35.135048" lon="-84.954946"><ele>267.9</ele><time>2026-08-16T21:53:32Z</time></trkpt>
<trkpt lat="35.135087" lon="-84.954951"><ele>267.9</ele><time>2026-08-16T21:53:35Z</time></trkpt>
<trkpt lat="35.135123" lon="-84.954977"><ele>268.2</ele><time>2026-08-16T21:53:38Z</time></trkpt>
<trkpt lat="35.135149" lon="-84.954993"><ele>268.2</ele><time>2026-08-16T21:53:40Z</time></trkpt>
<trkpt lat="35.135174" lon="-84.955012"><ele>268.5</ele><time>2026-08-16T21:53:42Z</time></trkpt>
<trkpt lat="35.135195" lon="-84.955038"><ele>268.5</ele><time>2026-08-16T21:53:44Z</time></trkpt>
<trkpt lat="35.135217" lon="-84.955062"><ele>268.8</ele><time>2026-08-16T21:53:46Z</time></trkpt>
<trkpt lat="35.135239" lon="-84.955084"><ele>268.8</ele><time>2026-08-16T21:53:48Z</time></trkpt>
<trkpt lat="35.135278" lon="-84.955097"><ele>269.1</ele><time>2026-08-16T21:53:51Z</time></trkpt>
<trkpt lat="35.135305" lon="-84.955076"><ele>269.1</ele><time>2026-08-16T21:53:53Z</time></trkpt>
<trkpt lat="35.135322" lon="-84.955041"><ele>269.1</ele><time>2026-08-16T21:53:55Z</time></trkpt>
<trkpt lat="35.135335" lon="-84.95501"><ele>268.8</ele><time>2026-08-16T21:53:57Z</time></trkpt>
<trkpt lat="35.135349" lon="-84.954975"><ele>268.5</ele><time>2026-08-16T21:53:59Z</time></trkpt>
<trkpt lat="35.135378" lon="-84.954961"><ele>268.5</ele><time>2026-08-16T21:54:01Z</time></trkpt>
<trkpt lat="35.135407" lon="-84.954966"><ele>268.5</ele><time>2026-08-16T21:54:03Z</time></trkpt>
<trkpt lat="35.135435" lon="-84.95497"><ele>268.5</ele><time>2026-08-16T21:54:05Z</time></trkpt>
<trkpt lat="35.135463" lon="-84.954978"><ele>268.2</ele><time>2026-08-16T21:54:07Z</time></trkpt>
<trkpt lat="35.13549" lon="-84.954982"><ele>268.2</ele><time>2026-08-16T21:54:09Z</time></trkpt>
<trkpt lat="35.135529" lon="-84.955005"><ele>268.2</ele><time>2026-08-16T21:54:12Z</time></trkpt>
<trkpt lat="35.135551" lon="-84.954983"><ele>267.9</ele><time>2026-08-16T21:54:14Z</time></trkpt>
<trkpt lat="35.135574" lon="-84.954942"><ele>267.9</ele><time>2026-08-16T21:54:16Z</time></trkpt>
<trkpt lat="35.135587" lon="-84.954905"><ele>267.9</ele><time>2026-08-16T21:54:18Z</time></trkpt>
<trkpt lat="35.135613" lon="-84.954876"><ele>267.9</ele><time>2026-08-16T21:54:21Z</time></trkpt>
<trkpt lat="35.135646" lon="-84.954845"><ele>267.9</ele><time>2026-08-16T21:54:24Z</time></trkpt>
<trkpt lat="35.13566" lon="-84.95481"><ele>267.9</ele><time>2026-08-16T21:54:27Z</time></trkpt>
<trkpt lat="35.135636" lon="-84.954824"><ele>268.2</ele><time>2026-08-16T21:54:28Z</time></trkpt>
<trkpt lat="35.135619" lon="-84.954836"><ele>268.2</ele><time>2026-08-16T21:54:29Z</time></trkpt>
<trkpt lat="35.13562" lon="-84.954822"><ele>268.2</ele><time>2026-08-16T21:54:30Z</time></trkpt>
<trkpt lat="35.135627" lon="-84.954778"><ele>268.2</ele><time>2026-08-16T21:54:33Z</time></trkpt>
<trkpt lat="35.135634" lon="-84.954747"><ele>268.2</ele><time>2026-08-16T21:54:36Z</time></trkpt>
<trkpt lat="35.135635" lon="-84.954746"><ele>268.2</ele><time>2026-08-16T21:54:37Z</time></trkpt>
<trkpt lat="35.135636" lon="-84.954745"><ele>267.9</ele><time>2026-08-16T21:54:44Z</time></trkpt>
<trkpt lat="35.135637" lon="-84.954738"><ele>267.9</ele><time>2026-08-16T21:54:45Z</time></trkpt>
<trkpt lat="35.135648" lon="-84.954705"><ele>267.9</ele><time>2026-08-16T21:54:47Z</time></trkpt>
<trkpt lat="35.135673" lon="-84.954677"><ele>267.9</ele><time>2026-08-16T21:54:49Z</time></trkpt>
<trkpt lat="35.135712" lon="-84.954665"><ele>267.6</ele><time>2026-08-16T21:54:51Z</time></trkpt>
<trkpt lat="35.135742" lon="-84.954672"><ele>267.6</ele><time>2026-08-16T21:54:53Z</time></trkpt>
<trkpt lat="35.135774" lon="-84.954698"><ele>267.9</ele><time>2026-08-16T21:54:56Z</time></trkpt>
<trkpt lat="35.135811" lon="-84.954692"><ele>267.9</ele><time>2026-08-16T21:54:59Z</time></trkpt>
<trkpt lat="35.135814" lon="-84.954647"><ele>268.8</ele><time>2026-08-16T21:55:02Z</time></trkpt>
<trkpt lat="35.135788" lon="-84.954613"><ele>269.4</ele><time>2026-08-16T21:55:05Z</time></trkpt>
<trkpt lat="35.135754" lon="-84.954608"><ele>269.7</ele><time>2026-08-16T21:55:08Z</time></trkpt>
<trkpt lat="35.135741" lon="-84.954572"><ele>270.1</ele><time>2026-08-16T21:55:10Z</time></trkpt>
<trkpt lat="35.135724" lon="-84.954542"><ele>270.4</ele><time>2026-08-16T21:55:12Z</time></trkpt>
<trkpt lat="35.135695" lon="-84.954513"><ele>270.4</ele><time>2026-08-16T21:55:15Z</time></trkpt>
<trkpt lat="35.135656" lon="-84.9545"><ele>270.7</ele><time>2026-08-16T21:55:18Z</time></trkpt>
<trkpt lat="35.135625" lon="-84.954492"><ele>270.7</ele><time>2026-08-16T21:55:20Z</time></trkpt>
<trkpt lat="35.1356" lon="-84.954478"><ele>270.7</ele><time>2026-08-16T21:55:22Z</time></trkpt>
<trkpt lat="35.135578" lon="-84.954452"><ele>270.7</ele><time>2026-08-16T21:55:24Z</time></trkpt>
<trkpt lat="35.135557" lon="-84.954426"><ele>270.7</ele><time>2026-08-16T21:55:26Z</time></trkpt>
<trkpt lat="35.13553" lon="-84.954411"><ele>270.7</ele><time>2026-08-16T21:55:28Z</time></trkpt>
<trkpt lat="35.135503" lon="-84.954394"><ele>270.7</ele><time>2026-08-16T21:55:30Z</time></trkpt>
<trkpt lat="35.135472" lon="-84.954365"><ele>271.0</ele><time>2026-08-16T21:55:33Z</time></trkpt>
<trkpt lat="35.135454" lon="-84.954326"><ele>271.3</ele><time>2026-08-16T21:55:36Z</time></trkpt>
<trkpt lat="35.13546" lon="-84.954284"><ele>271.3</ele><time>2026-08-16T21:55:39Z</time></trkpt>
<trkpt lat="35.135492" lon="-84.954284"><ele>271.6</ele><time>2026-08-16T21:55:41Z</time></trkpt>
<trkpt lat="35.13552" lon="-84.954302"><ele>271.6</ele><time>2026-08-16T21:55:43Z</time></trkpt>
<trkpt lat="35.135546" lon="-84.954322"><ele>271.9</ele><time>2026-08-16T21:55:45Z</time></trkpt>
<trkpt lat="35.13558" lon="-84.954348"><ele>272.2</ele><time>2026-08-16T21:55:48Z</time></trkpt>
<trkpt lat="35.135602" lon="-84.954368"><ele>272.5</ele><time>2026-08-16T21:55:50Z</time></trkpt>
<trkpt lat="35.135622" lon="-84.954393"><ele>272.5</ele><time>2026-08-16T21:55:52Z</time></trkpt>
<trkpt lat="35.135645" lon="-84.954411"><ele>272.8</ele><time>2026-08-16T21:55:54Z</time></trkpt>
<trkpt lat="35.135674" lon="-84.95442"><ele>272.8</ele><time>2026-08-16T21:55:56Z</time></trkpt>
<trkpt lat="35.135701" lon="-84.954431"><ele>273.1</ele><time>2026-08-16T21:55:58Z</time></trkpt>
<trkpt lat="35.135727" lon="-84.954448"><ele>273.1</ele><time>2026-08-16T21:56:00Z</time></trkpt>
<trkpt lat="35.135753" lon="-84.95446"><ele>273.1</ele><time>2026-08-16T21:56:02Z</time></trkpt>
<trkpt lat="35.13579" lon="-84.954473"><ele>273.1</ele><time>2026-08-16T21:56:05Z</time></trkpt>
<trkpt lat="35.135815" lon="-84.954487"><ele>273.1</ele><time>2026-08-16T21:56:07Z</time></trkpt>
<trkpt lat="35.135856" lon="-84.95449"><ele>273.1</ele><time>2026-08-16T21:56:10Z</time></trkpt>
<trkpt lat="35.135892" lon="-84.954482"><ele>273.1</ele><time>2026-08-16T21:56:13Z</time></trkpt>
<trkpt lat="35.135919" lon="-84.954469"><ele>273.4</ele><time>2026-08-16T21:56:15Z</time></trkpt>
<trkpt lat="35.135944" lon="-84.954456"><ele>273.4</ele><time>2026-08-16T21:56:17Z</time></trkpt>
<trkpt lat="35.135979" lon="-84.954432"><ele>273.7</ele><time>2026-08-16T21:56:20Z</time></trkpt>
<trkpt lat="35.136009" lon="-84.954429"><ele>273.4</ele><time>2026-08-16T21:56:22Z</time></trkpt>
<trkpt lat="35.136035" lon="-84.954439"><ele>273.4</ele><time>2026-08-16T21:56:24Z</time></trkpt>
<trkpt lat="35.136057" lon="-84.954462"><ele>273.7</ele><time>2026-08-16T21:56:26Z</time></trkpt>
<trkpt lat="35.136078" lon="-84.954484"><ele>274.0</ele><time>2026-08-16T21:56:28Z</time></trkpt>
<trkpt lat="35.136107" lon="-84.954485"><ele>274.0</ele><time>2026-08-16T21:56:30Z</time></trkpt>
<trkpt lat="35.136137" lon="-84.954457"><ele>274.0</ele><time>2026-08-16T21:56:32Z</time></trkpt>
<trkpt lat="35.136156" lon="-84.954426"><ele>274.3</ele><time>2026-08-16T21:56:34Z</time></trkpt>
<trkpt lat="35.136157" lon="-84.954391"><ele>274.6</ele><time>2026-08-16T21:56:36Z</time></trkpt>
<trkpt lat="35.136147" lon="-84.954355"><ele>274.9</ele><time>2026-08-16T21:56:38Z</time></trkpt>
<trkpt lat="35.136127" lon="-84.954328"><ele>274.9</ele><time>2026-08-16T21:56:40Z</time></trkpt>
<trkpt lat="35.136113" lon="-84.954297"><ele>274.9</ele><time>2026-08-16T21:56:42Z</time></trkpt>
<trkpt lat="35.136092" lon="-84.954273"><ele>274.9</ele><time>2026-08-16T21:56:44Z</time></trkpt>
<trkpt lat="35.136063" lon="-84.954264"><ele>274.6</ele><time>2026-08-16T21:56:46Z</time></trkpt>
<trkpt lat="35.136035" lon="-84.954262"><ele>274.6</ele><time>2026-08-16T21:56:48Z</time></trkpt>
<trkpt lat="35.136006" lon="-84.954258"><ele>274.9</ele><time>2026-08-16T21:56:50Z</time></trkpt>
<trkpt lat="35.135976" lon="-84.954254"><ele>274.9</ele><time>2026-08-16T21:56:52Z</time></trkpt>
<trkpt lat="35.135948" lon="-84.954241"><ele>275.2</ele><time>2026-08-16T21:56:54Z</time></trkpt>
<trkpt lat="35.135922" lon="-84.954228"><ele>275.2</ele><time>2026-08-16T21:56:56Z</time></trkpt>
<trkpt lat="35.135894" lon="-84.954222"><ele>275.2</ele><time>2026-08-16T21:56:58Z</time></trkpt>
<trkpt lat="35.135866" lon="-84.954221"><ele>275.2</ele><time>2026-08-16T21:57:00Z</time></trkpt>
<trkpt lat="35.135837" lon="-84.954213"><ele>275.2</ele><time>2026-08-16T21:57:02Z</time></trkpt>
<trkpt lat="35.135809" lon="-84.954205"><ele>274.9</ele><time>2026-08-16T21:57:04Z</time></trkpt>
<trkpt lat="35.135779" lon="-84.954196"><ele>274.9</ele><time>2026-08-16T21:57:06Z</time></trkpt>
<trkpt lat="35.13575" lon="-84.954193"><ele>274.6</ele><time>2026-08-16T21:57:08Z</time></trkpt>
<trkpt lat="35.135721" lon="-84.954185"><ele>274.3</ele><time>2026-08-16T21:57:10Z</time></trkpt>
<trkpt lat="35.135691" lon="-84.954177"><ele>274.0</ele><time>2026-08-16T21:57:12Z</time></trkpt>
<trkpt lat="35.135662" lon="-84.95416"><ele>273.7</ele><time>2026-08-16T21:57:14Z</time></trkpt>
<trkpt lat="35.135637" lon="-84.954137"><ele>273.4</ele><time>2026-08-16T21:57:16Z</time></trkpt>
<trkpt lat="35.135607" lon="-84.954125"><ele>273.4</ele><time>2026-08-16T21:57:18Z</time></trkpt>
<trkpt lat="35.135579" lon="-84.954111"><ele>273.1</ele><time>2026-08-16T21:57:20Z</time></trkpt>
<trkpt lat="35.135548" lon="-84.9541"><ele>272.8</ele><time>2026-08-16T21:57:22Z</time></trkpt>
<trkpt lat="35.135519" lon="-84.954092"><ele>272.5</ele><time>2026-08-16T21:57:24Z</time></trkpt>
<trkpt lat="35.135489" lon="-84.954083"><ele>272.2</ele><time>2026-08-16T21:57:26Z</time></trkpt>
<trkpt lat="35.135458" lon="-84.95408"><ele>272.2</ele><time>2026-08-16T21:57:28Z</time></trkpt>
<trkpt lat="35.135429" lon="-84.954079"><ele>271.9</ele><time>2026-08-16T21:57:30Z</time></trkpt>
<trkpt lat="35.135399" lon="-84.954078"><ele>271.9</ele><time>2026-08-16T21:57:32Z</time></trkpt>
<trkpt lat="35.135358" lon="-84.954073"><ele>271.9</ele><time>2026-08-16T21:57:35Z</time></trkpt>
<trkpt lat="35.135339" lon="-84.954039"><ele>272.2</ele><time>2026-08-16T21:57:39Z</time></trkpt>
<trkpt lat="35.13534" lon="-84.954031"><ele>272.2</ele><time>2026-08-16T21:57:40Z</time></trkpt>
<trkpt lat="35.135341" lon="-84.954027"><ele>271.9</ele><time>2026-08-16T21:57:49Z</time></trkpt>
<trkpt lat="35.135339" lon="-84.954024"><ele>271.9</ele><time>2026-08-16T21:57:50Z</time></trkpt>
<trkpt lat="35.135336" lon="-84.953997"><ele>271.9</ele><time>2026-08-16T21:57:54Z</time></trkpt>
<trkpt lat="35.135338" lon="-84.953997"><ele>271.9</ele><time>2026-08-16T21:57:55Z</time></trkpt>
<trkpt lat="35.135339" lon="-84.953996"><ele>272.2</ele><time>2026-08-16T21:58:05Z</time></trkpt>
<trkpt lat="35.135342" lon="-84.953992"><ele>272.2</ele><time>2026-08-16T21:58:06Z</time></trkpt>
<trkpt lat="35.135366" lon="-84.953964"><ele>272.2</ele><time>2026-08-16T21:58:09Z</time></trkpt>
<trkpt lat="35.13539" lon="-84.953937"><ele>272.2</ele><time>2026-08-16T21:58:11Z</time></trkpt>
<trkpt lat="35.135422" lon="-84.953908"><ele>272.2</ele><time>2026-08-16T21:58:13Z</time></trkpt>
<trkpt lat="35.135449" lon="-84.953887"><ele>272.2</ele><time>2026-08-16T21:58:15Z</time></trkpt>
<trkpt lat="35.135479" lon="-84.95387"><ele>272.2</ele><time>2026-08-16T21:58:17Z</time></trkpt>
<trkpt lat="35.135503" lon="-84.953852"><ele>272.2</ele><time>2026-08-16T21:58:19Z</time></trkpt>
<trkpt lat="35.135535" lon="-84.953859"><ele>272.5</ele><time>2026-08-16T21:58:22Z</time></trkpt>
<trkpt lat="35.135562" lon="-84.953869"><ele>272.5</ele><time>2026-08-16T21:58:24Z</time></trkpt>
<trkpt lat="35.135594" lon="-84.953867"><ele>272.8</ele><time>2026-08-16T21:58:26Z</time></trkpt>
<trkpt lat="35.135636" lon="-84.953858"><ele>272.8</ele><time>2026-08-16T21:58:29Z</time></trkpt>
<trkpt lat="35.13567" lon="-84.95387"><ele>273.1</ele><time>2026-08-16T21:58:32Z</time></trkpt>
<trkpt lat="35.135708" lon="-84.953885"><ele>273.1</ele><time>2026-08-16T21:58:35Z</time></trkpt>
<trkpt lat="35.135736" lon="-84.953882"><ele>273.4</ele><time>2026-08-16T21:58:37Z</time></trkpt>
<trkpt lat="35.135765" lon="-84.953883"><ele>273.4</ele><time>2026-08-16T21:58:39Z</time></trkpt>
<trkpt lat="35.135793" lon="-84.953886"><ele>273.4</ele><time>2026-08-16T21:58:41Z</time></trkpt>
<trkpt lat="35.135835" lon="-84.953883"><ele>273.4</ele><time>2026-08-16T21:58:44Z</time></trkpt>
<trkpt lat="35.135864" lon="-84.95388"><ele>273.7</ele><time>2026-08-16T21:58:46Z</time></trkpt>
<trkpt lat="35.135891" lon="-84.953897"><ele>273.7</ele><time>2026-08-16T21:58:48Z</time></trkpt>
<trkpt lat="35.135915" lon="-84.953918"><ele>273.7</ele><time>2026-08-16T21:58:50Z</time></trkpt>
<trkpt lat="35.135948" lon="-84.953944"><ele>273.7</ele><time>2026-08-16T21:58:53Z</time></trkpt>
<trkpt lat="35.135985" lon="-84.953951"><ele>273.7</ele><time>2026-08-16T21:58:56Z</time></trkpt>
<trkpt lat="35.136027" lon="-84.953952"><ele>273.7</ele><time>2026-08-16T21:58:59Z</time></trkpt>
<trkpt lat="35.136057" lon="-84.953946"><ele>273.7</ele><time>2026-08-16T21:59:01Z</time></trkpt>
<trkpt lat="35.136067" lon="-84.953897"><ele>274.0</ele><time>2026-08-16T21:59:03Z</time></trkpt>
<trkpt lat="35.136077" lon="-84.953862"><ele>274.0</ele><time>2026-08-16T21:59:05Z</time></trkpt>
<trkpt lat="35.13609" lon="-84.953832"><ele>274.0</ele><time>2026-08-16T21:59:07Z</time></trkpt>
<trkpt lat="35.136109" lon="-84.953789"><ele>274.0</ele><time>2026-08-16T21:59:10Z</time></trkpt>
<trkpt lat="35.13613" lon="-84.953747"><ele>274.3</ele><time>2026-08-16T21:59:13Z</time></trkpt>
<trkpt lat="35.136133" lon="-84.953707"><ele>274.3</ele><time>2026-08-16T21:59:15Z</time></trkpt>
<trkpt lat="35.136109" lon="-84.953666"><ele>273.7</ele><time>2026-08-16T21:59:18Z</time></trkpt>
<trkpt lat="35.136085" lon="-84.953648"><ele>273.7</ele><time>2026-08-16T21:59:20Z</time></trkpt>
<trkpt lat="35.136058" lon="-84.953627"><ele>273.7</ele><time>2026-08-16T21:59:22Z</time></trkpt>
<trkpt lat="35.136037" lon="-84.953603"><ele>273.7</ele><time>2026-08-16T21:59:24Z</time></trkpt>
<trkpt lat="35.136013" lon="-84.953583"><ele>274.0</ele><time>2026-08-16T21:59:26Z</time></trkpt>
<trkpt lat="35.135988" lon="-84.953565"><ele>273.7</ele><time>2026-08-16T21:59:28Z</time></trkpt>
<trkpt lat="35.135969" lon="-84.953537"><ele>273.7</ele><time>2026-08-16T21:59:30Z</time></trkpt>
<trkpt lat="35.135954" lon="-84.953506"><ele>274.0</ele><time>2026-08-16T21:59:32Z</time></trkpt>
<trkpt lat="35.135946" lon="-84.953471"><ele>273.7</ele><time>2026-08-16T21:59:34Z</time></trkpt>
<trkpt lat="35.135951" lon="-84.953421"><ele>273.4</ele><time>2026-08-16T21:59:37Z</time></trkpt>
<trkpt lat="35.135962" lon="-84.953387"><ele>273.4</ele><time>2026-08-16T21:59:39Z</time></trkpt>
<trkpt lat="35.135996" lon="-84.953362"><ele>273.1</ele><time>2026-08-16T21:59:42Z</time></trkpt>
<trkpt lat="35.136036" lon="-84.953351"><ele>273.1</ele><time>2026-08-16T21:59:45Z</time></trkpt>
<trkpt lat="35.136065" lon="-84.953347"><ele>273.1</ele><time>2026-08-16T21:59:47Z</time></trkpt>
<trkpt lat="35.136093" lon="-84.953342"><ele>273.1</ele><time>2026-08-16T21:59:49Z</time></trkpt>
<trkpt lat="35.13612" lon="-84.953344"><ele>272.8</ele><time>2026-08-16T21:59:51Z</time></trkpt>
<trkpt lat="35.136152" lon="-84.953318"><ele>272.8</ele><time>2026-08-16T21:59:54Z</time></trkpt>
<trkpt lat="35.136177" lon="-84.953282"><ele>272.5</ele><time>2026-08-16T21:59:57Z</time></trkpt>
<trkpt lat="35.136185" lon="-84.95325"><ele>272.5</ele><time>2026-08-16T21:59:59Z</time></trkpt>
<trkpt lat="35.136186" lon="-84.953216"><ele>272.5</ele><time>2026-08-16T22:00:01Z</time></trkpt>
<trkpt lat="35.136172" lon="-84.953179"><ele>272.5</ele><time>2026-08-16T22:00:03Z</time></trkpt>
<trkpt lat="35.136149" lon="-84.953158"><ele>272.5</ele><time>2026-08-16T22:00:05Z</time></trkpt>
<trkpt lat="35.136124" lon="-84.953143"><ele>272.5</ele><time>2026-08-16T22:00:07Z</time></trkpt>
<trkpt lat="35.136105" lon="-84.953118"><ele>272.2</ele><time>2026-08-16T22:00:09Z</time></trkpt>
<trkpt lat="35.136081" lon="-84.953094"><ele>272.2</ele><time>2026-08-16T22:00:11Z</time></trkpt>
<trkpt lat="35.136058" lon="-84.953071"><ele>272.5</ele><time>2026-08-16T22:00:13Z</time></trkpt>
<trkpt lat="35.136046" lon="-84.953034"><ele>272.8</ele><time>2026-08-16T22:00:15Z</time></trkpt>
<trkpt lat="35.136034" lon="-84.952985"><ele>272.8</ele><time>2026-08-16T22:00:18Z</time></trkpt>
<trkpt lat="35.136037" lon="-84.952935"><ele>273.1</ele><time>2026-08-16T22:00:21Z</time></trkpt>
<trkpt lat="35.136058" lon="-84.952894"><ele>273.1</ele><time>2026-08-16T22:00:24Z</time></trkpt>
<trkpt lat="35.136077" lon="-84.952869"><ele>273.4</ele><time>2026-08-16T22:00:26Z</time></trkpt>
<trkpt lat="35.136101" lon="-84.95285"><ele>273.4</ele><time>2026-08-16T22:00:28Z</time></trkpt>
<trkpt lat="35.136131" lon="-84.952842"><ele>273.7</ele><time>2026-08-16T22:00:30Z</time></trkpt>
<trkpt lat="35.13616" lon="-84.952835"><ele>273.7</ele><time>2026-08-16T22:00:32Z</time></trkpt>
<trkpt lat="35.136188" lon="-84.952827"><ele>273.7</ele><time>2026-08-16T22:00:34Z</time></trkpt>
<trkpt lat="35.136223" lon="-84.952804"><ele>273.7</ele><time>2026-08-16T22:00:37Z</time></trkpt>
<trkpt lat="35.136253" lon="-84.952769"><ele>274.0</ele><time>2026-08-16T22:00:40Z</time></trkpt>
<trkpt lat="35.136279" lon="-84.952752"><ele>274.0</ele><time>2026-08-16T22:00:42Z</time></trkpt>
<trkpt lat="35.136305" lon="-84.95274"><ele>274.0</ele><time>2026-08-16T22:00:44Z</time></trkpt>
<trkpt lat="35.136345" lon="-84.952732"><ele>274.0</ele><time>2026-08-16T22:00:47Z</time></trkpt>
<trkpt lat="35.136374" lon="-84.95273"><ele>274.3</ele><time>2026-08-16T22:00:49Z</time></trkpt>
<trkpt lat="35.136404" lon="-84.952726"><ele>274.3</ele><time>2026-08-16T22:00:51Z</time></trkpt>
<trkpt lat="35.136431" lon="-84.952714"><ele>274.6</ele><time>2026-08-16T22:00:53Z</time></trkpt>
<trkpt lat="35.136458" lon="-84.952704"><ele>274.6</ele><time>2026-08-16T22:00:55Z</time></trkpt>
<trkpt lat="35.136488" lon="-84.952706"><ele>274.6</ele><time>2026-08-16T22:00:57Z</time></trkpt>
<trkpt lat="35.136517" lon="-84.952706"><ele>274.9</ele><time>2026-08-16T22:00:59Z</time></trkpt>
<trkpt lat="35.136546" lon="-84.952701"><ele>275.2</ele><time>2026-08-16T22:01:01Z</time></trkpt>
<trkpt lat="35.136573" lon="-84.952693"><ele>275.2</ele><time>2026-08-16T22:01:03Z</time></trkpt>
<trkpt lat="35.136598" lon="-84.952678"><ele>275.2</ele><time>2026-08-16T22:01:05Z</time></trkpt>
<trkpt lat="35.136618" lon="-84.952651"><ele>275.5</ele><time>2026-08-16T22:01:07Z</time></trkpt>
<trkpt lat="35.136632" lon="-84.952621"><ele>275.5</ele><time>2026-08-16T22:01:09Z</time></trkpt>
<trkpt lat="35.136654" lon="-84.95258"><ele>275.5</ele><time>2026-08-16T22:01:12Z</time></trkpt>
<trkpt lat="35.136673" lon="-84.952553"><ele>275.8</ele><time>2026-08-16T22:01:14Z</time></trkpt>
<trkpt lat="35.136699" lon="-84.952537"><ele>275.8</ele><time>2026-08-16T22:01:16Z</time></trkpt>
<trkpt lat="35.136725" lon="-84.952522"><ele>275.8</ele><time>2026-08-16T22:01:18Z</time></trkpt>
<trkpt lat="35.136759" lon="-84.952504"><ele>275.8</ele><time>2026-08-16T22:01:21Z</time></trkpt>
<trkpt lat="35.136787" lon="-84.952501"><ele>276.1</ele><time>2026-08-16T22:01:23Z</time></trkpt>
<trkpt lat="35.136814" lon="-84.952493"><ele>276.1</ele><time>2026-08-16T22:01:25Z</time></trkpt>
<trkpt lat="35.13685" lon="-84.952466"><ele>276.5</ele><time>2026-08-16T22:01:28Z</time></trkpt>
<trkpt lat="35.136888" lon="-84.952446"><ele>276.5</ele><time>2026-08-16T22:01:31Z</time></trkpt>
<trkpt lat="35.136913" lon="-84.95243"><ele>276.5</ele><time>2026-08-16T22:01:33Z</time></trkpt>
<trkpt lat="35.136938" lon="-84.952417"><ele>276.5</ele><time>2026-08-16T22:01:35Z</time></trkpt>
<trkpt lat="35.136961" lon="-84.952397"><ele>276.5</ele><time>2026-08-16T22:01:37Z</time></trkpt>
<trkpt lat="35.136985" lon="-84.952378"><ele>276.8</ele><time>2026-08-16T22:01:39Z</time></trkpt>
<trkpt lat="35.137015" lon="-84.952348"><ele>276.8</ele><time>2026-08-16T22:01:42Z</time></trkpt>
<trkpt lat="35.137036" lon="-84.952322"><ele>276.8</ele><time>2026-08-16T22:01:44Z</time></trkpt>
<trkpt lat="35.137053" lon="-84.952276"><ele>277.1</ele><time>2026-08-16T22:01:47Z</time></trkpt>
<trkpt lat="35.137072" lon="-84.952251"><ele>277.1</ele><time>2026-08-16T22:01:49Z</time></trkpt>
<trkpt lat="35.13711" lon="-84.952246"><ele>277.4</ele><time>2026-08-16T22:01:52Z</time></trkpt>
<trkpt lat="35.137137" lon="-84.952234"><ele>277.7</ele><time>2026-08-16T22:01:54Z</time></trkpt>
<trkpt lat="35.137177" lon="-84.95224"><ele>277.7</ele><time>2026-08-16T22:01:57Z</time></trkpt>
<trkpt lat="35.137186" lon="-84.952282"><ele>278.0</ele><time>2026-08-16T22:01:59Z</time></trkpt>
<trkpt lat="35.137186" lon="-84.952321"><ele>278.3</ele><time>2026-08-16T22:02:01Z</time></trkpt>
<trkpt lat="35.137185" lon="-84.952357"><ele>278.3</ele><time>2026-08-16T22:02:03Z</time></trkpt>
<trkpt lat="35.13718" lon="-84.952392"><ele>278.6</ele><time>2026-08-16T22:02:05Z</time></trkpt>
<trkpt lat="35.137175" lon="-84.952425"><ele>278.9</ele><time>2026-08-16T22:02:07Z</time></trkpt>
<trkpt lat="35.137166" lon="-84.95246"><ele>279.2</ele><time>2026-08-16T22:02:09Z</time></trkpt>
<trkpt lat="35.13716" lon="-84.952493"><ele>279.5</ele><time>2026-08-16T22:02:11Z</time></trkpt>
<trkpt lat="35.137146" lon="-84.952522"><ele>279.5</ele><time>2026-08-16T22:02:13Z</time></trkpt>
<trkpt lat="35.137135" lon="-84.952559"><ele>279.5</ele><time>2026-08-16T22:02:15Z</time></trkpt>
<trkpt lat="35.137119" lon="-84.952591"><ele>279.8</ele><time>2026-08-16T22:02:17Z</time></trkpt>
<trkpt lat="35.137092" lon="-84.952611"><ele>279.8</ele><time>2026-08-16T22:02:19Z</time></trkpt>
<trkpt lat="35.137065" lon="-84.952623"><ele>279.8</ele><time>2026-08-16T22:02:21Z</time></trkpt>
<trkpt lat="35.13704" lon="-84.95264"><ele>279.8</ele><time>2026-08-16T22:02:23Z</time></trkpt>
<trkpt lat="35.137014" lon="-84.952659"><ele>279.8</ele><time>2026-08-16T22:02:25Z</time></trkpt>
<trkpt lat="35.136993" lon="-84.952684"><ele>280.1</ele><time>2026-08-16T22:02:27Z</time></trkpt>
<trkpt lat="35.136975" lon="-84.952711"><ele>279.8</ele><time>2026-08-16T22:02:29Z</time></trkpt>
<trkpt lat="35.136968" lon="-84.952745"><ele>279.8</ele><time>2026-08-16T22:02:31Z</time></trkpt>
<trkpt lat="35.136976" lon="-84.952784"><ele>280.1</ele><time>2026-08-16T22:02:33Z</time></trkpt>
<trkpt lat="35.136971" lon="-84.952821"><ele>280.1</ele><time>2026-08-16T22:02:35Z</time></trkpt>
<trkpt lat="35.136963" lon="-84.952859"><ele>279.8</ele><time>2026-08-16T22:02:37Z</time></trkpt>
<trkpt lat="35.13697" lon="-84.952897"><ele>279.8</ele><time>2026-08-16T22:02:39Z</time></trkpt>
<trkpt lat="35.13698" lon="-84.952932"><ele>279.5</ele><time>2026-08-16T22:02:41Z</time></trkpt>
<trkpt lat="35.136944" lon="-84.95293"><ele>279.5</ele><time>2026-08-16T22:02:43Z</time></trkpt>
<trkpt lat="35.136934" lon="-84.952886"><ele>279.5</ele><time>2026-08-16T22:02:45Z</time></trkpt>
<trkpt lat="35.136943" lon="-84.952845"><ele>279.8</ele><time>2026-08-16T22:02:47Z</time></trkpt>
<trkpt lat="35.136954" lon="-84.952807"><ele>279.8</ele><time>2026-08-16T22:02:49Z</time></trkpt>
<trkpt lat="35.136962" lon="-84.952769"><ele>279.8</ele><time>2026-08-16T22:02:51Z</time></trkpt>
<trkpt lat="35.136957" lon="-84.952731"><ele>279.8</ele><time>2026-08-16T22:02:53Z</time></trkpt>
<trkpt lat="35.136967" lon="-84.952696"><ele>279.8</ele><time>2026-08-16T22:02:55Z</time></trkpt>
<trkpt lat="35.136989" lon="-84.95267"><ele>279.8</ele><time>2026-08-16T22:02:57Z</time></trkpt>
<trkpt lat="35.137012" lon="-84.952649"><ele>279.8</ele><time>2026-08-16T22:02:59Z</time></trkpt>
<trkpt lat="35.137037" lon="-84.952628"><ele>279.8</ele><time>2026-08-16T22:03:01Z</time></trkpt>
<trkpt lat="35.137061" lon="-84.952612"><ele>279.5</ele><time>2026-08-16T22:03:03Z</time></trkpt>
<trkpt lat="35.137089" lon="-84.952601"><ele>279.5</ele><time>2026-08-16T22:03:05Z</time></trkpt>
<trkpt lat="35.137114" lon="-84.952563"><ele>279.5</ele><time>2026-08-16T22:03:08Z</time></trkpt>
<trkpt lat="35.137134" lon="-84.952523"><ele>279.2</ele><time>2026-08-16T22:03:11Z</time></trkpt>
<trkpt lat="35.13714" lon="-84.952473"><ele>279.2</ele><time>2026-08-16T22:03:14Z</time></trkpt>
<trkpt lat="35.137141" lon="-84.952437"><ele>279.2</ele><time>2026-08-16T22:03:16Z</time></trkpt>
<trkpt lat="35.137141" lon="-84.952397"><ele>278.9</ele><time>2026-08-16T22:03:18Z</time></trkpt>
<trkpt lat="35.137144" lon="-84.952358"><ele>278.6</ele><time>2026-08-16T22:03:20Z</time></trkpt>
<trkpt lat="35.137143" lon="-84.95232"><ele>278.3</ele><time>2026-08-16T22:03:22Z</time></trkpt>
<trkpt lat="35.137137" lon="-84.952283"><ele>278.0</ele><time>2026-08-16T22:03:24Z</time></trkpt>
<trkpt lat="35.137117" lon="-84.95224"><ele>277.7</ele><time>2026-08-16T22:03:27Z</time></trkpt>
<trkpt lat="35.137102" lon="-84.952209"><ele>277.4</ele><time>2026-08-16T22:03:29Z</time></trkpt>
<trkpt lat="35.137092" lon="-84.952177"><ele>277.1</ele><time>2026-08-16T22:03:31Z</time></trkpt>
<trkpt lat="35.13708" lon="-84.952144"><ele>277.1</ele><time>2026-08-16T22:03:33Z</time></trkpt>
<trkpt lat="35.137094" lon="-84.9521"><ele>277.1</ele><time>2026-08-16T22:03:35Z</time></trkpt>
<trkpt lat="35.137111" lon="-84.952067"><ele>277.1</ele><time>2026-08-16T22:03:37Z</time></trkpt>
<trkpt lat="35.137121" lon="-84.952033"><ele>277.1</ele><time>2026-08-16T22:03:39Z</time></trkpt>
<trkpt lat="35.137123" lon="-84.951995"><ele>277.4</ele><time>2026-08-16T22:03:41Z</time></trkpt>
<trkpt lat="35.13713" lon="-84.951949"><ele>277.1</ele><time>2026-08-16T22:03:44Z</time></trkpt>
<trkpt lat="35.137138" lon="-84.951902"><ele>277.1</ele><time>2026-08-16T22:03:47Z</time></trkpt>
<trkpt lat="35.137161" lon="-84.951864"><ele>277.1</ele><time>2026-08-16T22:03:50Z</time></trkpt>
<trkpt lat="35.137184" lon="-84.951833"><ele>277.1</ele><time>2026-08-16T22:03:53Z</time></trkpt>
<trkpt lat="35.137205" lon="-84.9518"><ele>277.1</ele><time>2026-08-16T22:03:56Z</time></trkpt>
<trkpt lat="35.137225" lon="-84.951771"><ele>277.1</ele><time>2026-08-16T22:03:59Z</time></trkpt>
<trkpt lat="35.137244" lon="-84.951742"><ele>277.4</ele><time>2026-08-16T22:04:02Z</time></trkpt>
<trkpt lat="35.137255" lon="-84.951733"><ele>277.4</ele><time>2026-08-16T22:04:03Z</time></trkpt>
<trkpt lat="35.137257" lon="-84.951733"><ele>277.4</ele><time>2026-08-16T22:04:04Z</time></trkpt>
</trkseg></trk>
</gpx>
